<?xml version='1.0' encoding='UTF-8'?><gpx version="1.1" creator="JPX - https://github.com/jenetics/jpx" xmlns="http://www.topografix.com/GPX/1/1"><trk><trkseg><trkpt lat="44.1507901" lon="10.4124346"><ele>546.0</ele><time>2026-05-03T12:54:58.943Z</time></trkpt><trkpt lat="44.1508116" lon="10.4123048"><ele>546.0</ele><time>2026-05-03T12:54:59.999Z</time></trkpt><trkpt lat="44.1508258" lon="10.4122088"><ele>546.0</ele><time>2026-05-03T12:55:01Z</time></trkpt><trkpt lat="44.1508801" lon="10.4121077"><ele>546.0</ele><time>2026-05-03T12:55:02.996Z</time></trkpt><trkpt lat="44.150947" lon="10.412077"><ele>546.0</ele><time>2026-05-03T12:55:05Z</time></trkpt><trkpt lat="44.1510122" lon="10.4120695"><ele>546.0</ele><time>2026-05-03T12:55:06.999Z</time></trkpt><trkpt lat="44.1511029" lon="10.412063"><ele>543.5</ele><time>2026-05-03T12:55:09.997Z</time></trkpt><trkpt lat="44.1511313" lon="10.4119641"><ele>541.0</ele><time>2026-05-03T12:55:12.997Z</time></trkpt><trkpt lat="44.1510525" lon="10.4119008"><ele>538.5</ele><time>2026-05-03T12:55:15Z</time></trkpt><trkpt lat="44.1509726" lon="10.411843"><ele>536.0</ele><time>2026-05-03T12:55:17Z</time></trkpt><trkpt lat="44.1509501" lon="10.4117518"><ele>533.5</ele><time>2026-05-03T12:55:19.999Z</time></trkpt><trkpt lat="44.1510307" lon="10.4117328"><ele>531.0</ele><time>2026-05-03T12:55:22.998Z</time></trkpt><trkpt lat="44.1510944" lon="10.4117234"><ele>531.0</ele><time>2026-05-03T12:55:25Z</time></trkpt><trkpt lat="44.1511823" lon="10.4117129"><ele>531.0</ele><time>2026-05-03T12:55:28Z</time></trkpt><trkpt lat="44.1512667" lon="10.4116984"><ele>531.0</ele><time>2026-05-03T12:55:30.994Z</time></trkpt><trkpt lat="44.1513472" lon="10.4116715"><ele>531.0</ele><time>2026-05-03T12:55:33.997Z</time></trkpt><trkpt lat="44.1514273" lon="10.4116532"><ele>531.0</ele><time>2026-05-03T12:55:36.998Z</time></trkpt><trkpt lat="44.1515012" lon="10.4116537"><ele>531.0</ele><time>2026-05-03T12:55:39.997Z</time></trkpt><trkpt lat="44.1515804" lon="10.4116481"><ele>532.5</ele><time>2026-05-03T12:55:42.996Z</time></trkpt><trkpt lat="44.1516615" lon="10.4116322"><ele>534.0</ele><time>2026-05-03T12:55:46Z</time></trkpt><trkpt lat="44.1517445" lon="10.4116228"><ele>535.5</ele><time>2026-05-03T12:55:49Z</time></trkpt><trkpt lat="44.1518274" lon="10.4115875"><ele>537.0</ele><time>2026-05-03T12:55:52Z</time></trkpt><trkpt lat="44.1519076" lon="10.4115427"><ele>538.5</ele><time>2026-05-03T12:55:55Z</time></trkpt><trkpt lat="44.1519858" lon="10.4114902"><ele>540.0</ele><time>2026-05-03T12:55:58Z</time></trkpt><trkpt lat="44.1520553" lon="10.4114266"><ele>540.0</ele><time>2026-05-03T12:56:01Z</time></trkpt><trkpt lat="44.1521293" lon="10.4113769"><ele>540.0</ele><time>2026-05-03T12:56:03.997Z</time></trkpt><trkpt lat="44.1522039" lon="10.4113186"><ele>540.0</ele><time>2026-05-03T12:56:07Z</time></trkpt><trkpt lat="44.1522791" lon="10.4112685"><ele>540.0</ele><time>2026-05-03T12:56:10Z</time></trkpt><trkpt lat="44.1523562" lon="10.4112193"><ele>540.0</ele><time>2026-05-03T12:56:13Z</time></trkpt><trkpt lat="44.1524326" lon="10.4111755"><ele>540.0</ele><time>2026-05-03T12:56:16Z</time></trkpt><trkpt lat="44.1525095" lon="10.4111332"><ele>540.1666666666666</ele><time>2026-05-03T12:56:19Z</time></trkpt><trkpt lat="44.1525875" lon="10.4110942"><ele>540.3333333333334</ele><time>2026-05-03T12:56:21.999Z</time></trkpt><trkpt lat="44.1526664" lon="10.4110521"><ele>540.5</ele><time>2026-05-03T12:56:25Z</time></trkpt><trkpt lat="44.1527465" lon="10.4110268"><ele>540.6666666666667</ele><time>2026-05-03T12:56:27.999Z</time></trkpt><trkpt lat="44.1528267" lon="10.4110212"><ele>540.8333333333334</ele><time>2026-05-03T12:56:31Z</time></trkpt><trkpt lat="44.1529033" lon="10.4110373"><ele>541.0</ele><time>2026-05-03T12:56:33.999Z</time></trkpt><trkpt lat="44.152974" lon="10.4110844"><ele>541.0</ele><time>2026-05-03T12:56:37Z</time></trkpt><trkpt lat="44.1530452" lon="10.411126"><ele>541.0</ele><time>2026-05-03T12:56:39.999Z</time></trkpt><trkpt lat="44.1531194" lon="10.4111648"><ele>541.0</ele><time>2026-05-03T12:56:42.998Z</time></trkpt><trkpt lat="44.1531957" lon="10.4112018"><ele>541.0</ele><time>2026-05-03T12:56:46Z</time></trkpt><trkpt lat="44.1532713" lon="10.4112288"><ele>541.0</ele><time>2026-05-03T12:56:48.998Z</time></trkpt><trkpt lat="44.1533512" lon="10.4112508"><ele>541.0</ele><time>2026-05-03T12:56:51.999Z</time></trkpt><trkpt lat="44.1534323" lon="10.4112797"><ele>542.3333333333334</ele><time>2026-05-03T12:56:55Z</time></trkpt><trkpt lat="44.1535135" lon="10.4113026"><ele>543.6666666666667</ele><time>2026-05-03T12:56:58Z</time></trkpt><trkpt lat="44.1535908" lon="10.4113197"><ele>545.0</ele><time>2026-05-03T12:57:01Z</time></trkpt><trkpt lat="44.1536739" lon="10.4113178"><ele>546.3333333333334</ele><time>2026-05-03T12:57:04Z</time></trkpt><trkpt lat="44.1537663" lon="10.4113066"><ele>547.6666666666666</ele><time>2026-05-03T12:57:07Z</time></trkpt><trkpt lat="44.1538534" lon="10.4112827"><ele>549.0</ele><time>2026-05-03T12:57:09.998Z</time></trkpt><trkpt lat="44.1539333" lon="10.4112676"><ele>549.0</ele><time>2026-05-03T12:57:13Z</time></trkpt><trkpt lat="44.1540144" lon="10.4112433"><ele>549.0</ele><time>2026-05-03T12:57:16Z</time></trkpt><trkpt lat="44.154097" lon="10.4112278"><ele>549.0</ele><time>2026-05-03T12:57:18.999Z</time></trkpt><trkpt lat="44.1541776" lon="10.4112088"><ele>549.0</ele><time>2026-05-03T12:57:22Z</time></trkpt><trkpt lat="44.1542593" lon="10.411199"><ele>549.0</ele><time>2026-05-03T12:57:25Z</time></trkpt><trkpt lat="44.1543415" lon="10.4111874"><ele>549.0</ele><time>2026-05-03T12:57:27.999Z</time></trkpt><trkpt lat="44.1544249" lon="10.4111707"><ele>551.1666666666666</ele><time>2026-05-03T12:57:31Z</time></trkpt><trkpt lat="44.1545063" lon="10.411158"><ele>553.3333333333334</ele><time>2026-05-03T12:57:34Z</time></trkpt><trkpt lat="44.1545884" lon="10.4111576"><ele>555.5</ele><time>2026-05-03T12:57:37Z</time></trkpt><trkpt lat="44.154667" lon="10.4111496"><ele>557.6666666666667</ele><time>2026-05-03T12:57:39.999Z</time></trkpt><trkpt lat="44.1547479" lon="10.4111454"><ele>559.8333333333334</ele><time>2026-05-03T12:57:43Z</time></trkpt><trkpt lat="44.1548328" lon="10.4111372"><ele>562.0</ele><time>2026-05-03T12:57:45.999Z</time></trkpt><trkpt lat="44.1549132" lon="10.4111244"><ele>562.8333333333334</ele><time>2026-05-03T12:57:49Z</time></trkpt><trkpt lat="44.1549924" lon="10.4111132"><ele>563.6666666666667</ele><time>2026-05-03T12:57:52Z</time></trkpt><trkpt lat="44.155077" lon="10.4111039"><ele>564.5</ele><time>2026-05-03T12:57:55Z</time></trkpt><trkpt lat="44.1551577" lon="10.4111089"><ele>565.3333333333334</ele><time>2026-05-03T12:57:58Z</time></trkpt><trkpt lat="44.1552404" lon="10.4110984"><ele>566.1666666666666</ele><time>2026-05-03T12:58:01Z</time></trkpt><trkpt lat="44.1553245" lon="10.4110887"><ele>567.0</ele><time>2026-05-03T12:58:04Z</time></trkpt><trkpt lat="44.1554076" lon="10.4110735"><ele>567.0</ele><time>2026-05-03T12:58:07Z</time></trkpt><trkpt lat="44.15549" lon="10.4110525"><ele>567.0</ele><time>2026-05-03T12:58:09.998Z</time></trkpt><trkpt lat="44.1555716" lon="10.4110313"><ele>567.0</ele><time>2026-05-03T12:58:12.998Z</time></trkpt><trkpt lat="44.1556539" lon="10.4110086"><ele>567.0</ele><time>2026-05-03T12:58:16Z</time></trkpt><trkpt lat="44.1557356" lon="10.4109896"><ele>567.0</ele><time>2026-05-03T12:58:19Z</time></trkpt><trkpt lat="44.1558139" lon="10.410972"><ele>567.0</ele><time>2026-05-03T12:58:22Z</time></trkpt><trkpt lat="44.1558897" lon="10.4109383"><ele>568.1666666666666</ele><time>2026-05-03T12:58:25Z</time></trkpt><trkpt lat="44.1559756" lon="10.4109208"><ele>569.3333333333334</ele><time>2026-05-03T12:58:28Z</time></trkpt><trkpt lat="44.1560612" lon="10.4108985"><ele>570.5</ele><time>2026-05-03T12:58:30.999Z</time></trkpt><trkpt lat="44.1561438" lon="10.4108758"><ele>571.6666666666667</ele><time>2026-05-03T12:58:34Z</time></trkpt><trkpt lat="44.156225" lon="10.410846"><ele>572.8333333333334</ele><time>2026-05-03T12:58:37Z</time></trkpt><trkpt lat="44.1563061" lon="10.4108159"><ele>574.0</ele><time>2026-05-03T12:58:39.999Z</time></trkpt><trkpt lat="44.1563799" lon="10.4107821"><ele>574.0</ele><time>2026-05-03T12:58:42.999Z</time></trkpt><trkpt lat="44.1564522" lon="10.4107394"><ele>574.0</ele><time>2026-05-03T12:58:46Z</time></trkpt><trkpt lat="44.1565275" lon="10.4106973"><ele>574.0</ele><time>2026-05-03T12:58:49Z</time></trkpt><trkpt lat="44.1566049" lon="10.4106614"><ele>574.0</ele><time>2026-05-03T12:58:52Z</time></trkpt><trkpt lat="44.1566864" lon="10.4106313"><ele>574.0</ele><time>2026-05-03T12:58:55Z</time></trkpt><trkpt lat="44.1567677" lon="10.4106381"><ele>574.0</ele><time>2026-05-03T12:58:58Z</time></trkpt><trkpt lat="44.1568397" lon="10.4106742"><ele>575.8333333333334</ele><time>2026-05-03T12:59:01Z</time></trkpt><trkpt lat="44.1568572" lon="10.4107819"><ele>577.6666666666667</ele><time>2026-05-03T12:59:04Z</time></trkpt><trkpt lat="44.1568016" lon="10.4108722"><ele>579.5</ele><time>2026-05-03T12:59:07Z</time></trkpt><trkpt lat="44.156741" lon="10.4109539"><ele>581.3333333333334</ele><time>2026-05-03T12:59:10Z</time></trkpt><trkpt lat="44.15668" lon="10.4110378"><ele>583.1666666666666</ele><time>2026-05-03T12:59:13Z</time></trkpt><trkpt lat="44.1566194" lon="10.4111191"><ele>585.0</ele><time>2026-05-03T12:59:16Z</time></trkpt><trkpt lat="44.1565555" lon="10.4111958"><ele>583.1666666666666</ele><time>2026-05-03T12:59:19Z</time></trkpt><trkpt lat="44.156496" lon="10.411276"><ele>581.3333333333334</ele><time>2026-05-03T12:59:22Z</time></trkpt><trkpt lat="44.1564327" lon="10.411351"><ele>579.5</ele><time>2026-05-03T12:59:25Z</time></trkpt><trkpt lat="44.1563749" lon="10.41143"><ele>577.6666666666667</ele><time>2026-05-03T12:59:27.999Z</time></trkpt><trkpt lat="44.1563204" lon="10.4115101"><ele>575.8333333333334</ele><time>2026-05-03T12:59:31Z</time></trkpt><trkpt lat="44.1562646" lon="10.4115868"><ele>574.0</ele><time>2026-05-03T12:59:34Z</time></trkpt><trkpt lat="44.1562005" lon="10.4116598"><ele>578.3333333333334</ele><time>2026-05-03T12:59:37Z</time></trkpt><trkpt lat="44.1561381" lon="10.4117343"><ele>582.6666666666667</ele><time>2026-05-03T12:59:39.999Z</time></trkpt><trkpt lat="44.1560772" lon="10.4117999"><ele>587.0</ele><time>2026-05-03T12:59:43Z</time></trkpt><trkpt lat="44.1560123" lon="10.4118495"><ele>591.3333333333334</ele><time>2026-05-03T12:59:46Z</time></trkpt><trkpt lat="44.1559411" lon="10.411875"><ele>595.6666666666666</ele><time>2026-05-03T12:59:48.999Z</time></trkpt><trkpt lat="44.1558634" lon="10.4118895"><ele>600.0</ele><time>2026-05-03T12:59:52Z</time></trkpt><trkpt lat="44.1557812" lon="10.4119076"><ele>598.1666666666666</ele><time>2026-05-03T12:59:55Z</time></trkpt><trkpt lat="44.1557011" lon="10.4119176"><ele>596.3333333333334</ele><time>2026-05-03T12:59:58Z</time></trkpt><trkpt lat="44.1556145" lon="10.4119262"><ele>594.5</ele><time>2026-05-03T13:00:01Z</time></trkpt><trkpt lat="44.1555304" lon="10.4119127"><ele>592.6666666666667</ele><time>2026-05-03T13:00:04Z</time></trkpt><trkpt lat="44.1554497" lon="10.4119022"><ele>590.8333333333334</ele><time>2026-05-03T13:00:07Z</time></trkpt><trkpt lat="44.1553653" lon="10.4119008"><ele>589.0</ele><time>2026-05-03T13:00:09.999Z</time></trkpt><trkpt lat="44.1552818" lon="10.4119044"><ele>589.0</ele><time>2026-05-03T13:00:12.999Z</time></trkpt><trkpt lat="44.1552012" lon="10.4119068"><ele>589.0</ele><time>2026-05-03T13:00:15.999Z</time></trkpt><trkpt lat="44.1551211" lon="10.4119198"><ele>589.0</ele><time>2026-05-03T13:00:19Z</time></trkpt><trkpt lat="44.1550427" lon="10.4119478"><ele>589.0</ele><time>2026-05-03T13:00:22Z</time></trkpt><trkpt lat="44.1549738" lon="10.4119892"><ele>589.0</ele><time>2026-05-03T13:00:25Z</time></trkpt><trkpt lat="44.1549054" lon="10.4120542"><ele>589.0</ele><time>2026-05-03T13:00:28Z</time></trkpt><trkpt lat="44.1548434" lon="10.4121383"><ele>589.5</ele><time>2026-05-03T13:00:31Z</time></trkpt><trkpt lat="44.1547899" lon="10.412219"><ele>590.0</ele><time>2026-05-03T13:00:33.999Z</time></trkpt><trkpt lat="44.1547411" lon="10.4123019"><ele>590.5</ele><time>2026-05-03T13:00:37Z</time></trkpt><trkpt lat="44.1546883" lon="10.4123752"><ele>591.0</ele><time>2026-05-03T13:00:40Z</time></trkpt><trkpt lat="44.1546353" lon="10.4124761"><ele>591.5</ele><time>2026-05-03T13:00:42.997Z</time></trkpt><trkpt lat="44.1545726" lon="10.4125626"><ele>592.0</ele><time>2026-05-03T13:00:45.999Z</time></trkpt><trkpt lat="44.1545136" lon="10.4126483"><ele>592.0</ele><time>2026-05-03T13:00:48.999Z</time></trkpt><trkpt lat="44.1544597" lon="10.4127376"><ele>592.0</ele><time>2026-05-03T13:00:52Z</time></trkpt><trkpt lat="44.1544119" lon="10.4128227"><ele>592.0</ele><time>2026-05-03T13:00:55Z</time></trkpt><trkpt lat="44.1543586" lon="10.4129168"><ele>592.0</ele><time>2026-05-03T13:00:58Z</time></trkpt><trkpt lat="44.1543201" lon="10.4130231"><ele>592.0</ele><time>2026-05-03T13:01:01Z</time></trkpt><trkpt lat="44.1542985" lon="10.4131396"><ele>592.0</ele><time>2026-05-03T13:01:04Z</time></trkpt><trkpt lat="44.1542805" lon="10.4132514"><ele>595.3333333333334</ele><time>2026-05-03T13:01:07Z</time></trkpt><trkpt lat="44.1542719" lon="10.4133614"><ele>598.6666666666667</ele><time>2026-05-03T13:01:10Z</time></trkpt><trkpt lat="44.15426" lon="10.4134772"><ele>602.0</ele><time>2026-05-03T13:01:12.999Z</time></trkpt><trkpt lat="44.1542471" lon="10.4136022"><ele>605.3333333333334</ele><time>2026-05-03T13:01:15.999Z</time></trkpt><trkpt lat="44.1542312" lon="10.4136891"><ele>608.6666666666666</ele><time>2026-05-03T13:01:17.997Z</time></trkpt><trkpt lat="44.1542023" lon="10.4137952"><ele>612.0</ele><time>2026-05-03T13:01:21Z</time></trkpt><trkpt lat="44.1541517" lon="10.4138817"><ele>611.1666666666666</ele><time>2026-05-03T13:01:24Z</time></trkpt><trkpt lat="44.1540923" lon="10.4139622"><ele>610.3333333333334</ele><time>2026-05-03T13:01:27Z</time></trkpt><trkpt lat="44.1540264" lon="10.4140307"><ele>609.5</ele><time>2026-05-03T13:01:30Z</time></trkpt><trkpt lat="44.1539615" lon="10.4140935"><ele>608.6666666666667</ele><time>2026-05-03T13:01:33Z</time></trkpt><trkpt lat="44.1538921" lon="10.414168"><ele>607.8333333333334</ele><time>2026-05-03T13:01:36Z</time></trkpt><trkpt lat="44.1538228" lon="10.4142462"><ele>607.0</ele><time>2026-05-03T13:01:39Z</time></trkpt><trkpt lat="44.1537507" lon="10.4143249"><ele>607.0</ele><time>2026-05-03T13:01:41.999Z</time></trkpt><trkpt lat="44.1537003" lon="10.4143792"><ele>607.0</ele><time>2026-05-03T13:01:44Z</time></trkpt><trkpt lat="44.1536315" lon="10.4144592"><ele>607.0</ele><time>2026-05-03T13:01:47Z</time></trkpt><trkpt lat="44.1535634" lon="10.4145362"><ele>607.0</ele><time>2026-05-03T13:01:50Z</time></trkpt><trkpt lat="44.1535069" lon="10.4146272"><ele>607.0</ele><time>2026-05-03T13:01:52.998Z</time></trkpt><trkpt lat="44.1535239" lon="10.4147296"><ele>607.0</ele><time>2026-05-03T13:01:55.999Z</time></trkpt><trkpt lat="44.1536141" lon="10.4147442"><ele>607.0</ele><time>2026-05-03T13:01:58.999Z</time></trkpt><trkpt lat="44.1536897" lon="10.4146946"><ele>607.0</ele><time>2026-05-03T13:02:01.997Z</time></trkpt><trkpt lat="44.1537626" lon="10.4146359"><ele>607.0</ele><time>2026-05-03T13:02:04.998Z</time></trkpt><trkpt lat="44.1538376" lon="10.414574"><ele>607.0</ele><time>2026-05-03T13:02:07.999Z</time></trkpt><trkpt lat="44.153909" lon="10.41451"><ele>607.0</ele><time>2026-05-03T13:02:11Z</time></trkpt><trkpt lat="44.1539879" lon="10.4144502"><ele>607.0</ele><time>2026-05-03T13:02:14Z</time></trkpt><trkpt lat="44.1540603" lon="10.4143951"><ele>610.1666666666667</ele><time>2026-05-03T13:02:16.996Z</time></trkpt><trkpt lat="44.1541307" lon="10.4143368"><ele>613.3333333333334</ele><time>2026-05-03T13:02:19.998Z</time></trkpt><trkpt lat="44.1542035" lon="10.4142821"><ele>616.5</ele><time>2026-05-03T13:02:23Z</time></trkpt><trkpt lat="44.1542789" lon="10.414233"><ele>619.6666666666666</ele><time>2026-05-03T13:02:26Z</time></trkpt><trkpt lat="44.1543553" lon="10.4141743"><ele>622.8333333333333</ele><time>2026-05-03T13:02:29Z</time></trkpt><trkpt lat="44.1544266" lon="10.4141171"><ele>626.0</ele><time>2026-05-03T13:02:32Z</time></trkpt><trkpt lat="44.1544908" lon="10.4140479"><ele>626.0</ele><time>2026-05-03T13:02:35Z</time></trkpt><trkpt lat="44.1545493" lon="10.4139652"><ele>626.0</ele><time>2026-05-03T13:02:38Z</time></trkpt><trkpt lat="44.1545909" lon="10.4138623"><ele>626.0</ele><time>2026-05-03T13:02:41Z</time></trkpt><trkpt lat="44.1546188" lon="10.4137458"><ele>626.0</ele><time>2026-05-03T13:02:44Z</time></trkpt><trkpt lat="44.1546363" lon="10.4136391"><ele>626.0</ele><time>2026-05-03T13:02:47Z</time></trkpt><trkpt lat="44.1546495" lon="10.4135365"><ele>626.0</ele><time>2026-05-03T13:02:49.999Z</time></trkpt><trkpt lat="44.1546669" lon="10.4134371"><ele>623.6666666666666</ele><time>2026-05-03T13:02:53Z</time></trkpt><trkpt lat="44.1546997" lon="10.4133457"><ele>621.3333333333333</ele><time>2026-05-03T13:02:56Z</time></trkpt><trkpt lat="44.154755" lon="10.413265"><ele>619.0</ele><time>2026-05-03T13:02:59Z</time></trkpt><trkpt lat="44.1548241" lon="10.4132077"><ele>616.6666666666666</ele><time>2026-05-03T13:03:02Z</time></trkpt><trkpt lat="44.1548958" lon="10.4131602"><ele>614.3333333333334</ele><time>2026-05-03T13:03:05Z</time></trkpt><trkpt lat="44.1549732" lon="10.4131195"><ele>612.0</ele><time>2026-05-03T13:03:08Z</time></trkpt><trkpt lat="44.1550331" lon="10.4130912"><ele>613.3333333333334</ele><time>2026-05-03T13:03:11Z</time></trkpt><trkpt lat="44.1550981" lon="10.4130528"><ele>614.6666666666666</ele><time>2026-05-03T13:03:13.997Z</time></trkpt><trkpt lat="44.1551781" lon="10.4130035"><ele>616.0</ele><time>2026-05-03T13:03:17Z</time></trkpt><trkpt lat="44.1552588" lon="10.4129766"><ele>617.3333333333333</ele><time>2026-05-03T13:03:20Z</time></trkpt><trkpt lat="44.15533" lon="10.4129744"><ele>618.6666666666666</ele><time>2026-05-03T13:03:23Z</time></trkpt><trkpt lat="44.155402" lon="10.4129902"><ele>620.0</ele><time>2026-05-03T13:03:26Z</time></trkpt><trkpt lat="44.1554764" lon="10.413018"><ele>624.0</ele><time>2026-05-03T13:03:29Z</time></trkpt><trkpt lat="44.1555522" lon="10.413038"><ele>628.0</ele><time>2026-05-03T13:03:31.999Z</time></trkpt><trkpt lat="44.1556406" lon="10.413057"><ele>632.0</ele><time>2026-05-03T13:03:35Z</time></trkpt><trkpt lat="44.1557281" lon="10.4130647"><ele>636.0</ele><time>2026-05-03T13:03:37.999Z</time></trkpt><trkpt lat="44.1558113" lon="10.413068"><ele>640.0</ele><time>2026-05-03T13:03:41Z</time></trkpt><trkpt lat="44.155883" lon="10.4130757"><ele>644.0</ele><time>2026-05-03T13:03:44Z</time></trkpt><trkpt lat="44.1559695" lon="10.4130765"><ele>647.0</ele><time>2026-05-03T13:03:46.999Z</time></trkpt><trkpt lat="44.1560547" lon="10.4130864"><ele>650.0</ele><time>2026-05-03T13:03:50Z</time></trkpt><trkpt lat="44.1561392" lon="10.4130988"><ele>653.0</ele><time>2026-05-03T13:03:52.999Z</time></trkpt><trkpt lat="44.1562123" lon="10.4131261"><ele>656.0</ele><time>2026-05-03T13:03:56Z</time></trkpt><trkpt lat="44.1562871" lon="10.4131393"><ele>659.0</ele><time>2026-05-03T13:03:59Z</time></trkpt><trkpt lat="44.1563659" lon="10.4131571"><ele>662.0</ele><time>2026-05-03T13:04:01.999Z</time></trkpt><trkpt lat="44.1564451" lon="10.4131774"><ele>662.0</ele><time>2026-05-03T13:04:05Z</time></trkpt><trkpt lat="44.1565247" lon="10.4131936"><ele>662.0</ele><time>2026-05-03T13:04:08Z</time></trkpt><trkpt lat="44.1566061" lon="10.4132106"><ele>662.0</ele><time>2026-05-03T13:04:10.999Z</time></trkpt><trkpt lat="44.1566831" lon="10.4132301"><ele>662.0</ele><time>2026-05-03T13:04:14Z</time></trkpt><trkpt lat="44.1567653" lon="10.4132376"><ele>662.0</ele><time>2026-05-03T13:04:16.997Z</time></trkpt><trkpt lat="44.1568475" lon="10.4132471"><ele>662.0</ele><time>2026-05-03T13:04:19.998Z</time></trkpt><trkpt lat="44.1569291" lon="10.4132487"><ele>662.6666666666666</ele><time>2026-05-03T13:04:23Z</time></trkpt><trkpt lat="44.1570075" lon="10.4132466"><ele>663.3333333333333</ele><time>2026-05-03T13:04:26Z</time></trkpt><trkpt lat="44.157088" lon="10.4132527"><ele>664.0</ele><time>2026-05-03T13:04:29Z</time></trkpt><trkpt lat="44.1571736" lon="10.413257"><ele>664.6666666666666</ele><time>2026-05-03T13:04:32Z</time></trkpt><trkpt lat="44.1572564" lon="10.4132731"><ele>665.3333333333334</ele><time>2026-05-03T13:04:35Z</time></trkpt><trkpt lat="44.1573378" lon="10.4132942"><ele>666.0</ele><time>2026-05-03T13:04:38Z</time></trkpt><trkpt lat="44.1574246" lon="10.4133208"><ele>666.5</ele><time>2026-05-03T13:04:41Z</time></trkpt><trkpt lat="44.1575122" lon="10.4133435"><ele>667.0</ele><time>2026-05-03T13:04:44Z</time></trkpt><trkpt lat="44.1575979" lon="10.4133628"><ele>667.5</ele><time>2026-05-03T13:04:46.999Z</time></trkpt><trkpt lat="44.1576843" lon="10.4133946"><ele>668.0</ele><time>2026-05-03T13:04:50Z</time></trkpt><trkpt lat="44.1577729" lon="10.4134283"><ele>668.5</ele><time>2026-05-03T13:04:53Z</time></trkpt><trkpt lat="44.1578576" lon="10.4134608"><ele>669.0</ele><time>2026-05-03T13:04:56Z</time></trkpt><trkpt lat="44.1579411" lon="10.4134687"><ele>669.0</ele><time>2026-05-03T13:04:58.996Z</time></trkpt><trkpt lat="44.1580237" lon="10.4134254"><ele>669.0</ele><time>2026-05-03T13:05:02Z</time></trkpt><trkpt lat="44.1580957" lon="10.4133438"><ele>669.0</ele><time>2026-05-03T13:05:04.998Z</time></trkpt><trkpt lat="44.1581483" lon="10.413244"><ele>669.0</ele><time>2026-05-03T13:05:08Z</time></trkpt><trkpt lat="44.1581902" lon="10.4131307"><ele>669.0</ele><time>2026-05-03T13:05:11Z</time></trkpt><trkpt lat="44.1582365" lon="10.413018"><ele>668.6666666666666</ele><time>2026-05-03T13:05:13.998Z</time></trkpt><trkpt lat="44.1582767" lon="10.412949"><ele>668.3333333333334</ele><time>2026-05-03T13:05:16Z</time></trkpt><trkpt lat="44.1583414" lon="10.4128671"><ele>668.0</ele><time>2026-05-03T13:05:19Z</time></trkpt><trkpt lat="44.1584175" lon="10.4127938"><ele>667.6666666666667</ele><time>2026-05-03T13:05:22Z</time></trkpt><trkpt lat="44.1584668" lon="10.4127293"><ele>667.3333333333334</ele><time>2026-05-03T13:05:24Z</time></trkpt><trkpt lat="44.1585096" lon="10.4126567"><ele>667.0</ele><time>2026-05-03T13:05:26Z</time></trkpt><trkpt lat="44.1585716" lon="10.4125626"><ele>667.0</ele><time>2026-05-03T13:05:29Z</time></trkpt><trkpt lat="44.1586184" lon="10.4124547"><ele>667.0</ele><time>2026-05-03T13:05:32Z</time></trkpt><trkpt lat="44.1586701" lon="10.4123531"><ele>667.0</ele><time>2026-05-03T13:05:35Z</time></trkpt><trkpt lat="44.1587225" lon="10.412253"><ele>667.0</ele><time>2026-05-03T13:05:37.999Z</time></trkpt><trkpt lat="44.1587798" lon="10.4121655"><ele>667.0</ele><time>2026-05-03T13:05:41Z</time></trkpt><trkpt lat="44.1588286" lon="10.412105"><ele>667.0</ele><time>2026-05-03T13:05:42.999Z</time></trkpt><trkpt lat="44.1589006" lon="10.4120214"><ele>668.4285714285714</ele><time>2026-05-03T13:05:46Z</time></trkpt><trkpt lat="44.1589568" lon="10.4119655"><ele>669.8571428571429</ele><time>2026-05-03T13:05:47.997Z</time></trkpt><trkpt lat="44.159018" lon="10.4119041"><ele>671.2857142857142</ele><time>2026-05-03T13:05:49.999Z</time></trkpt><trkpt lat="44.1590763" lon="10.4118454"><ele>672.7142857142858</ele><time>2026-05-03T13:05:52Z</time></trkpt><trkpt lat="44.1591323" lon="10.4117899"><ele>674.1428571428571</ele><time>2026-05-03T13:05:54Z</time></trkpt><trkpt lat="44.1591966" lon="10.4117351"><ele>675.5714285714286</ele><time>2026-05-03T13:05:55.999Z</time></trkpt><trkpt lat="44.159266" lon="10.4116777"><ele>677.0</ele><time>2026-05-03T13:05:58Z</time></trkpt><trkpt lat="44.159337" lon="10.4116417"><ele>677.0</ele><time>2026-05-03T13:06:00Z</time></trkpt><trkpt lat="44.1594101" lon="10.4116275"><ele>677.0</ele><time>2026-05-03T13:06:01.999Z</time></trkpt><trkpt lat="44.159481" lon="10.4116292"><ele>677.0</ele><time>2026-05-03T13:06:04Z</time></trkpt><trkpt lat="44.1595485" lon="10.4116464"><ele>677.0</ele><time>2026-05-03T13:06:06.997Z</time></trkpt><trkpt lat="44.1596316" lon="10.41169"><ele>677.0</ele><time>2026-05-03T13:06:10Z</time></trkpt><trkpt lat="44.1597124" lon="10.4117269"><ele>677.0</ele><time>2026-05-03T13:06:12.999Z</time></trkpt><trkpt lat="44.1597747" lon="10.4117564"><ele>676.9999999999999</ele><time>2026-05-03T13:06:15Z</time></trkpt><trkpt lat="44.1598496" lon="10.4117898"><ele>677.0</ele><time>2026-05-03T13:06:18Z</time></trkpt><trkpt lat="44.1599221" lon="10.4118069"><ele>677.0</ele><time>2026-05-03T13:06:20Z</time></trkpt><trkpt lat="44.1599867" lon="10.4118144"><ele>677.0</ele><time>2026-05-03T13:06:22Z</time></trkpt><trkpt lat="44.1600529" lon="10.4118278"><ele>677.0</ele><time>2026-05-03T13:06:24Z</time></trkpt><trkpt lat="44.1601411" lon="10.4118336"><ele>676.9999999999999</ele><time>2026-05-03T13:06:27Z</time></trkpt><trkpt lat="44.1602084" lon="10.4118319"><ele>677.0</ele><time>2026-05-03T13:06:29Z</time></trkpt><trkpt lat="44.1603041" lon="10.4118385"><ele>677.1428571428571</ele><time>2026-05-03T13:06:32Z</time></trkpt><trkpt lat="44.1603999" lon="10.4118506"><ele>677.2857142857142</ele><time>2026-05-03T13:06:35Z</time></trkpt><trkpt lat="44.160471" lon="10.4118783"><ele>677.4285714285713</ele><time>2026-05-03T13:06:36.999Z</time></trkpt><trkpt lat="44.1605324" lon="10.4119177"><ele>677.5714285714286</ele><time>2026-05-03T13:06:38.999Z</time></trkpt><trkpt lat="44.1605891" lon="10.4119567"><ele>677.7142857142858</ele><time>2026-05-03T13:06:41Z</time></trkpt><trkpt lat="44.1606455" lon="10.4120049"><ele>677.8571428571428</ele><time>2026-05-03T13:06:42.999Z</time></trkpt><trkpt lat="44.1607045" lon="10.4120525"><ele>678.0</ele><time>2026-05-03T13:06:45Z</time></trkpt><trkpt lat="44.1607604" lon="10.4121038"><ele>678.0</ele><time>2026-05-03T13:06:46.999Z</time></trkpt><trkpt lat="44.1608207" lon="10.4121458"><ele>678.0</ele><time>2026-05-03T13:06:49Z</time></trkpt><trkpt lat="44.1608764" lon="10.4121898"><ele>678.0</ele><time>2026-05-03T13:06:51Z</time></trkpt><trkpt lat="44.1609337" lon="10.412232"><ele>678.0</ele><time>2026-05-03T13:06:53Z</time></trkpt><trkpt lat="44.160992" lon="10.4122715"><ele>678.0</ele><time>2026-05-03T13:06:55Z</time></trkpt><trkpt lat="44.1610521" lon="10.4123013"><ele>678.0</ele><time>2026-05-03T13:06:57Z</time></trkpt><trkpt lat="44.1611158" lon="10.4123185"><ele>678.0</ele><time>2026-05-03T13:06:59Z</time></trkpt><trkpt lat="44.1611814" lon="10.4123107"><ele>678.0</ele><time>2026-05-03T13:07:01Z</time></trkpt><trkpt lat="44.1612463" lon="10.4122809"><ele>678.0</ele><time>2026-05-03T13:07:03Z</time></trkpt><trkpt lat="44.1612986" lon="10.4122186"><ele>678.0</ele><time>2026-05-03T13:07:05Z</time></trkpt><trkpt lat="44.1613411" lon="10.4121463"><ele>678.0</ele><time>2026-05-03T13:07:07Z</time></trkpt><trkpt lat="44.1613848" lon="10.4120769"><ele>678.0</ele><time>2026-05-03T13:07:09Z</time></trkpt><trkpt lat="44.1614288" lon="10.4120067"><ele>678.0</ele><time>2026-05-03T13:07:11Z</time></trkpt><trkpt lat="44.1614663" lon="10.4119323"><ele>678.0</ele><time>2026-05-03T13:07:13Z</time></trkpt><trkpt lat="44.1614996" lon="10.4118523"><ele>678.0</ele><time>2026-05-03T13:07:14.999Z</time></trkpt><trkpt lat="44.1615314" lon="10.4117727"><ele>678.0</ele><time>2026-05-03T13:07:17Z</time></trkpt><trkpt lat="44.1615612" lon="10.4116938"><ele>678.0</ele><time>2026-05-03T13:07:19Z</time></trkpt><trkpt lat="44.161624" lon="10.4115973"><ele>678.0</ele><time>2026-05-03T13:07:22Z</time></trkpt><trkpt lat="44.1617082" lon="10.4115932"><ele>678.0</ele><time>2026-05-03T13:07:25Z</time></trkpt><trkpt lat="44.1617288" lon="10.4116822"><ele>678.0</ele><time>2026-05-03T13:07:27Z</time></trkpt><trkpt lat="44.1617033" lon="10.4117654"><ele>678.0</ele><time>2026-05-03T13:07:29Z</time></trkpt><trkpt lat="44.1616531" lon="10.4118731"><ele>679.6666666666666</ele><time>2026-05-03T13:07:31.999Z</time></trkpt><trkpt lat="44.1616044" lon="10.4119722"><ele>681.3333333333334</ele><time>2026-05-03T13:07:35Z</time></trkpt><trkpt lat="44.161557" lon="10.4120612"><ele>683.0</ele><time>2026-05-03T13:07:38Z</time></trkpt><trkpt lat="44.1615223" lon="10.4121582"><ele>684.6666666666667</ele><time>2026-05-03T13:07:41Z</time></trkpt><trkpt lat="44.1614877" lon="10.4122566"><ele>686.3333333333334</ele><time>2026-05-03T13:07:44Z</time></trkpt><trkpt lat="44.161445" lon="10.4123553"><ele>688.0</ele><time>2026-05-03T13:07:47Z</time></trkpt><trkpt lat="44.1614025" lon="10.412454"><ele>691.3333333333334</ele><time>2026-05-03T13:07:50Z</time></trkpt><trkpt lat="44.1613598" lon="10.4125486"><ele>694.6666666666667</ele><time>2026-05-03T13:07:53Z</time></trkpt><trkpt lat="44.1612994" lon="10.4126203"><ele>698.0</ele><time>2026-05-03T13:07:56Z</time></trkpt><trkpt lat="44.1612261" lon="10.4126687"><ele>701.3333333333334</ele><time>2026-05-03T13:07:59Z</time></trkpt><trkpt lat="44.1611458" lon="10.4126894"><ele>704.6666666666666</ele><time>2026-05-03T13:08:02Z</time></trkpt><trkpt lat="44.161064" lon="10.4127028"><ele>708.0</ele><time>2026-05-03T13:08:05Z</time></trkpt><trkpt lat="44.1609814" lon="10.4127174"><ele>708.0</ele><time>2026-05-03T13:08:07.998Z</time></trkpt><trkpt lat="44.1609015" lon="10.412738"><ele>708.0</ele><time>2026-05-03T13:08:11Z</time></trkpt><trkpt lat="44.1608247" lon="10.4127546"><ele>708.0</ele><time>2026-05-03T13:08:14Z</time></trkpt><trkpt lat="44.1607415" lon="10.4127489"><ele>708.0</ele><time>2026-05-03T13:08:16.999Z</time></trkpt><trkpt lat="44.1606656" lon="10.4127254"><ele>708.0</ele><time>2026-05-03T13:08:20Z</time></trkpt><trkpt lat="44.160605" lon="10.4126973"><ele>708.0</ele><time>2026-05-03T13:08:23Z</time></trkpt><trkpt lat="44.160526" lon="10.4126591"><ele>707.3333333333334</ele><time>2026-05-03T13:08:25.999Z</time></trkpt><trkpt lat="44.1604463" lon="10.4126225"><ele>706.6666666666666</ele><time>2026-05-03T13:08:29Z</time></trkpt><trkpt lat="44.1603678" lon="10.4125976"><ele>706.0</ele><time>2026-05-03T13:08:32Z</time></trkpt><trkpt lat="44.1602905" lon="10.4125998"><ele>705.3333333333333</ele><time>2026-05-03T13:08:35Z</time></trkpt><trkpt lat="44.1602169" lon="10.4126305"><ele>704.6666666666666</ele><time>2026-05-03T13:08:38Z</time></trkpt><trkpt lat="44.1601443" lon="10.4126758"><ele>704.0</ele><time>2026-05-03T13:08:41Z</time></trkpt><trkpt lat="44.160081" lon="10.4127274"><ele>704.0</ele><time>2026-05-03T13:08:44Z</time></trkpt><trkpt lat="44.1600213" lon="10.4127779"><ele>704.0</ele><time>2026-05-03T13:08:47Z</time></trkpt><trkpt lat="44.1599704" lon="10.4128559"><ele>704.0</ele><time>2026-05-03T13:08:50Z</time></trkpt><trkpt lat="44.1599133" lon="10.4129468"><ele>704.0</ele><time>2026-05-03T13:08:52.999Z</time></trkpt><trkpt lat="44.1598666" lon="10.413053"><ele>704.0</ele><time>2026-05-03T13:08:56Z</time></trkpt><trkpt lat="44.1598374" lon="10.41316"><ele>704.0</ele><time>2026-05-03T13:08:59Z</time></trkpt><trkpt lat="44.1598232" lon="10.4132801"><ele>704.0</ele><time>2026-05-03T13:09:02Z</time></trkpt><trkpt lat="44.1598133" lon="10.4133986"><ele>704.0</ele><time>2026-05-03T13:09:05Z</time></trkpt><trkpt lat="44.1598007" lon="10.4135161"><ele>704.0</ele><time>2026-05-03T13:09:08Z</time></trkpt><trkpt lat="44.1597975" lon="10.4136357"><ele>704.0</ele><time>2026-05-03T13:09:10.999Z</time></trkpt><trkpt lat="44.1597926" lon="10.4137469"><ele>704.0</ele><time>2026-05-03T13:09:14Z</time></trkpt><trkpt lat="44.1597691" lon="10.4138708"><ele>704.0</ele><time>2026-05-03T13:09:16.998Z</time></trkpt><trkpt lat="44.1597326" lon="10.4139853"><ele>704.5</ele><time>2026-05-03T13:09:20Z</time></trkpt><trkpt lat="44.1596827" lon="10.4140837"><ele>705.0</ele><time>2026-05-03T13:09:23Z</time></trkpt><trkpt lat="44.1596278" lon="10.4141667"><ele>705.5</ele><time>2026-05-03T13:09:25.997Z</time></trkpt><trkpt lat="44.1595733" lon="10.4142524"><ele>706.0</ele><time>2026-05-03T13:09:29Z</time></trkpt><trkpt lat="44.1595277" lon="10.4143276"><ele>706.5</ele><time>2026-05-03T13:09:31.998Z</time></trkpt><trkpt lat="44.1594848" lon="10.414417"><ele>707.0</ele><time>2026-05-03T13:09:35Z</time></trkpt><trkpt lat="44.159459" lon="10.4145322"><ele>707.0</ele><time>2026-05-03T13:09:37.999Z</time></trkpt><trkpt lat="44.1594628" lon="10.4146474"><ele>707.0</ele><time>2026-05-03T13:09:41Z</time></trkpt><trkpt lat="44.1594818" lon="10.4147615"><ele>707.0</ele><time>2026-05-03T13:09:44Z</time></trkpt><trkpt lat="44.1595165" lon="10.4148664"><ele>707.0</ele><time>2026-05-03T13:09:47Z</time></trkpt><trkpt lat="44.1595685" lon="10.4149572"><ele>707.0</ele><time>2026-05-03T13:09:50Z</time></trkpt><trkpt lat="44.1596244" lon="10.4150335"><ele>707.0</ele><time>2026-05-03T13:09:53Z</time></trkpt><trkpt lat="44.1596939" lon="10.4150805"><ele>706.7142857142857</ele><time>2026-05-03T13:09:56Z</time></trkpt><trkpt lat="44.1597603" lon="10.4150986"><ele>706.4285714285714</ele><time>2026-05-03T13:09:59Z</time></trkpt><trkpt lat="44.1598357" lon="10.4151139"><ele>706.1428571428571</ele><time>2026-05-03T13:10:02Z</time></trkpt><trkpt lat="44.159913" lon="10.4151127"><ele>705.8571428571429</ele><time>2026-05-03T13:10:05Z</time></trkpt><trkpt lat="44.1599868" lon="10.4151012"><ele>705.5714285714286</ele><time>2026-05-03T13:10:08Z</time></trkpt><trkpt lat="44.1600565" lon="10.4150878"><ele>705.2857142857142</ele><time>2026-05-03T13:10:11Z</time></trkpt><trkpt lat="44.16013" lon="10.4150686"><ele>705.0</ele><time>2026-05-03T13:10:13.999Z</time></trkpt><trkpt lat="44.1601953" lon="10.415056"><ele>708.1666666666666</ele><time>2026-05-03T13:10:17Z</time></trkpt><trkpt lat="44.1602817" lon="10.4150458"><ele>711.3333333333334</ele><time>2026-05-03T13:10:20Z</time></trkpt><trkpt lat="44.1603721" lon="10.4150588"><ele>714.5</ele><time>2026-05-03T13:10:22.999Z</time></trkpt><trkpt lat="44.1604342" lon="10.4150821"><ele>717.6666666666667</ele><time>2026-05-03T13:10:25Z</time></trkpt><trkpt lat="44.1604927" lon="10.4151189"><ele>720.8333333333334</ele><time>2026-05-03T13:10:26.999Z</time></trkpt><trkpt lat="44.1605478" lon="10.4151629"><ele>724.0</ele><time>2026-05-03T13:10:29Z</time></trkpt><trkpt lat="44.1606237" lon="10.4152368"><ele>724.0</ele><time>2026-05-03T13:10:32Z</time></trkpt><trkpt lat="44.1606928" lon="10.4153093"><ele>724.0</ele><time>2026-05-03T13:10:35Z</time></trkpt><trkpt lat="44.1607644" lon="10.415375"><ele>724.0</ele><time>2026-05-03T13:10:37.999Z</time></trkpt><trkpt lat="44.1608358" lon="10.4154413"><ele>724.0</ele><time>2026-05-03T13:10:41Z</time></trkpt><trkpt lat="44.1609029" lon="10.4155137"><ele>724.0</ele><time>2026-05-03T13:10:44Z</time></trkpt><trkpt lat="44.1609581" lon="10.4155995"><ele>724.0</ele><time>2026-05-03T13:10:47Z</time></trkpt><trkpt lat="44.1610103" lon="10.4156843"><ele>723.8333333333334</ele><time>2026-05-03T13:10:50Z</time></trkpt><trkpt lat="44.1610682" lon="10.4157659"><ele>723.6666666666667</ele><time>2026-05-03T13:10:53Z</time></trkpt><trkpt lat="44.1611191" lon="10.4158527"><ele>723.5</ele><time>2026-05-03T13:10:55.999Z</time></trkpt><trkpt lat="44.1611799" lon="10.4159326"><ele>723.3333333333334</ele><time>2026-05-03T13:10:59Z</time></trkpt><trkpt lat="44.1612359" lon="10.4160188"><ele>723.1666666666666</ele><time>2026-05-03T13:11:01.998Z</time></trkpt><trkpt lat="44.1612961" lon="10.4160931"><ele>723.0</ele><time>2026-05-03T13:11:05Z</time></trkpt><trkpt lat="44.1613565" lon="10.4161674"><ele>723.0</ele><time>2026-05-03T13:11:07.999Z</time></trkpt><trkpt lat="44.1614213" lon="10.416237"><ele>723.0</ele><time>2026-05-03T13:11:11Z</time></trkpt><trkpt lat="44.1614918" lon="10.416299"><ele>723.0</ele><time>2026-05-03T13:11:13.996Z</time></trkpt><trkpt lat="44.1615572" lon="10.4163603"><ele>723.0</ele><time>2026-05-03T13:11:17Z</time></trkpt><trkpt lat="44.161626" lon="10.4164162"><ele>723.0</ele><time>2026-05-03T13:11:20Z</time></trkpt><trkpt lat="44.1616977" lon="10.4164701"><ele>723.0</ele><time>2026-05-03T13:11:23Z</time></trkpt><trkpt lat="44.1617681" lon="10.4165292"><ele>724.8333333333334</ele><time>2026-05-03T13:11:26Z</time></trkpt><trkpt lat="44.1618398" lon="10.4165805"><ele>726.6666666666666</ele><time>2026-05-03T13:11:28.996Z</time></trkpt><trkpt lat="44.1619159" lon="10.4166191"><ele>728.5</ele><time>2026-05-03T13:11:32Z</time></trkpt><trkpt lat="44.1619917" lon="10.4166032"><ele>730.3333333333333</ele><time>2026-05-03T13:11:35Z</time></trkpt><trkpt lat="44.1620419" lon="10.4165165"><ele>732.1666666666666</ele><time>2026-05-03T13:11:38Z</time></trkpt><trkpt lat="44.1620312" lon="10.4164017"><ele>734.0</ele><time>2026-05-03T13:11:41Z</time></trkpt><trkpt lat="44.1619687" lon="10.4163337"><ele>732.1666666666666</ele><time>2026-05-03T13:11:44Z</time></trkpt><trkpt lat="44.1618936" lon="10.4162805"><ele>730.3333333333333</ele><time>2026-05-03T13:11:47Z</time></trkpt><trkpt lat="44.1618187" lon="10.4162289"><ele>728.5</ele><time>2026-05-03T13:11:49.998Z</time></trkpt><trkpt lat="44.1617461" lon="10.4161831"><ele>726.6666666666666</ele><time>2026-05-03T13:11:53Z</time></trkpt><trkpt lat="44.1616708" lon="10.4161329"><ele>724.8333333333334</ele><time>2026-05-03T13:11:56Z</time></trkpt><trkpt lat="44.1615979" lon="10.4160743"><ele>723.0</ele><time>2026-05-03T13:11:58.995Z</time></trkpt><trkpt lat="44.1615289" lon="10.4160099"><ele>723.0</ele><time>2026-05-03T13:12:01.998Z</time></trkpt><trkpt lat="44.1614664" lon="10.415935"><ele>723.0</ele><time>2026-05-03T13:12:04.998Z</time></trkpt><trkpt lat="44.1614128" lon="10.4158459"><ele>723.0</ele><time>2026-05-03T13:12:07.993Z</time></trkpt><trkpt lat="44.1613577" lon="10.4157505"><ele>723.0</ele><time>2026-05-03T13:12:10.997Z</time></trkpt><trkpt lat="44.161301" lon="10.4156614"><ele>723.0</ele><time>2026-05-03T13:12:13.999Z</time></trkpt><trkpt lat="44.1612484" lon="10.4155676"><ele>723.0</ele><time>2026-05-03T13:12:16.999Z</time></trkpt><trkpt lat="44.1612049" lon="10.4154672"><ele>727.1666666666666</ele><time>2026-05-03T13:12:20Z</time></trkpt><trkpt lat="44.161166" lon="10.415361"><ele>731.3333333333334</ele><time>2026-05-03T13:12:22.999Z</time></trkpt><trkpt lat="44.1611322" lon="10.4152564"><ele>735.5</ele><time>2026-05-03T13:12:26Z</time></trkpt><trkpt lat="44.1610999" lon="10.4151522"><ele>739.6666666666667</ele><time>2026-05-03T13:12:28.995Z</time></trkpt><trkpt lat="44.161066" lon="10.4150489"><ele>743.8333333333334</ele><time>2026-05-03T13:12:32Z</time></trkpt><trkpt lat="44.1610369" lon="10.414946"><ele>748.0</ele><time>2026-05-03T13:12:35Z</time></trkpt><trkpt lat="44.1610174" lon="10.4148364"><ele>748.0</ele><time>2026-05-03T13:12:38Z</time></trkpt><trkpt lat="44.1610238" lon="10.4147134"><ele>748.0</ele><time>2026-05-03T13:12:41Z</time></trkpt><trkpt lat="44.1610618" lon="10.4146116"><ele>748.0</ele><time>2026-05-03T13:12:43.999Z</time></trkpt><trkpt lat="44.1611191" lon="10.4145505"><ele>748.0</ele><time>2026-05-03T13:12:46.999Z</time></trkpt><trkpt lat="44.16119" lon="10.4144995"><ele>748.0</ele><time>2026-05-03T13:12:50Z</time></trkpt><trkpt lat="44.1612689" lon="10.414453"><ele>748.0</ele><time>2026-05-03T13:12:53Z</time></trkpt><trkpt lat="44.1613524" lon="10.4144182"><ele>748.0</ele><time>2026-05-03T13:12:56Z</time></trkpt><trkpt lat="44.1614336" lon="10.4143781"><ele>748.0</ele><time>2026-05-03T13:12:58.999Z</time></trkpt><trkpt lat="44.1615118" lon="10.4143437"><ele>748.0</ele><time>2026-05-03T13:13:02Z</time></trkpt><trkpt lat="44.1615893" lon="10.4143068"><ele>748.0</ele><time>2026-05-03T13:13:05Z</time></trkpt><trkpt lat="44.1616667" lon="10.4142646"><ele>748.0</ele><time>2026-05-03T13:13:08Z</time></trkpt><trkpt lat="44.1617372" lon="10.4142032"><ele>748.0</ele><time>2026-05-03T13:13:11Z</time></trkpt><trkpt lat="44.1618044" lon="10.4141326"><ele>747.1666666666667</ele><time>2026-05-03T13:13:13.999Z</time></trkpt><trkpt lat="44.1618648" lon="10.4140551"><ele>746.3333333333334</ele><time>2026-05-03T13:13:16.999Z</time></trkpt><trkpt lat="44.1619247" lon="10.413974"><ele>745.5</ele><time>2026-05-03T13:13:19.999Z</time></trkpt><trkpt lat="44.1619836" lon="10.4138945"><ele>744.6666666666666</ele><time>2026-05-03T13:13:23Z</time></trkpt><trkpt lat="44.1620423" lon="10.4138109"><ele>743.8333333333333</ele><time>2026-05-03T13:13:26Z</time></trkpt><trkpt lat="44.1620973" lon="10.4137322"><ele>743.0</ele><time>2026-05-03T13:13:29Z</time></trkpt><trkpt lat="44.1621578" lon="10.4136503"><ele>743.0</ele><time>2026-05-03T13:13:31.999Z</time></trkpt><trkpt lat="44.1622211" lon="10.4135743"><ele>743.0</ele><time>2026-05-03T13:13:35Z</time></trkpt><trkpt lat="44.1622903" lon="10.4135018"><ele>743.0</ele><time>2026-05-03T13:13:38Z</time></trkpt><trkpt lat="44.162358" lon="10.4134408"><ele>743.0</ele><time>2026-05-03T13:13:40.999Z</time></trkpt><trkpt lat="44.1624296" lon="10.4133967"><ele>743.0</ele><time>2026-05-03T13:13:43.999Z</time></trkpt><trkpt lat="44.1625094" lon="10.4133405"><ele>743.0</ele><time>2026-05-03T13:13:46.998Z</time></trkpt><trkpt lat="44.1625814" lon="10.4132825"><ele>743.0</ele><time>2026-05-03T13:13:50Z</time></trkpt><trkpt lat="44.1626583" lon="10.4132249"><ele>743.0</ele><time>2026-05-03T13:13:53Z</time></trkpt><trkpt lat="44.1627257" lon="10.4131765"><ele>743.0</ele><time>2026-05-03T13:13:56Z</time></trkpt><trkpt lat="44.1627927" lon="10.4131203"><ele>743.0</ele><time>2026-05-03T13:13:59Z</time></trkpt><trkpt lat="44.1628684" lon="10.4130679"><ele>743.0</ele><time>2026-05-03T13:14:01.999Z</time></trkpt><trkpt lat="44.1629426" lon="10.4130031"><ele>743.0</ele><time>2026-05-03T13:14:04.999Z</time></trkpt><trkpt lat="44.1630233" lon="10.4129514"><ele>743.0</ele><time>2026-05-03T13:14:08Z</time></trkpt><trkpt lat="44.1630959" lon="10.4129043"><ele>743.0</ele><time>2026-05-03T13:14:11Z</time></trkpt><trkpt lat="44.1631724" lon="10.4128605"><ele>743.0</ele><time>2026-05-03T13:14:14Z</time></trkpt><trkpt lat="44.16325" lon="10.4127937"><ele>743.0</ele><time>2026-05-03T13:14:17Z</time></trkpt><trkpt lat="44.1633128" lon="10.412699"><ele>743.0</ele><time>2026-05-03T13:14:19.997Z</time></trkpt><trkpt lat="44.163356" lon="10.4125951"><ele>743.0</ele><time>2026-05-03T13:14:22.999Z</time></trkpt><trkpt lat="44.1633822" lon="10.4124748"><ele>747.0</ele><time>2026-05-03T13:14:26Z</time></trkpt><trkpt lat="44.1633995" lon="10.412383"><ele>751.0</ele><time>2026-05-03T13:14:27.999Z</time></trkpt><trkpt lat="44.1634192" lon="10.41229"><ele>755.0</ele><time>2026-05-03T13:14:30Z</time></trkpt><trkpt lat="44.1634321" lon="10.4121985"><ele>759.0</ele><time>2026-05-03T13:14:32Z</time></trkpt><trkpt lat="44.1634581" lon="10.4120722"><ele>763.0</ele><time>2026-05-03T13:14:34.999Z</time></trkpt><trkpt lat="44.1634823" lon="10.4119887"><ele>767.0</ele><time>2026-05-03T13:14:36.999Z</time></trkpt><trkpt lat="44.1635121" lon="10.4119086"><ele>771.0</ele><time>2026-05-03T13:14:39Z</time></trkpt><trkpt lat="44.1635541" lon="10.4118409"><ele>771.0</ele><time>2026-05-03T13:14:41Z</time></trkpt><trkpt lat="44.1636045" lon="10.4117883"><ele>771.0</ele><time>2026-05-03T13:14:43Z</time></trkpt><trkpt lat="44.1636866" lon="10.411733"><ele>771.0</ele><time>2026-05-03T13:14:46Z</time></trkpt><trkpt lat="44.1637504" lon="10.4117146"><ele>771.0</ele><time>2026-05-03T13:14:48Z</time></trkpt><trkpt lat="44.1638429" lon="10.4116883"><ele>771.0</ele><time>2026-05-03T13:14:51Z</time></trkpt><trkpt lat="44.1639062" lon="10.4116859"><ele>771.0</ele><time>2026-05-03T13:14:53Z</time></trkpt><trkpt lat="44.1639697" lon="10.4116936"><ele>771.0</ele><time>2026-05-03T13:14:55Z</time></trkpt><trkpt lat="44.1640518" lon="10.4117251"><ele>773.3333333333334</ele><time>2026-05-03T13:14:58Z</time></trkpt><trkpt lat="44.1641398" lon="10.411759"><ele>775.6666666666667</ele><time>2026-05-03T13:15:01Z</time></trkpt><trkpt lat="44.1642279" lon="10.4118027"><ele>778.0</ele><time>2026-05-03T13:15:04Z</time></trkpt><trkpt lat="44.1643077" lon="10.4118399"><ele>780.3333333333334</ele><time>2026-05-03T13:15:06.998Z</time></trkpt><trkpt lat="44.1643952" lon="10.411882"><ele>782.6666666666667</ele><time>2026-05-03T13:15:10Z</time></trkpt><trkpt lat="44.1644611" lon="10.4119136"><ele>785.0</ele><time>2026-05-03T13:15:12Z</time></trkpt><trkpt lat="44.1645182" lon="10.4119595"><ele>785.0000000000001</ele><time>2026-05-03T13:15:14Z</time></trkpt><trkpt lat="44.1645769" lon="10.4120239"><ele>785.0</ele><time>2026-05-03T13:15:16Z</time></trkpt><trkpt lat="44.1646278" lon="10.4120878"><ele>785.0</ele><time>2026-05-03T13:15:18Z</time></trkpt><trkpt lat="44.1646722" lon="10.4121582"><ele>785.0</ele><time>2026-05-03T13:15:20Z</time></trkpt><trkpt lat="44.1647132" lon="10.4122694"><ele>785.0000000000001</ele><time>2026-05-03T13:15:23Z</time></trkpt><trkpt lat="44.1647574" lon="10.4123831"><ele>785.0</ele><time>2026-05-03T13:15:25.999Z</time></trkpt><trkpt lat="44.1647992" lon="10.4124983"><ele>786.1666666666667</ele><time>2026-05-03T13:15:29Z</time></trkpt><trkpt lat="44.1648281" lon="10.4125778"><ele>787.3333333333334</ele><time>2026-05-03T13:15:31Z</time></trkpt><trkpt lat="44.1648748" lon="10.412679"><ele>788.5</ele><time>2026-05-03T13:15:33.999Z</time></trkpt><trkpt lat="44.1649341" lon="10.4127633"><ele>789.6666666666667</ele><time>2026-05-03T13:15:37Z</time></trkpt><trkpt lat="44.1650129" lon="10.4128184"><ele>790.8333333333334</ele><time>2026-05-03T13:15:40Z</time></trkpt><trkpt lat="44.1650939" lon="10.4128306"><ele>792.0</ele><time>2026-05-03T13:15:43Z</time></trkpt><trkpt lat="44.1651742" lon="10.4128003"><ele>792.0</ele><time>2026-05-03T13:15:45.997Z</time></trkpt><trkpt lat="44.165239" lon="10.4127295"><ele>792.0</ele><time>2026-05-03T13:15:49Z</time></trkpt><trkpt lat="44.1652882" lon="10.4126409"><ele>792.0</ele><time>2026-05-03T13:15:51.999Z</time></trkpt><trkpt lat="44.1653352" lon="10.4125482"><ele>792.0</ele><time>2026-05-03T13:15:55Z</time></trkpt><trkpt lat="44.1653759" lon="10.4124524"><ele>792.0</ele><time>2026-05-03T13:15:58Z</time></trkpt><trkpt lat="44.1654161" lon="10.4123526"><ele>792.0</ele><time>2026-05-03T13:16:00.996Z</time></trkpt><trkpt lat="44.165462" lon="10.412257"><ele>792.0</ele><time>2026-05-03T13:16:04Z</time></trkpt><trkpt lat="44.1655048" lon="10.4121615"><ele>792.0</ele><time>2026-05-03T13:16:06.998Z</time></trkpt><trkpt lat="44.1655473" lon="10.412063"><ele>792.0</ele><time>2026-05-03T13:16:10Z</time></trkpt><trkpt lat="44.1655861" lon="10.4119618"><ele>792.0</ele><time>2026-05-03T13:16:13Z</time></trkpt><trkpt lat="44.1656305" lon="10.4118661"><ele>792.0</ele><time>2026-05-03T13:16:15.999Z</time></trkpt><trkpt lat="44.1656744" lon="10.4117699"><ele>792.0</ele><time>2026-05-03T13:16:18.999Z</time></trkpt><trkpt lat="44.1657185" lon="10.4116699"><ele>792.1666666666666</ele><time>2026-05-03T13:16:21.999Z</time></trkpt><trkpt lat="44.1657607" lon="10.4115751"><ele>792.3333333333333</ele><time>2026-05-03T13:16:25Z</time></trkpt><trkpt lat="44.1658041" lon="10.4114868"><ele>792.5</ele><time>2026-05-03T13:16:28Z</time></trkpt><trkpt lat="44.1658404" lon="10.4113891"><ele>792.6666666666666</ele><time>2026-05-03T13:16:31Z</time></trkpt><trkpt lat="44.1658877" lon="10.4112934"><ele>792.8333333333333</ele><time>2026-05-03T13:16:34Z</time></trkpt><trkpt lat="44.1659399" lon="10.4112065"><ele>793.0</ele><time>2026-05-03T13:16:37Z</time></trkpt><trkpt lat="44.1659996" lon="10.4111458"><ele>792.9999999999999</ele><time>2026-05-03T13:16:40Z</time></trkpt><trkpt lat="44.1660734" lon="10.4111133"><ele>793.0</ele><time>2026-05-03T13:16:43Z</time></trkpt><trkpt lat="44.1661549" lon="10.4110953"><ele>793.0</ele><time>2026-05-03T13:16:46Z</time></trkpt><trkpt lat="44.1662357" lon="10.4110832"><ele>793.0</ele><time>2026-05-03T13:16:49Z</time></trkpt><trkpt lat="44.1663078" lon="10.411071"><ele>792.9999999999999</ele><time>2026-05-03T13:16:52Z</time></trkpt><trkpt lat="44.1663762" lon="10.4110722"><ele>793.0</ele><time>2026-05-03T13:16:55Z</time></trkpt><trkpt lat="44.1664654" lon="10.4110756"><ele>793.1666666666666</ele><time>2026-05-03T13:16:57.999Z</time></trkpt><trkpt lat="44.1665481" lon="10.4110967"><ele>793.3333333333333</ele><time>2026-05-03T13:17:01Z</time></trkpt><trkpt lat="44.1666189" lon="10.4111448"><ele>793.5</ele><time>2026-05-03T13:17:04Z</time></trkpt><trkpt lat="44.1666887" lon="10.4112177"><ele>793.6666666666667</ele><time>2026-05-03T13:17:07Z</time></trkpt><trkpt lat="44.166751" lon="10.4112974"><ele>793.8333333333334</ele><time>2026-05-03T13:17:10Z</time></trkpt><trkpt lat="44.1668103" lon="10.4113854"><ele>794.0</ele><time>2026-05-03T13:17:13Z</time></trkpt><trkpt lat="44.1668587" lon="10.4114823"><ele>798.3333333333334</ele><time>2026-05-03T13:17:15.972Z</time></trkpt><trkpt lat="44.1669065" lon="10.4115759"><ele>802.6666666666667</ele><time>2026-05-03T13:17:18.987Z</time></trkpt><trkpt lat="44.1669568" lon="10.4116638"><ele>807.0</ele><time>2026-05-03T13:17:21.999Z</time></trkpt><trkpt lat="44.1670027" lon="10.4117495"><ele>811.3333333333333</ele><time>2026-05-03T13:17:24.999Z</time></trkpt><trkpt lat="44.1670476" lon="10.4118378"><ele>815.6666666666666</ele><time>2026-05-03T13:17:28Z</time></trkpt><trkpt lat="44.1670895" lon="10.4119264"><ele>820.0</ele><time>2026-05-03T13:17:31Z</time></trkpt><trkpt lat="44.1671354" lon="10.4120305"><ele>819.9999999999999</ele><time>2026-05-03T13:17:33.999Z</time></trkpt><trkpt lat="44.1671911" lon="10.4121277"><ele>820.0</ele><time>2026-05-03T13:17:37Z</time></trkpt><trkpt lat="44.1672388" lon="10.4122159"><ele>820.0</ele><time>2026-05-03T13:17:40Z</time></trkpt><trkpt lat="44.1672932" lon="10.4123197"><ele>820.0</ele><time>2026-05-03T13:17:42.999Z</time></trkpt><trkpt lat="44.1673496" lon="10.4124132"><ele>819.9999999999999</ele><time>2026-05-03T13:17:46Z</time></trkpt><trkpt lat="44.1674033" lon="10.4124866"><ele>820.0</ele><time>2026-05-03T13:17:49Z</time></trkpt><trkpt lat="44.1674527" lon="10.4125554"><ele>820.4999999999999</ele><time>2026-05-03T13:17:52Z</time></trkpt><trkpt lat="44.1675081" lon="10.4126351"><ele>821.0</ele><time>2026-05-03T13:17:55Z</time></trkpt><trkpt lat="44.1675674" lon="10.412713"><ele>821.5</ele><time>2026-05-03T13:17:58Z</time></trkpt><trkpt lat="44.1676218" lon="10.4127824"><ele>822.0</ele><time>2026-05-03T13:18:01Z</time></trkpt><trkpt lat="44.1676799" lon="10.4128676"><ele>822.4999999999999</ele><time>2026-05-03T13:18:03.999Z</time></trkpt><trkpt lat="44.1677304" lon="10.412948"><ele>823.0</ele><time>2026-05-03T13:18:07Z</time></trkpt><trkpt lat="44.1677731" lon="10.4130265"><ele>826.4999999999999</ele><time>2026-05-03T13:18:10Z</time></trkpt><trkpt lat="44.1678237" lon="10.4131178"><ele>830.0</ele><time>2026-05-03T13:18:13Z</time></trkpt><trkpt lat="44.1678735" lon="10.4132081"><ele>833.5</ele><time>2026-05-03T13:18:16Z</time></trkpt><trkpt lat="44.1679183" lon="10.4132929"><ele>837.0</ele><time>2026-05-03T13:18:19Z</time></trkpt><trkpt lat="44.1679795" lon="10.4133543"><ele>840.4999999999999</ele><time>2026-05-03T13:18:22Z</time></trkpt><trkpt lat="44.1680576" lon="10.4133863"><ele>844.0</ele><time>2026-05-03T13:18:25Z</time></trkpt><trkpt lat="44.1681356" lon="10.4134009"><ele>843.1666666666666</ele><time>2026-05-03T13:18:28Z</time></trkpt><trkpt lat="44.1682201" lon="10.4134077"><ele>842.3333333333333</ele><time>2026-05-03T13:18:31Z</time></trkpt><trkpt lat="44.1683046" lon="10.4134171"><ele>841.5</ele><time>2026-05-03T13:18:34Z</time></trkpt><trkpt lat="44.1683918" lon="10.4134142"><ele>840.6666666666667</ele><time>2026-05-03T13:18:37Z</time></trkpt><trkpt lat="44.1684727" lon="10.413363"><ele>839.8333333333334</ele><time>2026-05-03T13:18:39.999Z</time></trkpt><trkpt lat="44.1685113" lon="10.4132676"><ele>839.0</ele><time>2026-05-03T13:18:42.999Z</time></trkpt><trkpt lat="44.1685241" lon="10.4131444"><ele>839.0000000000001</ele><time>2026-05-03T13:18:46Z</time></trkpt><trkpt lat="44.1685333" lon="10.4130211"><ele>839.0</ele><time>2026-05-03T13:18:49Z</time></trkpt><trkpt lat="44.1685527" lon="10.4129083"><ele>839.0</ele><time>2026-05-03T13:18:51.999Z</time></trkpt><trkpt lat="44.1685666" lon="10.4127943"><ele>839.0</ele><time>2026-05-03T13:18:55Z</time></trkpt><trkpt lat="44.1685784" lon="10.4126767"><ele>839.0000000000001</ele><time>2026-05-03T13:18:58Z</time></trkpt><trkpt lat="44.1685946" lon="10.4125652"><ele>839.0</ele><time>2026-05-03T13:19:01Z</time></trkpt><trkpt lat="44.168613" lon="10.4124618"><ele>836.6666666666667</ele><time>2026-05-03T13:19:04Z</time></trkpt><trkpt lat="44.1686263" lon="10.4123419"><ele>834.3333333333334</ele><time>2026-05-03T13:19:07Z</time></trkpt><trkpt lat="44.1686459" lon="10.4122321"><ele>832.0</ele><time>2026-05-03T13:19:09.999Z</time></trkpt><trkpt lat="44.1686552" lon="10.4121201"><ele>829.6666666666667</ele><time>2026-05-03T13:19:13Z</time></trkpt><trkpt lat="44.1686667" lon="10.4120103"><ele>827.3333333333334</ele><time>2026-05-03T13:19:16Z</time></trkpt><trkpt lat="44.1686712" lon="10.4118976"><ele>825.0</ele><time>2026-05-03T13:19:19Z</time></trkpt><trkpt lat="44.1686861" lon="10.411781"><ele>823.8333333333334</ele><time>2026-05-03T13:19:22Z</time></trkpt><trkpt lat="44.1686967" lon="10.4116637"><ele>822.6666666666667</ele><time>2026-05-03T13:19:25Z</time></trkpt><trkpt lat="44.1687099" lon="10.4115444"><ele>821.5</ele><time>2026-05-03T13:19:27.999Z</time></trkpt><trkpt lat="44.1687197" lon="10.4114308"><ele>820.3333333333334</ele><time>2026-05-03T13:19:31Z</time></trkpt><trkpt lat="44.1687347" lon="10.4113215"><ele>819.1666666666667</ele><time>2026-05-03T13:19:34Z</time></trkpt><trkpt lat="44.168759" lon="10.4112074"><ele>818.0</ele><time>2026-05-03T13:19:37Z</time></trkpt><trkpt lat="44.1687951" lon="10.4111013"><ele>816.0000000000001</ele><time>2026-05-03T13:19:39.999Z</time></trkpt><trkpt lat="44.1688467" lon="10.4110132"><ele>814.0</ele><time>2026-05-03T13:19:43Z</time></trkpt><trkpt lat="44.1689142" lon="10.4109551"><ele>812.0</ele><time>2026-05-03T13:19:46Z</time></trkpt><trkpt lat="44.1689904" lon="10.4109434"><ele>810.0</ele><time>2026-05-03T13:19:48.999Z</time></trkpt><trkpt lat="44.1690705" lon="10.4109508"><ele>808.0000000000001</ele><time>2026-05-03T13:19:51.999Z</time></trkpt><trkpt lat="44.1691491" lon="10.410962"><ele>806.0</ele><time>2026-05-03T13:19:54.999Z</time></trkpt><trkpt lat="44.1692306" lon="10.4109722"><ele>810.6666666666667</ele><time>2026-05-03T13:19:58Z</time></trkpt><trkpt lat="44.1693091" lon="10.4109852"><ele>815.3333333333334</ele><time>2026-05-03T13:20:01Z</time></trkpt><trkpt lat="44.1693828" lon="10.410996"><ele>820.0</ele><time>2026-05-03T13:20:04Z</time></trkpt><trkpt lat="44.1694635" lon="10.4110054"><ele>824.6666666666667</ele><time>2026-05-03T13:20:06.997Z</time></trkpt><trkpt lat="44.1695418" lon="10.4110206"><ele>829.3333333333334</ele><time>2026-05-03T13:20:09.999Z</time></trkpt><trkpt lat="44.1696197" lon="10.4110524"><ele>834.0</ele><time>2026-05-03T13:20:12.999Z</time></trkpt><trkpt lat="44.1696938" lon="10.4111002"><ele>834.0</ele><time>2026-05-03T13:20:15.996Z</time></trkpt><trkpt lat="44.1697447" lon="10.4111544"><ele>834.0</ele><time>2026-05-03T13:20:19Z</time></trkpt><trkpt lat="44.1697999" lon="10.4112176"><ele>834.0</ele><time>2026-05-03T13:20:22Z</time></trkpt><trkpt lat="44.1698639" lon="10.4112941"><ele>834.0</ele><time>2026-05-03T13:20:25Z</time></trkpt><trkpt lat="44.1699229" lon="10.411375"><ele>834.0</ele><time>2026-05-03T13:20:28Z</time></trkpt><trkpt lat="44.1699701" lon="10.4114531"><ele>834.0</ele><time>2026-05-03T13:20:31Z</time></trkpt><trkpt lat="44.1700235" lon="10.4115405"><ele>838.0</ele><time>2026-05-03T13:20:34Z</time></trkpt><trkpt lat="44.170076" lon="10.4116229"><ele>842.0</ele><time>2026-05-03T13:20:37Z</time></trkpt><trkpt lat="44.1701245" lon="10.4117012"><ele>846.0</ele><time>2026-05-03T13:20:40Z</time></trkpt><trkpt lat="44.170177" lon="10.4117882"><ele>850.0</ele><time>2026-05-03T13:20:43Z</time></trkpt><trkpt lat="44.1702362" lon="10.4118766"><ele>854.0</ele><time>2026-05-03T13:20:47Z</time></trkpt><trkpt lat="44.1702962" lon="10.4119461"><ele>858.0</ele><time>2026-05-03T13:20:50Z</time></trkpt><trkpt lat="44.1703611" lon="10.4120039"><ele>858.0</ele><time>2026-05-03T13:20:52.997Z</time></trkpt><trkpt lat="44.1704196" lon="10.412051"><ele>858.0</ele><time>2026-05-03T13:20:56Z</time></trkpt><trkpt lat="44.1704875" lon="10.4121146"><ele>858.0</ele><time>2026-05-03T13:20:58.999Z</time></trkpt><trkpt lat="44.1705638" lon="10.4121749"><ele>858.0</ele><time>2026-05-03T13:21:02Z</time></trkpt><trkpt lat="44.1706383" lon="10.4122199"><ele>858.0</ele><time>2026-05-03T13:21:04.999Z</time></trkpt><trkpt lat="44.170711" lon="10.4122675"><ele>858.0</ele><time>2026-05-03T13:21:08Z</time></trkpt><trkpt lat="44.1707865" lon="10.4123199"><ele>859.5</ele><time>2026-05-03T13:21:11Z</time></trkpt><trkpt lat="44.1708669" lon="10.4123336"><ele>861.0</ele><time>2026-05-03T13:21:14Z</time></trkpt><trkpt lat="44.1709469" lon="10.4122845"><ele>862.5</ele><time>2026-05-03T13:21:17Z</time></trkpt><trkpt lat="44.1709963" lon="10.4121874"><ele>864.0</ele><time>2026-05-03T13:21:20Z</time></trkpt><trkpt lat="44.1709867" lon="10.4120774"><ele>865.5</ele><time>2026-05-03T13:21:22.999Z</time></trkpt><trkpt lat="44.1709376" lon="10.4119704"><ele>867.0</ele><time>2026-05-03T13:21:25.999Z</time></trkpt><trkpt lat="44.1708883" lon="10.4118796"><ele>867.0</ele><time>2026-05-03T13:21:29Z</time></trkpt><trkpt lat="44.1708371" lon="10.4117978"><ele>867.0</ele><time>2026-05-03T13:21:32Z</time></trkpt><trkpt lat="44.1707901" lon="10.4117039"><ele>867.0</ele><time>2026-05-03T13:21:35Z</time></trkpt><trkpt lat="44.1707594" lon="10.4115886"><ele>867.0</ele><time>2026-05-03T13:21:37.995Z</time></trkpt><trkpt lat="44.170743" lon="10.411476"><ele>867.0</ele><time>2026-05-03T13:21:41Z</time></trkpt><trkpt lat="44.1707305" lon="10.4113662"><ele>867.0</ele><time>2026-05-03T13:21:44Z</time></trkpt><trkpt lat="44.1707308" lon="10.4112564"><ele>866.8333333333334</ele><time>2026-05-03T13:21:46.999Z</time></trkpt><trkpt lat="44.1707356" lon="10.4111586"><ele>866.6666666666667</ele><time>2026-05-03T13:21:50Z</time></trkpt><trkpt lat="44.1707299" lon="10.4110376"><ele>866.5</ele><time>2026-05-03T13:21:53.999Z</time></trkpt><trkpt lat="44.1707268" lon="10.410931"><ele>866.3333333333334</ele><time>2026-05-03T13:21:57Z</time></trkpt><trkpt lat="44.170734" lon="10.4108086"><ele>866.1666666666667</ele><time>2026-05-03T13:21:59.999Z</time></trkpt><trkpt lat="44.1707276" lon="10.4106844"><ele>866.0</ele><time>2026-05-03T13:22:03Z</time></trkpt><trkpt lat="44.1707212" lon="10.4105796"><ele>865.8333333333334</ele><time>2026-05-03T13:22:06Z</time></trkpt><trkpt lat="44.1707178" lon="10.4104748"><ele>865.6666666666667</ele><time>2026-05-03T13:22:09Z</time></trkpt><trkpt lat="44.1707152" lon="10.4103618"><ele>865.5</ele><time>2026-05-03T13:22:11.997Z</time></trkpt><trkpt lat="44.1707175" lon="10.4102481"><ele>865.3333333333333</ele><time>2026-05-03T13:22:14.999Z</time></trkpt><trkpt lat="44.1707176" lon="10.4101246"><ele>865.1666666666666</ele><time>2026-05-03T13:22:17.998Z</time></trkpt><trkpt lat="44.170717" lon="10.4100111"><ele>865.0</ele><time>2026-05-03T13:22:21Z</time></trkpt><trkpt lat="44.1707242" lon="10.4098896"><ele>864.9999999999999</ele><time>2026-05-03T13:22:23.999Z</time></trkpt><trkpt lat="44.1707426" lon="10.4097738"><ele>865.0</ele><time>2026-05-03T13:22:27Z</time></trkpt><trkpt lat="44.1707728" lon="10.4096612"><ele>865.0</ele><time>2026-05-03T13:22:30Z</time></trkpt><trkpt lat="44.1708112" lon="10.4095579"><ele>865.0</ele><time>2026-05-03T13:22:33Z</time></trkpt><trkpt lat="44.1708505" lon="10.4094532"><ele>864.9999999999999</ele><time>2026-05-03T13:22:36Z</time></trkpt><trkpt lat="44.1708903" lon="10.4093483"><ele>865.0</ele><time>2026-05-03T13:22:39Z</time></trkpt><trkpt lat="44.1709345" lon="10.4092414"><ele>864.3333333333333</ele><time>2026-05-03T13:22:42Z</time></trkpt><trkpt lat="44.1709834" lon="10.4091413"><ele>863.6666666666666</ele><time>2026-05-03T13:22:45Z</time></trkpt><trkpt lat="44.1710556" lon="10.409088"><ele>863.0</ele><time>2026-05-03T13:22:48Z</time></trkpt><trkpt lat="44.1711312" lon="10.4091194"><ele>862.3333333333333</ele><time>2026-05-03T13:22:51Z</time></trkpt><trkpt lat="44.1711917" lon="10.4091815"><ele>861.6666666666666</ele><time>2026-05-03T13:22:54Z</time></trkpt><trkpt lat="44.171249" lon="10.4092416"><ele>861.0</ele><time>2026-05-03T13:22:57Z</time></trkpt><trkpt lat="44.1713036" lon="10.4092949"><ele>861.0</ele><time>2026-05-03T13:22:59.999Z</time></trkpt><trkpt lat="44.1713624" lon="10.4093544"><ele>861.0</ele><time>2026-05-03T13:23:03Z</time></trkpt><trkpt lat="44.1714321" lon="10.4094136"><ele>861.0</ele><time>2026-05-03T13:23:05.995Z</time></trkpt><trkpt lat="44.1715003" lon="10.4094598"><ele>861.0</ele><time>2026-05-03T13:23:09Z</time></trkpt><trkpt lat="44.1715787" lon="10.4094981"><ele>861.0</ele><time>2026-05-03T13:23:12Z</time></trkpt><trkpt lat="44.1716664" lon="10.4095208"><ele>861.0</ele><time>2026-05-03T13:23:15Z</time></trkpt><trkpt lat="44.171751" lon="10.4095267"><ele>861.1666666666666</ele><time>2026-05-03T13:23:18Z</time></trkpt><trkpt lat="44.1718342" lon="10.4095343"><ele>861.3333333333333</ele><time>2026-05-03T13:23:21Z</time></trkpt><trkpt lat="44.1719139" lon="10.4095461"><ele>861.5</ele><time>2026-05-03T13:23:24Z</time></trkpt><trkpt lat="44.1719904" lon="10.4095573"><ele>861.6666666666666</ele><time>2026-05-03T13:23:27Z</time></trkpt><trkpt lat="44.1720768" lon="10.4095758"><ele>861.8333333333333</ele><time>2026-05-03T13:23:30Z</time></trkpt><trkpt lat="44.1721561" lon="10.409597"><ele>862.0</ele><time>2026-05-03T13:23:32.999Z</time></trkpt><trkpt lat="44.1722451" lon="10.4096181"><ele>861.9999999999999</ele><time>2026-05-03T13:23:36Z</time></trkpt><trkpt lat="44.1723241" lon="10.4096521"><ele>862.0</ele><time>2026-05-03T13:23:39Z</time></trkpt><trkpt lat="44.1723974" lon="10.4096955"><ele>862.0</ele><time>2026-05-03T13:23:41.994Z</time></trkpt><trkpt lat="44.1724685" lon="10.4097453"><ele>862.0</ele><time>2026-05-03T13:23:45Z</time></trkpt><trkpt lat="44.172536" lon="10.4097898"><ele>861.9999999999999</ele><time>2026-05-03T13:23:48Z</time></trkpt><trkpt lat="44.1726177" lon="10.4098354"><ele>862.0</ele><time>2026-05-03T13:23:51Z</time></trkpt><trkpt lat="44.1727025" lon="10.4098527"><ele>861.6666666666666</ele><time>2026-05-03T13:23:54Z</time></trkpt><trkpt lat="44.1727902" lon="10.4098476"><ele>861.3333333333333</ele><time>2026-05-03T13:23:57Z</time></trkpt><trkpt lat="44.1728493" lon="10.409815"><ele>861.0</ele><time>2026-05-03T13:23:59Z</time></trkpt><trkpt lat="44.1729239" lon="10.4097773"><ele>860.6666666666667</ele><time>2026-05-03T13:24:01.999Z</time></trkpt><trkpt lat="44.1729906" lon="10.4097224"><ele>860.3333333333334</ele><time>2026-05-03T13:24:05Z</time></trkpt><trkpt lat="44.1730703" lon="10.4096925"><ele>860.0</ele><time>2026-05-03T13:24:08Z</time></trkpt><trkpt lat="44.1731515" lon="10.4096557"><ele>861.5000000000001</ele><time>2026-05-03T13:24:10.999Z</time></trkpt><trkpt lat="44.1732281" lon="10.4096127"><ele>863.0</ele><time>2026-05-03T13:24:14Z</time></trkpt><trkpt lat="44.1733043" lon="10.4095609"><ele>864.5</ele><time>2026-05-03T13:24:17Z</time></trkpt><trkpt lat="44.1733736" lon="10.4095344"><ele>866.0</ele><time>2026-05-03T13:24:19.998Z</time></trkpt><trkpt lat="44.1734461" lon="10.4095278"><ele>867.5000000000001</ele><time>2026-05-03T13:24:23Z</time></trkpt><trkpt lat="44.1735228" lon="10.4095642"><ele>869.0</ele><time>2026-05-03T13:24:26Z</time></trkpt><trkpt lat="44.1736002" lon="10.4096092"><ele>869.0000000000001</ele><time>2026-05-03T13:24:29Z</time></trkpt><trkpt lat="44.1736754" lon="10.4096559"><ele>869.0</ele><time>2026-05-03T13:24:32Z</time></trkpt><trkpt lat="44.1737565" lon="10.4097047"><ele>869.0</ele><time>2026-05-03T13:24:35Z</time></trkpt><trkpt lat="44.1738325" lon="10.4097415"><ele>869.0</ele><time>2026-05-03T13:24:37.999Z</time></trkpt><trkpt lat="44.1739028" lon="10.4097616"><ele>869.0000000000001</ele><time>2026-05-03T13:24:41Z</time></trkpt><trkpt lat="44.1739804" lon="10.4098031"><ele>869.0</ele><time>2026-05-03T13:24:43.999Z</time></trkpt><trkpt lat="44.1740466" lon="10.4098572"><ele>876.1666666666667</ele><time>2026-05-03T13:24:47Z</time></trkpt><trkpt lat="44.1741216" lon="10.4099211"><ele>883.3333333333334</ele><time>2026-05-03T13:24:49.999Z</time></trkpt><trkpt lat="44.1741923" lon="10.4099787"><ele>890.5</ele><time>2026-05-03T13:24:53Z</time></trkpt><trkpt lat="44.174264" lon="10.4100135"><ele>897.6666666666667</ele><time>2026-05-03T13:24:56Z</time></trkpt><trkpt lat="44.1743457" lon="10.4100361"><ele>904.8333333333334</ele><time>2026-05-03T13:24:58.999Z</time></trkpt><trkpt lat="44.1744125" lon="10.4100578"><ele>912.0</ele><time>2026-05-03T13:25:02Z</time></trkpt><trkpt lat="44.1744981" lon="10.4100874"><ele>912.0</ele><time>2026-05-03T13:25:04.999Z</time></trkpt><trkpt lat="44.1745761" lon="10.4101251"><ele>912.0</ele><time>2026-05-03T13:25:08Z</time></trkpt><trkpt lat="44.174651" lon="10.4101749"><ele>912.0</ele><time>2026-05-03T13:25:11Z</time></trkpt><trkpt lat="44.1747288" lon="10.410221"><ele>912.0</ele><time>2026-05-03T13:25:14Z</time></trkpt><trkpt lat="44.1748106" lon="10.4102672"><ele>912.0</ele><time>2026-05-03T13:25:17Z</time></trkpt><trkpt lat="44.1748913" lon="10.4102536"><ele>912.0</ele><time>2026-05-03T13:25:20Z</time></trkpt><trkpt lat="44.1749394" lon="10.4101692"><ele>912.0</ele><time>2026-05-03T13:25:23Z</time></trkpt><trkpt lat="44.1749396" lon="10.4100653"><ele>912.0</ele><time>2026-05-03T13:25:26Z</time></trkpt><trkpt lat="44.1749014" lon="10.409967"><ele>912.0</ele><time>2026-05-03T13:25:29Z</time></trkpt><trkpt lat="44.1748613" lon="10.4098621"><ele>912.0</ele><time>2026-05-03T13:25:32Z</time></trkpt><trkpt lat="44.174819" lon="10.409756"><ele>912.0</ele><time>2026-05-03T13:25:35Z</time></trkpt><trkpt lat="44.1747747" lon="10.4096528"><ele>912.0</ele><time>2026-05-03T13:25:38Z</time></trkpt><trkpt lat="44.1747438" lon="10.4095444"><ele>912.6666666666666</ele><time>2026-05-03T13:25:40.997Z</time></trkpt><trkpt lat="44.1747313" lon="10.4094274"><ele>913.3333333333333</ele><time>2026-05-03T13:25:43.996Z</time></trkpt><trkpt lat="44.1747389" lon="10.4093158"><ele>914.0</ele><time>2026-05-03T13:25:47Z</time></trkpt><trkpt lat="44.1747585" lon="10.409207"><ele>914.6666666666666</ele><time>2026-05-03T13:25:50Z</time></trkpt><trkpt lat="44.1747906" lon="10.4091057"><ele>915.3333333333333</ele><time>2026-05-03T13:25:53Z</time></trkpt><trkpt lat="44.1748216" lon="10.4090021"><ele>916.0</ele><time>2026-05-03T13:25:56Z</time></trkpt><trkpt lat="44.1748552" lon="10.4088923"><ele>914.6666666666666</ele><time>2026-05-03T13:25:59Z</time></trkpt><trkpt lat="44.1748813" lon="10.4087856"><ele>913.3333333333333</ele><time>2026-05-03T13:26:02Z</time></trkpt><trkpt lat="44.1749093" lon="10.4086748"><ele>912.0</ele><time>2026-05-03T13:26:04.999Z</time></trkpt><trkpt lat="44.1749608" lon="10.4085833"><ele>910.6666666666667</ele><time>2026-05-03T13:26:08Z</time></trkpt><trkpt lat="44.1750248" lon="10.4084986"><ele>909.3333333333334</ele><time>2026-05-03T13:26:11Z</time></trkpt><trkpt lat="44.1750914" lon="10.4084281"><ele>908.0</ele><time>2026-05-03T13:26:14Z</time></trkpt><trkpt lat="44.1751581" lon="10.4083573"><ele>908.0000000000001</ele><time>2026-05-03T13:26:17Z</time></trkpt><trkpt lat="44.175215" lon="10.4082877"><ele>908.0</ele><time>2026-05-03T13:26:20Z</time></trkpt><trkpt lat="44.175283" lon="10.4082112"><ele>908.0</ele><time>2026-05-03T13:26:23Z</time></trkpt><trkpt lat="44.1753462" lon="10.4081345"><ele>908.0</ele><time>2026-05-03T13:26:26Z</time></trkpt><trkpt lat="44.1753914" lon="10.4080295"><ele>908.0000000000001</ele><time>2026-05-03T13:26:30Z</time></trkpt><trkpt lat="44.1753912" lon="10.4078994"><ele>908.0</ele><time>2026-05-03T13:26:33Z</time></trkpt><trkpt lat="44.17537" lon="10.4077774"><ele>907.6666666666667</ele><time>2026-05-03T13:26:36Z</time></trkpt><trkpt lat="44.1753499" lon="10.4076618"><ele>907.3333333333334</ele><time>2026-05-03T13:26:38.999Z</time></trkpt><trkpt lat="44.1753438" lon="10.4075369"><ele>907.0</ele><time>2026-05-03T13:26:42Z</time></trkpt><trkpt lat="44.1753571" lon="10.4074246"><ele>906.6666666666667</ele><time>2026-05-03T13:26:45Z</time></trkpt><trkpt lat="44.1753787" lon="10.4073147"><ele>906.3333333333334</ele><time>2026-05-03T13:26:48Z</time></trkpt><trkpt lat="44.175385" lon="10.4072081"><ele>906.0</ele><time>2026-05-03T13:26:51Z</time></trkpt><trkpt lat="44.1753637" lon="10.4071014"><ele>907.8333333333334</ele><time>2026-05-03T13:26:53.999Z</time></trkpt><trkpt lat="44.1753323" lon="10.4069958"><ele>909.6666666666667</ele><time>2026-05-03T13:26:57Z</time></trkpt><trkpt lat="44.1753024" lon="10.4068841"><ele>911.5</ele><time>2026-05-03T13:26:59.998Z</time></trkpt><trkpt lat="44.1752813" lon="10.4067807"><ele>913.3333333333334</ele><time>2026-05-03T13:27:03Z</time></trkpt><trkpt lat="44.1752498" lon="10.4066742"><ele>915.1666666666667</ele><time>2026-05-03T13:27:06Z</time></trkpt><trkpt lat="44.1752153" lon="10.4065705"><ele>917.0</ele><time>2026-05-03T13:27:09Z</time></trkpt><trkpt lat="44.175185" lon="10.4064788"><ele>917.0000000000001</ele><time>2026-05-03T13:27:12Z</time></trkpt><trkpt lat="44.1751539" lon="10.4063741"><ele>917.0</ele><time>2026-05-03T13:27:15Z</time></trkpt><trkpt lat="44.1751266" lon="10.4062737"><ele>917.0</ele><time>2026-05-03T13:27:18Z</time></trkpt><trkpt lat="44.1750943" lon="10.4061654"><ele>917.0</ele><time>2026-05-03T13:27:20.999Z</time></trkpt><trkpt lat="44.1750775" lon="10.4060479"><ele>917.0000000000001</ele><time>2026-05-03T13:27:23.999Z</time></trkpt><trkpt lat="44.1750601" lon="10.405932"><ele>917.0</ele><time>2026-05-03T13:27:27Z</time></trkpt><trkpt lat="44.1750468" lon="10.4058289"><ele>919.0</ele><time>2026-05-03T13:27:30Z</time></trkpt><trkpt lat="44.1750379" lon="10.4057313"><ele>921.0</ele><time>2026-05-03T13:27:33Z</time></trkpt><trkpt lat="44.1750311" lon="10.4056245"><ele>923.0</ele><time>2026-05-03T13:27:36Z</time></trkpt><trkpt lat="44.1750223" lon="10.4055178"><ele>925.0</ele><time>2026-05-03T13:27:39Z</time></trkpt><trkpt lat="44.1750093" lon="10.4054155"><ele>927.0</ele><time>2026-05-03T13:27:42Z</time></trkpt><trkpt lat="44.1749953" lon="10.405327"><ele>929.0</ele><time>2026-05-03T13:27:45Z</time></trkpt><trkpt lat="44.1749825" lon="10.4052168"><ele>931.0</ele><time>2026-05-03T13:27:48Z</time></trkpt><trkpt lat="44.1749631" lon="10.4051293"><ele>932.4999999999999</ele><time>2026-05-03T13:27:50Z</time></trkpt><trkpt lat="44.1749384" lon="10.4050039"><ele>934.0</ele><time>2026-05-03T13:27:53Z</time></trkpt><trkpt lat="44.1749198" lon="10.4049106"><ele>935.5</ele><time>2026-05-03T13:27:55Z</time></trkpt><trkpt lat="44.1748932" lon="10.4048259"><ele>937.0</ele><time>2026-05-03T13:27:57Z</time></trkpt><trkpt lat="44.1748548" lon="10.4047135"><ele>938.4999999999999</ele><time>2026-05-03T13:28:00Z</time></trkpt><trkpt lat="44.1748182" lon="10.4046066"><ele>940.0</ele><time>2026-05-03T13:28:02.999Z</time></trkpt><trkpt lat="44.1747793" lon="10.4044964"><ele>936.1666666666666</ele><time>2026-05-03T13:28:06Z</time></trkpt><trkpt lat="44.1747312" lon="10.404396"><ele>932.3333333333333</ele><time>2026-05-03T13:28:08.996Z</time></trkpt><trkpt lat="44.1746873" lon="10.4042969"><ele>928.5</ele><time>2026-05-03T13:28:12Z</time></trkpt><trkpt lat="44.1746506" lon="10.4041921"><ele>924.6666666666667</ele><time>2026-05-03T13:28:14.999Z</time></trkpt><trkpt lat="44.1746124" lon="10.4040979"><ele>920.8333333333334</ele><time>2026-05-03T13:28:18Z</time></trkpt><trkpt lat="44.1745757" lon="10.4039999"><ele>917.0</ele><time>2026-05-03T13:28:20.999Z</time></trkpt><trkpt lat="44.1745352" lon="10.4039063"><ele>918.8333333333334</ele><time>2026-05-03T13:28:24Z</time></trkpt><trkpt lat="44.1745008" lon="10.4038101"><ele>920.6666666666667</ele><time>2026-05-03T13:28:26.999Z</time></trkpt><trkpt lat="44.1744709" lon="10.4037133"><ele>922.5</ele><time>2026-05-03T13:28:30Z</time></trkpt><trkpt lat="44.1744448" lon="10.4035889"><ele>924.3333333333333</ele><time>2026-05-03T13:28:33Z</time></trkpt><trkpt lat="44.1744232" lon="10.4034627"><ele>926.1666666666666</ele><time>2026-05-03T13:28:36Z</time></trkpt><trkpt lat="44.1744144" lon="10.4033345"><ele>928.0</ele><time>2026-05-03T13:28:39Z</time></trkpt><trkpt lat="44.1744186" lon="10.4032144"><ele>927.9999999999999</ele><time>2026-05-03T13:28:42Z</time></trkpt><trkpt lat="44.1744442" lon="10.4031054"><ele>928.0</ele><time>2026-05-03T13:28:45Z</time></trkpt><trkpt lat="44.1744835" lon="10.4030094"><ele>928.0</ele><time>2026-05-03T13:28:47.999Z</time></trkpt><trkpt lat="44.1745399" lon="10.4029234"><ele>928.0</ele><time>2026-05-03T13:28:51Z</time></trkpt><trkpt lat="44.1745859" lon="10.4028407"><ele>927.9999999999999</ele><time>2026-05-03T13:28:54Z</time></trkpt><trkpt lat="44.1746385" lon="10.4027539"><ele>928.0</ele><time>2026-05-03T13:28:57Z</time></trkpt><trkpt lat="44.1746942" lon="10.4026634"><ele>925.9999999999999</ele><time>2026-05-03T13:29:00Z</time></trkpt><trkpt lat="44.1747635" lon="10.4025977"><ele>924.0</ele><time>2026-05-03T13:29:03Z</time></trkpt><trkpt lat="44.1748387" lon="10.4026451"><ele>922.0</ele><time>2026-05-03T13:29:06Z</time></trkpt><trkpt lat="44.1748096" lon="10.4027442"><ele>920.0</ele><time>2026-05-03T13:29:09Z</time></trkpt><trkpt lat="44.1747485" lon="10.4028207"><ele>917.9999999999999</ele><time>2026-05-03T13:29:11.999Z</time></trkpt><trkpt lat="44.1746829" lon="10.4028929"><ele>916.0</ele><time>2026-05-03T13:29:14.993Z</time></trkpt><trkpt lat="44.1746277" lon="10.4029757"><ele>917.9999999999999</ele><time>2026-05-03T13:29:18Z</time></trkpt><trkpt lat="44.1745888" lon="10.4030694"><ele>920.0</ele><time>2026-05-03T13:29:21Z</time></trkpt><trkpt lat="44.1745689" lon="10.4031792"><ele>922.0</ele><time>2026-05-03T13:29:23.999Z</time></trkpt><trkpt lat="44.1745703" lon="10.4032889"><ele>924.0</ele><time>2026-05-03T13:29:27Z</time></trkpt><trkpt lat="44.1745918" lon="10.4033926"><ele>925.9999999999999</ele><time>2026-05-03T13:29:30Z</time></trkpt><trkpt lat="44.1746322" lon="10.4034845"><ele>928.0</ele><time>2026-05-03T13:29:33Z</time></trkpt><trkpt lat="44.1746827" lon="10.4035718"><ele>927.9999999999999</ele><time>2026-05-03T13:29:36Z</time></trkpt><trkpt lat="44.1747377" lon="10.4036619"><ele>928.0</ele><time>2026-05-03T13:29:38.999Z</time></trkpt><trkpt lat="44.1747865" lon="10.4037483"><ele>928.0</ele><time>2026-05-03T13:29:42Z</time></trkpt><trkpt lat="44.1748349" lon="10.4038351"><ele>928.0</ele><time>2026-05-03T13:29:44.999Z</time></trkpt><trkpt lat="44.1748793" lon="10.4039315"><ele>927.9999999999999</ele><time>2026-05-03T13:29:48Z</time></trkpt><trkpt lat="44.1749261" lon="10.404025"><ele>928.0</ele><time>2026-05-03T13:29:51Z</time></trkpt><trkpt lat="44.1749786" lon="10.4041196"><ele>931.9999999999999</ele><time>2026-05-03T13:29:54Z</time></trkpt><trkpt lat="44.1750235" lon="10.4042008"><ele>936.0</ele><time>2026-05-03T13:29:57Z</time></trkpt><trkpt lat="44.1750637" lon="10.4042766"><ele>940.0</ele><time>2026-05-03T13:30:00Z</time></trkpt><trkpt lat="44.1751115" lon="10.4043695"><ele>944.0</ele><time>2026-05-03T13:30:03Z</time></trkpt><trkpt lat="44.1751595" lon="10.4044589"><ele>947.9999999999999</ele><time>2026-05-03T13:30:06Z</time></trkpt><trkpt lat="44.1752044" lon="10.4045351"><ele>952.0</ele><time>2026-05-03T13:30:09Z</time></trkpt><trkpt lat="44.1752536" lon="10.4046225"><ele>949.9999999999999</ele><time>2026-05-03T13:30:11.999Z</time></trkpt><trkpt lat="44.1753003" lon="10.4047111"><ele>948.0</ele><time>2026-05-03T13:30:14.999Z</time></trkpt><trkpt lat="44.1753445" lon="10.4048096"><ele>946.0</ele><time>2026-05-03T13:30:17.996Z</time></trkpt><trkpt lat="44.1753947" lon="10.4049072"><ele>944.0</ele><time>2026-05-03T13:30:21Z</time></trkpt><trkpt lat="44.1754468" lon="10.4050101"><ele>941.9999999999999</ele><time>2026-05-03T13:30:24Z</time></trkpt><trkpt lat="44.175483" lon="10.4050829"><ele>940.0</ele><time>2026-05-03T13:30:26Z</time></trkpt><trkpt lat="44.1755263" lon="10.4051726"><ele>939.9999999999999</ele><time>2026-05-03T13:30:28.997Z</time></trkpt><trkpt lat="44.1755741" lon="10.4052621"><ele>940.0</ele><time>2026-05-03T13:30:31.999Z</time></trkpt><trkpt lat="44.1756188" lon="10.4053613"><ele>940.0</ele><time>2026-05-03T13:30:35Z</time></trkpt><trkpt lat="44.1756636" lon="10.4054697"><ele>940.0</ele><time>2026-05-03T13:30:38Z</time></trkpt><trkpt lat="44.1757101" lon="10.4055653"><ele>939.9999999999999</ele><time>2026-05-03T13:30:41Z</time></trkpt><trkpt lat="44.17576" lon="10.4056566"><ele>940.0</ele><time>2026-05-03T13:30:44Z</time></trkpt><trkpt lat="44.1758069" lon="10.4057486"><ele>943.6666666666666</ele><time>2026-05-03T13:30:46.999Z</time></trkpt><trkpt lat="44.175854" lon="10.4058425"><ele>947.3333333333333</ele><time>2026-05-03T13:30:50Z</time></trkpt><trkpt lat="44.1759043" lon="10.4059373"><ele>951.0</ele><time>2026-05-03T13:30:52.999Z</time></trkpt><trkpt lat="44.1759506" lon="10.4060358"><ele>954.6666666666667</ele><time>2026-05-03T13:30:55.999Z</time></trkpt><trkpt lat="44.1760043" lon="10.4061293"><ele>958.3333333333334</ele><time>2026-05-03T13:30:59Z</time></trkpt><trkpt lat="44.1760552" lon="10.4062257"><ele>962.0</ele><time>2026-05-03T13:31:02Z</time></trkpt><trkpt lat="44.1761008" lon="10.4063214"><ele>960.0000000000001</ele><time>2026-05-03T13:31:05Z</time></trkpt><trkpt lat="44.1761464" lon="10.4064157"><ele>958.0</ele><time>2026-05-03T13:31:07.999Z</time></trkpt><trkpt lat="44.1761951" lon="10.406511"><ele>956.0</ele><time>2026-05-03T13:31:11Z</time></trkpt><trkpt lat="44.1762464" lon="10.4066028"><ele>954.0</ele><time>2026-05-03T13:31:14Z</time></trkpt><trkpt lat="44.1763015" lon="10.4066939"><ele>952.0000000000001</ele><time>2026-05-03T13:31:17Z</time></trkpt><trkpt lat="44.1763434" lon="10.4067868"><ele>950.0</ele><time>2026-05-03T13:31:20Z</time></trkpt><trkpt lat="44.1763911" lon="10.4068763"><ele>950.0000000000001</ele><time>2026-05-03T13:31:23Z</time></trkpt><trkpt lat="44.1764352" lon="10.4069702"><ele>950.0</ele><time>2026-05-03T13:31:26Z</time></trkpt><trkpt lat="44.1764751" lon="10.407056"><ele>950.0</ele><time>2026-05-03T13:31:29Z</time></trkpt><trkpt lat="44.1765186" lon="10.407156"><ele>950.0</ele><time>2026-05-03T13:31:32Z</time></trkpt><trkpt lat="44.1765434" lon="10.4072673"><ele>950.0000000000001</ele><time>2026-05-03T13:31:35Z</time></trkpt><trkpt lat="44.1765611" lon="10.4073768"><ele>950.0</ele><time>2026-05-03T13:31:37.999Z</time></trkpt><trkpt lat="44.1765624" lon="10.407493"><ele>949.3333333333334</ele><time>2026-05-03T13:31:41Z</time></trkpt><trkpt lat="44.176539" lon="10.4076014"><ele>948.6666666666667</ele><time>2026-05-03T13:31:44Z</time></trkpt><trkpt lat="44.1765036" lon="10.4076985"><ele>948.0</ele><time>2026-05-03T13:31:47Z</time></trkpt><trkpt lat="44.1764702" lon="10.4077974"><ele>947.3333333333333</ele><time>2026-05-03T13:31:50Z</time></trkpt><trkpt lat="44.17644" lon="10.4078943"><ele>946.6666666666666</ele><time>2026-05-03T13:31:53Z</time></trkpt><trkpt lat="44.1764123" lon="10.4079946"><ele>946.0</ele><time>2026-05-03T13:31:56Z</time></trkpt><trkpt lat="44.1763753" lon="10.4080897"><ele>945.9999999999999</ele><time>2026-05-03T13:31:59Z</time></trkpt><trkpt lat="44.176348" lon="10.4081967"><ele>946.0</ele><time>2026-05-03T13:32:01.999Z</time></trkpt><trkpt lat="44.1763379" lon="10.4083111"><ele>946.0</ele><time>2026-05-03T13:32:05Z</time></trkpt><trkpt lat="44.1763351" lon="10.4084066"><ele>946.0</ele><time>2026-05-03T13:32:07Z</time></trkpt><trkpt lat="44.1763431" lon="10.4085259"><ele>945.9999999999999</ele><time>2026-05-03T13:32:10Z</time></trkpt><trkpt lat="44.176358" lon="10.4086415"><ele>946.0</ele><time>2026-05-03T13:32:12.999Z</time></trkpt><trkpt lat="44.1763718" lon="10.4087536"><ele>946.8333333333333</ele><time>2026-05-03T13:32:16Z</time></trkpt><trkpt lat="44.1763789" lon="10.4088713"><ele>947.6666666666666</ele><time>2026-05-03T13:32:18.996Z</time></trkpt><trkpt lat="44.1763904" lon="10.4089715"><ele>948.5</ele><time>2026-05-03T13:32:22Z</time></trkpt><trkpt lat="44.1764104" lon="10.4090815"><ele>949.3333333333333</ele><time>2026-05-03T13:32:25Z</time></trkpt><trkpt lat="44.1764482" lon="10.409189"><ele>950.1666666666666</ele><time>2026-05-03T13:32:28Z</time></trkpt><trkpt lat="44.176494" lon="10.4092659"><ele>951.0</ele><time>2026-05-03T13:32:30.999Z</time></trkpt><trkpt lat="44.1765533" lon="10.4093345"><ele>956.3333333333334</ele><time>2026-05-03T13:32:33.999Z</time></trkpt><trkpt lat="44.1766131" lon="10.4093831"><ele>961.6666666666667</ele><time>2026-05-03T13:32:36.999Z</time></trkpt><trkpt lat="44.1767" lon="10.4094244"><ele>967.0</ele><time>2026-05-03T13:32:41Z</time></trkpt><trkpt lat="44.1767835" lon="10.4094636"><ele>972.3333333333334</ele><time>2026-05-03T13:32:43.999Z</time></trkpt><trkpt lat="44.1768605" lon="10.4094888"><ele>977.6666666666667</ele><time>2026-05-03T13:32:47Z</time></trkpt><trkpt lat="44.1769399" lon="10.4095076"><ele>983.0</ele><time>2026-05-03T13:32:50Z</time></trkpt><trkpt lat="44.1770201" lon="10.4095331"><ele>983.0000000000001</ele><time>2026-05-03T13:32:52.997Z</time></trkpt><trkpt lat="44.177102" lon="10.4095712"><ele>983.0</ele><time>2026-05-03T13:32:57Z</time></trkpt><trkpt lat="44.1771684" lon="10.4096429"><ele>983.0</ele><time>2026-05-03T13:33:00Z</time></trkpt><trkpt lat="44.1772045" lon="10.4097482"><ele>983.0</ele><time>2026-05-03T13:33:03Z</time></trkpt><trkpt lat="44.1771982" lon="10.4098558"><ele>983.0000000000001</ele><time>2026-05-03T13:33:06Z</time></trkpt><trkpt lat="44.177164" lon="10.4099659"><ele>983.0</ele><time>2026-05-03T13:33:09Z</time></trkpt><trkpt lat="44.1771198" lon="10.4100769"><ele>982.0000000000001</ele><time>2026-05-03T13:33:12Z</time></trkpt><trkpt lat="44.1770762" lon="10.4101832"><ele>981.0</ele><time>2026-05-03T13:33:15Z</time></trkpt><trkpt lat="44.1770387" lon="10.410283"><ele>980.0</ele><time>2026-05-03T13:33:17.995Z</time></trkpt><trkpt lat="44.1770182" lon="10.410389"><ele>979.0</ele><time>2026-05-03T13:33:21Z</time></trkpt><trkpt lat="44.177033" lon="10.4105105"><ele>978.0000000000001</ele><time>2026-05-03T13:33:24Z</time></trkpt><trkpt lat="44.1770869" lon="10.4106034"><ele>977.0</ele><time>2026-05-03T13:33:27Z</time></trkpt><trkpt lat="44.1771481" lon="10.410665"><ele>976.6666666666667</ele><time>2026-05-03T13:33:30Z</time></trkpt><trkpt lat="44.177219" lon="10.4107326"><ele>976.3333333333334</ele><time>2026-05-03T13:33:33Z</time></trkpt><trkpt lat="44.1772912" lon="10.4108023"><ele>976.0</ele><time>2026-05-03T13:33:36Z</time></trkpt><trkpt lat="44.1773577" lon="10.4108811"><ele>975.6666666666667</ele><time>2026-05-03T13:33:38.999Z</time></trkpt><trkpt lat="44.1774097" lon="10.4109635"><ele>975.3333333333334</ele><time>2026-05-03T13:33:41.998Z</time></trkpt><trkpt lat="44.1774516" lon="10.4110461"><ele>975.0</ele><time>2026-05-03T13:33:45Z</time></trkpt><trkpt lat="44.1774924" lon="10.4111259"><ele>979.8333333333334</ele><time>2026-05-03T13:33:48Z</time></trkpt><trkpt lat="44.1775382" lon="10.4112199"><ele>984.6666666666667</ele><time>2026-05-03T13:33:50.998Z</time></trkpt><trkpt lat="44.1775647" lon="10.4113314"><ele>989.5</ele><time>2026-05-03T13:33:54Z</time></trkpt><trkpt lat="44.1775699" lon="10.4114475"><ele>994.3333333333334</ele><time>2026-05-03T13:33:57Z</time></trkpt><trkpt lat="44.1775573" lon="10.411556"><ele>999.1666666666667</ele><time>2026-05-03T13:34:00.013Z</time></trkpt><trkpt lat="44.1775251" lon="10.4116584"><ele>1004.0</ele><time>2026-05-03T13:34:02.999Z</time></trkpt><trkpt lat="44.177484" lon="10.4117624"><ele>1004.0000000000001</ele><time>2026-05-03T13:34:05.951Z</time></trkpt><trkpt lat="44.177456" lon="10.4118679"><ele>1004.0</ele><time>2026-05-03T13:34:09Z</time></trkpt><trkpt lat="44.1774702" lon="10.4119922"><ele>1004.0</ele><time>2026-05-03T13:34:12Z</time></trkpt><trkpt lat="44.1774974" lon="10.4120716"><ele>1004.0</ele><time>2026-05-03T13:34:14Z</time></trkpt><trkpt lat="44.1775278" lon="10.41215"><ele>1004.0000000000001</ele><time>2026-05-03T13:34:16Z</time></trkpt><trkpt lat="44.177566" lon="10.412258"><ele>1004.0</ele><time>2026-05-03T13:34:18.999Z</time></trkpt><trkpt lat="44.1776116" lon="10.4123577"><ele>1003.3333333333334</ele><time>2026-05-03T13:34:22Z</time></trkpt><trkpt lat="44.1776551" lon="10.4124599"><ele>1002.6666666666667</ele><time>2026-05-03T13:34:25Z</time></trkpt><trkpt lat="44.177702" lon="10.4125517"><ele>1002.0</ele><time>2026-05-03T13:34:28Z</time></trkpt><trkpt lat="44.1777516" lon="10.4126363"><ele>1001.3333333333333</ele><time>2026-05-03T13:34:30.999Z</time></trkpt><trkpt lat="44.1778107" lon="10.4127071"><ele>1000.6666666666666</ele><time>2026-05-03T13:34:34Z</time></trkpt><trkpt lat="44.1778661" lon="10.4127869"><ele>1000.0</ele><time>2026-05-03T13:34:37Z</time></trkpt><trkpt lat="44.1779314" lon="10.4128602"><ele>999.9999999999999</ele><time>2026-05-03T13:34:40Z</time></trkpt><trkpt lat="44.1779953" lon="10.4128984"><ele>1000.0</ele><time>2026-05-03T13:34:43Z</time></trkpt><trkpt lat="44.1780558" lon="10.4128279"><ele>1000.0</ele><time>2026-05-03T13:34:46Z</time></trkpt><trkpt lat="44.1780447" lon="10.4127222"><ele>1000.0</ele><time>2026-05-03T13:34:49Z</time></trkpt><trkpt lat="44.177987" lon="10.4126429"><ele>999.9999999999999</ele><time>2026-05-03T13:34:51.999Z</time></trkpt><trkpt lat="44.1779301" lon="10.4125804"><ele>1000.0</ele><time>2026-05-03T13:34:55Z</time></trkpt><trkpt lat="44.1778695" lon="10.4124945"><ele>999.9999999999999</ele><time>2026-05-03T13:34:58Z</time></trkpt><trkpt lat="44.1778382" lon="10.4124155"><ele>1000.0</ele><time>2026-05-03T13:35:00Z</time></trkpt><trkpt lat="44.1778215" lon="10.4123055"><ele>1000.0</ele><time>2026-05-03T13:35:03Z</time></trkpt><trkpt lat="44.1778174" lon="10.4121819"><ele>1000.0</ele><time>2026-05-03T13:35:06Z</time></trkpt><trkpt lat="44.1778154" lon="10.4120673"><ele>999.9999999999999</ele><time>2026-05-03T13:35:09Z</time></trkpt><trkpt lat="44.1778138" lon="10.4119458"><ele>1000.0</ele><time>2026-05-03T13:35:12Z</time></trkpt><trkpt lat="44.1778144" lon="10.4118384"><ele>1000.6666666666666</ele><time>2026-05-03T13:35:15Z</time></trkpt><trkpt lat="44.1778219" lon="10.4117251"><ele>1001.3333333333333</ele><time>2026-05-03T13:35:18Z</time></trkpt><trkpt lat="44.1778496" lon="10.4116234"><ele>1002.0</ele><time>2026-05-03T13:35:21Z</time></trkpt><trkpt lat="44.1778893" lon="10.4115192"><ele>1002.6666666666667</ele><time>2026-05-03T13:35:23.999Z</time></trkpt><trkpt lat="44.177931" lon="10.4114341"><ele>1003.3333333333334</ele><time>2026-05-03T13:35:26.999Z</time></trkpt><trkpt lat="44.1779749" lon="10.4113607"><ele>1004.0</ele><time>2026-05-03T13:35:29.999Z</time></trkpt><trkpt lat="44.1780143" lon="10.4112458"><ele>1004.5000000000001</ele><time>2026-05-03T13:35:33Z</time></trkpt><trkpt lat="44.1780144" lon="10.4111314"><ele>1005.0</ele><time>2026-05-03T13:35:36Z</time></trkpt><trkpt lat="44.1780038" lon="10.4110405"><ele>1005.5</ele><time>2026-05-03T13:35:37.999Z</time></trkpt><trkpt lat="44.1779851" lon="10.4109183"><ele>1006.0</ele><time>2026-05-03T13:35:41Z</time></trkpt><trkpt lat="44.1779589" lon="10.4107925"><ele>1006.5000000000001</ele><time>2026-05-03T13:35:43.999Z</time></trkpt><trkpt lat="44.1779279" lon="10.4106756"><ele>1007.0</ele><time>2026-05-03T13:35:46.999Z</time></trkpt><trkpt lat="44.1779078" lon="10.4105618"><ele>1006.8333333333334</ele><time>2026-05-03T13:35:50Z</time></trkpt><trkpt lat="44.1778863" lon="10.4104595"><ele>1006.6666666666667</ele><time>2026-05-03T13:35:52.997Z</time></trkpt><trkpt lat="44.1778595" lon="10.4103472"><ele>1006.5</ele><time>2026-05-03T13:35:56Z</time></trkpt><trkpt lat="44.1778443" lon="10.4102567"><ele>1006.3333333333333</ele><time>2026-05-03T13:35:59Z</time></trkpt><trkpt lat="44.1778545" lon="10.4101594"><ele>1006.1666666666666</ele><time>2026-05-03T13:36:02Z</time></trkpt><trkpt lat="44.1778839" lon="10.4100394"><ele>1006.0</ele><time>2026-05-03T13:36:05Z</time></trkpt><trkpt lat="44.1779082" lon="10.4099476"><ele>1006.0</ele><time>2026-05-03T13:36:07Z</time></trkpt><trkpt lat="44.1779276" lon="10.4098512"><ele>1006.0000000000001</ele><time>2026-05-03T13:36:09Z</time></trkpt><trkpt lat="44.1779473" lon="10.4097484"><ele>1006.0</ele><time>2026-05-03T13:36:11Z</time></trkpt><trkpt lat="44.1779595" lon="10.4096617"><ele>1006.0</ele><time>2026-05-03T13:36:12.999Z</time></trkpt><trkpt lat="44.1779677" lon="10.4095335"><ele>1006.0000000000001</ele><time>2026-05-03T13:36:16Z</time></trkpt><trkpt lat="44.1779503" lon="10.4094466"><ele>1006.0</ele><time>2026-05-03T13:36:17.999Z</time></trkpt><trkpt lat="44.1779223" lon="10.4093593"><ele>1006.0</ele><time>2026-05-03T13:36:19.999Z</time></trkpt><trkpt lat="44.1778915" lon="10.4092743"><ele>1007.6666666666666</ele><time>2026-05-03T13:36:22Z</time></trkpt><trkpt lat="44.1778541" lon="10.4091975"><ele>1009.3333333333333</ele><time>2026-05-03T13:36:24Z</time></trkpt><trkpt lat="44.1778209" lon="10.4091199"><ele>1011.0</ele><time>2026-05-03T13:36:26Z</time></trkpt><trkpt lat="44.1777817" lon="10.4090042"><ele>1012.6666666666667</ele><time>2026-05-03T13:36:28.998Z</time></trkpt><trkpt lat="44.1777558" lon="10.4088973"><ele>1014.3333333333334</ele><time>2026-05-03T13:36:32Z</time></trkpt><trkpt lat="44.1777442" lon="10.4087879"><ele>1016.0</ele><time>2026-05-03T13:36:35Z</time></trkpt><trkpt lat="44.1777415" lon="10.4086683"><ele>1017.0</ele><time>2026-05-03T13:36:38Z</time></trkpt><trkpt lat="44.1777415" lon="10.4085732"><ele>1018.0</ele><time>2026-05-03T13:36:40Z</time></trkpt><trkpt lat="44.1777412" lon="10.4084811"><ele>1019.0</ele><time>2026-05-03T13:36:41.996Z</time></trkpt><trkpt lat="44.1777517" lon="10.4083877"><ele>1020.0</ele><time>2026-05-03T13:36:44Z</time></trkpt><trkpt lat="44.1777694" lon="10.4082969"><ele>1021.0</ele><time>2026-05-03T13:36:46Z</time></trkpt><trkpt lat="44.17779" lon="10.4082004"><ele>1022.0</ele><time>2026-05-03T13:36:48Z</time></trkpt><trkpt lat="44.1778172" lon="10.4081145"><ele>1023.0</ele><time>2026-05-03T13:36:50Z</time></trkpt><trkpt lat="44.1778518" lon="10.4080403"><ele>1021.8333333333334</ele><time>2026-05-03T13:36:51.999Z</time></trkpt><trkpt lat="44.1779059" lon="10.4079431"><ele>1020.6666666666667</ele><time>2026-05-03T13:36:55Z</time></trkpt><trkpt lat="44.1779652" lon="10.4078412"><ele>1019.5</ele><time>2026-05-03T13:36:57.999Z</time></trkpt><trkpt lat="44.1780255" lon="10.4077471"><ele>1018.3333333333334</ele><time>2026-05-03T13:37:01Z</time></trkpt><trkpt lat="44.1780867" lon="10.4076509"><ele>1017.1666666666667</ele><time>2026-05-03T13:37:03.996Z</time></trkpt><trkpt lat="44.1781237" lon="10.40755"><ele>1016.0</ele><time>2026-05-03T13:37:06.995Z</time></trkpt><trkpt lat="44.1781396" lon="10.4074637"><ele>1016.0</ele><time>2026-05-03T13:37:08.998Z</time></trkpt><trkpt lat="44.1781498" lon="10.4073717"><ele>1016.0</ele><time>2026-05-03T13:37:11Z</time></trkpt><trkpt lat="44.1781534" lon="10.4072747"><ele>1016.0</ele><time>2026-05-03T13:37:13Z</time></trkpt><trkpt lat="44.1781566" lon="10.4071838"><ele>1016.0</ele><time>2026-05-03T13:37:15Z</time></trkpt><trkpt lat="44.1781627" lon="10.4070941"><ele>1016.0</ele><time>2026-05-03T13:37:17Z</time></trkpt><trkpt lat="44.1781747" lon="10.407003"><ele>1016.0</ele><time>2026-05-03T13:37:19Z</time></trkpt><trkpt lat="44.1781895" lon="10.4069126"><ele>1016.0</ele><time>2026-05-03T13:37:20.999Z</time></trkpt><trkpt lat="44.1782085" lon="10.4068237"><ele>1018.2857142857143</ele><time>2026-05-03T13:37:23Z</time></trkpt><trkpt lat="44.1782276" lon="10.4067373"><ele>1020.5714285714284</ele><time>2026-05-03T13:37:24.999Z</time></trkpt><trkpt lat="44.1782626" lon="10.4066162"><ele>1022.8571428571428</ele><time>2026-05-03T13:37:28Z</time></trkpt><trkpt lat="44.1782859" lon="10.4065312"><ele>1025.142857142857</ele><time>2026-05-03T13:37:30Z</time></trkpt><trkpt lat="44.1783098" lon="10.4064489"><ele>1027.4285714285713</ele><time>2026-05-03T13:37:32Z</time></trkpt><trkpt lat="44.1783463" lon="10.4063257"><ele>1029.7142857142856</ele><time>2026-05-03T13:37:34.999Z</time></trkpt><trkpt lat="44.1783703" lon="10.4062425"><ele>1032.0</ele><time>2026-05-03T13:37:37Z</time></trkpt><trkpt lat="44.1784271" lon="10.4061401"><ele>1032.0</ele><time>2026-05-03T13:37:39.999Z</time></trkpt><trkpt lat="44.1785025" lon="10.4060703"><ele>1032.0</ele><time>2026-05-03T13:37:43Z</time></trkpt><trkpt lat="44.178566" lon="10.4060532"><ele>1032.0</ele><time>2026-05-03T13:37:44.999Z</time></trkpt><trkpt lat="44.1786436" lon="10.4060922"><ele>1032.0</ele><time>2026-05-03T13:37:47.999Z</time></trkpt><trkpt lat="44.1787123" lon="10.4061668"><ele>1032.0</ele><time>2026-05-03T13:37:51Z</time></trkpt><trkpt lat="44.178776" lon="10.4062647"><ele>1032.0</ele><time>2026-05-03T13:37:54Z</time></trkpt><trkpt lat="44.1788331" lon="10.4063587"><ele>1034.1666666666667</ele><time>2026-05-03T13:37:56.999Z</time></trkpt><trkpt lat="44.1788934" lon="10.4064595"><ele>1036.3333333333333</ele><time>2026-05-03T13:37:59.999Z</time></trkpt><trkpt lat="44.1789512" lon="10.4065599"><ele>1038.5</ele><time>2026-05-03T13:38:03Z</time></trkpt><trkpt lat="44.178995" lon="10.4066279"><ele>1040.6666666666665</ele><time>2026-05-03T13:38:04.997Z</time></trkpt><trkpt lat="44.1790594" lon="10.4067168"><ele>1042.8333333333333</ele><time>2026-05-03T13:38:07.999Z</time></trkpt><trkpt lat="44.17913" lon="10.4067848"><ele>1045.0</ele><time>2026-05-03T13:38:11Z</time></trkpt><trkpt lat="44.1792045" lon="10.4068402"><ele>1045.0</ele><time>2026-05-03T13:38:13Z</time></trkpt><trkpt lat="44.1792813" lon="10.4068937"><ele>1045.0</ele><time>2026-05-03T13:38:15Z</time></trkpt><trkpt lat="44.1793606" lon="10.4069483"><ele>1045.0</ele><time>2026-05-03T13:38:17Z</time></trkpt><trkpt lat="44.1794248" lon="10.4069947"><ele>1045.0</ele><time>2026-05-03T13:38:19Z</time></trkpt><trkpt lat="44.1795051" lon="10.4070332"><ele>1045.0</ele><time>2026-05-03T13:38:21.999Z</time></trkpt><trkpt lat="44.1795654" lon="10.4070662"><ele>1045.0</ele><time>2026-05-03T13:38:24Z</time></trkpt><trkpt lat="44.179628" lon="10.4071119"><ele>1048.0</ele><time>2026-05-03T13:38:25.999Z</time></trkpt><trkpt lat="44.1796869" lon="10.4071643"><ele>1051.0</ele><time>2026-05-03T13:38:28Z</time></trkpt><trkpt lat="44.1797444" lon="10.4072224"><ele>1054.0</ele><time>2026-05-03T13:38:29.996Z</time></trkpt><trkpt lat="44.1798023" lon="10.4072778"><ele>1057.0</ele><time>2026-05-03T13:38:31.999Z</time></trkpt><trkpt lat="44.1798575" lon="10.4073326"><ele>1060.0</ele><time>2026-05-03T13:38:33.997Z</time></trkpt><trkpt lat="44.1799274" lon="10.4073923"><ele>1063.0</ele><time>2026-05-03T13:38:37Z</time></trkpt><trkpt lat="44.1799907" lon="10.4074319"><ele>1066.0</ele><time>2026-05-03T13:38:39Z</time></trkpt><trkpt lat="44.1800574" lon="10.4074674"><ele>1066.0</ele><time>2026-05-03T13:38:41Z</time></trkpt><trkpt lat="44.1801209" lon="10.4074936"><ele>1066.0</ele><time>2026-05-03T13:38:43Z</time></trkpt><trkpt lat="44.1801909" lon="10.4075198"><ele>1066.0</ele><time>2026-05-03T13:38:45Z</time></trkpt><trkpt lat="44.1802579" lon="10.4075394"><ele>1066.0</ele><time>2026-05-03T13:38:46.999Z</time></trkpt><trkpt lat="44.180331" lon="10.407572"><ele>1066.0</ele><time>2026-05-03T13:38:49Z</time></trkpt><trkpt lat="44.1803955" lon="10.4075977"><ele>1066.0</ele><time>2026-05-03T13:38:50.999Z</time></trkpt><trkpt lat="44.1804802" lon="10.4076276"><ele>1066.0</ele><time>2026-05-03T13:38:54Z</time></trkpt><trkpt lat="44.1805434" lon="10.4076565"><ele>1066.0</ele><time>2026-05-03T13:38:56Z</time></trkpt><trkpt lat="44.1806065" lon="10.4076859"><ele>1066.0</ele><time>2026-05-03T13:38:57.999Z</time></trkpt><trkpt lat="44.1806666" lon="10.4077204"><ele>1066.0</ele><time>2026-05-03T13:39:00Z</time></trkpt><trkpt lat="44.1807258" lon="10.4077606"><ele>1066.0</ele><time>2026-05-03T13:39:02Z</time></trkpt><trkpt lat="44.1808046" lon="10.4078187"><ele>1066.0</ele><time>2026-05-03T13:39:05Z</time></trkpt><trkpt lat="44.1808637" lon="10.4078622"><ele>1066.0</ele><time>2026-05-03T13:39:07Z</time></trkpt><trkpt lat="44.1809236" lon="10.4079065"><ele>1066.0</ele><time>2026-05-03T13:39:08.998Z</time></trkpt><trkpt lat="44.1809874" lon="10.4079263"><ele>1063.0</ele><time>2026-05-03T13:39:10.999Z</time></trkpt><trkpt lat="44.1810521" lon="10.4079263"><ele>1060.0</ele><time>2026-05-03T13:39:13Z</time></trkpt><trkpt lat="44.1811169" lon="10.407925"><ele>1057.0</ele><time>2026-05-03T13:39:14.999Z</time></trkpt><trkpt lat="44.1811825" lon="10.4079259"><ele>1054.0</ele><time>2026-05-03T13:39:17Z</time></trkpt><trkpt lat="44.1812735" lon="10.40792"><ele>1051.0</ele><time>2026-05-03T13:39:20Z</time></trkpt><trkpt lat="44.1813468" lon="10.4079226"><ele>1048.0</ele><time>2026-05-03T13:39:22Z</time></trkpt><trkpt lat="44.1814236" lon="10.4079205"><ele>1045.0</ele><time>2026-05-03T13:39:24Z</time></trkpt><trkpt lat="44.1814989" lon="10.4079205"><ele>1044.0</ele><time>2026-05-03T13:39:26Z</time></trkpt><trkpt lat="44.1815765" lon="10.4079247"><ele>1043.0</ele><time>2026-05-03T13:39:28Z</time></trkpt><trkpt lat="44.1816519" lon="10.4079374"><ele>1042.0</ele><time>2026-05-03T13:39:30Z</time></trkpt><trkpt lat="44.1817251" lon="10.4079598"><ele>1041.0</ele><time>2026-05-03T13:39:32Z</time></trkpt><trkpt lat="44.1817939" lon="10.4080031"><ele>1040.0</ele><time>2026-05-03T13:39:34Z</time></trkpt><trkpt lat="44.1818592" lon="10.4080574"><ele>1039.0</ele><time>2026-05-03T13:39:36Z</time></trkpt><trkpt lat="44.1819169" lon="10.4081239"><ele>1042.3333333333333</ele><time>2026-05-03T13:39:37.995Z</time></trkpt><trkpt lat="44.1819813" lon="10.4081867"><ele>1045.6666666666665</ele><time>2026-05-03T13:39:40Z</time></trkpt><trkpt lat="44.182045" lon="10.4082448"><ele>1049.0</ele><time>2026-05-03T13:39:41.999Z</time></trkpt><trkpt lat="44.1821205" lon="10.4082799"><ele>1052.3333333333333</ele><time>2026-05-03T13:39:44Z</time></trkpt><trkpt lat="44.1821984" lon="10.4082955"><ele>1055.6666666666667</ele><time>2026-05-03T13:39:46Z</time></trkpt><trkpt lat="44.1822815" lon="10.4083041"><ele>1059.0</ele><time>2026-05-03T13:39:48Z</time></trkpt><trkpt lat="44.1823661" lon="10.4083087"><ele>1059.0</ele><time>2026-05-03T13:39:49.999Z</time></trkpt><trkpt lat="44.1824437" lon="10.4083062"><ele>1059.0</ele><time>2026-05-03T13:39:52Z</time></trkpt><trkpt lat="44.1825218" lon="10.4083049"><ele>1059.0</ele><time>2026-05-03T13:39:53.999Z</time></trkpt><trkpt lat="44.1826017" lon="10.4083022"><ele>1059.0</ele><time>2026-05-03T13:39:56Z</time></trkpt><trkpt lat="44.1826824" lon="10.4083077"><ele>1059.0</ele><time>2026-05-03T13:39:57.998Z</time></trkpt><trkpt lat="44.1827624" lon="10.4083307"><ele>1059.0</ele><time>2026-05-03T13:39:59.998Z</time></trkpt><trkpt lat="44.1828464" lon="10.4083557"><ele>1059.0</ele><time>2026-05-03T13:40:02Z</time></trkpt><trkpt lat="44.1829235" lon="10.4083915"><ele>1059.0</ele><time>2026-05-03T13:40:04Z</time></trkpt><trkpt lat="44.1829969" lon="10.4084263"><ele>1059.0</ele><time>2026-05-03T13:40:05.997Z</time></trkpt><trkpt lat="44.1830668" lon="10.4084641"><ele>1059.0</ele><time>2026-05-03T13:40:08Z</time></trkpt><trkpt lat="44.1831467" lon="10.4085104"><ele>1059.0</ele><time>2026-05-03T13:40:10Z</time></trkpt><trkpt lat="44.1832301" lon="10.4085429"><ele>1059.0</ele><time>2026-05-03T13:40:12Z</time></trkpt><trkpt lat="44.1833136" lon="10.4085649"><ele>1059.5</ele><time>2026-05-03T13:40:14Z</time></trkpt><trkpt lat="44.1833974" lon="10.408588"><ele>1060.0</ele><time>2026-05-03T13:40:16Z</time></trkpt><trkpt lat="44.1834809" lon="10.4086143"><ele>1060.5</ele><time>2026-05-03T13:40:18Z</time></trkpt><trkpt lat="44.1835651" lon="10.4086114"><ele>1061.0</ele><time>2026-05-03T13:40:19.999Z</time></trkpt><trkpt lat="44.1836442" lon="10.4085905"><ele>1061.5</ele><time>2026-05-03T13:40:22Z</time></trkpt><trkpt lat="44.1837268" lon="10.4085657"><ele>1062.0</ele><time>2026-05-03T13:40:24Z</time></trkpt><trkpt lat="44.1838105" lon="10.4085431"><ele>1062.0</ele><time>2026-05-03T13:40:26Z</time></trkpt><trkpt lat="44.1838914" lon="10.408523"><ele>1062.0</ele><time>2026-05-03T13:40:28Z</time></trkpt><trkpt lat="44.1839687" lon="10.4085024"><ele>1062.0</ele><time>2026-05-03T13:40:30Z</time></trkpt><trkpt lat="44.1840448" lon="10.4084834"><ele>1062.0</ele><time>2026-05-03T13:40:32Z</time></trkpt><trkpt lat="44.1841192" lon="10.4084634"><ele>1062.0</ele><time>2026-05-03T13:40:34Z</time></trkpt><trkpt lat="44.1841957" lon="10.4084458"><ele>1062.0</ele><time>2026-05-03T13:40:35.997Z</time></trkpt><trkpt lat="44.1842691" lon="10.4084392"><ele>1063.1666666666667</ele><time>2026-05-03T13:40:37.999Z</time></trkpt><trkpt lat="44.1843406" lon="10.4084338"><ele>1064.3333333333333</ele><time>2026-05-03T13:40:40Z</time></trkpt><trkpt lat="44.1844153" lon="10.4084145"><ele>1065.5</ele><time>2026-05-03T13:40:42Z</time></trkpt><trkpt lat="44.1844872" lon="10.4083779"><ele>1066.6666666666665</ele><time>2026-05-03T13:40:43.995Z</time></trkpt><trkpt lat="44.1845452" lon="10.4083174"><ele>1067.8333333333333</ele><time>2026-05-03T13:40:46Z</time></trkpt><trkpt lat="44.1845984" lon="10.408239"><ele>1069.0</ele><time>2026-05-03T13:40:48Z</time></trkpt><trkpt lat="44.184643" lon="10.4081501"><ele>1069.0</ele><time>2026-05-03T13:40:50Z</time></trkpt><trkpt lat="44.1846768" lon="10.4080525"><ele>1069.0</ele><time>2026-05-03T13:40:51.999Z</time></trkpt><trkpt lat="44.1847085" lon="10.4079572"><ele>1069.0</ele><time>2026-05-03T13:40:54Z</time></trkpt><trkpt lat="44.1847404" lon="10.4078639"><ele>1069.0</ele><time>2026-05-03T13:40:56Z</time></trkpt><trkpt lat="44.184776" lon="10.4077792"><ele>1069.0</ele><time>2026-05-03T13:40:58Z</time></trkpt><trkpt lat="44.1848159" lon="10.407692"><ele>1069.0</ele><time>2026-05-03T13:41:00Z</time></trkpt><trkpt lat="44.1848736" lon="10.4076232"><ele>1069.0</ele><time>2026-05-03T13:41:02Z</time></trkpt><trkpt lat="44.1849451" lon="10.4075882"><ele>1066.857142857143</ele><time>2026-05-03T13:41:03.997Z</time></trkpt><trkpt lat="44.1850174" lon="10.4075788"><ele>1064.7142857142858</ele><time>2026-05-03T13:41:05.997Z</time></trkpt><trkpt lat="44.1850817" lon="10.4075891"><ele>1062.5714285714287</ele><time>2026-05-03T13:41:08Z</time></trkpt><trkpt lat="44.185144" lon="10.4076154"><ele>1060.4285714285716</ele><time>2026-05-03T13:41:10Z</time></trkpt><trkpt lat="44.1852069" lon="10.4076548"><ele>1058.2857142857142</ele><time>2026-05-03T13:41:12Z</time></trkpt><trkpt lat="44.1852677" lon="10.4077016"><ele>1056.1428571428573</ele><time>2026-05-03T13:41:14Z</time></trkpt><trkpt lat="44.1853261" lon="10.4077506"><ele>1054.0</ele><time>2026-05-03T13:41:16Z</time></trkpt><trkpt lat="44.185379" lon="10.4077997"><ele>1054.0</ele><time>2026-05-03T13:41:18Z</time></trkpt><trkpt lat="44.1854312" lon="10.4078506"><ele>1054.0</ele><time>2026-05-03T13:41:20Z</time></trkpt><trkpt lat="44.1854991" lon="10.4079319"><ele>1054.0</ele><time>2026-05-03T13:41:23Z</time></trkpt><trkpt lat="44.1855786" lon="10.4079999"><ele>1054.0</ele><time>2026-05-03T13:41:26Z</time></trkpt><trkpt lat="44.1856527" lon="10.4080671"><ele>1054.0</ele><time>2026-05-03T13:41:29Z</time></trkpt><trkpt lat="44.1857243" lon="10.4081486"><ele>1054.0</ele><time>2026-05-03T13:41:31.997Z</time></trkpt><trkpt lat="44.1858012" lon="10.4082216"><ele>1058.5</ele><time>2026-05-03T13:41:35Z</time></trkpt><trkpt lat="44.1858547" lon="10.4082686"><ele>1063.0</ele><time>2026-05-03T13:41:37Z</time></trkpt><trkpt lat="44.1859302" lon="10.4083446"><ele>1067.5</ele><time>2026-05-03T13:41:40Z</time></trkpt><trkpt lat="44.1860064" lon="10.4084165"><ele>1072.0</ele><time>2026-05-03T13:41:43Z</time></trkpt><trkpt lat="44.1860871" lon="10.4084693"><ele>1076.5</ele><time>2026-05-03T13:41:46Z</time></trkpt><trkpt lat="44.1861637" lon="10.4085367"><ele>1081.0</ele><time>2026-05-03T13:41:49Z</time></trkpt><trkpt lat="44.1862422" lon="10.4086071"><ele>1081.0</ele><time>2026-05-03T13:41:51.998Z</time></trkpt><trkpt lat="44.1863205" lon="10.4086745"><ele>1081.0</ele><time>2026-05-03T13:41:54.999Z</time></trkpt><trkpt lat="44.1863761" lon="10.4087214"><ele>1081.0</ele><time>2026-05-03T13:41:57Z</time></trkpt><trkpt lat="44.1864471" lon="10.4088057"><ele>1081.0</ele><time>2026-05-03T13:42:00Z</time></trkpt><trkpt lat="44.1864923" lon="10.4089174"><ele>1081.0</ele><time>2026-05-03T13:42:02.999Z</time></trkpt><trkpt lat="44.1865268" lon="10.409036"><ele>1081.0</ele><time>2026-05-03T13:42:05.999Z</time></trkpt><trkpt lat="44.1865486" lon="10.4091198"><ele>1080.5714285714284</ele><time>2026-05-03T13:42:08Z</time></trkpt><trkpt lat="44.1865746" lon="10.4092023"><ele>1080.142857142857</ele><time>2026-05-03T13:42:10Z</time></trkpt><trkpt lat="44.1866019" lon="10.4092867"><ele>1079.7142857142858</ele><time>2026-05-03T13:42:11.998Z</time></trkpt><trkpt lat="44.1866244" lon="10.4093698"><ele>1079.2857142857142</ele><time>2026-05-03T13:42:14Z</time></trkpt><trkpt lat="44.1866461" lon="10.409454"><ele>1078.857142857143</ele><time>2026-05-03T13:42:16Z</time></trkpt><trkpt lat="44.1866714" lon="10.4095375"><ele>1078.4285714285713</ele><time>2026-05-03T13:42:18Z</time></trkpt><trkpt lat="44.18669" lon="10.4096238"><ele>1078.0</ele><time>2026-05-03T13:42:20Z</time></trkpt><trkpt lat="44.1867054" lon="10.4097534"><ele>1080.3333333333333</ele><time>2026-05-03T13:42:23Z</time></trkpt><trkpt lat="44.1867204" lon="10.4098834"><ele>1082.6666666666665</ele><time>2026-05-03T13:42:25.999Z</time></trkpt><trkpt lat="44.1867371" lon="10.4100101"><ele>1085.0</ele><time>2026-05-03T13:42:29Z</time></trkpt><trkpt lat="44.1867465" lon="10.4100972"><ele>1087.3333333333333</ele><time>2026-05-03T13:42:30.999Z</time></trkpt><trkpt lat="44.1867705" lon="10.4102236"><ele>1089.6666666666667</ele><time>2026-05-03T13:42:34Z</time></trkpt><trkpt lat="44.1867891" lon="10.4103511"><ele>1092.0</ele><time>2026-05-03T13:42:37Z</time></trkpt><trkpt lat="44.1867993" lon="10.4104397"><ele>1095.0</ele><time>2026-05-03T13:42:39Z</time></trkpt><trkpt lat="44.1868273" lon="10.4105616"><ele>1098.0</ele><time>2026-05-03T13:42:42Z</time></trkpt><trkpt lat="44.1868511" lon="10.4106477"><ele>1101.0</ele><time>2026-05-03T13:42:44Z</time></trkpt><trkpt lat="44.186871" lon="10.4107332"><ele>1104.0</ele><time>2026-05-03T13:42:46Z</time></trkpt><trkpt lat="44.1868921" lon="10.4108201"><ele>1107.0</ele><time>2026-05-03T13:42:48Z</time></trkpt><trkpt lat="44.1869123" lon="10.4109038"><ele>1110.0</ele><time>2026-05-03T13:42:50Z</time></trkpt><trkpt lat="44.1869331" lon="10.4109907"><ele>1113.0</ele><time>2026-05-03T13:42:52Z</time></trkpt><trkpt lat="44.1869557" lon="10.4110766"><ele>1113.0</ele><time>2026-05-03T13:42:53.999Z</time></trkpt><trkpt lat="44.1869779" lon="10.41116"><ele>1113.0</ele><time>2026-05-03T13:42:55.999Z</time></trkpt><trkpt lat="44.1869988" lon="10.4112434"><ele>1113.0</ele><time>2026-05-03T13:42:58Z</time></trkpt><trkpt lat="44.1870193" lon="10.4113278"><ele>1113.0</ele><time>2026-05-03T13:43:00Z</time></trkpt><trkpt lat="44.1870509" lon="10.4114501"><ele>1113.0</ele><time>2026-05-03T13:43:02.995Z</time></trkpt><trkpt lat="44.1870733" lon="10.4115749"><ele>1113.0</ele><time>2026-05-03T13:43:05.997Z</time></trkpt><trkpt lat="44.1870822" lon="10.4116647"><ele>1113.0</ele><time>2026-05-03T13:43:07.997Z</time></trkpt><trkpt lat="44.1870925" lon="10.4117954"><ele>1115.0</ele><time>2026-05-03T13:43:11Z</time></trkpt><trkpt lat="44.1870931" lon="10.4119282"><ele>1117.0</ele><time>2026-05-03T13:43:14Z</time></trkpt><trkpt lat="44.1870933" lon="10.4120169"><ele>1119.0</ele><time>2026-05-03T13:43:16Z</time></trkpt><trkpt lat="44.1870944" lon="10.4121083"><ele>1121.0</ele><time>2026-05-03T13:43:18Z</time></trkpt><trkpt lat="44.1870898" lon="10.4122402"><ele>1123.0</ele><time>2026-05-03T13:43:20.999Z</time></trkpt><trkpt lat="44.1870901" lon="10.4123321"><ele>1125.0</ele><time>2026-05-03T13:43:22.999Z</time></trkpt><trkpt lat="44.1870902" lon="10.4124227"><ele>1127.1666666666667</ele><time>2026-05-03T13:43:25Z</time></trkpt><trkpt lat="44.187096" lon="10.4125141"><ele>1129.3333333333333</ele><time>2026-05-03T13:43:27Z</time></trkpt><trkpt lat="44.1871113" lon="10.4125997"><ele>1131.5</ele><time>2026-05-03T13:43:28.993Z</time></trkpt><trkpt lat="44.1871533" lon="10.4127132"><ele>1133.6666666666665</ele><time>2026-05-03T13:43:32Z</time></trkpt><trkpt lat="44.1872082" lon="10.4128113"><ele>1135.8333333333333</ele><time>2026-05-03T13:43:35Z</time></trkpt><trkpt lat="44.1872613" lon="10.4129143"><ele>1138.0</ele><time>2026-05-03T13:43:38Z</time></trkpt><trkpt lat="44.187319" lon="10.4130187"><ele>1132.0000000000002</ele><time>2026-05-03T13:43:41Z</time></trkpt><trkpt lat="44.1873603" lon="10.4130948"><ele>1126.0</ele><time>2026-05-03T13:43:43Z</time></trkpt><trkpt lat="44.1874006" lon="10.4131686"><ele>1120.0</ele><time>2026-05-03T13:43:45Z</time></trkpt><trkpt lat="44.1874414" lon="10.4132447"><ele>1114.0</ele><time>2026-05-03T13:43:47Z</time></trkpt><trkpt lat="44.1874785" lon="10.4133167"><ele>1108.0</ele><time>2026-05-03T13:43:48.999Z</time></trkpt><trkpt lat="44.1875156" lon="10.4133907"><ele>1102.0000000000002</ele><time>2026-05-03T13:43:51Z</time></trkpt><trkpt lat="44.1875494" lon="10.4134662"><ele>1096.0</ele><time>2026-05-03T13:43:53Z</time></trkpt><trkpt lat="44.1875708" lon="10.4135493"><ele>1096.0</ele><time>2026-05-03T13:43:54.999Z</time></trkpt><trkpt lat="44.1875932" lon="10.4136697"><ele>1096.0</ele><time>2026-05-03T13:43:57.994Z</time></trkpt><trkpt lat="44.1876027" lon="10.4137594"><ele>1096.0</ele><time>2026-05-03T13:44:00Z</time></trkpt><trkpt lat="44.1876063" lon="10.4138529"><ele>1096.0</ele><time>2026-05-03T13:44:02Z</time></trkpt><trkpt lat="44.1876111" lon="10.413986"><ele>1096.0</ele><time>2026-05-03T13:44:05Z</time></trkpt><trkpt lat="44.1876076" lon="10.4140797"><ele>1096.0</ele><time>2026-05-03T13:44:06.999Z</time></trkpt><trkpt lat="44.1875896" lon="10.4142027"><ele>1097.0</ele><time>2026-05-03T13:44:10Z</time></trkpt><trkpt lat="44.1875471" lon="10.4143124"><ele>1098.0</ele><time>2026-05-03T13:44:12.998Z</time></trkpt><trkpt lat="44.187493" lon="10.4144254"><ele>1099.0</ele><time>2026-05-03T13:44:15.995Z</time></trkpt><trkpt lat="44.1874487" lon="10.4145228"><ele>1100.0</ele><time>2026-05-03T13:44:19Z</time></trkpt><trkpt lat="44.187416" lon="10.4146382"><ele>1101.0</ele><time>2026-05-03T13:44:21.999Z</time></trkpt><trkpt lat="44.1873879" lon="10.4147608"><ele>1101.0</ele><time>2026-05-03T13:44:24.999Z</time></trkpt><trkpt lat="44.1873723" lon="10.4148488"><ele>1101.0</ele><time>2026-05-03T13:44:27Z</time></trkpt><trkpt lat="44.1873527" lon="10.4149376"><ele>1101.0</ele><time>2026-05-03T13:44:29Z</time></trkpt><trkpt lat="44.1873129" lon="10.4150476"><ele>1101.0</ele><time>2026-05-03T13:44:32Z</time></trkpt><trkpt lat="44.1872759" lon="10.4151699"><ele>1101.0</ele><time>2026-05-03T13:44:35Z</time></trkpt><trkpt lat="44.1872422" lon="10.4152955"><ele>1101.0</ele><time>2026-05-03T13:44:38Z</time></trkpt><trkpt lat="44.1872054" lon="10.4154144"><ele>1110.0</ele><time>2026-05-03T13:44:41Z</time></trkpt><trkpt lat="44.1871816" lon="10.4154995"><ele>1119.0</ele><time>2026-05-03T13:44:43Z</time></trkpt><trkpt lat="44.1871557" lon="10.4155815"><ele>1128.0</ele><time>2026-05-03T13:44:45Z</time></trkpt><trkpt lat="44.1871385" lon="10.4156743"><ele>1137.0</ele><time>2026-05-03T13:44:47Z</time></trkpt><trkpt lat="44.1871294" lon="10.4157684"><ele>1146.0</ele><time>2026-05-03T13:44:49Z</time></trkpt><trkpt lat="44.187135" lon="10.4158697"><ele>1155.0</ele><time>2026-05-03T13:44:51Z</time></trkpt><trkpt lat="44.1871532" lon="10.4159649"><ele>1164.0</ele><time>2026-05-03T13:44:53Z</time></trkpt><trkpt lat="44.1871738" lon="10.4160563"><ele>1164.0</ele><time>2026-05-03T13:44:54.999Z</time></trkpt><trkpt lat="44.1871945" lon="10.4161453"><ele>1164.0</ele><time>2026-05-03T13:44:57Z</time></trkpt><trkpt lat="44.1872191" lon="10.4162344"><ele>1164.0</ele><time>2026-05-03T13:44:59Z</time></trkpt><trkpt lat="44.1872498" lon="10.4163323"><ele>1164.0</ele><time>2026-05-03T13:45:01Z</time></trkpt><trkpt lat="44.1872729" lon="10.4164255"><ele>1164.0</ele><time>2026-05-03T13:45:03Z</time></trkpt><trkpt lat="44.187293" lon="10.4165156"><ele>1164.0</ele><time>2026-05-03T13:45:05Z</time></trkpt><trkpt lat="44.1873154" lon="10.4166056"><ele>1164.0</ele><time>2026-05-03T13:45:07Z</time></trkpt><trkpt lat="44.1873417" lon="10.4166945"><ele>1159.4285714285713</ele><time>2026-05-03T13:45:08.996Z</time></trkpt><trkpt lat="44.1873761" lon="10.416782"><ele>1154.8571428571427</ele><time>2026-05-03T13:45:10.998Z</time></trkpt><trkpt lat="44.1874237" lon="10.4168451"><ele>1150.2857142857142</ele><time>2026-05-03T13:45:13Z</time></trkpt><trkpt lat="44.1874744" lon="10.416908"><ele>1145.7142857142858</ele><time>2026-05-03T13:45:14.999Z</time></trkpt><trkpt lat="44.1875276" lon="10.4169583"><ele>1141.1428571428573</ele><time>2026-05-03T13:45:17Z</time></trkpt><trkpt lat="44.1875875" lon="10.4170171"><ele>1136.5714285714287</ele><time>2026-05-03T13:45:19Z</time></trkpt><trkpt lat="44.187633" lon="10.4170887"><ele>1132.0</ele><time>2026-05-03T13:45:21.001Z</time></trkpt><trkpt lat="44.1876662" lon="10.4171771"><ele>1132.0</ele><time>2026-05-03T13:45:23Z</time></trkpt><trkpt lat="44.1876747" lon="10.4172775"><ele>1132.0</ele><time>2026-05-03T13:45:24.997Z</time></trkpt><trkpt lat="44.1876634" lon="10.4173756"><ele>1132.0</ele><time>2026-05-03T13:45:26.996Z</time></trkpt><trkpt lat="44.1876434" lon="10.4174676"><ele>1132.0</ele><time>2026-05-03T13:45:28.999Z</time></trkpt><trkpt lat="44.1876249" lon="10.4175584"><ele>1132.0</ele><time>2026-05-03T13:45:31Z</time></trkpt><trkpt lat="44.1876196" lon="10.4176515"><ele>1132.0</ele><time>2026-05-03T13:45:33Z</time></trkpt><trkpt lat="44.1876392" lon="10.4177496"><ele>1132.0</ele><time>2026-05-03T13:45:34.999Z</time></trkpt><trkpt lat="44.1876887" lon="10.417831"><ele>1132.0</ele><time>2026-05-03T13:45:37Z</time></trkpt><trkpt lat="44.1877483" lon="10.417885"><ele>1132.0</ele><time>2026-05-03T13:45:38.999Z</time></trkpt><trkpt lat="44.1878156" lon="10.417928"><ele>1132.0</ele><time>2026-05-03T13:45:41Z</time></trkpt><trkpt lat="44.1878846" lon="10.4179666"><ele>1132.0</ele><time>2026-05-03T13:45:42.999Z</time></trkpt><trkpt lat="44.1879424" lon="10.4180051"><ele>1132.0</ele><time>2026-05-03T13:45:45Z</time></trkpt><trkpt lat="44.1880023" lon="10.4180546"><ele>1132.0</ele><time>2026-05-03T13:45:47Z</time></trkpt><trkpt lat="44.1880642" lon="10.418102"><ele>1132.0</ele><time>2026-05-03T13:45:48.998Z</time></trkpt><trkpt lat="44.1881262" lon="10.4181472"><ele>1131.142857142857</ele><time>2026-05-03T13:45:50.998Z</time></trkpt><trkpt lat="44.1881807" lon="10.4181923"><ele>1130.2857142857144</ele><time>2026-05-03T13:45:53Z</time></trkpt><trkpt lat="44.188247" lon="10.4182391"><ele>1129.4285714285716</ele><time>2026-05-03T13:45:55Z</time></trkpt><trkpt lat="44.1883125" lon="10.4182829"><ele>1128.5714285714287</ele><time>2026-05-03T13:45:57Z</time></trkpt><trkpt lat="44.1883653" lon="10.4183522"><ele>1127.7142857142858</ele><time>2026-05-03T13:45:59Z</time></trkpt><trkpt lat="44.1883986" lon="10.4184275"><ele>1126.857142857143</ele><time>2026-05-03T13:46:01Z</time></trkpt><trkpt lat="44.1884198" lon="10.4185254"><ele>1126.0</ele><time>2026-05-03T13:46:04Z</time></trkpt><trkpt lat="44.1884323" lon="10.4186479"><ele>1126.0</ele><time>2026-05-03T13:46:07Z</time></trkpt><trkpt lat="44.1884416" lon="10.4187677"><ele>1126.0</ele><time>2026-05-03T13:46:10Z</time></trkpt><trkpt lat="44.1884633" lon="10.4188913"><ele>1126.0</ele><time>2026-05-03T13:46:13Z</time></trkpt><trkpt lat="44.1884972" lon="10.4189683"><ele>1126.0</ele><time>2026-05-03T13:46:15Z</time></trkpt><trkpt lat="44.1885506" lon="10.4190552"><ele>1126.0</ele><time>2026-05-03T13:46:18Z</time></trkpt><trkpt lat="44.1886305" lon="10.4191164"><ele>1126.0</ele><time>2026-05-03T13:46:21Z</time></trkpt><trkpt lat="44.1886925" lon="10.4191371"><ele>1125.6666666666665</ele><time>2026-05-03T13:46:22.999Z</time></trkpt><trkpt lat="44.1887551" lon="10.4191526"><ele>1125.3333333333333</ele><time>2026-05-03T13:46:25Z</time></trkpt><trkpt lat="44.1888444" lon="10.4191729"><ele>1125.0</ele><time>2026-05-03T13:46:28Z</time></trkpt><trkpt lat="44.1889373" lon="10.4191992"><ele>1124.6666666666667</ele><time>2026-05-03T13:46:31Z</time></trkpt><trkpt lat="44.1890011" lon="10.4192212"><ele>1124.3333333333335</ele><time>2026-05-03T13:46:32.999Z</time></trkpt><trkpt lat="44.189081" lon="10.4192838"><ele>1124.0</ele><time>2026-05-03T13:46:35.999Z</time></trkpt><trkpt lat="44.1891349" lon="10.4193379"><ele>1124.0000000000002</ele><time>2026-05-03T13:46:37.996Z</time></trkpt><trkpt lat="44.1891819" lon="10.4193979"><ele>1124.0</ele><time>2026-05-03T13:46:40Z</time></trkpt><trkpt lat="44.1892246" lon="10.4194702"><ele>1124.0</ele><time>2026-05-03T13:46:42Z</time></trkpt><trkpt lat="44.1892687" lon="10.4195411"><ele>1124.0</ele><time>2026-05-03T13:46:44Z</time></trkpt><trkpt lat="44.189307" lon="10.4196114"><ele>1124.0</ele><time>2026-05-03T13:46:45.998Z</time></trkpt><trkpt lat="44.1893525" lon="10.4196737"><ele>1124.0000000000002</ele><time>2026-05-03T13:46:48Z</time></trkpt><trkpt lat="44.1893987" lon="10.419734"><ele>1124.0</ele><time>2026-05-03T13:46:50Z</time></trkpt><trkpt lat="44.1894691" lon="10.419823"><ele>1128.1666666666667</ele><time>2026-05-03T13:46:53Z</time></trkpt><trkpt lat="44.1895352" lon="10.4199157"><ele>1132.3333333333335</ele><time>2026-05-03T13:46:56Z</time></trkpt><trkpt lat="44.1895838" lon="10.4199779"><ele>1136.5</ele><time>2026-05-03T13:46:57.999Z</time></trkpt><trkpt lat="44.1896486" lon="10.4200729"><ele>1140.6666666666667</ele><time>2026-05-03T13:47:01Z</time></trkpt><trkpt lat="44.1896862" lon="10.4201452"><ele>1144.8333333333333</ele><time>2026-05-03T13:47:03Z</time></trkpt><trkpt lat="44.189732" lon="10.4202598"><ele>1149.0</ele><time>2026-05-03T13:47:05.994Z</time></trkpt><trkpt lat="44.1897533" lon="10.420345"><ele>1149.0</ele><time>2026-05-03T13:47:07.998Z</time></trkpt><trkpt lat="44.1897758" lon="10.4204296"><ele>1149.0</ele><time>2026-05-03T13:47:10Z</time></trkpt><trkpt lat="44.1898021" lon="10.4205107"><ele>1149.0</ele><time>2026-05-03T13:47:12Z</time></trkpt><trkpt lat="44.1898399" lon="10.4205858"><ele>1149.0</ele><time>2026-05-03T13:47:14Z</time></trkpt><trkpt lat="44.189889" lon="10.4206531"><ele>1149.0</ele><time>2026-05-03T13:47:16Z</time></trkpt><trkpt lat="44.1899324" lon="10.4207211"><ele>1149.0</ele><time>2026-05-03T13:47:17.993Z</time></trkpt><trkpt lat="44.1899814" lon="10.4207817"><ele>1149.0</ele><time>2026-05-03T13:47:20Z</time></trkpt><trkpt lat="44.1900356" lon="10.4208361"><ele>1145.5</ele><time>2026-05-03T13:47:22Z</time></trkpt><trkpt lat="44.190085" lon="10.4208976"><ele>1142.0</ele><time>2026-05-03T13:47:24Z</time></trkpt><trkpt lat="44.1901342" lon="10.4209585"><ele>1138.5</ele><time>2026-05-03T13:47:26Z</time></trkpt><trkpt lat="44.1901843" lon="10.4210154"><ele>1135.0</ele><time>2026-05-03T13:47:28Z</time></trkpt><trkpt lat="44.1902588" lon="10.421094"><ele>1131.5</ele><time>2026-05-03T13:47:31Z</time></trkpt><trkpt lat="44.1903264" lon="10.4211666"><ele>1128.0</ele><time>2026-05-03T13:47:33.999Z</time></trkpt><trkpt lat="44.19039" lon="10.4212442"><ele>1130.0</ele><time>2026-05-03T13:47:37Z</time></trkpt><trkpt lat="44.1904562" lon="10.4213272"><ele>1132.0</ele><time>2026-05-03T13:47:40Z</time></trkpt><trkpt lat="44.1905268" lon="10.4214112"><ele>1134.0</ele><time>2026-05-03T13:47:43Z</time></trkpt><trkpt lat="44.1905703" lon="10.4214755"><ele>1136.0</ele><time>2026-05-03T13:47:45Z</time></trkpt><trkpt lat="44.1906299" lon="10.4215728"><ele>1138.0</ele><time>2026-05-03T13:47:48Z</time></trkpt><trkpt lat="44.1906703" lon="10.4216457"><ele>1140.0</ele><time>2026-05-03T13:47:50Z</time></trkpt><trkpt lat="44.1907107" lon="10.4217201"><ele>1140.0</ele><time>2026-05-03T13:47:52Z</time></trkpt><trkpt lat="44.1907792" lon="10.4218122"><ele>1140.0</ele><time>2026-05-03T13:47:55Z</time></trkpt><trkpt lat="44.1908354" lon="10.4218556"><ele>1140.0</ele><time>2026-05-03T13:47:57Z</time></trkpt><trkpt lat="44.1909247" lon="10.4219047"><ele>1140.0</ele><time>2026-05-03T13:48:00Z</time></trkpt><trkpt lat="44.1909857" lon="10.4219407"><ele>1140.0</ele><time>2026-05-03T13:48:02Z</time></trkpt><trkpt lat="44.191053" lon="10.421978"><ele>1140.0</ele><time>2026-05-03T13:48:04Z</time></trkpt><trkpt lat="44.1911174" lon="10.4220035"><ele>1140.0</ele><time>2026-05-03T13:48:06Z</time></trkpt><trkpt lat="44.1911995" lon="10.422033"><ele>1140.0</ele><time>2026-05-03T13:48:09Z</time></trkpt><trkpt lat="44.1912657" lon="10.4220617"><ele>1140.0</ele><time>2026-05-03T13:48:11Z</time></trkpt><trkpt lat="44.1913328" lon="10.4220717"><ele>1140.0</ele><time>2026-05-03T13:48:13Z</time></trkpt><trkpt lat="44.1914017" lon="10.4220773"><ele>1140.0</ele><time>2026-05-03T13:48:15Z</time></trkpt><trkpt lat="44.191472" lon="10.4220733"><ele>1140.0</ele><time>2026-05-03T13:48:16.999Z</time></trkpt><trkpt lat="44.1915626" lon="10.4220664"><ele>1139.0</ele><time>2026-05-03T13:48:20Z</time></trkpt><trkpt lat="44.1916519" lon="10.4220985"><ele>1138.0</ele><time>2026-05-03T13:48:23Z</time></trkpt><trkpt lat="44.1917076" lon="10.4221528"><ele>1137.0</ele><time>2026-05-03T13:48:24.999Z</time></trkpt><trkpt lat="44.1917535" lon="10.4222279"><ele>1136.0</ele><time>2026-05-03T13:48:27Z</time></trkpt><trkpt lat="44.1917872" lon="10.4223028"><ele>1135.0</ele><time>2026-05-03T13:48:29Z</time></trkpt><trkpt lat="44.1918225" lon="10.4224174"><ele>1134.0</ele><time>2026-05-03T13:48:31.999Z</time></trkpt><trkpt lat="44.1918361" lon="10.422509"><ele>1134.0</ele><time>2026-05-03T13:48:34Z</time></trkpt><trkpt lat="44.1918787" lon="10.4226038"><ele>1134.0</ele><time>2026-05-03T13:48:37Z</time></trkpt><trkpt lat="44.1919268" lon="10.4226696"><ele>1134.0</ele><time>2026-05-03T13:49:45.999Z</time></trkpt><trkpt lat="44.1919861" lon="10.4227438"><ele>1134.0</ele><time>2026-05-03T13:49:48.998Z</time></trkpt><trkpt lat="44.1920252" lon="10.4228237"><ele>1134.0</ele><time>2026-05-03T13:49:50.999Z</time></trkpt><trkpt lat="44.1920478" lon="10.4229204"><ele>1134.0</ele><time>2026-05-03T13:49:53Z</time></trkpt><trkpt lat="44.1920457" lon="10.4230174"><ele>1134.0</ele><time>2026-05-03T13:49:55Z</time></trkpt><trkpt lat="44.1920324" lon="10.4231181"><ele>1131.5714285714287</ele><time>2026-05-03T13:49:57Z</time></trkpt><trkpt lat="44.19202" lon="10.4232158"><ele>1129.142857142857</ele><time>2026-05-03T13:49:59Z</time></trkpt><trkpt lat="44.192007" lon="10.4233137"><ele>1126.7142857142858</ele><time>2026-05-03T13:50:01Z</time></trkpt><trkpt lat="44.1920083" lon="10.423413"><ele>1124.2857142857142</ele><time>2026-05-03T13:50:03Z</time></trkpt><trkpt lat="44.1920394" lon="10.4235082"><ele>1121.857142857143</ele><time>2026-05-03T13:50:05Z</time></trkpt><trkpt lat="44.1920899" lon="10.4235878"><ele>1119.4285714285716</ele><time>2026-05-03T13:50:07Z</time></trkpt><trkpt lat="44.1921541" lon="10.4236385"><ele>1117.0</ele><time>2026-05-03T13:50:09Z</time></trkpt><trkpt lat="44.1922191" lon="10.4236557"><ele>1117.0</ele><time>2026-05-03T13:50:11Z</time></trkpt><trkpt lat="44.1923164" lon="10.4236403"><ele>1117.0</ele><time>2026-05-03T13:50:14Z</time></trkpt><trkpt lat="44.1923889" lon="10.4236013"><ele>1117.0</ele><time>2026-05-03T13:50:16Z</time></trkpt><trkpt lat="44.1924555" lon="10.4235666"><ele>1117.0</ele><time>2026-05-03T13:50:17.993Z</time></trkpt><trkpt lat="44.1925203" lon="10.423538"><ele>1117.0</ele><time>2026-05-03T13:50:20Z</time></trkpt><trkpt lat="44.1925961" lon="10.4235285"><ele>1117.0</ele><time>2026-05-03T13:50:21.997Z</time></trkpt><trkpt lat="44.1926713" lon="10.4235453"><ele>1119.1666666666665</ele><time>2026-05-03T13:50:24Z</time></trkpt><trkpt lat="44.1927389" lon="10.4235866"><ele>1121.3333333333333</ele><time>2026-05-03T13:50:25.994Z</time></trkpt><trkpt lat="44.1928092" lon="10.4236448"><ele>1123.5</ele><time>2026-05-03T13:50:28Z</time></trkpt><trkpt lat="44.1928693" lon="10.4237083"><ele>1125.6666666666667</ele><time>2026-05-03T13:50:30Z</time></trkpt><trkpt lat="44.1929293" lon="10.4237832"><ele>1127.8333333333335</ele><time>2026-05-03T13:50:32Z</time></trkpt><trkpt lat="44.1929883" lon="10.4238649"><ele>1130.0</ele><time>2026-05-03T13:50:34Z</time></trkpt><trkpt lat="44.1930429" lon="10.4239297"><ele>1130.0</ele><time>2026-05-03T13:50:36Z</time></trkpt><trkpt lat="44.193099" lon="10.4239974"><ele>1130.0</ele><time>2026-05-03T13:50:38Z</time></trkpt><trkpt lat="44.193159" lon="10.4240791"><ele>1130.0</ele><time>2026-05-03T13:50:40Z</time></trkpt><trkpt lat="44.1932185" lon="10.4241614"><ele>1130.0</ele><time>2026-05-03T13:50:42Z</time></trkpt><trkpt lat="44.1932674" lon="10.4242688"><ele>1130.0</ele><time>2026-05-03T13:50:44Z</time></trkpt><trkpt lat="44.1932798" lon="10.4243915"><ele>1130.0</ele><time>2026-05-03T13:50:46Z</time></trkpt><trkpt lat="44.1932641" lon="10.4245137"><ele>1132.3333333333335</ele><time>2026-05-03T13:50:48Z</time></trkpt><trkpt lat="44.193248" lon="10.4246292"><ele>1134.6666666666667</ele><time>2026-05-03T13:50:50Z</time></trkpt><trkpt lat="44.1932386" lon="10.4247509"><ele>1137.0</ele><time>2026-05-03T13:50:51.999Z</time></trkpt><trkpt lat="44.1932391" lon="10.4248724"><ele>1139.3333333333333</ele><time>2026-05-03T13:50:53.999Z</time></trkpt><trkpt lat="44.1932457" lon="10.4250004"><ele>1141.6666666666665</ele><time>2026-05-03T13:50:56Z</time></trkpt><trkpt lat="44.1932499" lon="10.4251217"><ele>1144.0</ele><time>2026-05-03T13:50:58Z</time></trkpt><trkpt lat="44.1932543" lon="10.4252467"><ele>1144.0</ele><time>2026-05-03T13:51:00Z</time></trkpt><trkpt lat="44.1932646" lon="10.4253726"><ele>1144.0</ele><time>2026-05-03T13:51:02Z</time></trkpt><trkpt lat="44.1933046" lon="10.4254946"><ele>1144.0</ele><time>2026-05-03T13:51:04Z</time></trkpt><trkpt lat="44.1933806" lon="10.4255463"><ele>1144.0</ele><time>2026-05-03T13:51:06Z</time></trkpt><trkpt lat="44.1934715" lon="10.4255717"><ele>1144.0</ele><time>2026-05-03T13:51:08Z</time></trkpt><trkpt lat="44.1935652" lon="10.425583"><ele>1145.0</ele><time>2026-05-03T13:51:10Z</time></trkpt><trkpt lat="44.1936463" lon="10.4255937"><ele>1146.0</ele><time>2026-05-03T13:51:11.998Z</time></trkpt><trkpt lat="44.1937379" lon="10.4256036"><ele>1147.0</ele><time>2026-05-03T13:51:14Z</time></trkpt><trkpt lat="44.1938306" lon="10.4256209"><ele>1148.0</ele><time>2026-05-03T13:51:15.999Z</time></trkpt><trkpt lat="44.1939111" lon="10.425645"><ele>1149.0</ele><time>2026-05-03T13:51:17.999Z</time></trkpt><trkpt lat="44.1939868" lon="10.4256809"><ele>1150.0</ele><time>2026-05-03T13:51:20Z</time></trkpt><trkpt lat="44.1940618" lon="10.4257169"><ele>1150.0</ele><time>2026-05-03T13:51:22Z</time></trkpt><trkpt lat="44.1941362" lon="10.4257654"><ele>1150.0</ele><time>2026-05-03T13:51:23.993Z</time></trkpt><trkpt lat="44.1942123" lon="10.4258096"><ele>1150.0</ele><time>2026-05-03T13:51:25.998Z</time></trkpt><trkpt lat="44.1942897" lon="10.4258471"><ele>1150.0</ele><time>2026-05-03T13:51:27.996Z</time></trkpt><trkpt lat="44.1943641" lon="10.4258883"><ele>1150.0</ele><time>2026-05-03T13:51:29.999Z</time></trkpt><trkpt lat="44.1944433" lon="10.4259243"><ele>1150.0</ele><time>2026-05-03T13:51:32Z</time></trkpt><trkpt lat="44.1945257" lon="10.425951"><ele>1150.0</ele><time>2026-05-03T13:51:34Z</time></trkpt><trkpt lat="44.1946105" lon="10.4259667"><ele>1150.0</ele><time>2026-05-03T13:51:36Z</time></trkpt><trkpt lat="44.1946966" lon="10.4259754"><ele>1150.0</ele><time>2026-05-03T13:51:38Z</time></trkpt><trkpt lat="44.1947839" lon="10.4259736"><ele>1150.0</ele><time>2026-05-03T13:51:40Z</time></trkpt><trkpt lat="44.1948662" lon="10.4259771"><ele>1150.0</ele><time>2026-05-03T13:51:41.992Z</time></trkpt><trkpt lat="44.1949504" lon="10.4259824"><ele>1150.0</ele><time>2026-05-03T13:51:43.999Z</time></trkpt><trkpt lat="44.1950311" lon="10.4259855"><ele>1151.8333333333333</ele><time>2026-05-03T13:51:46Z</time></trkpt><trkpt lat="44.1951088" lon="10.4259904"><ele>1153.6666666666665</ele><time>2026-05-03T13:51:48Z</time></trkpt><trkpt lat="44.1951879" lon="10.4260214"><ele>1155.5</ele><time>2026-05-03T13:51:50Z</time></trkpt><trkpt lat="44.1952547" lon="10.4260668"><ele>1157.3333333333333</ele><time>2026-05-03T13:51:52Z</time></trkpt><trkpt lat="44.1953314" lon="10.4261367"><ele>1159.1666666666667</ele><time>2026-05-03T13:51:53.999Z</time></trkpt><trkpt lat="44.1954002" lon="10.4262228"><ele>1161.0</ele><time>2026-05-03T13:51:56Z</time></trkpt><trkpt lat="44.1954595" lon="10.426317"><ele>1161.6666666666667</ele><time>2026-05-03T13:51:58Z</time></trkpt><trkpt lat="44.1955084" lon="10.4264089"><ele>1162.3333333333333</ele><time>2026-05-03T13:51:59.999Z</time></trkpt><trkpt lat="44.1955613" lon="10.4265005"><ele>1163.0</ele><time>2026-05-03T13:52:01.998Z</time></trkpt><trkpt lat="44.1956188" lon="10.42659"><ele>1163.6666666666665</ele><time>2026-05-03T13:52:04Z</time></trkpt><trkpt lat="44.1956724" lon="10.4266861"><ele>1164.3333333333333</ele><time>2026-05-03T13:52:06Z</time></trkpt><trkpt lat="44.1957296" lon="10.4267747"><ele>1165.0</ele><time>2026-05-03T13:52:08Z</time></trkpt><trkpt lat="44.1957928" lon="10.4268566"><ele>1165.0</ele><time>2026-05-03T13:52:10Z</time></trkpt><trkpt lat="44.1958585" lon="10.4269353"><ele>1165.0</ele><time>2026-05-03T13:52:12Z</time></trkpt><trkpt lat="44.1959286" lon="10.4270142"><ele>1165.0</ele><time>2026-05-03T13:52:14Z</time></trkpt><trkpt lat="44.1959765" lon="10.4271181"><ele>1165.0</ele><time>2026-05-03T13:52:15.999Z</time></trkpt><trkpt lat="44.1959916" lon="10.427233"><ele>1165.0</ele><time>2026-05-03T13:52:17.999Z</time></trkpt><trkpt lat="44.1959746" lon="10.4273358"><ele>1165.0</ele><time>2026-05-03T13:52:20Z</time></trkpt><trkpt lat="44.1959393" lon="10.4274348"><ele>1163.6666666666665</ele><time>2026-05-03T13:52:22Z</time></trkpt><trkpt lat="44.1958996" lon="10.4275446"><ele>1162.3333333333333</ele><time>2026-05-03T13:52:23.999Z</time></trkpt><trkpt lat="44.1958549" lon="10.4276448"><ele>1161.0</ele><time>2026-05-03T13:52:25.999Z</time></trkpt><trkpt lat="44.1958106" lon="10.4277497"><ele>1159.6666666666667</ele><time>2026-05-03T13:52:28Z</time></trkpt><trkpt lat="44.1957716" lon="10.4278494"><ele>1158.3333333333335</ele><time>2026-05-03T13:52:30Z</time></trkpt><trkpt lat="44.1957301" lon="10.4279645"><ele>1157.0</ele><time>2026-05-03T13:52:31.997Z</time></trkpt><trkpt lat="44.1956894" lon="10.4280571"><ele>1151.4</ele><time>2026-05-03T13:52:33.993Z</time></trkpt><trkpt lat="44.1956426" lon="10.4281689"><ele>1145.8000000000002</ele><time>2026-05-03T13:52:36Z</time></trkpt><trkpt lat="44.1955964" lon="10.428262"><ele>1140.2</ele><time>2026-05-03T13:52:37.998Z</time></trkpt><trkpt lat="44.1955435" lon="10.4283733"><ele>1134.6000000000001</ele><time>2026-05-03T13:52:39.994Z</time></trkpt><trkpt lat="44.1954722" lon="10.4284517"><ele>1129.0</ele><time>2026-05-03T13:52:42Z</time></trkpt><trkpt lat="44.1953846" lon="10.4284897"><ele>1129.0</ele><time>2026-05-03T13:52:43.996Z</time></trkpt><trkpt lat="44.1953086" lon="10.42852"><ele>1129.0</ele><time>2026-05-03T13:52:45.997Z</time></trkpt><trkpt lat="44.1952266" lon="10.4285673"><ele>1129.0</ele><time>2026-05-03T13:52:48Z</time></trkpt><trkpt lat="44.1951567" lon="10.4286346"><ele>1129.0</ele><time>2026-05-03T13:52:49.999Z</time></trkpt><trkpt lat="44.1951098" lon="10.4287391"><ele>1129.0</ele><time>2026-05-03T13:52:52Z</time></trkpt><trkpt lat="44.1950764" lon="10.4288574"><ele>1129.0</ele><time>2026-05-03T13:52:53.999Z</time></trkpt><trkpt lat="44.1950425" lon="10.4289913"><ele>1124.8</ele><time>2026-05-03T13:52:56Z</time></trkpt><trkpt lat="44.1950027" lon="10.4291086"><ele>1120.6000000000001</ele><time>2026-05-03T13:52:58Z</time></trkpt><trkpt lat="44.1949558" lon="10.4292042"><ele>1116.4</ele><time>2026-05-03T13:53:00Z</time></trkpt><trkpt lat="44.194888" lon="10.4292863"><ele>1112.2</ele><time>2026-05-03T13:53:02Z</time></trkpt><trkpt lat="44.1948184" lon="10.4293634"><ele>1108.0</ele><time>2026-05-03T13:53:04Z</time></trkpt><trkpt lat="44.1947551" lon="10.4294696"><ele>1108.0</ele><time>2026-05-03T13:53:05.999Z</time></trkpt><trkpt lat="44.194741" lon="10.4296034"><ele>1108.0</ele><time>2026-05-03T13:53:07.999Z</time></trkpt><trkpt lat="44.194776" lon="10.4297199"><ele>1108.0</ele><time>2026-05-03T13:53:09.998Z</time></trkpt><trkpt lat="44.1948294" lon="10.4298266"><ele>1108.0</ele><time>2026-05-03T13:53:11.992Z</time></trkpt><trkpt lat="44.1948832" lon="10.4299286"><ele>1108.0</ele><time>2026-05-03T13:53:13.999Z</time></trkpt><trkpt lat="44.1949389" lon="10.4300203"><ele>1116.0</ele><time>2026-05-03T13:53:15.995Z</time></trkpt><trkpt lat="44.1949936" lon="10.4301178"><ele>1124.0</ele><time>2026-05-03T13:53:17.995Z</time></trkpt><trkpt lat="44.1950459" lon="10.4302123"><ele>1132.0</ele><time>2026-05-03T13:53:20Z</time></trkpt><trkpt lat="44.1951009" lon="10.4303011"><ele>1140.0</ele><time>2026-05-03T13:53:21.991Z</time></trkpt><trkpt lat="44.1951545" lon="10.4303949"><ele>1148.0</ele><time>2026-05-03T13:53:23.994Z</time></trkpt><trkpt lat="44.1952065" lon="10.4304893"><ele>1156.0</ele><time>2026-05-03T13:53:25.999Z</time></trkpt><trkpt lat="44.1952623" lon="10.4305742"><ele>1156.0</ele><time>2026-05-03T13:53:27.994Z</time></trkpt><trkpt lat="44.1953086" lon="10.4306567"><ele>1156.0</ele><time>2026-05-03T13:53:29.999Z</time></trkpt><trkpt lat="44.1953508" lon="10.4307402"><ele>1156.0</ele><time>2026-05-03T13:53:32Z</time></trkpt><trkpt lat="44.1953908" lon="10.4308177"><ele>1156.0</ele><time>2026-05-03T13:53:33.995Z</time></trkpt><trkpt lat="44.1954333" lon="10.4308969"><ele>1156.0</ele><time>2026-05-03T13:53:35.996Z</time></trkpt><trkpt lat="44.1954794" lon="10.430972"><ele>1156.0</ele><time>2026-05-03T13:53:37.993Z</time></trkpt><trkpt lat="44.1955258" lon="10.4310517"><ele>1156.0</ele><time>2026-05-03T13:53:39.999Z</time></trkpt><trkpt lat="44.1955768" lon="10.4311305"><ele>1156.0</ele><time>2026-05-03T13:53:41.999Z</time></trkpt><trkpt lat="44.1956274" lon="10.4312116"><ele>1156.0</ele><time>2026-05-03T13:53:44Z</time></trkpt><trkpt lat="44.1956811" lon="10.4312903"><ele>1156.0</ele><time>2026-05-03T13:53:46Z</time></trkpt><trkpt lat="44.195728" lon="10.4313659"><ele>1156.0</ele><time>2026-05-03T13:53:47.992Z</time></trkpt><trkpt lat="44.1957761" lon="10.4314505"><ele>1156.0</ele><time>2026-05-03T13:53:50Z</time></trkpt><trkpt lat="44.1958245" lon="10.43153"><ele>1156.0</ele><time>2026-05-03T13:53:51.996Z</time></trkpt><trkpt lat="44.1958731" lon="10.4316121"><ele>1158.4285714285716</ele><time>2026-05-03T13:53:53.994Z</time></trkpt><trkpt lat="44.1959223" lon="10.431688"><ele>1160.857142857143</ele><time>2026-05-03T13:53:56Z</time></trkpt><trkpt lat="44.1959837" lon="10.4317526"><ele>1163.2857142857142</ele><time>2026-05-03T13:53:57.997Z</time></trkpt><trkpt lat="44.1960497" lon="10.4318016"><ele>1165.7142857142858</ele><time>2026-05-03T13:53:59.995Z</time></trkpt><trkpt lat="44.1961165" lon="10.4318301"><ele>1168.142857142857</ele><time>2026-05-03T13:54:01.994Z</time></trkpt><trkpt lat="44.1961826" lon="10.4318292"><ele>1170.5714285714287</ele><time>2026-05-03T13:54:04Z</time></trkpt><trkpt lat="44.1962467" lon="10.4318155"><ele>1173.0</ele><time>2026-05-03T13:54:05.999Z</time></trkpt><trkpt lat="44.1963113" lon="10.43181"><ele>1173.0</ele><time>2026-05-03T13:54:08Z</time></trkpt><trkpt lat="44.1963853" lon="10.4318404"><ele>1173.0</ele><time>2026-05-03T13:54:09.995Z</time></trkpt><trkpt lat="44.1964408" lon="10.4319162"><ele>1173.0</ele><time>2026-05-03T13:54:11.995Z</time></trkpt><trkpt lat="44.196469" lon="10.4320096"><ele>1173.0</ele><time>2026-05-03T13:54:13.999Z</time></trkpt><trkpt lat="44.1964944" lon="10.4321464"><ele>1173.0</ele><time>2026-05-03T13:54:17Z</time></trkpt><trkpt lat="44.1965138" lon="10.4322541"><ele>1173.0</ele><time>2026-05-03T13:54:18.999Z</time></trkpt><trkpt lat="44.1965365" lon="10.4323598"><ele>1175.8333333333333</ele><time>2026-05-03T13:54:21Z</time></trkpt><trkpt lat="44.1965674" lon="10.4324573"><ele>1178.6666666666667</ele><time>2026-05-03T13:54:23Z</time></trkpt><trkpt lat="44.1965938" lon="10.4325583"><ele>1181.5</ele><time>2026-05-03T13:54:25Z</time></trkpt><trkpt lat="44.1966303" lon="10.4326531"><ele>1184.3333333333335</ele><time>2026-05-03T13:54:26.999Z</time></trkpt><trkpt lat="44.1966744" lon="10.432754"><ele>1187.1666666666667</ele><time>2026-05-03T13:54:28.998Z</time></trkpt><trkpt lat="44.1967174" lon="10.432852"><ele>1190.0</ele><time>2026-05-03T13:54:31Z</time></trkpt><trkpt lat="44.1967636" lon="10.4329358"><ele>1187.5</ele><time>2026-05-03T13:54:33Z</time></trkpt><trkpt lat="44.1968078" lon="10.4330205"><ele>1185.0</ele><time>2026-05-03T13:54:35Z</time></trkpt><trkpt lat="44.1968504" lon="10.43312"><ele>1182.5</ele><time>2026-05-03T13:54:36.999Z</time></trkpt><trkpt lat="44.1968912" lon="10.4332227"><ele>1180.0</ele><time>2026-05-03T13:54:39Z</time></trkpt><trkpt lat="44.1969243" lon="10.4333209"><ele>1177.5</ele><time>2026-05-03T13:54:40.999Z</time></trkpt><trkpt lat="44.1969547" lon="10.4334264"><ele>1175.0</ele><time>2026-05-03T13:54:43Z</time></trkpt><trkpt lat="44.196981" lon="10.4335235"><ele>1175.0</ele><time>2026-05-03T13:54:44.998Z</time></trkpt><trkpt lat="44.1970085" lon="10.4336228"><ele>1175.0</ele><time>2026-05-03T13:54:47Z</time></trkpt><trkpt lat="44.1970398" lon="10.4337209"><ele>1175.0</ele><time>2026-05-03T13:54:49Z</time></trkpt><trkpt lat="44.1970733" lon="10.4338163"><ele>1175.0</ele><time>2026-05-03T13:54:50.999Z</time></trkpt><trkpt lat="44.197114" lon="10.4339082"><ele>1175.0</ele><time>2026-05-03T13:54:53Z</time></trkpt><trkpt lat="44.1971549" lon="10.4340014"><ele>1175.0</ele><time>2026-05-03T13:54:55Z</time></trkpt><trkpt lat="44.1972012" lon="10.4340891"><ele>1175.142857142857</ele><time>2026-05-03T13:54:57Z</time></trkpt><trkpt lat="44.1972498" lon="10.4341775"><ele>1175.2857142857142</ele><time>2026-05-03T13:54:58.992Z</time></trkpt><trkpt lat="44.1972619" lon="10.4342677"><ele>1175.4285714285716</ele><time>2026-05-03T13:55:00.998Z</time></trkpt><trkpt lat="44.1972431" lon="10.4343576"><ele>1175.5714285714284</ele><time>2026-05-03T13:55:02.994Z</time></trkpt><trkpt lat="44.1971986" lon="10.4344467"><ele>1175.7142857142858</ele><time>2026-05-03T13:55:04.994Z</time></trkpt><trkpt lat="44.1971271" lon="10.4344956"><ele>1175.857142857143</ele><time>2026-05-03T13:55:06.998Z</time></trkpt><trkpt lat="44.1970499" lon="10.4345027"><ele>1176.0</ele><time>2026-05-03T13:55:09Z</time></trkpt><trkpt lat="44.1969748" lon="10.4344881"><ele>1176.0</ele><time>2026-05-03T13:55:10.994Z</time></trkpt><trkpt lat="44.196901" lon="10.434463"><ele>1176.0</ele><time>2026-05-03T13:55:13Z</time></trkpt><trkpt lat="44.1968263" lon="10.4344319"><ele>1176.0</ele><time>2026-05-03T13:55:15Z</time></trkpt><trkpt lat="44.1967554" lon="10.4343947"><ele>1176.0</ele><time>2026-05-03T13:55:16.993Z</time></trkpt><trkpt lat="44.1966847" lon="10.4343417"><ele>1176.0</ele><time>2026-05-03T13:55:19Z</time></trkpt><trkpt lat="44.1966193" lon="10.4342771"><ele>1176.0</ele><time>2026-05-03T13:55:21Z</time></trkpt><trkpt lat="44.1965563" lon="10.4342177"><ele>1177.3333333333333</ele><time>2026-05-03T13:55:23Z</time></trkpt><trkpt lat="44.1964999" lon="10.4341608"><ele>1178.6666666666667</ele><time>2026-05-03T13:55:25Z</time></trkpt><trkpt lat="44.1964324" lon="10.4341147"><ele>1180.0</ele><time>2026-05-03T13:55:27Z</time></trkpt><trkpt lat="44.1963617" lon="10.4340905"><ele>1181.3333333333335</ele><time>2026-05-03T13:55:28.999Z</time></trkpt><trkpt lat="44.1962856" lon="10.4340901"><ele>1182.6666666666667</ele><time>2026-05-03T13:55:31Z</time></trkpt><trkpt lat="44.196215" lon="10.4341071"><ele>1184.0</ele><time>2026-05-03T13:55:32.999Z</time></trkpt><trkpt lat="44.196126" lon="10.4341423"><ele>1184.0</ele><time>2026-05-03T13:55:35.999Z</time></trkpt><trkpt lat="44.1960649" lon="10.434167"><ele>1184.0</ele><time>2026-05-03T13:55:38Z</time></trkpt><trkpt lat="44.1959741" lon="10.4341938"><ele>1184.0</ele><time>2026-05-03T13:55:41Z</time></trkpt><trkpt lat="44.1958976" lon="10.4342266"><ele>1184.0</ele><time>2026-05-03T13:55:44Z</time></trkpt><trkpt lat="44.1958244" lon="10.434258"><ele>1184.0</ele><time>2026-05-03T13:55:47Z</time></trkpt><trkpt lat="44.1957477" lon="10.4342698"><ele>1184.0</ele><time>2026-05-03T13:55:50Z</time></trkpt><trkpt lat="44.1956694" lon="10.4342887"><ele>1182.5</ele><time>2026-05-03T13:55:53Z</time></trkpt><trkpt lat="44.1955962" lon="10.434299"><ele>1181.0</ele><time>2026-05-03T13:55:55.999Z</time></trkpt><trkpt lat="44.1955171" lon="10.4343039"><ele>1179.5</ele><time>2026-05-03T13:55:59Z</time></trkpt><trkpt lat="44.1954372" lon="10.4343293"><ele>1178.0</ele><time>2026-05-03T13:56:02Z</time></trkpt><trkpt lat="44.1953547" lon="10.4343688"><ele>1176.5</ele><time>2026-05-03T13:56:04.999Z</time></trkpt><trkpt lat="44.1952734" lon="10.4344044"><ele>1175.0</ele><time>2026-05-03T13:56:08Z</time></trkpt><trkpt lat="44.1951919" lon="10.4344329"><ele>1175.0</ele><time>2026-05-03T13:56:11Z</time></trkpt><trkpt lat="44.1951138" lon="10.4344616"><ele>1175.0</ele><time>2026-05-03T13:56:14Z</time></trkpt><trkpt lat="44.1950348" lon="10.4344884"><ele>1175.0</ele><time>2026-05-03T13:56:17Z</time></trkpt><trkpt lat="44.1949623" lon="10.434534"><ele>1175.0</ele><time>2026-05-03T13:56:20Z</time></trkpt><trkpt lat="44.1949044" lon="10.4346159"><ele>1175.0</ele><time>2026-05-03T13:56:22.999Z</time></trkpt><trkpt lat="44.194877" lon="10.4347127"><ele>1175.0</ele><time>2026-05-03T13:56:26Z</time></trkpt><trkpt lat="44.1948449" lon="10.4348203"><ele>1176.3333333333335</ele><time>2026-05-03T13:56:29Z</time></trkpt><trkpt lat="44.1948156" lon="10.4349258"><ele>1177.6666666666667</ele><time>2026-05-03T13:56:32Z</time></trkpt><trkpt lat="44.1947889" lon="10.4350357"><ele>1179.0</ele><time>2026-05-03T13:56:35Z</time></trkpt><trkpt lat="44.1947637" lon="10.4351397"><ele>1180.3333333333333</ele><time>2026-05-03T13:56:38Z</time></trkpt><trkpt lat="44.1947233" lon="10.4352271"><ele>1181.6666666666665</ele><time>2026-05-03T13:56:41Z</time></trkpt><trkpt lat="44.1946727" lon="10.4353042"><ele>1183.0</ele><time>2026-05-03T13:56:44Z</time></trkpt><trkpt lat="44.1946143" lon="10.4353824"><ele>1183.0</ele><time>2026-05-03T13:56:47Z</time></trkpt><trkpt lat="44.1945496" lon="10.4354639"><ele>1183.0</ele><time>2026-05-03T13:56:49.999Z</time></trkpt><trkpt lat="44.1944728" lon="10.4355322"><ele>1183.0</ele><time>2026-05-03T13:56:53Z</time></trkpt><trkpt lat="44.1943885" lon="10.435555"><ele>1183.0</ele><time>2026-05-03T13:56:56Z</time></trkpt><trkpt lat="44.1943053" lon="10.4355544"><ele>1183.0</ele><time>2026-05-03T13:56:59Z</time></trkpt><trkpt lat="44.1942167" lon="10.4355401"><ele>1183.0</ele><time>2026-05-03T13:57:02Z</time></trkpt><trkpt lat="44.1941305" lon="10.4355264"><ele>1187.3333333333333</ele><time>2026-05-03T13:57:04.999Z</time></trkpt><trkpt lat="44.1940548" lon="10.4355267"><ele>1191.6666666666665</ele><time>2026-05-03T13:57:07.999Z</time></trkpt><trkpt lat="44.1939674" lon="10.4355239"><ele>1196.0</ele><time>2026-05-03T13:57:10.999Z</time></trkpt><trkpt lat="44.1938831" lon="10.4355134"><ele>1200.3333333333333</ele><time>2026-05-03T13:57:14Z</time></trkpt><trkpt lat="44.1937992" lon="10.4355033"><ele>1204.6666666666667</ele><time>2026-05-03T13:57:17Z</time></trkpt><trkpt lat="44.1937168" lon="10.4354994"><ele>1209.0</ele><time>2026-05-03T13:57:20Z</time></trkpt><trkpt lat="44.1936333" lon="10.4354956"><ele>1209.0</ele><time>2026-05-03T13:57:23Z</time></trkpt><trkpt lat="44.1935462" lon="10.4354834"><ele>1209.0</ele><time>2026-05-03T13:57:26Z</time></trkpt><trkpt lat="44.1934646" lon="10.4354772"><ele>1209.0</ele><time>2026-05-03T13:57:29Z</time></trkpt><trkpt lat="44.1933803" lon="10.4354736"><ele>1209.0</ele><time>2026-05-03T13:57:32Z</time></trkpt><trkpt lat="44.1932938" lon="10.4354808"><ele>1209.0</ele><time>2026-05-03T13:57:35Z</time></trkpt><trkpt lat="44.19321" lon="10.435494"><ele>1209.0</ele><time>2026-05-03T13:57:37.999Z</time></trkpt><trkpt lat="44.193129" lon="10.4355142"><ele>1206.3333333333333</ele><time>2026-05-03T13:57:41Z</time></trkpt><trkpt lat="44.1930444" lon="10.4355349"><ele>1203.6666666666667</ele><time>2026-05-03T13:57:43.999Z</time></trkpt><trkpt lat="44.1929618" lon="10.4355724"><ele>1201.0</ele><time>2026-05-03T13:57:47Z</time></trkpt><trkpt lat="44.1929134" lon="10.4356581"><ele>1198.3333333333335</ele><time>2026-05-03T13:57:50Z</time></trkpt><trkpt lat="44.1929407" lon="10.4357676"><ele>1195.6666666666667</ele><time>2026-05-03T13:57:53Z</time></trkpt><trkpt lat="44.1930079" lon="10.4358389"><ele>1193.0</ele><time>2026-05-03T13:57:56Z</time></trkpt><trkpt lat="44.193082" lon="10.4358901"><ele>1193.0</ele><time>2026-05-03T13:57:58.997Z</time></trkpt><trkpt lat="44.193154" lon="10.4359475"><ele>1193.0</ele><time>2026-05-03T13:58:02Z</time></trkpt><trkpt lat="44.1932293" lon="10.4359987"><ele>1193.0</ele><time>2026-05-03T13:58:04.999Z</time></trkpt><trkpt lat="44.19331" lon="10.4360295"><ele>1193.0</ele><time>2026-05-03T13:58:08Z</time></trkpt><trkpt lat="44.1933846" lon="10.4360759"><ele>1193.0</ele><time>2026-05-03T13:58:11Z</time></trkpt><trkpt lat="44.193458" lon="10.4361143"><ele>1193.0</ele><time>2026-05-03T13:58:13.998Z</time></trkpt><trkpt lat="44.193536" lon="10.4361562"><ele>1192.3333333333335</ele><time>2026-05-03T13:58:16.999Z</time></trkpt><trkpt lat="44.1936179" lon="10.4361899"><ele>1191.6666666666667</ele><time>2026-05-03T13:58:19.996Z</time></trkpt><trkpt lat="44.1936927" lon="10.4362289"><ele>1191.0</ele><time>2026-05-03T13:58:23Z</time></trkpt><trkpt lat="44.1937684" lon="10.4362752"><ele>1190.3333333333333</ele><time>2026-05-03T13:58:26Z</time></trkpt><trkpt lat="44.1938386" lon="10.4363351"><ele>1189.6666666666665</ele><time>2026-05-03T13:58:28.994Z</time></trkpt><trkpt lat="44.1938897" lon="10.4363954"><ele>1189.0</ele><time>2026-05-03T13:58:32Z</time></trkpt><trkpt lat="44.1939542" lon="10.4364762"><ele>1194.0</ele><time>2026-05-03T13:58:35Z</time></trkpt><trkpt lat="44.194011" lon="10.4365681"><ele>1199.0</ele><time>2026-05-03T13:58:37.999Z</time></trkpt><trkpt lat="44.1940551" lon="10.4366714"><ele>1204.0</ele><time>2026-05-03T13:58:41Z</time></trkpt><trkpt lat="44.194094" lon="10.4367724"><ele>1209.0</ele><time>2026-05-03T13:58:43.999Z</time></trkpt><trkpt lat="44.1941309" lon="10.4368643"><ele>1214.0</ele><time>2026-05-03T13:58:47Z</time></trkpt><trkpt lat="44.1941694" lon="10.4369529"><ele>1219.0</ele><time>2026-05-03T13:58:49.992Z</time></trkpt><trkpt lat="44.1942062" lon="10.4370635"><ele>1216.8333333333333</ele><time>2026-05-03T13:58:52.999Z</time></trkpt><trkpt lat="44.1942469" lon="10.4371705"><ele>1214.6666666666665</ele><time>2026-05-03T13:58:56Z</time></trkpt><trkpt lat="44.1942974" lon="10.4372669"><ele>1212.5</ele><time>2026-05-03T13:58:58.999Z</time></trkpt><trkpt lat="44.1943475" lon="10.4373468"><ele>1210.3333333333333</ele><time>2026-05-03T13:59:01.996Z</time></trkpt><trkpt lat="44.1943986" lon="10.4374217"><ele>1208.1666666666667</ele><time>2026-05-03T13:59:05Z</time></trkpt><trkpt lat="44.1944463" lon="10.4374974"><ele>1206.0</ele><time>2026-05-03T13:59:08Z</time></trkpt><trkpt lat="44.1944929" lon="10.4375834"><ele>1206.0</ele><time>2026-05-03T13:59:11Z</time></trkpt><trkpt lat="44.1945468" lon="10.4376795"><ele>1206.0</ele><time>2026-05-03T13:59:13.999Z</time></trkpt><trkpt lat="44.194603" lon="10.4377809"><ele>1206.0</ele><time>2026-05-03T13:59:16.996Z</time></trkpt><trkpt lat="44.1946402" lon="10.4378948"><ele>1206.0</ele><time>2026-05-03T13:59:20Z</time></trkpt><trkpt lat="44.194655" lon="10.4379825"><ele>1206.0</ele><time>2026-05-03T13:59:22Z</time></trkpt><trkpt lat="44.1946677" lon="10.4381058"><ele>1206.0</ele><time>2026-05-03T13:59:24.999Z</time></trkpt><trkpt lat="44.1946735" lon="10.4382293"><ele>1205.6666666666667</ele><time>2026-05-03T13:59:28Z</time></trkpt><trkpt lat="44.1946799" lon="10.4383598"><ele>1205.3333333333333</ele><time>2026-05-03T13:59:31Z</time></trkpt><trkpt lat="44.1946755" lon="10.4384906"><ele>1205.0</ele><time>2026-05-03T13:59:34Z</time></trkpt><trkpt lat="44.1946344" lon="10.4386032"><ele>1204.6666666666665</ele><time>2026-05-03T13:59:37Z</time></trkpt><trkpt lat="44.1945843" lon="10.4387017"><ele>1204.3333333333333</ele><time>2026-05-03T13:59:40Z</time></trkpt><trkpt lat="44.1945447" lon="10.4387707"><ele>1204.0</ele><time>2026-05-03T13:59:41.999Z</time></trkpt><trkpt lat="44.1945128" lon="10.4388511"><ele>1204.5714285714287</ele><time>2026-05-03T13:59:43.999Z</time></trkpt><trkpt lat="44.1944933" lon="10.438941"><ele>1205.142857142857</ele><time>2026-05-03T13:59:46Z</time></trkpt><trkpt lat="44.1944923" lon="10.4390335"><ele>1205.7142857142858</ele><time>2026-05-03T13:59:48Z</time></trkpt><trkpt lat="44.1945004" lon="10.4391233"><ele>1206.2857142857142</ele><time>2026-05-03T13:59:50Z</time></trkpt><trkpt lat="44.1945161" lon="10.4392089"><ele>1206.857142857143</ele><time>2026-05-03T13:59:52Z</time></trkpt><trkpt lat="44.1945361" lon="10.4392949"><ele>1207.4285714285716</ele><time>2026-05-03T13:59:53.999Z</time></trkpt><trkpt lat="44.1945641" lon="10.4393841"><ele>1208.0</ele><time>2026-05-03T13:59:55.999Z</time></trkpt><trkpt lat="44.194598" lon="10.4394594"><ele>1208.0</ele><time>2026-05-03T13:59:57.999Z</time></trkpt><trkpt lat="44.1946614" lon="10.4395569"><ele>1208.0</ele><time>2026-05-03T14:00:01Z</time></trkpt><trkpt lat="44.1947047" lon="10.4396234"><ele>1208.0</ele><time>2026-05-03T14:00:03Z</time></trkpt><trkpt lat="44.1947559" lon="10.4397348"><ele>1208.0</ele><time>2026-05-03T14:00:06Z</time></trkpt><trkpt lat="44.1947648" lon="10.4398591"><ele>1208.0</ele><time>2026-05-03T14:00:09Z</time></trkpt><trkpt lat="44.1947651" lon="10.4399595"><ele>1208.0</ele><time>2026-05-03T14:00:10.999Z</time></trkpt><trkpt lat="44.1947642" lon="10.4400484"><ele>1207.7142857142858</ele><time>2026-05-03T14:00:12.999Z</time></trkpt><trkpt lat="44.1947543" lon="10.4401376"><ele>1207.4285714285716</ele><time>2026-05-03T14:00:15Z</time></trkpt><trkpt lat="44.1947345" lon="10.4402291"><ele>1207.1428571428573</ele><time>2026-05-03T14:00:17Z</time></trkpt><trkpt lat="44.1947011" lon="10.4403064"><ele>1206.857142857143</ele><time>2026-05-03T14:00:18.993Z</time></trkpt><trkpt lat="44.1946463" lon="10.4404077"><ele>1206.5714285714284</ele><time>2026-05-03T14:00:21.998Z</time></trkpt><trkpt lat="44.1945912" lon="10.440513"><ele>1206.2857142857144</ele><time>2026-05-03T14:00:24.996Z</time></trkpt><trkpt lat="44.1945581" lon="10.4405941"><ele>1206.0</ele><time>2026-05-03T14:00:27Z</time></trkpt><trkpt lat="44.19453" lon="10.4406752"><ele>1209.0</ele><time>2026-05-03T14:00:28.998Z</time></trkpt><trkpt lat="44.1945125" lon="10.4407661"><ele>1212.0</ele><time>2026-05-03T14:00:31Z</time></trkpt><trkpt lat="44.1944845" lon="10.4408487"><ele>1215.0</ele><time>2026-05-03T14:00:33Z</time></trkpt><trkpt lat="44.1944543" lon="10.4409293"><ele>1218.0</ele><time>2026-05-03T14:00:35Z</time></trkpt><trkpt lat="44.1944274" lon="10.4410132"><ele>1221.0</ele><time>2026-05-03T14:00:36.999Z</time></trkpt><trkpt lat="44.1943935" lon="10.4410957"><ele>1224.0</ele><time>2026-05-03T14:00:39Z</time></trkpt><trkpt lat="44.1943387" lon="10.4411649"><ele>1227.0</ele><time>2026-05-03T14:00:41Z</time></trkpt><trkpt lat="44.1942895" lon="10.4412318"><ele>1225.857142857143</ele><time>2026-05-03T14:00:43Z</time></trkpt><trkpt lat="44.1942407" lon="10.4412991"><ele>1224.7142857142856</ele><time>2026-05-03T14:00:45Z</time></trkpt><trkpt lat="44.194197" lon="10.441365"><ele>1223.5714285714284</ele><time>2026-05-03T14:00:47Z</time></trkpt><trkpt lat="44.1941504" lon="10.4414328"><ele>1222.4285714285716</ele><time>2026-05-03T14:00:49Z</time></trkpt><trkpt lat="44.1940992" lon="10.4414918"><ele>1221.2857142857142</ele><time>2026-05-03T14:00:50.998Z</time></trkpt><trkpt lat="44.1940368" lon="10.4415428"><ele>1220.142857142857</ele><time>2026-05-03T14:00:53Z</time></trkpt><trkpt lat="44.1939781" lon="10.4415867"><ele>1219.0</ele><time>2026-05-03T14:00:55Z</time></trkpt><trkpt lat="44.1939212" lon="10.4416303"><ele>1219.0</ele><time>2026-05-03T14:00:56.999Z</time></trkpt><trkpt lat="44.1938637" lon="10.441683"><ele>1219.0</ele><time>2026-05-03T14:00:58.999Z</time></trkpt><trkpt lat="44.1938229" lon="10.4417567"><ele>1219.0</ele><time>2026-05-03T14:01:00.999Z</time></trkpt><trkpt lat="44.1938101" lon="10.4418459"><ele>1219.0</ele><time>2026-05-03T14:01:02.997Z</time></trkpt><trkpt lat="44.1938614" lon="10.4419596"><ele>1219.0</ele><time>2026-05-03T14:01:05.998Z</time></trkpt><trkpt lat="44.1939223" lon="10.4420245"><ele>1219.0</ele><time>2026-05-03T14:01:08Z</time></trkpt><trkpt lat="44.1939773" lon="10.4420867"><ele>1219.0</ele><time>2026-05-03T14:01:09.994Z</time></trkpt><trkpt lat="44.1940372" lon="10.4421475"><ele>1222.142857142857</ele><time>2026-05-03T14:01:12Z</time></trkpt><trkpt lat="44.1940953" lon="10.4422071"><ele>1225.2857142857142</ele><time>2026-05-03T14:01:13.998Z</time></trkpt><trkpt lat="44.1941531" lon="10.442267"><ele>1228.4285714285716</ele><time>2026-05-03T14:01:16Z</time></trkpt><trkpt lat="44.1942116" lon="10.4423248"><ele>1231.5714285714284</ele><time>2026-05-03T14:01:18Z</time></trkpt><trkpt lat="44.1942667" lon="10.4423853"><ele>1234.7142857142856</ele><time>2026-05-03T14:01:19.999Z</time></trkpt><trkpt lat="44.1943248" lon="10.4424535"><ele>1237.857142857143</ele><time>2026-05-03T14:01:21.999Z</time></trkpt><trkpt lat="44.1943856" lon="10.4425108"><ele>1241.0</ele><time>2026-05-03T14:01:23.996Z</time></trkpt><trkpt lat="44.1944542" lon="10.4425478"><ele>1241.0</ele><time>2026-05-03T14:01:25.999Z</time></trkpt><trkpt lat="44.1945252" lon="10.442564"><ele>1241.0</ele><time>2026-05-03T14:01:28Z</time></trkpt><trkpt lat="44.1945931" lon="10.4425882"><ele>1241.0</ele><time>2026-05-03T14:01:30Z</time></trkpt><trkpt lat="44.1946609" lon="10.4426012"><ele>1241.0</ele><time>2026-05-03T14:01:32Z</time></trkpt><trkpt lat="44.1947304" lon="10.4426109"><ele>1241.0</ele><time>2026-05-03T14:01:33.999Z</time></trkpt><trkpt lat="44.1947992" lon="10.4426266"><ele>1241.0</ele><time>2026-05-03T14:01:36Z</time></trkpt><trkpt lat="44.1948626" lon="10.4426395"><ele>1241.0</ele><time>2026-05-03T14:01:38Z</time></trkpt><trkpt lat="44.1949273" lon="10.4426471"><ele>1243.7142857142858</ele><time>2026-05-03T14:01:40Z</time></trkpt><trkpt lat="44.1950042" lon="10.4426599"><ele>1246.4285714285713</ele><time>2026-05-03T14:01:42Z</time></trkpt><trkpt lat="44.1950817" lon="10.4426772"><ele>1249.142857142857</ele><time>2026-05-03T14:01:44Z</time></trkpt><trkpt lat="44.1951567" lon="10.4426887"><ele>1251.857142857143</ele><time>2026-05-03T14:01:45.999Z</time></trkpt><trkpt lat="44.195228" lon="10.4426988"><ele>1254.5714285714284</ele><time>2026-05-03T14:01:47.999Z</time></trkpt><trkpt lat="44.1952973" lon="10.4427079"><ele>1257.2857142857142</ele><time>2026-05-03T14:01:50Z</time></trkpt><trkpt lat="44.1953701" lon="10.4427208"><ele>1260.0</ele><time>2026-05-03T14:01:52Z</time></trkpt><trkpt lat="44.1954432" lon="10.4427422"><ele>1260.0</ele><time>2026-05-03T14:01:54Z</time></trkpt><trkpt lat="44.1955173" lon="10.4427646"><ele>1260.0</ele><time>2026-05-03T14:01:55.999Z</time></trkpt><trkpt lat="44.1955888" lon="10.4427849"><ele>1260.0</ele><time>2026-05-03T14:01:57.998Z</time></trkpt><trkpt lat="44.195656" lon="10.4427954"><ele>1260.0</ele><time>2026-05-03T14:01:59.999Z</time></trkpt><trkpt lat="44.1957306" lon="10.4427881"><ele>1260.0</ele><time>2026-05-03T14:02:02Z</time></trkpt><trkpt lat="44.1958105" lon="10.4427854"><ele>1260.0</ele><time>2026-05-03T14:02:04Z</time></trkpt><trkpt lat="44.1958899" lon="10.4427854"><ele>1263.1666666666667</ele><time>2026-05-03T14:02:06Z</time></trkpt><trkpt lat="44.1959723" lon="10.4428056"><ele>1266.3333333333333</ele><time>2026-05-03T14:02:08Z</time></trkpt><trkpt lat="44.1960494" lon="10.4428489"><ele>1269.5</ele><time>2026-05-03T14:02:10Z</time></trkpt><trkpt lat="44.1961176" lon="10.4428963"><ele>1272.6666666666665</ele><time>2026-05-03T14:02:12Z</time></trkpt><trkpt lat="44.1961836" lon="10.4429427"><ele>1275.8333333333333</ele><time>2026-05-03T14:02:14Z</time></trkpt><trkpt lat="44.196252" lon="10.4429871"><ele>1279.0</ele><time>2026-05-03T14:02:15.999Z</time></trkpt><trkpt lat="44.1963193" lon="10.4430311"><ele>1276.6666666666665</ele><time>2026-05-03T14:02:18Z</time></trkpt><trkpt lat="44.1963815" lon="10.4430796"><ele>1274.3333333333333</ele><time>2026-05-03T14:02:20Z</time></trkpt><trkpt lat="44.1964396" lon="10.4431479"><ele>1272.0</ele><time>2026-05-03T14:02:22Z</time></trkpt><trkpt lat="44.1964882" lon="10.4432265"><ele>1269.6666666666667</ele><time>2026-05-03T14:02:23.999Z</time></trkpt><trkpt lat="44.1965303" lon="10.4433158"><ele>1267.3333333333335</ele><time>2026-05-03T14:02:26Z</time></trkpt><trkpt lat="44.1965684" lon="10.4433985"><ele>1265.0</ele><time>2026-05-03T14:02:28Z</time></trkpt><trkpt lat="44.1966192" lon="10.4435009"><ele>1265.0</ele><time>2026-05-03T14:02:30.999Z</time></trkpt><trkpt lat="44.1966777" lon="10.4435522"><ele>1265.0</ele><time>2026-05-03T14:02:43Z</time></trkpt><trkpt lat="44.1967431" lon="10.4435949"><ele>1265.0</ele><time>2026-05-03T14:02:45Z</time></trkpt><trkpt lat="44.196803" lon="10.4436549"><ele>1265.0</ele><time>2026-05-03T14:02:47Z</time></trkpt><trkpt lat="44.1968615" lon="10.4437233"><ele>1265.0</ele><time>2026-05-03T14:02:48.999Z</time></trkpt><trkpt lat="44.196925" lon="10.4437809"><ele>1265.0</ele><time>2026-05-03T14:02:51Z</time></trkpt><trkpt lat="44.1969912" lon="10.4438382"><ele>1265.0</ele><time>2026-05-03T14:02:53Z</time></trkpt><trkpt lat="44.1970594" lon="10.4438927"><ele>1264.0</ele><time>2026-05-03T14:02:54.999Z</time></trkpt><trkpt lat="44.1971283" lon="10.4439363"><ele>1263.0</ele><time>2026-05-03T14:02:57Z</time></trkpt><trkpt lat="44.1972007" lon="10.4439758"><ele>1262.0</ele><time>2026-05-03T14:02:59Z</time></trkpt><trkpt lat="44.1972726" lon="10.4440144"><ele>1261.0</ele><time>2026-05-03T14:03:01Z</time></trkpt><trkpt lat="44.1973467" lon="10.4440591"><ele>1260.0</ele><time>2026-05-03T14:03:03Z</time></trkpt><trkpt lat="44.1974105" lon="10.4441255"><ele>1259.0</ele><time>2026-05-03T14:03:04.999Z</time></trkpt><trkpt lat="44.1974572" lon="10.4442128"><ele>1259.0</ele><time>2026-05-03T14:03:07Z</time></trkpt><trkpt lat="44.1974902" lon="10.4443048"><ele>1259.0</ele><time>2026-05-03T14:03:09Z</time></trkpt><trkpt lat="44.1975193" lon="10.444395"><ele>1259.0</ele><time>2026-05-03T14:03:10.999Z</time></trkpt><trkpt lat="44.197549" lon="10.4444785"><ele>1259.0</ele><time>2026-05-03T14:03:13Z</time></trkpt><trkpt lat="44.1975771" lon="10.4445677"><ele>1259.0</ele><time>2026-05-03T14:03:14.999Z</time></trkpt><trkpt lat="44.1976084" lon="10.4446672"><ele>1259.0</ele><time>2026-05-03T14:03:17Z</time></trkpt><trkpt lat="44.1976437" lon="10.4447597"><ele>1259.0</ele><time>2026-05-03T14:03:18.999Z</time></trkpt><trkpt lat="44.1976717" lon="10.4448537"><ele>1256.4285714285713</ele><time>2026-05-03T14:03:20.996Z</time></trkpt><trkpt lat="44.1977027" lon="10.4449453"><ele>1253.857142857143</ele><time>2026-05-03T14:03:23Z</time></trkpt><trkpt lat="44.1977261" lon="10.4450393"><ele>1251.2857142857142</ele><time>2026-05-03T14:03:25Z</time></trkpt><trkpt lat="44.1977552" lon="10.445139"><ele>1248.7142857142858</ele><time>2026-05-03T14:03:27Z</time></trkpt><trkpt lat="44.1977861" lon="10.4452385"><ele>1246.142857142857</ele><time>2026-05-03T14:03:29Z</time></trkpt><trkpt lat="44.1978153" lon="10.4453338"><ele>1243.5714285714287</ele><time>2026-05-03T14:03:31Z</time></trkpt><trkpt lat="44.1978453" lon="10.4454291"><ele>1241.0</ele><time>2026-05-03T14:03:32.999Z</time></trkpt><trkpt lat="44.1978752" lon="10.4455223"><ele>1239.857142857143</ele><time>2026-05-03T14:03:35Z</time></trkpt><trkpt lat="44.1979099" lon="10.4456108"><ele>1238.7142857142856</ele><time>2026-05-03T14:03:37Z</time></trkpt><trkpt lat="44.197957" lon="10.4456776"><ele>1237.5714285714284</ele><time>2026-05-03T14:03:39Z</time></trkpt><trkpt lat="44.1980221" lon="10.4457172"><ele>1236.4285714285716</ele><time>2026-05-03T14:03:40.999Z</time></trkpt><trkpt lat="44.1980959" lon="10.4457253"><ele>1235.2857142857142</ele><time>2026-05-03T14:03:42.999Z</time></trkpt><trkpt lat="44.1981652" lon="10.4457167"><ele>1234.142857142857</ele><time>2026-05-03T14:03:44.999Z</time></trkpt><trkpt lat="44.1982291" lon="10.4457236"><ele>1233.0</ele><time>2026-05-03T14:03:47Z</time></trkpt><trkpt lat="44.1982963" lon="10.4457381"><ele>1236.142857142857</ele><time>2026-05-03T14:03:49Z</time></trkpt><trkpt lat="44.1983702" lon="10.445766"><ele>1239.2857142857142</ele><time>2026-05-03T14:03:51Z</time></trkpt><trkpt lat="44.198443" lon="10.4458061"><ele>1242.4285714285716</ele><time>2026-05-03T14:03:52.999Z</time></trkpt><trkpt lat="44.1985077" lon="10.4458634"><ele>1245.5714285714284</ele><time>2026-05-03T14:03:55Z</time></trkpt><trkpt lat="44.1985614" lon="10.4459243"><ele>1248.7142857142856</ele><time>2026-05-03T14:03:56.994Z</time></trkpt><trkpt lat="44.198613" lon="10.4459926"><ele>1251.857142857143</ele><time>2026-05-03T14:03:59Z</time></trkpt><trkpt lat="44.1986666" lon="10.4460645"><ele>1255.0</ele><time>2026-05-03T14:04:00.999Z</time></trkpt><trkpt lat="44.1987192" lon="10.4461355"><ele>1255.0</ele><time>2026-05-03T14:04:02.998Z</time></trkpt><trkpt lat="44.1987769" lon="10.4462005"><ele>1255.0</ele><time>2026-05-03T14:04:05Z</time></trkpt><trkpt lat="44.1988324" lon="10.446265"><ele>1255.0</ele><time>2026-05-03T14:04:07Z</time></trkpt><trkpt lat="44.198884" lon="10.44632"><ele>1255.0</ele><time>2026-05-03T14:04:08.994Z</time></trkpt><trkpt lat="44.1989591" lon="10.446359"><ele>1255.0</ele><time>2026-05-03T14:04:12Z</time></trkpt><trkpt lat="44.1990249" lon="10.4463592"><ele>1255.0</ele><time>2026-05-03T14:04:42.998Z</time></trkpt><trkpt lat="44.1990769" lon="10.4463072"><ele>1255.0</ele><time>2026-05-03T14:04:45.998Z</time></trkpt><trkpt lat="44.1991276" lon="10.4462485"><ele>1256.0</ele><time>2026-05-03T14:04:48Z</time></trkpt><trkpt lat="44.1991762" lon="10.4461792"><ele>1257.0</ele><time>2026-05-03T14:04:49.996Z</time></trkpt><trkpt lat="44.199208" lon="10.446095"><ele>1258.0</ele><time>2026-05-03T14:04:52Z</time></trkpt><trkpt lat="44.1992361" lon="10.4460062"><ele>1259.0</ele><time>2026-05-03T14:04:54Z</time></trkpt><trkpt lat="44.1992651" lon="10.4459196"><ele>1260.0</ele><time>2026-05-03T14:04:56Z</time></trkpt><trkpt lat="44.1992932" lon="10.4458297"><ele>1261.0</ele><time>2026-05-03T14:04:58Z</time></trkpt><trkpt lat="44.199318" lon="10.4457403"><ele>1262.0</ele><time>2026-05-03T14:05:00Z</time></trkpt><trkpt lat="44.1993392" lon="10.4456418"><ele>1262.0</ele><time>2026-05-03T14:05:02Z</time></trkpt><trkpt lat="44.1993676" lon="10.4455487"><ele>1262.0</ele><time>2026-05-03T14:05:03.995Z</time></trkpt><trkpt lat="44.1993898" lon="10.4454658"><ele>1262.0</ele><time>2026-05-03T14:05:06Z</time></trkpt><trkpt lat="44.1994198" lon="10.4453827"><ele>1262.0</ele><time>2026-05-03T14:05:07.998Z</time></trkpt><trkpt lat="44.1994538" lon="10.4452898"><ele>1262.0</ele><time>2026-05-03T14:05:10Z</time></trkpt><trkpt lat="44.199489" lon="10.4451968"><ele>1262.0</ele><time>2026-05-03T14:05:11.999Z</time></trkpt><trkpt lat="44.1995221" lon="10.4450995"><ele>1262.0</ele><time>2026-05-03T14:05:13.994Z</time></trkpt><trkpt lat="44.1995546" lon="10.4450019"><ele>1266.1666666666667</ele><time>2026-05-03T14:05:15.999Z</time></trkpt><trkpt lat="44.1995923" lon="10.4449117"><ele>1270.3333333333335</ele><time>2026-05-03T14:05:17.999Z</time></trkpt><trkpt lat="44.1996313" lon="10.4448157"><ele>1274.5</ele><time>2026-05-03T14:05:20Z</time></trkpt><trkpt lat="44.1996761" lon="10.4447281"><ele>1278.6666666666667</ele><time>2026-05-03T14:05:22Z</time></trkpt><trkpt lat="44.1997201" lon="10.4446418"><ele>1282.8333333333333</ele><time>2026-05-03T14:05:23.999Z</time></trkpt><trkpt lat="44.1997664" lon="10.4445591"><ele>1287.0</ele><time>2026-05-03T14:05:26Z</time></trkpt><trkpt lat="44.199812" lon="10.4444789"><ele>1284.3333333333333</ele><time>2026-05-03T14:05:28Z</time></trkpt><trkpt lat="44.1998648" lon="10.444396"><ele>1281.6666666666667</ele><time>2026-05-03T14:05:29.999Z</time></trkpt><trkpt lat="44.1999218" lon="10.444326"><ele>1279.0</ele><time>2026-05-03T14:05:31.999Z</time></trkpt><trkpt lat="44.1999859" lon="10.4442826"><ele>1276.3333333333335</ele><time>2026-05-03T14:05:34Z</time></trkpt><trkpt lat="44.2000584" lon="10.4442509"><ele>1273.6666666666667</ele><time>2026-05-03T14:05:35.997Z</time></trkpt><trkpt lat="44.2001293" lon="10.4442193"><ele>1271.0</ele><time>2026-05-03T14:05:37.997Z</time></trkpt><trkpt lat="44.200201" lon="10.4441835"><ele>1271.0</ele><time>2026-05-03T14:05:40Z</time></trkpt><trkpt lat="44.2002705" lon="10.4441478"><ele>1271.0</ele><time>2026-05-03T14:05:41.994Z</time></trkpt><trkpt lat="44.2003462" lon="10.4441204"><ele>1271.0</ele><time>2026-05-03T14:05:44Z</time></trkpt><trkpt lat="44.2004171" lon="10.4440958"><ele>1271.0</ele><time>2026-05-03T14:05:46Z</time></trkpt><trkpt lat="44.200489" lon="10.4440721"><ele>1271.0</ele><time>2026-05-03T14:05:48Z</time></trkpt><trkpt lat="44.2005645" lon="10.4440467"><ele>1271.0</ele><time>2026-05-03T14:05:49.999Z</time></trkpt><trkpt lat="44.2006394" lon="10.4440246"><ele>1271.0000000000002</ele><time>2026-05-03T14:05:52Z</time></trkpt><trkpt lat="44.2007112" lon="10.4440118"><ele>1271.0</ele><time>2026-05-03T14:05:53.999Z</time></trkpt><trkpt lat="44.2007766" lon="10.4440036"><ele>1271.0</ele><time>2026-05-03T14:05:56Z</time></trkpt><trkpt lat="44.2008558" lon="10.4439938"><ele>1271.0</ele><time>2026-05-03T14:05:58Z</time></trkpt><trkpt lat="44.2009329" lon="10.4440087"><ele>1271.0</ele><time>2026-05-03T14:05:59.999Z</time></trkpt><trkpt lat="44.2009829" lon="10.4440781"><ele>1271.0000000000002</ele><time>2026-05-03T14:06:02Z</time></trkpt><trkpt lat="44.2010002" lon="10.4441698"><ele>1271.0</ele><time>2026-05-03T14:06:04Z</time></trkpt><trkpt lat="44.2009928" lon="10.4442633"><ele>1271.0000000000002</ele><time>2026-05-03T14:06:05.993Z</time></trkpt><trkpt lat="44.2009819" lon="10.4443546"><ele>1271.0</ele><time>2026-05-03T14:06:08Z</time></trkpt><trkpt lat="44.2009729" lon="10.444446"><ele>1271.0</ele><time>2026-05-03T14:06:09.994Z</time></trkpt><trkpt lat="44.200962" lon="10.4445797"><ele>1271.0</ele><time>2026-05-03T14:06:13Z</time></trkpt><trkpt lat="44.2009727" lon="10.4446744"><ele>1271.0</ele><time>2026-05-03T14:06:14.993Z</time></trkpt><trkpt lat="44.2009999" lon="10.4447641"><ele>1271.0000000000002</ele><time>2026-05-03T14:06:17Z</time></trkpt><trkpt lat="44.2010491" lon="10.4448442"><ele>1271.0</ele><time>2026-05-03T14:06:18.997Z</time></trkpt><trkpt lat="44.2011023" lon="10.4449111"><ele>1268.4285714285716</ele><time>2026-05-03T14:06:21Z</time></trkpt><trkpt lat="44.2011501" lon="10.4449765"><ele>1265.857142857143</ele><time>2026-05-03T14:06:23Z</time></trkpt><trkpt lat="44.2011955" lon="10.4450463"><ele>1263.2857142857142</ele><time>2026-05-03T14:06:25Z</time></trkpt><trkpt lat="44.201241" lon="10.4451164"><ele>1260.7142857142858</ele><time>2026-05-03T14:06:26.999Z</time></trkpt><trkpt lat="44.2012759" lon="10.4451998"><ele>1258.142857142857</ele><time>2026-05-03T14:06:28.999Z</time></trkpt><trkpt lat="44.2012893" lon="10.4452981"><ele>1255.5714285714287</ele><time>2026-05-03T14:06:30.994Z</time></trkpt><trkpt lat="44.2012886" lon="10.4454042"><ele>1253.0</ele><time>2026-05-03T14:06:33Z</time></trkpt><trkpt lat="44.2012944" lon="10.4455019"><ele>1254.7142857142858</ele><time>2026-05-03T14:06:35Z</time></trkpt><trkpt lat="44.2013025" lon="10.4455978"><ele>1256.4285714285716</ele><time>2026-05-03T14:06:37Z</time></trkpt><trkpt lat="44.2013206" lon="10.445696"><ele>1258.142857142857</ele><time>2026-05-03T14:06:39Z</time></trkpt><trkpt lat="44.2013598" lon="10.4457748"><ele>1259.857142857143</ele><time>2026-05-03T14:06:40.996Z</time></trkpt><trkpt lat="44.2014268" lon="10.4458187"><ele>1261.5714285714287</ele><time>2026-05-03T14:06:42.995Z</time></trkpt><trkpt lat="44.2014969" lon="10.4458242"><ele>1263.2857142857142</ele><time>2026-05-03T14:06:45Z</time></trkpt><trkpt lat="44.201567" lon="10.4458105"><ele>1265.0</ele><time>2026-05-03T14:06:47Z</time></trkpt><trkpt lat="44.2016338" lon="10.445799"><ele>1265.0</ele><time>2026-05-03T14:06:48.997Z</time></trkpt><trkpt lat="44.2017015" lon="10.4457844"><ele>1265.0</ele><time>2026-05-03T14:06:51Z</time></trkpt><trkpt lat="44.2017647" lon="10.4457715"><ele>1265.0</ele><time>2026-05-03T14:06:53Z</time></trkpt><trkpt lat="44.201834" lon="10.4457642"><ele>1265.0</ele><time>2026-05-03T14:06:55Z</time></trkpt><trkpt lat="44.2019216" lon="10.4457609"><ele>1265.0</ele><time>2026-05-03T14:06:58Z</time></trkpt><trkpt lat="44.2019918" lon="10.4457636"><ele>1265.0</ele><time>2026-05-03T14:06:59.997Z</time></trkpt><trkpt lat="44.202064" lon="10.4457751"><ele>1265.0</ele><time>2026-05-03T14:07:01.999Z</time></trkpt><trkpt lat="44.2021262" lon="10.4457996"><ele>1265.0</ele><time>2026-05-03T14:07:04Z</time></trkpt><trkpt lat="44.2021865" lon="10.4458628"><ele>1265.0</ele><time>2026-05-03T14:07:06Z</time></trkpt><trkpt lat="44.2022311" lon="10.4459422"><ele>1265.0</ele><time>2026-05-03T14:07:08Z</time></trkpt><trkpt lat="44.2022625" lon="10.4460416"><ele>1265.0</ele><time>2026-05-03T14:07:10Z</time></trkpt><trkpt lat="44.202288" lon="10.4461402"><ele>1265.0</ele><time>2026-05-03T14:07:11.995Z</time></trkpt><trkpt lat="44.2023041" lon="10.4462708"><ele>1265.0</ele><time>2026-05-03T14:07:14.999Z</time></trkpt><trkpt lat="44.2023162" lon="10.446392"><ele>1266.5714285714284</ele><time>2026-05-03T14:07:18Z</time></trkpt><trkpt lat="44.2023204" lon="10.4464804"><ele>1268.1428571428573</ele><time>2026-05-03T14:07:20Z</time></trkpt><trkpt lat="44.2023305" lon="10.4465707"><ele>1269.7142857142858</ele><time>2026-05-03T14:07:22Z</time></trkpt><trkpt lat="44.2023546" lon="10.446693"><ele>1271.2857142857142</ele><time>2026-05-03T14:07:24.999Z</time></trkpt><trkpt lat="44.2024122" lon="10.4467955"><ele>1272.8571428571427</ele><time>2026-05-03T14:07:27.994Z</time></trkpt><trkpt lat="44.202465" lon="10.44685"><ele>1274.4285714285716</ele><time>2026-05-03T14:07:29.999Z</time></trkpt><trkpt lat="44.202522" lon="10.4468969"><ele>1276.0</ele><time>2026-05-03T14:07:31.996Z</time></trkpt><trkpt lat="44.202583" lon="10.446927"><ele>1276.0</ele><time>2026-05-03T14:07:34Z</time></trkpt><trkpt lat="44.2026465" lon="10.4469482"><ele>1276.0</ele><time>2026-05-03T14:07:35.999Z</time></trkpt><trkpt lat="44.2027381" lon="10.4469686"><ele>1276.0</ele><time>2026-05-03T14:07:38.995Z</time></trkpt><trkpt lat="44.2028018" lon="10.4469624"><ele>1276.0</ele><time>2026-05-03T14:07:40.998Z</time></trkpt><trkpt lat="44.2028647" lon="10.4469586"><ele>1276.0</ele><time>2026-05-03T14:07:43Z</time></trkpt><trkpt lat="44.2029543" lon="10.4469658"><ele>1276.0</ele><time>2026-05-03T14:07:45.996Z</time></trkpt><trkpt lat="44.2030306" lon="10.4469499"><ele>1276.0</ele><time>2026-05-03T14:07:49Z</time></trkpt><trkpt lat="44.2031278" lon="10.4469377"><ele>1276.0</ele><time>2026-05-03T14:07:52Z</time></trkpt><trkpt lat="44.2031936" lon="10.4469304"><ele>1276.0</ele><time>2026-05-03T14:07:53.995Z</time></trkpt><trkpt lat="44.2032853" lon="10.4469128"><ele>1276.0</ele><time>2026-05-03T14:07:57Z</time></trkpt><trkpt lat="44.2033736" lon="10.446907"><ele>1276.0</ele><time>2026-05-03T14:07:59.997Z</time></trkpt><trkpt lat="44.2034538" lon="10.446913"><ele>1276.0</ele><time>2026-05-03T14:08:02.999Z</time></trkpt><trkpt lat="44.203517" lon="10.4469921"><ele>1278.4285714285716</ele><time>2026-05-03T14:08:05.999Z</time></trkpt><trkpt lat="44.2035205" lon="10.4470897"><ele>1280.8571428571427</ele><time>2026-05-03T14:08:08Z</time></trkpt><trkpt lat="44.2035087" lon="10.4471803"><ele>1283.2857142857142</ele><time>2026-05-03T14:08:09.997Z</time></trkpt><trkpt lat="44.2034911" lon="10.4472679"><ele>1285.7142857142858</ele><time>2026-05-03T14:08:11.994Z</time></trkpt><trkpt lat="44.2034639" lon="10.4473896"><ele>1288.1428571428573</ele><time>2026-05-03T14:08:14.999Z</time></trkpt><trkpt lat="44.2034316" lon="10.4474963"><ele>1290.5714285714284</ele><time>2026-05-03T14:08:18Z</time></trkpt><trkpt lat="44.2034038" lon="10.4475761"><ele>1293.0</ele><time>2026-05-03T14:08:20Z</time></trkpt><trkpt lat="44.2033783" lon="10.4476602"><ele>1293.0</ele><time>2026-05-03T14:08:21.998Z</time></trkpt><trkpt lat="44.2033626" lon="10.4477461"><ele>1293.0</ele><time>2026-05-03T14:08:23.999Z</time></trkpt><trkpt lat="44.2033521" lon="10.4478418"><ele>1293.0</ele><time>2026-05-03T14:08:26Z</time></trkpt><trkpt lat="44.2033439" lon="10.4479378"><ele>1293.0</ele><time>2026-05-03T14:08:27.997Z</time></trkpt><trkpt lat="44.2033245" lon="10.4480259"><ele>1293.0</ele><time>2026-05-03T14:08:30Z</time></trkpt><trkpt lat="44.203289" lon="10.4481061"><ele>1293.0</ele><time>2026-05-03T14:08:32Z</time></trkpt><trkpt lat="44.2032506" lon="10.4481788"><ele>1293.0</ele><time>2026-05-03T14:08:33.999Z</time></trkpt><trkpt lat="44.2032075" lon="10.4482474"><ele>1289.5714285714284</ele><time>2026-05-03T14:08:35.996Z</time></trkpt><trkpt lat="44.2031631" lon="10.4483169"><ele>1286.1428571428573</ele><time>2026-05-03T14:08:38Z</time></trkpt><trkpt lat="44.2031209" lon="10.4483877"><ele>1282.7142857142858</ele><time>2026-05-03T14:08:39.997Z</time></trkpt><trkpt lat="44.2030795" lon="10.4484576"><ele>1279.2857142857142</ele><time>2026-05-03T14:08:42Z</time></trkpt><trkpt lat="44.2030378" lon="10.4485307"><ele>1275.8571428571427</ele><time>2026-05-03T14:08:43.999Z</time></trkpt><trkpt lat="44.2029735" lon="10.4486205"><ele>1272.4285714285716</ele><time>2026-05-03T14:08:47Z</time></trkpt><trkpt lat="44.2029297" lon="10.4486844"><ele>1269.0</ele><time>2026-05-03T14:08:48.999Z</time></trkpt><trkpt lat="44.2028841" lon="10.4487512"><ele>1271.7142857142858</ele><time>2026-05-03T14:08:50.999Z</time></trkpt><trkpt lat="44.2028417" lon="10.4488189"><ele>1274.4285714285713</ele><time>2026-05-03T14:08:52.994Z</time></trkpt><trkpt lat="44.2028043" lon="10.4488946"><ele>1277.142857142857</ele><time>2026-05-03T14:08:55Z</time></trkpt><trkpt lat="44.2027699" lon="10.4489688"><ele>1279.857142857143</ele><time>2026-05-03T14:08:57Z</time></trkpt><trkpt lat="44.2027354" lon="10.4490475"><ele>1282.5714285714284</ele><time>2026-05-03T14:08:58.999Z</time></trkpt><trkpt lat="44.2026966" lon="10.4491254"><ele>1285.2857142857142</ele><time>2026-05-03T14:09:01Z</time></trkpt><trkpt lat="44.2026511" lon="10.4492396"><ele>1288.0</ele><time>2026-05-03T14:09:04Z</time></trkpt><trkpt lat="44.2026182" lon="10.4493146"><ele>1288.0</ele><time>2026-05-03T14:09:05.995Z</time></trkpt><trkpt lat="44.2025818" lon="10.4493869"><ele>1288.0</ele><time>2026-05-03T14:09:07.996Z</time></trkpt><trkpt lat="44.2025336" lon="10.4494993"><ele>1288.0</ele><time>2026-05-03T14:09:11Z</time></trkpt><trkpt lat="44.2025014" lon="10.4495783"><ele>1288.0</ele><time>2026-05-03T14:09:13Z</time></trkpt><trkpt lat="44.202477" lon="10.4496636"><ele>1288.0</ele><time>2026-05-03T14:09:14.997Z</time></trkpt><trkpt lat="44.2024677" lon="10.4497841"><ele>1288.0</ele><time>2026-05-03T14:09:18Z</time></trkpt><trkpt lat="44.2024836" lon="10.4498772"><ele>1288.0</ele><time>2026-05-03T14:09:19.994Z</time></trkpt><trkpt lat="44.2025097" lon="10.4499692"><ele>1288.142857142857</ele><time>2026-05-03T14:09:22Z</time></trkpt><trkpt lat="44.2025352" lon="10.4500624"><ele>1288.2857142857142</ele><time>2026-05-03T14:09:23.999Z</time></trkpt><trkpt lat="44.2025739" lon="10.4501411"><ele>1288.4285714285716</ele><time>2026-05-03T14:09:25.994Z</time></trkpt><trkpt lat="44.2026183" lon="10.4502075"><ele>1288.5714285714284</ele><time>2026-05-03T14:09:28Z</time></trkpt><trkpt lat="44.2026627" lon="10.4502751"><ele>1288.7142857142858</ele><time>2026-05-03T14:09:29.998Z</time></trkpt><trkpt lat="44.2027099" lon="10.4503355"><ele>1288.857142857143</ele><time>2026-05-03T14:09:31.997Z</time></trkpt><trkpt lat="44.202779" lon="10.45043"><ele>1289.0</ele><time>2026-05-03T14:09:34.999Z</time></trkpt><trkpt lat="44.2028314" lon="10.450541"><ele>1288.6666666666667</ele><time>2026-05-03T14:09:38Z</time></trkpt><trkpt lat="44.2028363" lon="10.4506357"><ele>1288.3333333333335</ele><time>2026-05-03T14:09:40Z</time></trkpt><trkpt lat="44.2028216" lon="10.4507308"><ele>1288.0</ele><time>2026-05-03T14:09:42Z</time></trkpt><trkpt lat="44.2028034" lon="10.450821"><ele>1287.6666666666667</ele><time>2026-05-03T14:09:44Z</time></trkpt><trkpt lat="44.2027878" lon="10.4509123"><ele>1287.3333333333333</ele><time>2026-05-03T14:09:46Z</time></trkpt><trkpt lat="44.2027621" lon="10.4510416"><ele>1287.0</ele><time>2026-05-03T14:09:48.999Z</time></trkpt><trkpt lat="44.2027376" lon="10.4511623"><ele>1287.0</ele><time>2026-05-03T14:09:51.999Z</time></trkpt><trkpt lat="44.2027188" lon="10.4512901"><ele>1287.0</ele><time>2026-05-03T14:09:55Z</time></trkpt><trkpt lat="44.2026971" lon="10.4514083"><ele>1287.0</ele><time>2026-05-03T14:09:57.999Z</time></trkpt><trkpt lat="44.2026933" lon="10.4515019"><ele>1287.0</ele><time>2026-05-03T14:10:00Z</time></trkpt><trkpt lat="44.2026849" lon="10.451597"><ele>1287.0</ele><time>2026-05-03T14:10:01.995Z</time></trkpt><trkpt lat="44.2026924" lon="10.451694"><ele>1287.0</ele><time>2026-05-03T14:10:04Z</time></trkpt><trkpt lat="44.2027141" lon="10.451784"><ele>1288.0</ele><time>2026-05-03T14:10:05.999Z</time></trkpt><trkpt lat="44.2027494" lon="10.4518658"><ele>1289.0</ele><time>2026-05-03T14:10:08Z</time></trkpt><trkpt lat="44.2027964" lon="10.4519335"><ele>1290.0</ele><time>2026-05-03T14:10:09.999Z</time></trkpt><trkpt lat="44.2028558" lon="10.4519795"><ele>1291.0</ele><time>2026-05-03T14:10:11.999Z</time></trkpt><trkpt lat="44.2029162" lon="10.4520199"><ele>1292.0</ele><time>2026-05-03T14:10:13.999Z</time></trkpt><trkpt lat="44.202996" lon="10.4520368"><ele>1293.0</ele><time>2026-05-03T14:10:17Z</time></trkpt><trkpt lat="44.2030667" lon="10.4520299"><ele>1294.0</ele><time>2026-05-03T14:10:19Z</time></trkpt><trkpt lat="44.203135" lon="10.4520134"><ele>1298.4285714285713</ele><time>2026-05-03T14:10:20.999Z</time></trkpt><trkpt lat="44.2032067" lon="10.4519995"><ele>1302.857142857143</ele><time>2026-05-03T14:10:23Z</time></trkpt><trkpt lat="44.2032858" lon="10.4519921"><ele>1307.2857142857142</ele><time>2026-05-03T14:10:25Z</time></trkpt><trkpt lat="44.2033519" lon="10.4519837"><ele>1311.7142857142858</ele><time>2026-05-03T14:10:26.999Z</time></trkpt><trkpt lat="44.2034183" lon="10.4519868"><ele>1316.142857142857</ele><time>2026-05-03T14:10:29Z</time></trkpt><trkpt lat="44.2035096" lon="10.4520004"><ele>1320.5714285714287</ele><time>2026-05-03T14:10:31Z</time></trkpt><trkpt lat="44.2035771" lon="10.4520155"><ele>1325.0</ele><time>2026-05-03T14:10:33Z</time></trkpt><trkpt lat="44.2036561" lon="10.4520144"><ele>1325.0</ele><time>2026-05-03T14:10:34.999Z</time></trkpt><trkpt lat="44.2037289" lon="10.4520043"><ele>1325.0</ele><time>2026-05-03T14:10:37Z</time></trkpt><trkpt lat="44.203814" lon="10.4520038"><ele>1325.0</ele><time>2026-05-03T14:10:39Z</time></trkpt><trkpt lat="44.2038892" lon="10.4520101"><ele>1325.0</ele><time>2026-05-03T14:10:41Z</time></trkpt><trkpt lat="44.2039756" lon="10.4520082"><ele>1325.0</ele><time>2026-05-03T14:10:43Z</time></trkpt><trkpt lat="44.2040625" lon="10.4519911"><ele>1325.0</ele><time>2026-05-03T14:10:44.996Z</time></trkpt><trkpt lat="44.2041459" lon="10.45194"><ele>1323.8333333333335</ele><time>2026-05-03T14:10:46.996Z</time></trkpt><trkpt lat="44.2042024" lon="10.451849"><ele>1322.6666666666667</ele><time>2026-05-03T14:10:49Z</time></trkpt><trkpt lat="44.2042401" lon="10.4517437"><ele>1321.5</ele><time>2026-05-03T14:10:51Z</time></trkpt><trkpt lat="44.2042734" lon="10.4516542"><ele>1320.3333333333333</ele><time>2026-05-03T14:10:53Z</time></trkpt><trkpt lat="44.204309" lon="10.451548"><ele>1319.1666666666665</ele><time>2026-05-03T14:10:55Z</time></trkpt><trkpt lat="44.2043475" lon="10.4514408"><ele>1318.0</ele><time>2026-05-03T14:10:57Z</time></trkpt><trkpt lat="44.2043917" lon="10.4513265"><ele>1321.6000000000001</ele><time>2026-05-03T14:10:59Z</time></trkpt><trkpt lat="44.2044354" lon="10.4512088"><ele>1325.2</ele><time>2026-05-03T14:11:00.996Z</time></trkpt><trkpt lat="44.2044842" lon="10.4511027"><ele>1328.8</ele><time>2026-05-03T14:11:03Z</time></trkpt><trkpt lat="44.2045481" lon="10.4509897"><ele>1332.4</ele><time>2026-05-03T14:11:04.997Z</time></trkpt><trkpt lat="44.2046102" lon="10.4508976"><ele>1336.0</ele><time>2026-05-03T14:11:06.999Z</time></trkpt><trkpt lat="44.2046554" lon="10.450801"><ele>1336.0</ele><time>2026-05-03T14:11:09Z</time></trkpt><trkpt lat="44.2047067" lon="10.4506977"><ele>1336.0</ele><time>2026-05-03T14:11:11Z</time></trkpt><trkpt lat="44.2047603" lon="10.4506006"><ele>1336.0</ele><time>2026-05-03T14:11:13Z</time></trkpt><trkpt lat="44.2048161" lon="10.4504983"><ele>1336.0</ele><time>2026-05-03T14:11:15Z</time></trkpt><trkpt lat="44.2048719" lon="10.4503953"><ele>1336.0</ele><time>2026-05-03T14:11:16.999Z</time></trkpt><trkpt lat="44.2049342" lon="10.4503084"><ele>1334.8</ele><time>2026-05-03T14:11:19Z</time></trkpt><trkpt lat="44.2050171" lon="10.4502224"><ele>1333.6</ele><time>2026-05-03T14:11:21Z</time></trkpt><trkpt lat="44.2050885" lon="10.4501407"><ele>1332.4</ele><time>2026-05-03T14:11:23Z</time></trkpt><trkpt lat="44.2051563" lon="10.4500654"><ele>1331.2</ele><time>2026-05-03T14:11:24.993Z</time></trkpt><trkpt lat="44.2052322" lon="10.4500089"><ele>1330.0</ele><time>2026-05-03T14:11:26.995Z</time></trkpt><trkpt lat="44.2053102" lon="10.449954"><ele>1330.0</ele><time>2026-05-03T14:11:29Z</time></trkpt><trkpt lat="44.2053925" lon="10.4499017"><ele>1330.0</ele><time>2026-05-03T14:11:31Z</time></trkpt><trkpt lat="44.2054698" lon="10.4498425"><ele>1330.0</ele><time>2026-05-03T14:11:33Z</time></trkpt><trkpt lat="44.2055385" lon="10.4497664"><ele>1330.0</ele><time>2026-05-03T14:11:34.997Z</time></trkpt><trkpt lat="44.2056194" lon="10.4496926"><ele>1330.0</ele><time>2026-05-03T14:11:36.999Z</time></trkpt><trkpt lat="44.2056985" lon="10.449613"><ele>1329.0</ele><time>2026-05-03T14:11:39Z</time></trkpt><trkpt lat="44.2057665" lon="10.4495317"><ele>1328.0</ele><time>2026-05-03T14:11:40.996Z</time></trkpt><trkpt lat="44.2058256" lon="10.4494476"><ele>1327.0</ele><time>2026-05-03T14:11:43Z</time></trkpt><trkpt lat="44.2058841" lon="10.4493484"><ele>1326.0</ele><time>2026-05-03T14:11:45Z</time></trkpt><trkpt lat="44.2059535" lon="10.4492395"><ele>1325.0</ele><time>2026-05-03T14:11:47Z</time></trkpt><trkpt lat="44.2060132" lon="10.4491363"><ele>1325.0</ele><time>2026-05-03T14:11:49Z</time></trkpt><trkpt lat="44.2060846" lon="10.4490307"><ele>1325.0</ele><time>2026-05-03T14:11:51Z</time></trkpt><trkpt lat="44.206151" lon="10.4489241"><ele>1325.0</ele><time>2026-05-03T14:11:52.999Z</time></trkpt><trkpt lat="44.2062192" lon="10.4488273"><ele>1325.0</ele><time>2026-05-03T14:11:55Z</time></trkpt><trkpt lat="44.2062879" lon="10.448718"><ele>1325.0</ele><time>2026-05-03T14:11:57Z</time></trkpt><trkpt lat="44.2063534" lon="10.4486038"><ele>1324.0</ele><time>2026-05-03T14:11:58.999Z</time></trkpt><trkpt lat="44.2064152" lon="10.4485012"><ele>1323.0</ele><time>2026-05-03T14:12:00.999Z</time></trkpt><trkpt lat="44.2064709" lon="10.4483972"><ele>1322.0</ele><time>2026-05-03T14:12:03Z</time></trkpt><trkpt lat="44.2065388" lon="10.4483229"><ele>1321.0</ele><time>2026-05-03T14:12:05Z</time></trkpt><trkpt lat="44.2066002" lon="10.4482762"><ele>1320.0</ele><time>2026-05-03T14:12:07Z</time></trkpt><trkpt lat="44.2066883" lon="10.4482352"><ele>1319.0</ele><time>2026-05-03T14:12:09Z</time></trkpt><trkpt lat="44.2067856" lon="10.4482181"><ele>1319.0</ele><time>2026-05-03T14:12:11Z</time></trkpt><trkpt lat="44.2068841" lon="10.4482479"><ele>1319.0</ele><time>2026-05-03T14:12:13Z</time></trkpt><trkpt lat="44.2069719" lon="10.448306"><ele>1319.0</ele><time>2026-05-03T14:12:14.997Z</time></trkpt><trkpt lat="44.2070534" lon="10.4483863"><ele>1319.0</ele><time>2026-05-03T14:12:16.999Z</time></trkpt><trkpt lat="44.2071305" lon="10.4484692"><ele>1319.0</ele><time>2026-05-03T14:12:18.999Z</time></trkpt><trkpt lat="44.2072098" lon="10.4485512"><ele>1319.0</ele><time>2026-05-03T14:12:21Z</time></trkpt><trkpt lat="44.2072987" lon="10.4486192"><ele>1319.0</ele><time>2026-05-03T14:12:23Z</time></trkpt><trkpt lat="44.2073825" lon="10.4486842"><ele>1319.0</ele><time>2026-05-03T14:12:25Z</time></trkpt><trkpt lat="44.2074657" lon="10.4487026"><ele>1319.0</ele><time>2026-05-03T14:12:27Z</time></trkpt><trkpt lat="44.2075456" lon="10.4486994"><ele>1319.0</ele><time>2026-05-03T14:12:29Z</time></trkpt><trkpt lat="44.2076345" lon="10.4486903"><ele>1318.8000000000002</ele><time>2026-05-03T14:12:31Z</time></trkpt><trkpt lat="44.2077201" lon="10.4486627"><ele>1318.6000000000001</ele><time>2026-05-03T14:12:33Z</time></trkpt><trkpt lat="44.207805" lon="10.4486002"><ele>1318.4</ele><time>2026-05-03T14:12:35Z</time></trkpt><trkpt lat="44.207881" lon="10.4485181"><ele>1318.2</ele><time>2026-05-03T14:12:37Z</time></trkpt><trkpt lat="44.2079537" lon="10.4484303"><ele>1318.0</ele><time>2026-05-03T14:12:39Z</time></trkpt><trkpt lat="44.2080269" lon="10.4483424"><ele>1318.0</ele><time>2026-05-03T14:12:40.999Z</time></trkpt><trkpt lat="44.208093" lon="10.4482491"><ele>1318.0</ele><time>2026-05-03T14:12:43Z</time></trkpt><trkpt lat="44.2081612" lon="10.4481466"><ele>1318.0</ele><time>2026-05-03T14:12:45Z</time></trkpt><trkpt lat="44.208234" lon="10.4480447"><ele>1318.0</ele><time>2026-05-03T14:12:46.999Z</time></trkpt><trkpt lat="44.2083079" lon="10.4479449"><ele>1318.0</ele><time>2026-05-03T14:12:49Z</time></trkpt><trkpt lat="44.2083824" lon="10.4478531"><ele>1318.6000000000001</ele><time>2026-05-03T14:12:51Z</time></trkpt><trkpt lat="44.208454" lon="10.4477565"><ele>1319.2</ele><time>2026-05-03T14:12:52.999Z</time></trkpt><trkpt lat="44.2085112" lon="10.4476581"><ele>1319.8</ele><time>2026-05-03T14:12:55Z</time></trkpt><trkpt lat="44.2085783" lon="10.4475734"><ele>1320.4</ele><time>2026-05-03T14:12:57Z</time></trkpt><trkpt lat="44.2086672" lon="10.4475105"><ele>1321.0</ele><time>2026-05-03T14:12:58.996Z</time></trkpt><trkpt lat="44.2087602" lon="10.4474712"><ele>1321.0</ele><time>2026-05-03T14:13:00.999Z</time></trkpt><trkpt lat="44.2088492" lon="10.4474557"><ele>1321.0</ele><time>2026-05-03T14:13:03Z</time></trkpt><trkpt lat="44.2089403" lon="10.4474478"><ele>1321.0</ele><time>2026-05-03T14:13:05Z</time></trkpt><trkpt lat="44.2090328" lon="10.4474165"><ele>1321.0</ele><time>2026-05-03T14:13:07Z</time></trkpt><trkpt lat="44.209113" lon="10.4473513"><ele>1321.0</ele><time>2026-05-03T14:13:09Z</time></trkpt><trkpt lat="44.209187" lon="10.4472735"><ele>1319.0</ele><time>2026-05-03T14:13:10.999Z</time></trkpt><trkpt lat="44.2092474" lon="10.4471718"><ele>1317.0</ele><time>2026-05-03T14:13:13Z</time></trkpt><trkpt lat="44.2092993" lon="10.4470671"><ele>1315.0</ele><time>2026-05-03T14:13:15Z</time></trkpt><trkpt lat="44.2093571" lon="10.4469613"><ele>1313.0</ele><time>2026-05-03T14:13:17Z</time></trkpt><trkpt lat="44.2094281" lon="10.4468652"><ele>1311.0</ele><time>2026-05-03T14:13:19Z</time></trkpt><trkpt lat="44.2095088" lon="10.4468019"><ele>1311.8</ele><time>2026-05-03T14:13:21Z</time></trkpt><trkpt lat="44.2095832" lon="10.4467483"><ele>1312.6</ele><time>2026-05-03T14:13:23Z</time></trkpt><trkpt lat="44.2096725" lon="10.4466931"><ele>1313.4</ele><time>2026-05-03T14:13:25Z</time></trkpt><trkpt lat="44.2097519" lon="10.4466335"><ele>1314.2</ele><time>2026-05-03T14:13:27Z</time></trkpt><trkpt lat="44.2098345" lon="10.4465791"><ele>1315.0</ele><time>2026-05-03T14:13:28.999Z</time></trkpt><trkpt lat="44.2099179" lon="10.4465219"><ele>1315.0</ele><time>2026-05-03T14:13:30.999Z</time></trkpt><trkpt lat="44.2100006" lon="10.4464631"><ele>1315.0</ele><time>2026-05-03T14:13:33Z</time></trkpt><trkpt lat="44.2100903" lon="10.4464126"><ele>1315.0</ele><time>2026-05-03T14:13:35Z</time></trkpt><trkpt lat="44.2101819" lon="10.4463586"><ele>1315.0</ele><time>2026-05-03T14:13:37Z</time></trkpt><trkpt lat="44.2102715" lon="10.4463039"><ele>1315.0</ele><time>2026-05-03T14:13:38.999Z</time></trkpt><trkpt lat="44.2103589" lon="10.4462527"><ele>1316.0</ele><time>2026-05-03T14:13:41Z</time></trkpt><trkpt lat="44.2104462" lon="10.4461969"><ele>1317.0</ele><time>2026-05-03T14:13:43Z</time></trkpt><trkpt lat="44.2105324" lon="10.4461355"><ele>1318.0</ele><time>2026-05-03T14:13:45Z</time></trkpt><trkpt lat="44.2106218" lon="10.4460738"><ele>1319.0</ele><time>2026-05-03T14:13:47Z</time></trkpt><trkpt lat="44.2107123" lon="10.4460192"><ele>1320.0</ele><time>2026-05-03T14:13:49Z</time></trkpt><trkpt lat="44.2108003" lon="10.4459606"><ele>1320.0</ele><time>2026-05-03T14:13:51Z</time></trkpt><trkpt lat="44.2108859" lon="10.4459041"><ele>1320.0</ele><time>2026-05-03T14:13:53Z</time></trkpt><trkpt lat="44.2109814" lon="10.4458559"><ele>1320.0</ele><time>2026-05-03T14:13:55Z</time></trkpt><trkpt lat="44.2110664" lon="10.4458146"><ele>1320.0</ele><time>2026-05-03T14:13:57Z</time></trkpt><trkpt lat="44.2111568" lon="10.4457732"><ele>1320.0</ele><time>2026-05-03T14:13:59Z</time></trkpt><trkpt lat="44.2112456" lon="10.4457458"><ele>1320.0</ele><time>2026-05-03T14:14:01Z</time></trkpt><trkpt lat="44.2113319" lon="10.4457153"><ele>1320.0</ele><time>2026-05-03T14:14:03Z</time></trkpt><trkpt lat="44.2114178" lon="10.4456922"><ele>1320.0</ele><time>2026-05-03T14:14:05Z</time></trkpt><trkpt lat="44.2115087" lon="10.4456751"><ele>1320.0</ele><time>2026-05-03T14:14:06.998Z</time></trkpt><trkpt lat="44.2115895" lon="10.445646"><ele>1320.0</ele><time>2026-05-03T14:14:08.993Z</time></trkpt><trkpt lat="44.2116739" lon="10.4456009"><ele>1320.0</ele><time>2026-05-03T14:14:10.996Z</time></trkpt><trkpt lat="44.2117664" lon="10.4455581"><ele>1318.4</ele><time>2026-05-03T14:14:12.995Z</time></trkpt><trkpt lat="44.211857" lon="10.4455103"><ele>1316.8</ele><time>2026-05-03T14:14:14.994Z</time></trkpt><trkpt lat="44.2119559" lon="10.4454646"><ele>1315.1999999999998</ele><time>2026-05-03T14:14:16.994Z</time></trkpt><trkpt lat="44.2120453" lon="10.4454158"><ele>1313.6</ele><time>2026-05-03T14:14:18.998Z</time></trkpt><trkpt lat="44.2121292" lon="10.4453607"><ele>1312.0</ele><time>2026-05-03T14:14:21Z</time></trkpt><trkpt lat="44.2122226" lon="10.4453196"><ele>1312.6666666666665</ele><time>2026-05-03T14:14:22.999Z</time></trkpt><trkpt lat="44.2123118" lon="10.4452805"><ele>1313.3333333333333</ele><time>2026-05-03T14:14:24.999Z</time></trkpt><trkpt lat="44.2123949" lon="10.4452289"><ele>1314.0</ele><time>2026-05-03T14:14:26.995Z</time></trkpt><trkpt lat="44.2124767" lon="10.4451795"><ele>1314.6666666666667</ele><time>2026-05-03T14:14:29Z</time></trkpt><trkpt lat="44.2125583" lon="10.4451315"><ele>1315.3333333333335</ele><time>2026-05-03T14:14:31Z</time></trkpt><trkpt lat="44.2126204" lon="10.4451144"><ele>1316.0</ele><time>2026-05-03T14:14:32.993Z</time></trkpt><trkpt lat="44.2126982" lon="10.4450368"><ele>1316.0</ele><time>2026-05-03T14:14:35Z</time></trkpt><trkpt lat="44.2127622" lon="10.4449048"><ele>1316.0</ele><time>2026-05-03T14:14:37Z</time></trkpt><trkpt lat="44.2128456" lon="10.4448313"><ele>1316.0</ele><time>2026-05-03T14:14:39Z</time></trkpt><trkpt lat="44.2129548" lon="10.4448608"><ele>1316.0</ele><time>2026-05-03T14:14:41Z</time></trkpt><trkpt lat="44.2130553" lon="10.4449573"><ele>1316.0</ele><time>2026-05-03T14:14:43Z</time></trkpt><trkpt lat="44.2131537" lon="10.4450392"><ele>1315.8333333333335</ele><time>2026-05-03T14:14:44.996Z</time></trkpt><trkpt lat="44.2132653" lon="10.4450558"><ele>1315.6666666666667</ele><time>2026-05-03T14:14:47Z</time></trkpt><trkpt lat="44.2133369" lon="10.4450719"><ele>1315.5</ele><time>2026-05-03T14:14:48Z</time></trkpt><trkpt lat="44.2134156" lon="10.4450902"><ele>1315.3333333333333</ele><time>2026-05-03T14:14:49Z</time></trkpt><trkpt lat="44.2134963" lon="10.4451078"><ele>1315.1666666666665</ele><time>2026-05-03T14:14:50Z</time></trkpt><trkpt lat="44.2135756" lon="10.4451228"><ele>1315.0</ele><time>2026-05-03T14:14:51Z</time></trkpt><trkpt lat="44.2136597" lon="10.445138"><ele>1315.0</ele><time>2026-05-03T14:14:52Z</time></trkpt><trkpt lat="44.2137404" lon="10.4451532"><ele>1315.0</ele><time>2026-05-03T14:14:53Z</time></trkpt><trkpt lat="44.213826" lon="10.4451593"><ele>1315.0</ele><time>2026-05-03T14:14:54Z</time></trkpt><trkpt lat="44.2139054" lon="10.4451855"><ele>1315.0</ele><time>2026-05-03T14:14:54.999Z</time></trkpt><trkpt lat="44.2139684" lon="10.4452263"><ele>1315.0</ele><time>2026-05-03T14:14:56Z</time></trkpt><trkpt lat="44.2140164" lon="10.445287"><ele>1315.0</ele><time>2026-05-03T14:14:57Z</time></trkpt><trkpt lat="44.2140486" lon="10.4453637"><ele>1315.0</ele><time>2026-05-03T14:14:57.998Z</time></trkpt><trkpt lat="44.2140634" lon="10.4454493"><ele>1317.0</ele><time>2026-05-03T14:14:58.999Z</time></trkpt><trkpt lat="44.2140568" lon="10.4455396"><ele>1319.0</ele><time>2026-05-03T14:14:59.999Z</time></trkpt><trkpt lat="44.2140297" lon="10.4456265"><ele>1321.0</ele><time>2026-05-03T14:15:01Z</time></trkpt><trkpt lat="44.2139975" lon="10.4457081"><ele>1323.0</ele><time>2026-05-03T14:15:02Z</time></trkpt><trkpt lat="44.2139056" lon="10.4458165"><ele>1325.0</ele><time>2026-05-03T14:15:04Z</time></trkpt><trkpt lat="44.2138179" lon="10.4459254"><ele>1327.0</ele><time>2026-05-03T14:15:06Z</time></trkpt><trkpt lat="44.2137465" lon="10.4460286"><ele>1323.3999999999999</ele><time>2026-05-03T14:15:08Z</time></trkpt><trkpt lat="44.2136763" lon="10.4461392"><ele>1319.8</ele><time>2026-05-03T14:15:09.999Z</time></trkpt><trkpt lat="44.2136166" lon="10.4462509"><ele>1316.2</ele><time>2026-05-03T14:15:12Z</time></trkpt><trkpt lat="44.2135568" lon="10.4463583"><ele>1312.6</ele><time>2026-05-03T14:15:13.999Z</time></trkpt><trkpt lat="44.2135004" lon="10.4464694"><ele>1309.0</ele><time>2026-05-03T14:15:16Z</time></trkpt><trkpt lat="44.2134496" lon="10.4465799"><ele>1309.0</ele><time>2026-05-03T14:15:18Z</time></trkpt><trkpt lat="44.2134053" lon="10.446683"><ele>1309.0</ele><time>2026-05-03T14:15:20Z</time></trkpt><trkpt lat="44.2133627" lon="10.4467847"><ele>1309.0</ele><time>2026-05-03T14:15:22Z</time></trkpt><trkpt lat="44.213329" lon="10.446889"><ele>1309.0</ele><time>2026-05-03T14:15:24Z</time></trkpt><trkpt lat="44.2132976" lon="10.447003"><ele>1309.0</ele><time>2026-05-03T14:15:26Z</time></trkpt><trkpt lat="44.2132768" lon="10.4471254"><ele>1309.0</ele><time>2026-05-03T14:15:28Z</time></trkpt><trkpt lat="44.2132606" lon="10.4472614"><ele>1310.5</ele><time>2026-05-03T14:15:30Z</time></trkpt><trkpt lat="44.2132453" lon="10.4473815"><ele>1312.0</ele><time>2026-05-03T14:15:32Z</time></trkpt><trkpt lat="44.2132314" lon="10.4474899"><ele>1313.5</ele><time>2026-05-03T14:15:34Z</time></trkpt><trkpt lat="44.213217" lon="10.4476026"><ele>1315.0</ele><time>2026-05-03T14:15:36Z</time></trkpt><trkpt lat="44.2132203" lon="10.4477123"><ele>1316.5</ele><time>2026-05-03T14:15:38Z</time></trkpt><trkpt lat="44.2132329" lon="10.4478302"><ele>1318.0</ele><time>2026-05-03T14:15:40Z</time></trkpt><trkpt lat="44.2132433" lon="10.447951"><ele>1319.2</ele><time>2026-05-03T14:15:41.999Z</time></trkpt><trkpt lat="44.2132525" lon="10.4480672"><ele>1320.4</ele><time>2026-05-03T14:15:43.999Z</time></trkpt><trkpt lat="44.2132572" lon="10.4481888"><ele>1321.6000000000001</ele><time>2026-05-03T14:15:46Z</time></trkpt><trkpt lat="44.2132706" lon="10.4483294"><ele>1322.8000000000002</ele><time>2026-05-03T14:15:48Z</time></trkpt><trkpt lat="44.2132918" lon="10.4484703"><ele>1324.0</ele><time>2026-05-03T14:15:49.999Z</time></trkpt><trkpt lat="44.2133048" lon="10.4486248"><ele>1324.0</ele><time>2026-05-03T14:15:52Z</time></trkpt><trkpt lat="44.2133139" lon="10.448771"><ele>1324.0</ele><time>2026-05-03T14:15:53.999Z</time></trkpt><trkpt lat="44.2132936" lon="10.448923"><ele>1324.0</ele><time>2026-05-03T14:15:56Z</time></trkpt><trkpt lat="44.2132842" lon="10.4490879"><ele>1324.0</ele><time>2026-05-03T14:15:58Z</time></trkpt><trkpt lat="44.2132786" lon="10.4492634"><ele>1322.75</ele><time>2026-05-03T14:15:59.999Z</time></trkpt><trkpt lat="44.2132652" lon="10.4494341"><ele>1321.5</ele><time>2026-05-03T14:16:02Z</time></trkpt><trkpt lat="44.2132556" lon="10.4495987"><ele>1320.25</ele><time>2026-05-03T14:16:04Z</time></trkpt><trkpt lat="44.2132458" lon="10.4497692"><ele>1319.0</ele><time>2026-05-03T14:16:05.999Z</time></trkpt><trkpt lat="44.2132375" lon="10.4499497"><ele>1318.7142857142856</ele><time>2026-05-03T14:16:08Z</time></trkpt><trkpt lat="44.2132347" lon="10.4500521"><ele>1318.4285714285713</ele><time>2026-05-03T14:16:09Z</time></trkpt><trkpt lat="44.2132292" lon="10.4501482"><ele>1318.142857142857</ele><time>2026-05-03T14:16:10Z</time></trkpt><trkpt lat="44.2132256" lon="10.4502487"><ele>1317.8571428571427</ele><time>2026-05-03T14:16:10.995Z</time></trkpt><trkpt lat="44.2132213" lon="10.4503525"><ele>1317.5714285714284</ele><time>2026-05-03T14:16:12Z</time></trkpt><trkpt lat="44.213223" lon="10.4504463"><ele>1317.2857142857142</ele><time>2026-05-03T14:16:13Z</time></trkpt><trkpt lat="44.2132267" lon="10.4505539"><ele>1317.0</ele><time>2026-05-03T14:16:14Z</time></trkpt><trkpt lat="44.2132275" lon="10.4506562"><ele>1315.1666666666667</ele><time>2026-05-03T14:16:15Z</time></trkpt><trkpt lat="44.2132242" lon="10.4507686"><ele>1313.3333333333333</ele><time>2026-05-03T14:16:15.999Z</time></trkpt><trkpt lat="44.2132228" lon="10.450877"><ele>1311.5</ele><time>2026-05-03T14:16:17Z</time></trkpt><trkpt lat="44.2132283" lon="10.4509861"><ele>1309.6666666666665</ele><time>2026-05-03T14:16:17.999Z</time></trkpt><trkpt lat="44.21323" lon="10.4510979"><ele>1307.8333333333333</ele><time>2026-05-03T14:16:18.999Z</time></trkpt><trkpt lat="44.2132305" lon="10.4512045"><ele>1306.0</ele><time>2026-05-03T14:16:19.999Z</time></trkpt><trkpt lat="44.2132337" lon="10.4513156"><ele>1304.8333333333333</ele><time>2026-05-03T14:16:21Z</time></trkpt><trkpt lat="44.2132354" lon="10.4514255"><ele>1303.6666666666665</ele><time>2026-05-03T14:16:21.993Z</time></trkpt><trkpt lat="44.2132443" lon="10.4515458"><ele>1302.5</ele><time>2026-05-03T14:16:23Z</time></trkpt><trkpt lat="44.2132492" lon="10.4516617"><ele>1301.3333333333333</ele><time>2026-05-03T14:16:24Z</time></trkpt><trkpt lat="44.2132509" lon="10.4517767"><ele>1300.1666666666667</ele><time>2026-05-03T14:16:25Z</time></trkpt><trkpt lat="44.2132525" lon="10.4518836"><ele>1299.0</ele><time>2026-05-03T14:16:25.994Z</time></trkpt><trkpt lat="44.213257" lon="10.4519939"><ele>1299.0</ele><time>2026-05-03T14:16:27Z</time></trkpt><trkpt lat="44.2132681" lon="10.4521103"><ele>1299.0</ele><time>2026-05-03T14:16:28Z</time></trkpt><trkpt lat="44.2132991" lon="10.4522102"><ele>1299.0</ele><time>2026-05-03T14:16:29Z</time></trkpt><trkpt lat="44.2133415" lon="10.4523066"><ele>1299.0</ele><time>2026-05-03T14:16:30Z</time></trkpt><trkpt lat="44.2133886" lon="10.4523895"><ele>1299.0</ele><time>2026-05-03T14:16:30.999Z</time></trkpt><trkpt lat="44.2134445" lon="10.452467"><ele>1299.0</ele><time>2026-05-03T14:16:32Z</time></trkpt><trkpt lat="44.2135095" lon="10.452528"><ele>1296.3333333333333</ele><time>2026-05-03T14:16:33Z</time></trkpt><trkpt lat="44.2135798" lon="10.4525806"><ele>1293.6666666666667</ele><time>2026-05-03T14:16:34Z</time></trkpt><trkpt lat="44.2136559" lon="10.452622"><ele>1291.0</ele><time>2026-05-03T14:16:34.999Z</time></trkpt><trkpt lat="44.213729" lon="10.45266"><ele>1288.3333333333335</ele><time>2026-05-03T14:16:36Z</time></trkpt><trkpt lat="44.2138072" lon="10.452707"><ele>1285.6666666666667</ele><time>2026-05-03T14:16:36.999Z</time></trkpt><trkpt lat="44.213879" lon="10.4527627"><ele>1283.0</ele><time>2026-05-03T14:16:38Z</time></trkpt><trkpt lat="44.2139513" lon="10.4528348"><ele>1286.5</ele><time>2026-05-03T14:16:39Z</time></trkpt><trkpt lat="44.2140154" lon="10.4529179"><ele>1290.0</ele><time>2026-05-03T14:16:40Z</time></trkpt><trkpt lat="44.2140731" lon="10.4530058"><ele>1293.5</ele><time>2026-05-03T14:16:40.999Z</time></trkpt><trkpt lat="44.2141281" lon="10.4530844"><ele>1297.0</ele><time>2026-05-03T14:16:42Z</time></trkpt><trkpt lat="44.2141721" lon="10.4531666"><ele>1300.5</ele><time>2026-05-03T14:16:43Z</time></trkpt><trkpt lat="44.2141957" lon="10.4532664"><ele>1304.0</ele><time>2026-05-03T14:16:43.999Z</time></trkpt><trkpt lat="44.2142049" lon="10.4533639"><ele>1304.0</ele><time>2026-05-03T14:16:45Z</time></trkpt><trkpt lat="44.2141961" lon="10.4534663"><ele>1304.0</ele><time>2026-05-03T14:16:46Z</time></trkpt><trkpt lat="44.2141821" lon="10.4535658"><ele>1304.0</ele><time>2026-05-03T14:16:47Z</time></trkpt><trkpt lat="44.2141692" lon="10.4536674"><ele>1304.0</ele><time>2026-05-03T14:16:48Z</time></trkpt><trkpt lat="44.214148" lon="10.453758"><ele>1304.0</ele><time>2026-05-03T14:16:48.999Z</time></trkpt><trkpt lat="44.2141232" lon="10.4538539"><ele>1304.0</ele><time>2026-05-03T14:16:50Z</time></trkpt><trkpt lat="44.2140892" lon="10.4539451"><ele>1304.0</ele><time>2026-05-03T14:16:51Z</time></trkpt><trkpt lat="44.2140467" lon="10.4540333"><ele>1304.3333333333335</ele><time>2026-05-03T14:16:51.999Z</time></trkpt><trkpt lat="44.2139965" lon="10.4541197"><ele>1304.6666666666667</ele><time>2026-05-03T14:16:53Z</time></trkpt><trkpt lat="44.2139414" lon="10.4542028"><ele>1305.0</ele><time>2026-05-03T14:16:54Z</time></trkpt><trkpt lat="44.2138881" lon="10.4542857"><ele>1305.3333333333333</ele><time>2026-05-03T14:16:55Z</time></trkpt><trkpt lat="44.213839" lon="10.4543681"><ele>1305.6666666666665</ele><time>2026-05-03T14:16:56Z</time></trkpt><trkpt lat="44.2137945" lon="10.4544619"><ele>1306.0</ele><time>2026-05-03T14:16:57Z</time></trkpt><trkpt lat="44.2137738" lon="10.4545659"><ele>1305.0000000000002</ele><time>2026-05-03T14:16:58Z</time></trkpt><trkpt lat="44.2137803" lon="10.4546622"><ele>1304.0</ele><time>2026-05-03T14:16:58.999Z</time></trkpt><trkpt lat="44.213817" lon="10.4547477"><ele>1303.0</ele><time>2026-05-03T14:16:59.999Z</time></trkpt><trkpt lat="44.2138706" lon="10.4548246"><ele>1302.0</ele><time>2026-05-03T14:17:01Z</time></trkpt><trkpt lat="44.2139342" lon="10.4548655"><ele>1301.0</ele><time>2026-05-03T14:17:01.999Z</time></trkpt><trkpt lat="44.2140083" lon="10.4549022"><ele>1300.0000000000002</ele><time>2026-05-03T14:17:03Z</time></trkpt><trkpt lat="44.2140794" lon="10.4549578"><ele>1299.0</ele><time>2026-05-03T14:17:04Z</time></trkpt><trkpt lat="44.2141361" lon="10.4550394"><ele>1299.0</ele><time>2026-05-03T14:17:05Z</time></trkpt><trkpt lat="44.2141873" lon="10.455129"><ele>1299.0</ele><time>2026-05-03T14:17:06Z</time></trkpt><trkpt lat="44.2142371" lon="10.4552169"><ele>1299.0</ele><time>2026-05-03T14:17:07Z</time></trkpt><trkpt lat="44.2143026" lon="10.4552877"><ele>1299.0</ele><time>2026-05-03T14:17:08Z</time></trkpt><trkpt lat="44.2143852" lon="10.4553288"><ele>1299.0</ele><time>2026-05-03T14:17:09Z</time></trkpt><trkpt lat="44.2144657" lon="10.4553329"><ele>1299.0</ele><time>2026-05-03T14:17:10Z</time></trkpt><trkpt lat="44.2145484" lon="10.4553082"><ele>1299.0</ele><time>2026-05-03T14:17:11Z</time></trkpt><trkpt lat="44.2146302" lon="10.4552839"><ele>1299.0</ele><time>2026-05-03T14:17:12Z</time></trkpt><trkpt lat="44.2147141" lon="10.4552744"><ele>1299.0</ele><time>2026-05-03T14:17:13Z</time></trkpt><trkpt lat="44.2147978" lon="10.4553027"><ele>1299.0</ele><time>2026-05-03T14:17:14Z</time></trkpt><trkpt lat="44.2148659" lon="10.4553846"><ele>1299.0</ele><time>2026-05-03T14:17:15Z</time></trkpt><trkpt lat="44.2149334" lon="10.4554433"><ele>1299.0</ele><time>2026-05-03T14:17:16Z</time></trkpt><trkpt lat="44.2149904" lon="10.4555383"><ele>1296.0</ele><time>2026-05-03T14:17:17Z</time></trkpt><trkpt lat="44.215043" lon="10.4556193"><ele>1293.0</ele><time>2026-05-03T14:17:18Z</time></trkpt><trkpt lat="44.2151113" lon="10.4556945"><ele>1290.0</ele><time>2026-05-03T14:17:19Z</time></trkpt><trkpt lat="44.2151838" lon="10.4557495"><ele>1287.0</ele><time>2026-05-03T14:17:19.999Z</time></trkpt><trkpt lat="44.2152664" lon="10.4557673"><ele>1284.0</ele><time>2026-05-03T14:17:21Z</time></trkpt><trkpt lat="44.2153368" lon="10.4557387"><ele>1281.0</ele><time>2026-05-03T14:17:22Z</time></trkpt><trkpt lat="44.2154156" lon="10.4556905"><ele>1281.0</ele><time>2026-05-03T14:17:23Z</time></trkpt><trkpt lat="44.2154899" lon="10.455634"><ele>1281.0</ele><time>2026-05-03T14:17:24Z</time></trkpt><trkpt lat="44.2155613" lon="10.4555752"><ele>1281.0</ele><time>2026-05-03T14:17:25Z</time></trkpt><trkpt lat="44.2156357" lon="10.4555208"><ele>1281.0</ele><time>2026-05-03T14:17:26Z</time></trkpt><trkpt lat="44.2157126" lon="10.4554741"><ele>1281.0</ele><time>2026-05-03T14:17:26.999Z</time></trkpt><trkpt lat="44.2157837" lon="10.4554253"><ele>1281.0</ele><time>2026-05-03T14:17:28Z</time></trkpt><trkpt lat="44.2158652" lon="10.4553858"><ele>1286.5</ele><time>2026-05-03T14:17:29Z</time></trkpt><trkpt lat="44.2159423" lon="10.4553344"><ele>1292.0</ele><time>2026-05-03T14:17:30Z</time></trkpt><trkpt lat="44.216019" lon="10.455281"><ele>1297.5</ele><time>2026-05-03T14:17:31Z</time></trkpt><trkpt lat="44.2160917" lon="10.4552271"><ele>1303.0</ele><time>2026-05-03T14:17:32Z</time></trkpt><trkpt lat="44.2161647" lon="10.4551709"><ele>1308.5</ele><time>2026-05-03T14:17:32.999Z</time></trkpt><trkpt lat="44.2162486" lon="10.4551314"><ele>1314.0</ele><time>2026-05-03T14:17:33.999Z</time></trkpt><trkpt lat="44.216318" lon="10.4550981"><ele>1314.0</ele><time>2026-05-03T14:17:35Z</time></trkpt><trkpt lat="44.2163923" lon="10.4550598"><ele>1314.0</ele><time>2026-05-03T14:17:36Z</time></trkpt><trkpt lat="44.2164655" lon="10.4550325"><ele>1314.0</ele><time>2026-05-03T14:17:37Z</time></trkpt><trkpt lat="44.2165256" lon="10.4550006"><ele>1314.0</ele><time>2026-05-03T14:17:38Z</time></trkpt><trkpt lat="44.2165939" lon="10.4549801"><ele>1314.0</ele><time>2026-05-03T14:17:39Z</time></trkpt><trkpt lat="44.2166575" lon="10.4549617"><ele>1314.0</ele><time>2026-05-03T14:17:39.999Z</time></trkpt><trkpt lat="44.2167216" lon="10.4549555"><ele>1314.0</ele><time>2026-05-03T14:17:41Z</time></trkpt><trkpt lat="44.2167907" lon="10.4549446"><ele>1310.0</ele><time>2026-05-03T14:17:42Z</time></trkpt><trkpt lat="44.2169177" lon="10.4549435"><ele>1306.0</ele><time>2026-05-03T14:17:44Z</time></trkpt><trkpt lat="44.2170154" lon="10.4549426"><ele>1302.0</ele><time>2026-05-03T14:17:46Z</time></trkpt><trkpt lat="44.2171189" lon="10.4549274"><ele>1298.0</ele><time>2026-05-03T14:17:48Z</time></trkpt><trkpt lat="44.2172029" lon="10.4548934"><ele>1294.0</ele><time>2026-05-03T14:17:50Z</time></trkpt><trkpt lat="44.2172933" lon="10.4548627"><ele>1292.0</ele><time>2026-05-03T14:17:51.992Z</time></trkpt><trkpt lat="44.2173819" lon="10.4548352"><ele>1290.0</ele><time>2026-05-03T14:17:54Z</time></trkpt><trkpt lat="44.2174709" lon="10.4548066"><ele>1288.0</ele><time>2026-05-03T14:17:55.999Z</time></trkpt><trkpt lat="44.2175659" lon="10.4547856"><ele>1286.0</ele><time>2026-05-03T14:17:57.999Z</time></trkpt><trkpt lat="44.2176603" lon="10.4547562"><ele>1284.0</ele><time>2026-05-03T14:18:00Z</time></trkpt><trkpt lat="44.2177502" lon="10.4547293"><ele>1284.0</ele><time>2026-05-03T14:18:01.999Z</time></trkpt><trkpt lat="44.2178399" lon="10.4546951"><ele>1284.0</ele><time>2026-05-03T14:18:04Z</time></trkpt><trkpt lat="44.2179228" lon="10.4546489"><ele>1284.0</ele><time>2026-05-03T14:18:06Z</time></trkpt><trkpt lat="44.2180076" lon="10.4546051"><ele>1284.0</ele><time>2026-05-03T14:18:07.999Z</time></trkpt><trkpt lat="44.2180886" lon="10.4545514"><ele>1284.0</ele><time>2026-05-03T14:18:10Z</time></trkpt><trkpt lat="44.2181613" lon="10.4544807"><ele>1287.6</ele><time>2026-05-03T14:18:12Z</time></trkpt><trkpt lat="44.2182382" lon="10.4543992"><ele>1291.2</ele><time>2026-05-03T14:18:14Z</time></trkpt><trkpt lat="44.2183122" lon="10.4543187"><ele>1294.8</ele><time>2026-05-03T14:18:16Z</time></trkpt><trkpt lat="44.2183958" lon="10.4542459"><ele>1298.3999999999999</ele><time>2026-05-03T14:18:18Z</time></trkpt><trkpt lat="44.2184778" lon="10.4541813"><ele>1302.0</ele><time>2026-05-03T14:18:19.999Z</time></trkpt><trkpt lat="44.2185552" lon="10.4541111"><ele>1302.0</ele><time>2026-05-03T14:18:21.999Z</time></trkpt><trkpt lat="44.2186345" lon="10.4540615"><ele>1302.0</ele><time>2026-05-03T14:18:24Z</time></trkpt><trkpt lat="44.2187108" lon="10.4540323"><ele>1302.0</ele><time>2026-05-03T14:18:26Z</time></trkpt><trkpt lat="44.2188027" lon="10.4540433"><ele>1302.0</ele><time>2026-05-03T14:18:27.996Z</time></trkpt><trkpt lat="44.2188763" lon="10.4541072"><ele>1302.0</ele><time>2026-05-03T14:18:30Z</time></trkpt><trkpt lat="44.2189263" lon="10.4542067"><ele>1302.0</ele><time>2026-05-03T14:18:32Z</time></trkpt><trkpt lat="44.2189515" lon="10.4543163"><ele>1302.0</ele><time>2026-05-03T14:18:34Z</time></trkpt><trkpt lat="44.218954" lon="10.454438"><ele>1302.0</ele><time>2026-05-03T14:18:35.998Z</time></trkpt><trkpt lat="44.2189512" lon="10.4545506"><ele>1302.0</ele><time>2026-05-03T14:18:38Z</time></trkpt><trkpt lat="44.2189461" lon="10.454665"><ele>1302.0</ele><time>2026-05-03T14:18:39.999Z</time></trkpt><trkpt lat="44.2189445" lon="10.4547899"><ele>1302.0</ele><time>2026-05-03T14:18:41.999Z</time></trkpt><trkpt lat="44.2189653" lon="10.4549108"><ele>1302.0</ele><time>2026-05-03T14:18:44Z</time></trkpt><trkpt lat="44.2190086" lon="10.4550226"><ele>1301.8</ele><time>2026-05-03T14:18:46Z</time></trkpt><trkpt lat="44.2190379" lon="10.4551469"><ele>1301.6</ele><time>2026-05-03T14:18:47.995Z</time></trkpt><trkpt lat="44.2190723" lon="10.4552652"><ele>1301.3999999999999</ele><time>2026-05-03T14:18:50Z</time></trkpt><trkpt lat="44.2191252" lon="10.4553787"><ele>1301.1999999999998</ele><time>2026-05-03T14:18:52Z</time></trkpt><trkpt lat="44.2191923" lon="10.4554547"><ele>1301.0</ele><time>2026-05-03T14:18:54Z</time></trkpt><trkpt lat="44.2192718" lon="10.4554972"><ele>1296.6666666666667</ele><time>2026-05-03T14:18:56Z</time></trkpt><trkpt lat="44.2193583" lon="10.4555354"><ele>1292.3333333333335</ele><time>2026-05-03T14:18:58Z</time></trkpt><trkpt lat="44.2194539" lon="10.4555609"><ele>1288.0</ele><time>2026-05-03T14:18:59.999Z</time></trkpt><trkpt lat="44.2195383" lon="10.455589"><ele>1283.6666666666667</ele><time>2026-05-03T14:19:02Z</time></trkpt><trkpt lat="44.2196198" lon="10.4556123"><ele>1279.3333333333333</ele><time>2026-05-03T14:19:04Z</time></trkpt><trkpt lat="44.2197081" lon="10.4556249"><ele>1275.0</ele><time>2026-05-03T14:19:06Z</time></trkpt><trkpt lat="44.2198036" lon="10.455631"><ele>1277.3333333333333</ele><time>2026-05-03T14:19:07.996Z</time></trkpt><trkpt lat="44.2198949" lon="10.4556564"><ele>1279.6666666666667</ele><time>2026-05-03T14:19:09.998Z</time></trkpt><trkpt lat="44.2199826" lon="10.4556686"><ele>1282.0</ele><time>2026-05-03T14:19:11.997Z</time></trkpt><trkpt lat="44.2200585" lon="10.4556703"><ele>1284.3333333333335</ele><time>2026-05-03T14:19:13.995Z</time></trkpt><trkpt lat="44.2201415" lon="10.4556737"><ele>1286.6666666666667</ele><time>2026-05-03T14:19:16Z</time></trkpt><trkpt lat="44.2202341" lon="10.455659"><ele>1289.0</ele><time>2026-05-03T14:19:17.999Z</time></trkpt><trkpt lat="44.2203229" lon="10.455657"><ele>1289.0</ele><time>2026-05-03T14:19:20Z</time></trkpt><trkpt lat="44.220414" lon="10.4556585"><ele>1289.0</ele><time>2026-05-03T14:19:22Z</time></trkpt><trkpt lat="44.2205034" lon="10.4556657"><ele>1289.0</ele><time>2026-05-03T14:19:24Z</time></trkpt><trkpt lat="44.2205907" lon="10.4556859"><ele>1289.0</ele><time>2026-05-03T14:19:25.997Z</time></trkpt><trkpt lat="44.2206735" lon="10.4557283"><ele>1289.0</ele><time>2026-05-03T14:19:28Z</time></trkpt><trkpt lat="44.2207482" lon="10.455791"><ele>1289.0</ele><time>2026-05-03T14:19:30Z</time></trkpt><trkpt lat="44.220823" lon="10.4558556"><ele>1290.1666666666667</ele><time>2026-05-03T14:19:32Z</time></trkpt><trkpt lat="44.2208913" lon="10.4559299"><ele>1291.3333333333335</ele><time>2026-05-03T14:19:34Z</time></trkpt><trkpt lat="44.2209486" lon="10.4560126"><ele>1292.5</ele><time>2026-05-03T14:19:36Z</time></trkpt><trkpt lat="44.2210021" lon="10.4560941"><ele>1293.6666666666667</ele><time>2026-05-03T14:19:38Z</time></trkpt><trkpt lat="44.2210589" lon="10.4561757"><ele>1294.8333333333333</ele><time>2026-05-03T14:19:39.999Z</time></trkpt><trkpt lat="44.2211053" lon="10.4562625"><ele>1296.0</ele><time>2026-05-03T14:19:42Z</time></trkpt><trkpt lat="44.2211188" lon="10.4563684"><ele>1296.0</ele><time>2026-05-03T14:19:44Z</time></trkpt><trkpt lat="44.2211099" lon="10.4564712"><ele>1296.0</ele><time>2026-05-03T14:19:46Z</time></trkpt><trkpt lat="44.2210946" lon="10.4565761"><ele>1296.0</ele><time>2026-05-03T14:19:48Z</time></trkpt><trkpt lat="44.2210654" lon="10.4566735"><ele>1296.0</ele><time>2026-05-03T14:19:49.997Z</time></trkpt><trkpt lat="44.2210255" lon="10.4567512"><ele>1296.0</ele><time>2026-05-03T14:19:52Z</time></trkpt><trkpt lat="44.2209489" lon="10.4568171"><ele>1296.0</ele><time>2026-05-03T14:19:55Z</time></trkpt><trkpt lat="44.2208663" lon="10.4568678"><ele>1296.0</ele><time>2026-05-03T14:19:58Z</time></trkpt><trkpt lat="44.2207834" lon="10.4569221"><ele>1296.0</ele><time>2026-05-03T14:20:01Z</time></trkpt><trkpt lat="44.220724" lon="10.4569552"><ele>1296.0</ele><time>2026-05-03T14:20:04Z</time></trkpt><trkpt lat="44.2206485" lon="10.4570083"><ele>1296.0</ele><time>2026-05-03T14:20:19Z</time></trkpt><trkpt lat="44.2205654" lon="10.457065"><ele>1296.0</ele><time>2026-05-03T14:20:22Z</time></trkpt><trkpt lat="44.2204992" lon="10.4571041"><ele>1296.0</ele><time>2026-05-03T14:20:24Z</time></trkpt><trkpt lat="44.2204341" lon="10.4571431"><ele>1297.7142857142858</ele><time>2026-05-03T14:20:25.995Z</time></trkpt><trkpt lat="44.2203683" lon="10.4571795"><ele>1299.4285714285713</ele><time>2026-05-03T14:20:28Z</time></trkpt><trkpt lat="44.2203061" lon="10.4572215"><ele>1301.142857142857</ele><time>2026-05-03T14:20:30Z</time></trkpt><trkpt lat="44.2202398" lon="10.4572624"><ele>1302.857142857143</ele><time>2026-05-03T14:20:31.999Z</time></trkpt><trkpt lat="44.220178" lon="10.4573057"><ele>1304.5714285714287</ele><time>2026-05-03T14:20:34Z</time></trkpt><trkpt lat="44.2201181" lon="10.457358"><ele>1306.2857142857142</ele><time>2026-05-03T14:20:36Z</time></trkpt><trkpt lat="44.2200603" lon="10.457415"><ele>1308.0</ele><time>2026-05-03T14:20:38Z</time></trkpt><trkpt lat="44.2200058" lon="10.4574729"><ele>1308.0</ele><time>2026-05-03T14:20:40Z</time></trkpt><trkpt lat="44.2199517" lon="10.4575369"><ele>1308.0</ele><time>2026-05-03T14:20:41.997Z</time></trkpt><trkpt lat="44.2198896" lon="10.457592"><ele>1308.0</ele><time>2026-05-03T14:20:44Z</time></trkpt><trkpt lat="44.2198217" lon="10.4576286"><ele>1308.0</ele><time>2026-05-03T14:20:46Z</time></trkpt><trkpt lat="44.2197526" lon="10.4576575"><ele>1308.0</ele><time>2026-05-03T14:20:48Z</time></trkpt><trkpt lat="44.2196806" lon="10.457676"><ele>1308.0</ele><time>2026-05-03T14:20:50Z</time></trkpt><trkpt lat="44.2196101" lon="10.4577007"><ele>1308.0</ele><time>2026-05-03T14:20:52Z</time></trkpt><trkpt lat="44.2195418" lon="10.4577257"><ele>1309.7142857142858</ele><time>2026-05-03T14:20:54Z</time></trkpt><trkpt lat="44.2194744" lon="10.4577534"><ele>1311.4285714285716</ele><time>2026-05-03T14:20:56Z</time></trkpt><trkpt lat="44.2194089" lon="10.457792"><ele>1313.1428571428573</ele><time>2026-05-03T14:20:57.999Z</time></trkpt><trkpt lat="44.2193439" lon="10.457829"><ele>1314.857142857143</ele><time>2026-05-03T14:21:00Z</time></trkpt><trkpt lat="44.2192777" lon="10.4578687"><ele>1316.5714285714287</ele><time>2026-05-03T14:21:02Z</time></trkpt><trkpt lat="44.2192142" lon="10.457906"><ele>1318.2857142857144</ele><time>2026-05-03T14:21:04Z</time></trkpt><trkpt lat="44.2191499" lon="10.457944"><ele>1320.0</ele><time>2026-05-03T14:21:06Z</time></trkpt><trkpt lat="44.2190863" lon="10.4579892"><ele>1320.0000000000002</ele><time>2026-05-03T14:21:07.999Z</time></trkpt><trkpt lat="44.2190212" lon="10.4580302"><ele>1320.0</ele><time>2026-05-03T14:21:10Z</time></trkpt><trkpt lat="44.2189564" lon="10.4580695"><ele>1320.0</ele><time>2026-05-03T14:21:12Z</time></trkpt><trkpt lat="44.2188905" lon="10.4581122"><ele>1320.0</ele><time>2026-05-03T14:21:13.999Z</time></trkpt><trkpt lat="44.218827" lon="10.4581538"><ele>1320.0</ele><time>2026-05-03T14:21:16Z</time></trkpt><trkpt lat="44.2187689" lon="10.4582045"><ele>1320.0000000000002</ele><time>2026-05-03T14:21:17.998Z</time></trkpt><trkpt lat="44.2187258" lon="10.458277"><ele>1320.0</ele><time>2026-05-03T14:21:20Z</time></trkpt><trkpt lat="44.2186994" lon="10.4583627"><ele>1318.2857142857144</ele><time>2026-05-03T14:21:21.999Z</time></trkpt><trkpt lat="44.2186999" lon="10.4584545"><ele>1316.5714285714287</ele><time>2026-05-03T14:21:24Z</time></trkpt><trkpt lat="44.2187208" lon="10.4585465"><ele>1314.857142857143</ele><time>2026-05-03T14:21:25.999Z</time></trkpt><trkpt lat="44.2187409" lon="10.4586424"><ele>1313.1428571428573</ele><time>2026-05-03T14:21:28Z</time></trkpt><trkpt lat="44.2187627" lon="10.4587369"><ele>1311.4285714285716</ele><time>2026-05-03T14:21:30Z</time></trkpt><trkpt lat="44.2187729" lon="10.4588342"><ele>1309.7142857142858</ele><time>2026-05-03T14:21:32Z</time></trkpt><trkpt lat="44.2187485" lon="10.4589643"><ele>1308.0</ele><time>2026-05-03T14:21:34.999Z</time></trkpt><trkpt lat="44.2187051" lon="10.4590427"><ele>1308.0</ele><time>2026-05-03T14:21:37Z</time></trkpt><trkpt lat="44.218658" lon="10.4591136"><ele>1308.0</ele><time>2026-05-03T14:21:38.995Z</time></trkpt><trkpt lat="44.2186088" lon="10.4591808"><ele>1308.0</ele><time>2026-05-03T14:21:41Z</time></trkpt><trkpt lat="44.2185629" lon="10.459246"><ele>1308.0</ele><time>2026-05-03T14:21:43Z</time></trkpt><trkpt lat="44.2185135" lon="10.4593114"><ele>1308.0</ele><time>2026-05-03T14:21:45Z</time></trkpt><trkpt lat="44.2184604" lon="10.4593712"><ele>1308.0</ele><time>2026-05-03T14:21:46.998Z</time></trkpt><trkpt lat="44.2184078" lon="10.4594331"><ele>1308.0</ele><time>2026-05-03T14:21:49Z</time></trkpt><trkpt lat="44.2183612" lon="10.4594951"><ele>1308.0</ele><time>2026-05-03T14:21:51Z</time></trkpt><trkpt lat="44.2183215" lon="10.4595707"><ele>1308.0</ele><time>2026-05-03T14:21:52.998Z</time></trkpt><trkpt lat="44.2182972" lon="10.4596639"><ele>1308.0</ele><time>2026-05-03T14:21:55Z</time></trkpt><trkpt lat="44.2182802" lon="10.4597722"><ele>1308.0</ele><time>2026-05-03T14:21:56.999Z</time></trkpt><trkpt lat="44.2182732" lon="10.4598794"><ele>1308.0</ele><time>2026-05-03T14:21:59Z</time></trkpt><trkpt lat="44.2182609" lon="10.459983"><ele>1308.0</ele><time>2026-05-03T14:22:01Z</time></trkpt><trkpt lat="44.2182434" lon="10.4600758"><ele>1308.0</ele><time>2026-05-03T14:22:02.996Z</time></trkpt><trkpt lat="44.218227" lon="10.4601728"><ele>1308.0</ele><time>2026-05-03T14:22:04.999Z</time></trkpt><trkpt lat="44.2182097" lon="10.460265"><ele>1308.0</ele><time>2026-05-03T14:22:07Z</time></trkpt><trkpt lat="44.2181819" lon="10.4603512"><ele>1308.0</ele><time>2026-05-03T14:22:09Z</time></trkpt><trkpt lat="44.2181337" lon="10.4604198"><ele>1308.0</ele><time>2026-05-03T14:22:11Z</time></trkpt><trkpt lat="44.2180764" lon="10.4604721"><ele>1308.0</ele><time>2026-05-03T14:22:13Z</time></trkpt><trkpt lat="44.2180139" lon="10.46052"><ele>1308.0</ele><time>2026-05-03T14:22:15Z</time></trkpt><trkpt lat="44.2179558" lon="10.4605693"><ele>1308.0</ele><time>2026-05-03T14:22:17Z</time></trkpt><trkpt lat="44.2179044" lon="10.4606314"><ele>1308.0</ele><time>2026-05-03T14:22:18.999Z</time></trkpt><trkpt lat="44.2178599" lon="10.4607006"><ele>1308.0</ele><time>2026-05-03T14:22:20.999Z</time></trkpt><trkpt lat="44.21782" lon="10.4607747"><ele>1308.0</ele><time>2026-05-03T14:22:23Z</time></trkpt><trkpt lat="44.2177853" lon="10.4608555"><ele>1308.0</ele><time>2026-05-03T14:22:25Z</time></trkpt><trkpt lat="44.2177635" lon="10.4609483"><ele>1308.0</ele><time>2026-05-03T14:22:27Z</time></trkpt><trkpt lat="44.2177562" lon="10.4610419"><ele>1308.0</ele><time>2026-05-03T14:22:28.999Z</time></trkpt><trkpt lat="44.2177635" lon="10.4611373"><ele>1308.0</ele><time>2026-05-03T14:22:30.999Z</time></trkpt><trkpt lat="44.2177785" lon="10.4612318"><ele>1307.2857142857142</ele><time>2026-05-03T14:22:33Z</time></trkpt><trkpt lat="44.2177937" lon="10.4613233"><ele>1306.5714285714287</ele><time>2026-05-03T14:22:35Z</time></trkpt><trkpt lat="44.2178024" lon="10.4614111"><ele>1305.857142857143</ele><time>2026-05-03T14:22:36.999Z</time></trkpt><trkpt lat="44.2178148" lon="10.4615031"><ele>1305.142857142857</ele><time>2026-05-03T14:22:39Z</time></trkpt><trkpt lat="44.2178338" lon="10.4615934"><ele>1304.4285714285713</ele><time>2026-05-03T14:22:41Z</time></trkpt><trkpt lat="44.2178505" lon="10.4616826"><ele>1303.7142857142858</ele><time>2026-05-03T14:22:43Z</time></trkpt><trkpt lat="44.2178694" lon="10.4617688"><ele>1303.0</ele><time>2026-05-03T14:22:44.999Z</time></trkpt><trkpt lat="44.2178901" lon="10.4618594"><ele>1303.0</ele><time>2026-05-03T14:22:46.999Z</time></trkpt><trkpt lat="44.2179081" lon="10.4619533"><ele>1303.0</ele><time>2026-05-03T14:22:48.999Z</time></trkpt><trkpt lat="44.2179202" lon="10.4620539"><ele>1303.0</ele><time>2026-05-03T14:22:51Z</time></trkpt><trkpt lat="44.2179229" lon="10.462151"><ele>1303.0</ele><time>2026-05-03T14:22:53Z</time></trkpt><trkpt lat="44.217926" lon="10.4622515"><ele>1303.0</ele><time>2026-05-03T14:22:55Z</time></trkpt><trkpt lat="44.2179214" lon="10.4623471"><ele>1303.0</ele><time>2026-05-03T14:22:57Z</time></trkpt><trkpt lat="44.2179214" lon="10.4624447"><ele>1303.0</ele><time>2026-05-03T14:22:59Z</time></trkpt><trkpt lat="44.217936" lon="10.4625504"><ele>1302.8333333333333</ele><time>2026-05-03T14:23:01Z</time></trkpt><trkpt lat="44.2179541" lon="10.4626528"><ele>1302.6666666666665</ele><time>2026-05-03T14:23:03Z</time></trkpt><trkpt lat="44.2179751" lon="10.4627441"><ele>1302.5</ele><time>2026-05-03T14:23:05Z</time></trkpt><trkpt lat="44.2180068" lon="10.4628696"><ele>1302.3333333333333</ele><time>2026-05-03T14:23:08Z</time></trkpt><trkpt lat="44.2180316" lon="10.4629656"><ele>1302.1666666666667</ele><time>2026-05-03T14:23:10Z</time></trkpt><trkpt lat="44.2180533" lon="10.4630626"><ele>1302.0</ele><time>2026-05-03T14:23:11.997Z</time></trkpt><trkpt lat="44.2180739" lon="10.4631669"><ele>1303.5</ele><time>2026-05-03T14:23:14Z</time></trkpt><trkpt lat="44.2180897" lon="10.4632682"><ele>1305.0</ele><time>2026-05-03T14:23:16Z</time></trkpt><trkpt lat="44.2181014" lon="10.4633699"><ele>1306.5</ele><time>2026-05-03T14:23:18Z</time></trkpt><trkpt lat="44.2181023" lon="10.4634763"><ele>1308.0</ele><time>2026-05-03T14:23:20Z</time></trkpt><trkpt lat="44.218107" lon="10.4635839"><ele>1309.5</ele><time>2026-05-03T14:23:22Z</time></trkpt><trkpt lat="44.2181228" lon="10.4636919"><ele>1311.0</ele><time>2026-05-03T14:23:24Z</time></trkpt><trkpt lat="44.2181536" lon="10.4638002"><ele>1316.6666666666667</ele><time>2026-05-03T14:23:26Z</time></trkpt><trkpt lat="44.218191" lon="10.463901"><ele>1322.3333333333333</ele><time>2026-05-03T14:23:28Z</time></trkpt><trkpt lat="44.2182302" lon="10.4639968"><ele>1328.0</ele><time>2026-05-03T14:23:30Z</time></trkpt><trkpt lat="44.2182734" lon="10.4640886"><ele>1333.6666666666665</ele><time>2026-05-03T14:23:31.998Z</time></trkpt><trkpt lat="44.2183165" lon="10.4641807"><ele>1339.3333333333333</ele><time>2026-05-03T14:23:33.999Z</time></trkpt><trkpt lat="44.2183523" lon="10.4642677"><ele>1345.0</ele><time>2026-05-03T14:23:36Z</time></trkpt><trkpt lat="44.2183797" lon="10.4643511"><ele>1345.0</ele><time>2026-05-03T14:23:38Z</time></trkpt><trkpt lat="44.2183665" lon="10.4644525"><ele>1345.0</ele><time>2026-05-03T14:23:40Z</time></trkpt><trkpt lat="44.2183173" lon="10.4645399"><ele>1345.0</ele><time>2026-05-03T14:23:42Z</time></trkpt><trkpt lat="44.2182409" lon="10.4645835"><ele>1345.0</ele><time>2026-05-03T14:23:43.998Z</time></trkpt><trkpt lat="44.2181585" lon="10.4646029"><ele>1345.0</ele><time>2026-05-03T14:23:45.999Z</time></trkpt><trkpt lat="44.2180783" lon="10.4645954"><ele>1345.0</ele><time>2026-05-03T14:23:47.999Z</time></trkpt><trkpt lat="44.2180011" lon="10.4645864"><ele>1343.0</ele><time>2026-05-03T14:23:50Z</time></trkpt><trkpt lat="44.2179261" lon="10.4645692"><ele>1341.0</ele><time>2026-05-03T14:23:52Z</time></trkpt><trkpt lat="44.2178595" lon="10.4645473"><ele>1339.0</ele><time>2026-05-03T14:23:54Z</time></trkpt><trkpt lat="44.2177949" lon="10.4645149"><ele>1337.0</ele><time>2026-05-03T14:23:55.998Z</time></trkpt><trkpt lat="44.2177365" lon="10.4644766"><ele>1335.0</ele><time>2026-05-03T14:23:58Z</time></trkpt><trkpt lat="44.2176669" lon="10.4644245"><ele>1333.0</ele><time>2026-05-03T14:24:00.999Z</time></trkpt><trkpt lat="44.2175866" lon="10.4643728"><ele>1331.0</ele><time>2026-05-03T14:24:04Z</time></trkpt><trkpt lat="44.2175284" lon="10.4643351"><ele>1331.0</ele><time>2026-05-03T14:24:05.999Z</time></trkpt><trkpt lat="44.2174466" lon="10.4642789"><ele>1331.0</ele><time>2026-05-03T14:24:09Z</time></trkpt><trkpt lat="44.2173735" lon="10.4642286"><ele>1331.0</ele><time>2026-05-03T14:24:12Z</time></trkpt><trkpt lat="44.2173112" lon="10.4641917"><ele>1331.0</ele><time>2026-05-03T14:24:13.999Z</time></trkpt><trkpt lat="44.2172358" lon="10.4641339"><ele>1331.0</ele><time>2026-05-03T14:24:17Z</time></trkpt><trkpt lat="44.2171652" lon="10.4640874"><ele>1331.0</ele><time>2026-05-03T14:24:20Z</time></trkpt><trkpt lat="44.2170912" lon="10.4640279"><ele>1329.5714285714287</ele><time>2026-05-03T14:24:23Z</time></trkpt><trkpt lat="44.2170333" lon="10.4639629"><ele>1328.142857142857</ele><time>2026-05-03T14:24:26Z</time></trkpt><trkpt lat="44.2169723" lon="10.4638822"><ele>1326.7142857142858</ele><time>2026-05-03T14:24:29Z</time></trkpt><trkpt lat="44.2169273" lon="10.4638201"><ele>1325.2857142857142</ele><time>2026-05-03T14:24:31Z</time></trkpt><trkpt lat="44.2168776" lon="10.4637504"><ele>1323.857142857143</ele><time>2026-05-03T14:24:32.999Z</time></trkpt><trkpt lat="44.2167993" lon="10.463688"><ele>1322.4285714285713</ele><time>2026-05-03T14:24:36Z</time></trkpt><trkpt lat="44.2167372" lon="10.4636593"><ele>1321.0</ele><time>2026-05-03T14:24:37.999Z</time></trkpt><trkpt lat="44.2166431" lon="10.4636522"><ele>1321.0</ele><time>2026-05-03T14:24:41Z</time></trkpt><trkpt lat="44.2165577" lon="10.4636821"><ele>1321.0</ele><time>2026-05-03T14:24:44Z</time></trkpt><trkpt lat="44.2164736" lon="10.4637053"><ele>1321.0</ele><time>2026-05-03T14:24:47Z</time></trkpt><trkpt lat="44.2163869" lon="10.4637396"><ele>1321.0</ele><time>2026-05-03T14:24:50Z</time></trkpt><trkpt lat="44.2163011" lon="10.4637721"><ele>1321.0</ele><time>2026-05-03T14:24:53Z</time></trkpt><trkpt lat="44.2162134" lon="10.4638014"><ele>1321.0</ele><time>2026-05-03T14:24:55.999Z</time></trkpt><trkpt lat="44.2161296" lon="10.4638325"><ele>1322.3333333333333</ele><time>2026-05-03T14:24:58.996Z</time></trkpt><trkpt lat="44.2160654" lon="10.4638437"><ele>1323.6666666666665</ele><time>2026-05-03T14:25:00.997Z</time></trkpt><trkpt lat="44.2159758" lon="10.4638299"><ele>1325.0</ele><time>2026-05-03T14:25:04Z</time></trkpt><trkpt lat="44.2159126" lon="10.4638022"><ele>1326.3333333333333</ele><time>2026-05-03T14:25:05.999Z</time></trkpt><trkpt lat="44.2158517" lon="10.4637793"><ele>1327.6666666666667</ele><time>2026-05-03T14:25:07.999Z</time></trkpt><trkpt lat="44.215769" lon="10.4637667"><ele>1329.0</ele><time>2026-05-03T14:25:10.999Z</time></trkpt><trkpt lat="44.2156798" lon="10.4637755"><ele>1331.8000000000002</ele><time>2026-05-03T14:25:14Z</time></trkpt><trkpt lat="44.2155872" lon="10.4637777"><ele>1334.6000000000001</ele><time>2026-05-03T14:25:17Z</time></trkpt><trkpt lat="44.2154965" lon="10.4637542"><ele>1337.4</ele><time>2026-05-03T14:25:20Z</time></trkpt><trkpt lat="44.2154052" lon="10.4637352"><ele>1340.2</ele><time>2026-05-03T14:25:23Z</time></trkpt><trkpt lat="44.2153214" lon="10.4637002"><ele>1343.0</ele><time>2026-05-03T14:25:25.999Z</time></trkpt><trkpt lat="44.2152429" lon="10.4636495"><ele>1343.0</ele><time>2026-05-03T14:25:28.996Z</time></trkpt><trkpt lat="44.2151624" lon="10.4636014"><ele>1343.0</ele><time>2026-05-03T14:25:32Z</time></trkpt><trkpt lat="44.2150751" lon="10.463556"><ele>1343.0</ele><time>2026-05-03T14:25:34.999Z</time></trkpt><trkpt lat="44.2149954" lon="10.4635067"><ele>1343.0</ele><time>2026-05-03T14:25:37.996Z</time></trkpt><trkpt lat="44.2149161" lon="10.4634598"><ele>1343.0</ele><time>2026-05-03T14:25:41Z</time></trkpt><trkpt lat="44.2148427" lon="10.4634276"><ele>1343.0</ele><time>2026-05-03T14:25:44Z</time></trkpt><trkpt lat="44.2147805" lon="10.4633978"><ele>1346.3333333333335</ele><time>2026-05-03T14:25:46Z</time></trkpt><trkpt lat="44.2146925" lon="10.4633481"><ele>1349.6666666666667</ele><time>2026-05-03T14:25:48.999Z</time></trkpt><trkpt lat="44.2146086" lon="10.4632882"><ele>1353.0</ele><time>2026-05-03T14:25:51.998Z</time></trkpt><trkpt lat="44.2145531" lon="10.4632383"><ele>1356.3333333333333</ele><time>2026-05-03T14:25:54Z</time></trkpt><trkpt lat="44.2144969" lon="10.4631904"><ele>1359.6666666666665</ele><time>2026-05-03T14:25:56Z</time></trkpt><trkpt lat="44.2144231" lon="10.4631181"><ele>1363.0</ele><time>2026-05-03T14:25:58.998Z</time></trkpt><trkpt lat="44.2143694" lon="10.4630713"><ele>1363.0</ele><time>2026-05-03T14:26:01Z</time></trkpt><trkpt lat="44.2142876" lon="10.4630041"><ele>1363.0</ele><time>2026-05-03T14:26:04Z</time></trkpt><trkpt lat="44.214203" lon="10.4629459"><ele>1363.0</ele><time>2026-05-03T14:26:07Z</time></trkpt><trkpt lat="44.2141155" lon="10.4629193"><ele>1363.0</ele><time>2026-05-03T14:26:09.999Z</time></trkpt><trkpt lat="44.214031" lon="10.4628972"><ele>1363.0</ele><time>2026-05-03T14:26:13Z</time></trkpt><trkpt lat="44.2139396" lon="10.4628886"><ele>1360.5</ele><time>2026-05-03T14:26:16Z</time></trkpt><trkpt lat="44.213849" lon="10.4628881"><ele>1358.0</ele><time>2026-05-03T14:26:19Z</time></trkpt><trkpt lat="44.213758" lon="10.4629088"><ele>1355.5</ele><time>2026-05-03T14:26:22Z</time></trkpt><trkpt lat="44.2136955" lon="10.4629275"><ele>1353.0</ele><time>2026-05-03T14:26:24Z</time></trkpt><trkpt lat="44.2136359" lon="10.4629622"><ele>1350.5</ele><time>2026-05-03T14:26:25.997Z</time></trkpt><trkpt lat="44.2135627" lon="10.4630331"><ele>1348.0</ele><time>2026-05-03T14:26:28.998Z</time></trkpt><trkpt lat="44.2135002" lon="10.4631179"><ele>1348.0</ele><time>2026-05-03T14:26:31.994Z</time></trkpt><trkpt lat="44.2134369" lon="10.4632091"><ele>1348.0</ele><time>2026-05-03T14:26:35Z</time></trkpt><trkpt lat="44.2133974" lon="10.4633193"><ele>1348.0</ele><time>2026-05-03T14:26:37.997Z</time></trkpt><trkpt lat="44.2133701" lon="10.4634332"><ele>1348.0</ele><time>2026-05-03T14:26:40.999Z</time></trkpt><trkpt lat="44.2133637" lon="10.4635503"><ele>1348.0</ele><time>2026-05-03T14:26:43.998Z</time></trkpt><trkpt lat="44.213371" lon="10.4636733"><ele>1348.0</ele><time>2026-05-03T14:26:47Z</time></trkpt><trkpt lat="44.213394" lon="10.463793"><ele>1348.3333333333333</ele><time>2026-05-03T14:26:50Z</time></trkpt><trkpt lat="44.2134202" lon="10.4639132"><ele>1348.6666666666665</ele><time>2026-05-03T14:26:53Z</time></trkpt><trkpt lat="44.2134519" lon="10.4639897"><ele>1349.0</ele><time>2026-05-03T14:26:55Z</time></trkpt><trkpt lat="44.2135133" lon="10.4640916"><ele>1349.3333333333333</ele><time>2026-05-03T14:26:58Z</time></trkpt><trkpt lat="44.2135651" lon="10.4641511"><ele>1349.6666666666667</ele><time>2026-05-03T14:26:59.999Z</time></trkpt><trkpt lat="44.2136126" lon="10.4642088"><ele>1350.0</ele><time>2026-05-03T14:27:02Z</time></trkpt><trkpt lat="44.213681" lon="10.4642791"><ele>1350.0</ele><time>2026-05-03T14:27:05Z</time></trkpt><trkpt lat="44.2137319" lon="10.4643313"><ele>1350.0</ele><time>2026-05-03T14:27:06.999Z</time></trkpt><trkpt lat="44.2138033" lon="10.4643996"><ele>1350.0</ele><time>2026-05-03T14:27:10Z</time></trkpt><trkpt lat="44.213862" lon="10.4644506"><ele>1350.0</ele><time>2026-05-03T14:27:12Z</time></trkpt><trkpt lat="44.2139201" lon="10.464505"><ele>1350.0</ele><time>2026-05-03T14:27:14Z</time></trkpt><trkpt lat="44.2139782" lon="10.4645571"><ele>1350.0</ele><time>2026-05-03T14:27:16Z</time></trkpt><trkpt lat="44.2140345" lon="10.4646076"><ele>1350.0</ele><time>2026-05-03T14:27:18Z</time></trkpt><trkpt lat="44.2141074" lon="10.4646857"><ele>1351.4285714285713</ele><time>2026-05-03T14:27:21Z</time></trkpt><trkpt lat="44.2141543" lon="10.464747"><ele>1352.857142857143</ele><time>2026-05-03T14:27:23Z</time></trkpt><trkpt lat="44.2141941" lon="10.4648171"><ele>1354.2857142857142</ele><time>2026-05-03T14:27:25Z</time></trkpt><trkpt lat="44.2142299" lon="10.4648901"><ele>1355.7142857142858</ele><time>2026-05-03T14:27:27Z</time></trkpt><trkpt lat="44.2142656" lon="10.4649661"><ele>1357.142857142857</ele><time>2026-05-03T14:27:29Z</time></trkpt><trkpt lat="44.2143044" lon="10.4650392"><ele>1358.5714285714287</ele><time>2026-05-03T14:27:31Z</time></trkpt><trkpt lat="44.2143571" lon="10.4651466"><ele>1360.0</ele><time>2026-05-03T14:27:33.999Z</time></trkpt><trkpt lat="44.2144141" lon="10.4652514"><ele>1360.0</ele><time>2026-05-03T14:27:37Z</time></trkpt><trkpt lat="44.2144619" lon="10.465313"><ele>1360.0</ele><time>2026-05-03T14:27:39Z</time></trkpt><trkpt lat="44.2145096" lon="10.4653724"><ele>1360.0</ele><time>2026-05-03T14:27:40.999Z</time></trkpt><trkpt lat="44.2145552" lon="10.4654377"><ele>1360.0</ele><time>2026-05-03T14:27:43Z</time></trkpt><trkpt lat="44.2146221" lon="10.4655221"><ele>1360.0</ele><time>2026-05-03T14:27:46Z</time></trkpt><trkpt lat="44.2146907" lon="10.4655992"><ele>1360.0</ele><time>2026-05-03T14:27:49Z</time></trkpt><trkpt lat="44.2147468" lon="10.4656728"><ele>1357.3333333333333</ele><time>2026-05-03T14:27:52Z</time></trkpt><trkpt lat="44.2148062" lon="10.4657672"><ele>1354.6666666666665</ele><time>2026-05-03T14:27:54.999Z</time></trkpt><trkpt lat="44.214852" lon="10.4658824"><ele>1352.0</ele><time>2026-05-03T14:27:58Z</time></trkpt><trkpt lat="44.2148798" lon="10.4659707"><ele>1349.3333333333333</ele><time>2026-05-03T14:28:00Z</time></trkpt><trkpt lat="44.214903" lon="10.4660593"><ele>1346.6666666666667</ele><time>2026-05-03T14:28:02Z</time></trkpt><trkpt lat="44.2149214" lon="10.4661441"><ele>1344.0</ele><time>2026-05-03T14:28:03.999Z</time></trkpt><trkpt lat="44.2149575" lon="10.4662523"><ele>1349.5</ele><time>2026-05-03T14:28:07Z</time></trkpt><trkpt lat="44.2149834" lon="10.4663639"><ele>1355.0</ele><time>2026-05-03T14:28:09.996Z</time></trkpt><trkpt lat="44.2149958" lon="10.4664941"><ele>1360.5</ele><time>2026-05-03T14:28:13Z</time></trkpt><trkpt lat="44.2150013" lon="10.4666138"><ele>1366.0</ele><time>2026-05-03T14:28:16Z</time></trkpt><trkpt lat="44.214973" lon="10.4667161"><ele>1371.5</ele><time>2026-05-03T14:28:18.995Z</time></trkpt><trkpt lat="44.2149034" lon="10.4667805"><ele>1377.0</ele><time>2026-05-03T14:28:21.997Z</time></trkpt><trkpt lat="44.214844" lon="10.4668247"><ele>1374.6666666666667</ele><time>2026-05-03T14:28:24Z</time></trkpt><trkpt lat="44.2147577" lon="10.4668904"><ele>1372.3333333333333</ele><time>2026-05-03T14:28:27Z</time></trkpt><trkpt lat="44.2146897" lon="10.4669385"><ele>1370.0</ele><time>2026-05-03T14:28:29Z</time></trkpt><trkpt lat="44.2146277" lon="10.4669954"><ele>1367.6666666666665</ele><time>2026-05-03T14:28:30.999Z</time></trkpt><trkpt lat="44.2145728" lon="10.4670617"><ele>1365.3333333333333</ele><time>2026-05-03T14:28:33Z</time></trkpt><trkpt lat="44.2145255" lon="10.4671254"><ele>1363.0</ele><time>2026-05-03T14:28:35Z</time></trkpt><trkpt lat="44.2144691" lon="10.4671919"><ele>1363.0</ele><time>2026-05-03T14:28:36.999Z</time></trkpt><trkpt lat="44.2144166" lon="10.4672647"><ele>1363.0</ele><time>2026-05-03T14:28:39Z</time></trkpt><trkpt lat="44.2143698" lon="10.4673426"><ele>1363.0</ele><time>2026-05-03T14:28:41Z</time></trkpt><trkpt lat="44.2143307" lon="10.4674273"><ele>1363.0</ele><time>2026-05-03T14:28:43Z</time></trkpt><trkpt lat="44.2143069" lon="10.4675223"><ele>1363.0</ele><time>2026-05-03T14:28:45Z</time></trkpt><trkpt lat="44.2142874" lon="10.4676185"><ele>1363.0</ele><time>2026-05-03T14:28:47Z</time></trkpt><trkpt lat="44.21427" lon="10.4677101"><ele>1363.0</ele><time>2026-05-03T14:28:48.998Z</time></trkpt><trkpt lat="44.2142453" lon="10.4678047"><ele>1363.0</ele><time>2026-05-03T14:28:51Z</time></trkpt><trkpt lat="44.2142167" lon="10.467898"><ele>1363.0</ele><time>2026-05-03T14:28:53Z</time></trkpt><trkpt lat="44.2141905" lon="10.4679923"><ele>1363.0</ele><time>2026-05-03T14:28:54.999Z</time></trkpt><trkpt lat="44.2141627" lon="10.4680744"><ele>1363.0</ele><time>2026-05-03T14:28:57Z</time></trkpt><trkpt lat="44.2141246" lon="10.468145"><ele>1363.0</ele><time>2026-05-03T14:28:58.999Z</time></trkpt><trkpt lat="44.2140848" lon="10.4682293"><ele>1363.0</ele><time>2026-05-03T14:29:00.995Z</time></trkpt><trkpt lat="44.2140441" lon="10.4683179"><ele>1363.0</ele><time>2026-05-03T14:29:03Z</time></trkpt><trkpt lat="44.2140032" lon="10.4684031"><ele>1362.2857142857142</ele><time>2026-05-03T14:29:04.999Z</time></trkpt><trkpt lat="44.2139647" lon="10.4684897"><ele>1361.5714285714287</ele><time>2026-05-03T14:29:07Z</time></trkpt><trkpt lat="44.2139333" lon="10.4685777"><ele>1360.857142857143</ele><time>2026-05-03T14:29:08.999Z</time></trkpt><trkpt lat="44.2139077" lon="10.4686674"><ele>1360.142857142857</ele><time>2026-05-03T14:29:11Z</time></trkpt><trkpt lat="44.2138938" lon="10.4687596"><ele>1359.4285714285716</ele><time>2026-05-03T14:29:12.999Z</time></trkpt><trkpt lat="44.2138878" lon="10.4688598"><ele>1358.7142857142858</ele><time>2026-05-03T14:29:14.998Z</time></trkpt><trkpt lat="44.2138795" lon="10.4689627"><ele>1358.0</ele><time>2026-05-03T14:29:16.999Z</time></trkpt><trkpt lat="44.2138704" lon="10.4690636"><ele>1358.0</ele><time>2026-05-03T14:29:18.999Z</time></trkpt><trkpt lat="44.2138669" lon="10.4691634"><ele>1358.0</ele><time>2026-05-03T14:29:21Z</time></trkpt><trkpt lat="44.21386" lon="10.4692635"><ele>1358.0</ele><time>2026-05-03T14:29:23Z</time></trkpt><trkpt lat="44.2138492" lon="10.4693509"><ele>1358.0</ele><time>2026-05-03T14:29:25Z</time></trkpt><trkpt lat="44.2138403" lon="10.4694432"><ele>1358.0</ele><time>2026-05-03T14:29:26.999Z</time></trkpt><trkpt lat="44.2138309" lon="10.4695515"><ele>1358.0</ele><time>2026-05-03T14:29:28.997Z</time></trkpt><trkpt lat="44.2138218" lon="10.4696551"><ele>1358.0</ele><time>2026-05-03T14:29:31Z</time></trkpt><trkpt lat="44.2138131" lon="10.4697671"><ele>1358.3333333333335</ele><time>2026-05-03T14:29:34Z</time></trkpt><trkpt lat="44.213802" lon="10.4698807"><ele>1358.6666666666667</ele><time>2026-05-03T14:29:37Z</time></trkpt><trkpt lat="44.2137987" lon="10.4700017"><ele>1359.0</ele><time>2026-05-03T14:29:40Z</time></trkpt><trkpt lat="44.2137927" lon="10.4701173"><ele>1359.3333333333333</ele><time>2026-05-03T14:29:42.999Z</time></trkpt><trkpt lat="44.2137804" lon="10.4702419"><ele>1359.6666666666665</ele><time>2026-05-03T14:29:45.998Z</time></trkpt><trkpt lat="44.2137724" lon="10.4703639"><ele>1360.0</ele><time>2026-05-03T14:29:49Z</time></trkpt><trkpt lat="44.2137576" lon="10.4704594"><ele>1360.3333333333333</ele><time>2026-05-03T14:29:51.999Z</time></trkpt><trkpt lat="44.2137564" lon="10.4705706"><ele>1360.6666666666665</ele><time>2026-05-03T14:29:55Z</time></trkpt><trkpt lat="44.2137534" lon="10.4706709"><ele>1361.0</ele><time>2026-05-03T14:29:58Z</time></trkpt><trkpt lat="44.2137584" lon="10.4707611"><ele>1361.3333333333333</ele><time>2026-05-03T14:30:11Z</time></trkpt><trkpt lat="44.2137598" lon="10.4708659"><ele>1361.6666666666667</ele><time>2026-05-03T14:30:14Z</time></trkpt><trkpt lat="44.2137717" lon="10.4709875"><ele>1362.0</ele><time>2026-05-03T14:30:16.999Z</time></trkpt><trkpt lat="44.2137702" lon="10.4711145"><ele>1362.0</ele><time>2026-05-03T14:30:20Z</time></trkpt><trkpt lat="44.2137684" lon="10.4712052"><ele>1362.0</ele><time>2026-05-03T14:30:21.999Z</time></trkpt><trkpt lat="44.213772" lon="10.4713195"><ele>1362.0</ele><time>2026-05-03T14:30:24.995Z</time></trkpt><trkpt lat="44.2137982" lon="10.4712383"><ele>1362.0</ele><time>2026-05-03T14:30:32.998Z</time></trkpt><trkpt lat="44.2137931" lon="10.4711094"><ele>1362.0</ele><time>2026-05-03T14:30:36Z</time></trkpt><trkpt lat="44.2137909" lon="10.4710074"><ele>1362.0</ele><time>2026-05-03T14:30:38Z</time></trkpt><trkpt lat="44.2137819" lon="10.4708762"><ele>1362.0</ele><time>2026-05-03T14:30:40Z</time></trkpt><trkpt lat="44.2137797" lon="10.4707404"><ele>1362.0</ele><time>2026-05-03T14:30:42Z</time></trkpt><trkpt lat="44.2137722" lon="10.4705887"><ele>1362.0</ele><time>2026-05-03T14:30:44Z</time></trkpt><trkpt lat="44.2137817" lon="10.4704305"><ele>1362.0</ele><time>2026-05-03T14:30:45.999Z</time></trkpt><trkpt lat="44.2138001" lon="10.4702582"><ele>1362.0</ele><time>2026-05-03T14:30:48Z</time></trkpt><trkpt lat="44.2138139" lon="10.4701672"><ele>1361.7142857142858</ele><time>2026-05-03T14:30:48.999Z</time></trkpt><trkpt lat="44.2138229" lon="10.4700681"><ele>1361.4285714285716</ele><time>2026-05-03T14:30:50Z</time></trkpt><trkpt lat="44.213831" lon="10.4699688"><ele>1361.1428571428573</ele><time>2026-05-03T14:30:51Z</time></trkpt><trkpt lat="44.2138414" lon="10.4698709"><ele>1360.857142857143</ele><time>2026-05-03T14:30:52Z</time></trkpt><trkpt lat="44.213848" lon="10.4697667"><ele>1360.5714285714284</ele><time>2026-05-03T14:30:53Z</time></trkpt><trkpt lat="44.2138609" lon="10.4696599"><ele>1360.2857142857144</ele><time>2026-05-03T14:30:54Z</time></trkpt><trkpt lat="44.2138711" lon="10.4695546"><ele>1360.0</ele><time>2026-05-03T14:30:54.999Z</time></trkpt><trkpt lat="44.2138783" lon="10.4694426"><ele>1359.6666666666665</ele><time>2026-05-03T14:30:56Z</time></trkpt><trkpt lat="44.213886" lon="10.469329"><ele>1359.3333333333333</ele><time>2026-05-03T14:30:57Z</time></trkpt><trkpt lat="44.2138965" lon="10.4692185"><ele>1359.0</ele><time>2026-05-03T14:30:58Z</time></trkpt><trkpt lat="44.2139056" lon="10.4691019"><ele>1358.6666666666667</ele><time>2026-05-03T14:30:59Z</time></trkpt><trkpt lat="44.2139176" lon="10.4689837"><ele>1358.3333333333335</ele><time>2026-05-03T14:31:00Z</time></trkpt><trkpt lat="44.2139282" lon="10.4688644"><ele>1358.0</ele><time>2026-05-03T14:31:01Z</time></trkpt><trkpt lat="44.2139402" lon="10.4687443"><ele>1355.2</ele><time>2026-05-03T14:31:02Z</time></trkpt><trkpt lat="44.213965" lon="10.4686245"><ele>1352.4</ele><time>2026-05-03T14:31:03Z</time></trkpt><trkpt lat="44.2140055" lon="10.4685153"><ele>1349.6000000000001</ele><time>2026-05-03T14:31:03.999Z</time></trkpt><trkpt lat="44.2140594" lon="10.4684079"><ele>1346.8000000000002</ele><time>2026-05-03T14:31:05Z</time></trkpt><trkpt lat="44.2141135" lon="10.4683028"><ele>1344.0</ele><time>2026-05-03T14:31:06Z</time></trkpt><trkpt lat="44.2141642" lon="10.4682"><ele>1347.8000000000002</ele><time>2026-05-03T14:31:06.999Z</time></trkpt><trkpt lat="44.2142077" lon="10.4680827"><ele>1351.6000000000001</ele><time>2026-05-03T14:31:07.999Z</time></trkpt><trkpt lat="44.2142462" lon="10.4679598"><ele>1355.4</ele><time>2026-05-03T14:31:09Z</time></trkpt><trkpt lat="44.2142741" lon="10.4678306"><ele>1359.2</ele><time>2026-05-03T14:31:10Z</time></trkpt><trkpt lat="44.2143025" lon="10.4676987"><ele>1363.0</ele><time>2026-05-03T14:31:11Z</time></trkpt><trkpt lat="44.2143294" lon="10.4675782"><ele>1363.0</ele><time>2026-05-03T14:31:12Z</time></trkpt><trkpt lat="44.2143663" lon="10.4674571"><ele>1363.0</ele><time>2026-05-03T14:31:13Z</time></trkpt><trkpt lat="44.214404" lon="10.4673607"><ele>1363.0</ele><time>2026-05-03T14:31:14Z</time></trkpt><trkpt lat="44.2144609" lon="10.467274"><ele>1363.0</ele><time>2026-05-03T14:31:15Z</time></trkpt><trkpt lat="44.214524" lon="10.4671924"><ele>1363.0</ele><time>2026-05-03T14:31:15.999Z</time></trkpt><trkpt lat="44.2145903" lon="10.4671173"><ele>1363.0</ele><time>2026-05-03T14:31:17Z</time></trkpt><trkpt lat="44.2146656" lon="10.4670543"><ele>1365.3333333333333</ele><time>2026-05-03T14:31:18Z</time></trkpt><trkpt lat="44.2147389" lon="10.4669959"><ele>1367.6666666666665</ele><time>2026-05-03T14:31:19Z</time></trkpt><trkpt lat="44.2148168" lon="10.4669448"><ele>1370.0</ele><time>2026-05-03T14:31:20Z</time></trkpt><trkpt lat="44.2148882" lon="10.4668939"><ele>1372.3333333333333</ele><time>2026-05-03T14:31:20.999Z</time></trkpt><trkpt lat="44.2149496" lon="10.4668441"><ele>1374.6666666666667</ele><time>2026-05-03T14:31:22Z</time></trkpt><trkpt lat="44.215002" lon="10.4667773"><ele>1377.0</ele><time>2026-05-03T14:31:23Z</time></trkpt><trkpt lat="44.2150346" lon="10.4666962"><ele>1377.0</ele><time>2026-05-03T14:31:24Z</time></trkpt><trkpt lat="44.2150512" lon="10.4666034"><ele>1377.0</ele><time>2026-05-03T14:31:24.999Z</time></trkpt><trkpt lat="44.2150282" lon="10.4665007"><ele>1377.0</ele><time>2026-05-03T14:31:25.999Z</time></trkpt><trkpt lat="44.215011" lon="10.4664013"><ele>1377.0</ele><time>2026-05-03T14:31:27Z</time></trkpt><trkpt lat="44.2149936" lon="10.4662922"><ele>1377.0</ele><time>2026-05-03T14:31:28Z</time></trkpt><trkpt lat="44.2149745" lon="10.4661908"><ele>1377.0</ele><time>2026-05-03T14:31:29Z</time></trkpt><trkpt lat="44.2149563" lon="10.4661012"><ele>1377.0</ele><time>2026-05-03T14:31:30Z</time></trkpt><trkpt lat="44.2149337" lon="10.465983"><ele>1377.8333333333333</ele><time>2026-05-03T14:31:31Z</time></trkpt><trkpt lat="44.2149003" lon="10.4658776"><ele>1378.6666666666667</ele><time>2026-05-03T14:31:32Z</time></trkpt><trkpt lat="44.2148564" lon="10.4657702"><ele>1379.5</ele><time>2026-05-03T14:31:33Z</time></trkpt><trkpt lat="44.2147975" lon="10.46568"><ele>1380.3333333333335</ele><time>2026-05-03T14:31:34Z</time></trkpt><trkpt lat="44.2147315" lon="10.465594"><ele>1381.1666666666667</ele><time>2026-05-03T14:31:34.999Z</time></trkpt><trkpt lat="44.2146654" lon="10.4655206"><ele>1382.0</ele><time>2026-05-03T14:31:36Z</time></trkpt><trkpt lat="44.214604" lon="10.4654504"><ele>1378.3333333333335</ele><time>2026-05-03T14:31:37Z</time></trkpt><trkpt lat="44.2145396" lon="10.4653709"><ele>1374.6666666666667</ele><time>2026-05-03T14:31:38Z</time></trkpt><trkpt lat="44.2144779" lon="10.4652844"><ele>1371.0</ele><time>2026-05-03T14:31:39Z</time></trkpt><trkpt lat="44.2144201" lon="10.4651933"><ele>1367.3333333333333</ele><time>2026-05-03T14:31:40Z</time></trkpt><trkpt lat="44.2143658" lon="10.4650951"><ele>1363.6666666666665</ele><time>2026-05-03T14:31:41Z</time></trkpt><trkpt lat="44.2143143" lon="10.4649912"><ele>1360.0</ele><time>2026-05-03T14:31:42Z</time></trkpt><trkpt lat="44.2142606" lon="10.4648882"><ele>1360.0</ele><time>2026-05-03T14:31:42.999Z</time></trkpt><trkpt lat="44.2142037" lon="10.4647818"><ele>1360.0</ele><time>2026-05-03T14:31:44Z</time></trkpt><trkpt lat="44.214142" lon="10.4646889"><ele>1360.0</ele><time>2026-05-03T14:31:45Z</time></trkpt><trkpt lat="44.2140775" lon="10.4646121"><ele>1360.0</ele><time>2026-05-03T14:31:45.999Z</time></trkpt><trkpt lat="44.2140124" lon="10.4645499"><ele>1360.0</ele><time>2026-05-03T14:31:47Z</time></trkpt><trkpt lat="44.2139474" lon="10.4644946"><ele>1360.0</ele><time>2026-05-03T14:31:47.999Z</time></trkpt><trkpt lat="44.2138838" lon="10.4644343"><ele>1358.3333333333333</ele><time>2026-05-03T14:31:49Z</time></trkpt><trkpt lat="44.2138183" lon="10.4643711"><ele>1356.6666666666665</ele><time>2026-05-03T14:31:50Z</time></trkpt><trkpt lat="44.2137581" lon="10.4643103"><ele>1355.0</ele><time>2026-05-03T14:31:51Z</time></trkpt><trkpt lat="44.213703" lon="10.4642555"><ele>1353.3333333333333</ele><time>2026-05-03T14:31:52Z</time></trkpt><trkpt lat="44.2136497" lon="10.4642068"><ele>1351.6666666666667</ele><time>2026-05-03T14:31:53Z</time></trkpt><trkpt lat="44.2135661" lon="10.4641228"><ele>1350.0</ele><time>2026-05-03T14:31:54.999Z</time></trkpt><trkpt lat="44.2135023" lon="10.4640444"><ele>1350.0</ele><time>2026-05-03T14:31:57Z</time></trkpt><trkpt lat="44.2134596" lon="10.4639733"><ele>1350.0</ele><time>2026-05-03T14:31:59Z</time></trkpt><trkpt lat="44.2134241" lon="10.4640481"><ele>1350.0</ele><time>2026-05-03T14:32:04Z</time></trkpt><trkpt lat="44.2134382" lon="10.464159"><ele>1350.0</ele><time>2026-05-03T14:32:06Z</time></trkpt><trkpt lat="44.2134762" lon="10.4642726"><ele>1350.0</ele><time>2026-05-03T14:32:08Z</time></trkpt><trkpt lat="44.2135198" lon="10.4643859"><ele>1350.0</ele><time>2026-05-03T14:32:10Z</time></trkpt><trkpt lat="44.213553" lon="10.4645142"><ele>1347.2</ele><time>2026-05-03T14:32:12Z</time></trkpt><trkpt lat="44.2135551" lon="10.4646347"><ele>1344.4</ele><time>2026-05-03T14:32:14Z</time></trkpt><trkpt lat="44.2135219" lon="10.4647404"><ele>1341.6</ele><time>2026-05-03T14:32:15.999Z</time></trkpt><trkpt lat="44.2134397" lon="10.4648847"><ele>1338.8</ele><time>2026-05-03T14:32:18Z</time></trkpt><trkpt lat="44.2133927" lon="10.4649731"><ele>1336.0</ele><time>2026-05-03T14:32:19Z</time></trkpt><trkpt lat="44.2133481" lon="10.46506"><ele>1336.0</ele><time>2026-05-03T14:32:20Z</time></trkpt><trkpt lat="44.2133035" lon="10.4651419"><ele>1336.0</ele><time>2026-05-03T14:32:21Z</time></trkpt><trkpt lat="44.2132654" lon="10.4652163"><ele>1336.0</ele><time>2026-05-03T14:32:22Z</time></trkpt><trkpt lat="44.2131944" lon="10.4653258"><ele>1336.0</ele><time>2026-05-03T14:32:24Z</time></trkpt><trkpt lat="44.2131037" lon="10.4653554"><ele>1336.0</ele><time>2026-05-03T14:32:26Z</time></trkpt><trkpt lat="44.2130129" lon="10.4653245"><ele>1336.0</ele><time>2026-05-03T14:32:28Z</time></trkpt><trkpt lat="44.2129221" lon="10.4652145"><ele>1332.3333333333333</ele><time>2026-05-03T14:32:30Z</time></trkpt><trkpt lat="44.2128578" lon="10.4650886"><ele>1328.6666666666665</ele><time>2026-05-03T14:32:32Z</time></trkpt><trkpt lat="44.2128077" lon="10.4650001"><ele>1325.0</ele><time>2026-05-03T14:32:33Z</time></trkpt><trkpt lat="44.2127708" lon="10.4649127"><ele>1321.3333333333333</ele><time>2026-05-03T14:32:34Z</time></trkpt><trkpt lat="44.2127203" lon="10.4648221"><ele>1317.6666666666667</ele><time>2026-05-03T14:32:35Z</time></trkpt><trkpt lat="44.212671" lon="10.4647555"><ele>1314.0</ele><time>2026-05-03T14:32:36Z</time></trkpt><trkpt lat="44.2125527" lon="10.4646821"><ele>1314.0</ele><time>2026-05-03T14:32:38Z</time></trkpt><trkpt lat="44.2124807" lon="10.4646438"><ele>1314.0</ele><time>2026-05-03T14:32:39Z</time></trkpt><trkpt lat="44.2124197" lon="10.4646071"><ele>1314.0</ele><time>2026-05-03T14:32:40Z</time></trkpt><trkpt lat="44.2123207" lon="10.4645235"><ele>1314.0</ele><time>2026-05-03T14:32:41.999Z</time></trkpt><trkpt lat="44.2122716" lon="10.4644157"><ele>1314.0</ele><time>2026-05-03T14:32:44Z</time></trkpt><trkpt lat="44.2122979" lon="10.4642892"><ele>1314.0</ele><time>2026-05-03T14:32:46Z</time></trkpt><trkpt lat="44.2123753" lon="10.4641517"><ele>1313.4</ele><time>2026-05-03T14:32:48Z</time></trkpt><trkpt lat="44.2124688" lon="10.4640432"><ele>1312.8000000000002</ele><time>2026-05-03T14:32:50Z</time></trkpt><trkpt lat="44.2125017" lon="10.4639299"><ele>1312.1999999999998</ele><time>2026-05-03T14:32:52Z</time></trkpt><trkpt lat="44.2125142" lon="10.4637864"><ele>1311.6</ele><time>2026-05-03T14:32:53.999Z</time></trkpt><trkpt lat="44.2124852" lon="10.4636136"><ele>1311.0</ele><time>2026-05-03T14:32:56Z</time></trkpt><trkpt lat="44.2124542" lon="10.4634409"><ele>1311.0</ele><time>2026-05-03T14:32:58Z</time></trkpt><trkpt lat="44.2124447" lon="10.463349"><ele>1311.0</ele><time>2026-05-03T14:32:58.999Z</time></trkpt><trkpt lat="44.2124293" lon="10.4632428"><ele>1311.0</ele><time>2026-05-03T14:33:00Z</time></trkpt><trkpt lat="44.2124085" lon="10.4631465"><ele>1311.0</ele><time>2026-05-03T14:33:01Z</time></trkpt><trkpt lat="44.212436" lon="10.4630193"><ele>1311.0</ele><time>2026-05-03T14:33:03Z</time></trkpt><trkpt lat="44.2124731" lon="10.4629016"><ele>1311.0</ele><time>2026-05-03T14:33:06Z</time></trkpt><trkpt lat="44.2125167" lon="10.4627447"><ele>1309.6</ele><time>2026-05-03T14:33:08Z</time></trkpt><trkpt lat="44.2124959" lon="10.46265"><ele>1308.1999999999998</ele><time>2026-05-03T14:33:09Z</time></trkpt><trkpt lat="44.2124465" lon="10.4624686"><ele>1306.8000000000002</ele><time>2026-05-03T14:33:11Z</time></trkpt><trkpt lat="44.2124068" lon="10.4623614"><ele>1305.4</ele><time>2026-05-03T14:33:12Z</time></trkpt><trkpt lat="44.2123712" lon="10.4622582"><ele>1304.0</ele><time>2026-05-03T14:33:13Z</time></trkpt><trkpt lat="44.212331" lon="10.4621586"><ele>1298.6000000000001</ele><time>2026-05-03T14:33:13.999Z</time></trkpt><trkpt lat="44.2123" lon="10.4620635"><ele>1293.2</ele><time>2026-05-03T14:33:15Z</time></trkpt><trkpt lat="44.2122297" lon="10.4619028"><ele>1287.8000000000002</ele><time>2026-05-03T14:33:17Z</time></trkpt><trkpt lat="44.2121659" lon="10.4618496"><ele>1282.4</ele><time>2026-05-03T14:33:17.999Z</time></trkpt><trkpt lat="44.2121094" lon="10.4617954"><ele>1277.0</ele><time>2026-05-03T14:33:19Z</time></trkpt><trkpt lat="44.2120033" lon="10.4617368"><ele>1277.0</ele><time>2026-05-03T14:33:21Z</time></trkpt><trkpt lat="44.2119035" lon="10.4616715"><ele>1277.0</ele><time>2026-05-03T14:33:23Z</time></trkpt><trkpt lat="44.2117936" lon="10.461613"><ele>1277.0</ele><time>2026-05-03T14:33:25Z</time></trkpt><trkpt lat="44.211727" lon="10.4616036"><ele>1277.0</ele><time>2026-05-03T14:33:25.999Z</time></trkpt><trkpt lat="44.2116565" lon="10.4615909"><ele>1277.0</ele><time>2026-05-03T14:33:27Z</time></trkpt><trkpt lat="44.2115933" lon="10.4615713"><ele>1277.0</ele><time>2026-05-03T14:33:28Z</time></trkpt><trkpt lat="44.2115299" lon="10.4615657"><ele>1271.4</ele><time>2026-05-03T14:33:29Z</time></trkpt><trkpt lat="44.2114175" lon="10.4615539"><ele>1265.8000000000002</ele><time>2026-05-03T14:33:30.997Z</time></trkpt><trkpt lat="44.2113391" lon="10.4615753"><ele>1260.2</ele><time>2026-05-03T14:33:32.999Z</time></trkpt><trkpt lat="44.2113046" lon="10.4616882"><ele>1254.6000000000001</ele><time>2026-05-03T14:33:36Z</time></trkpt><trkpt lat="44.2113365" lon="10.4618282"><ele>1249.0</ele><time>2026-05-03T14:33:37.999Z</time></trkpt><trkpt lat="44.2113731" lon="10.4619091"><ele>1249.0</ele><time>2026-05-03T14:33:38.999Z</time></trkpt><trkpt lat="44.2114034" lon="10.4619945"><ele>1249.0</ele><time>2026-05-03T14:33:40Z</time></trkpt><trkpt lat="44.2114579" lon="10.4621438"><ele>1249.0</ele><time>2026-05-03T14:33:42Z</time></trkpt><trkpt lat="44.2115017" lon="10.4622306"><ele>1249.0</ele><time>2026-05-03T14:33:43Z</time></trkpt><trkpt lat="44.2115528" lon="10.4622976"><ele>1249.0</ele><time>2026-05-03T14:33:43.999Z</time></trkpt><trkpt lat="44.211602" lon="10.462367"><ele>1249.0</ele><time>2026-05-03T14:33:44.996Z</time></trkpt><trkpt lat="44.2116443" lon="10.4624457"><ele>1252.1666666666665</ele><time>2026-05-03T14:33:46Z</time></trkpt><trkpt lat="44.211714" lon="10.4625764"><ele>1255.3333333333333</ele><time>2026-05-03T14:33:48Z</time></trkpt><trkpt lat="44.2117433" lon="10.4627248"><ele>1258.5</ele><time>2026-05-03T14:33:50Z</time></trkpt><trkpt lat="44.2117346" lon="10.4628122"><ele>1261.6666666666667</ele><time>2026-05-03T14:33:51.998Z</time></trkpt><trkpt lat="44.2117118" lon="10.4629279"><ele>1264.8333333333335</ele><time>2026-05-03T14:33:54Z</time></trkpt><trkpt lat="44.2116685" lon="10.4630005"><ele>1268.0</ele><time>2026-05-03T14:33:56Z</time></trkpt><trkpt lat="44.2116048" lon="10.4630424"><ele>1268.0</ele><time>2026-05-03T14:33:57.999Z</time></trkpt><trkpt lat="44.2115496" lon="10.4629746"><ele>1268.0</ele><time>2026-05-03T14:34:02Z</time></trkpt><trkpt lat="44.2115822" lon="10.4628769"><ele>1268.0</ele><time>2026-05-03T14:34:04Z</time></trkpt><trkpt lat="44.2115436" lon="10.462785"><ele>1268.0</ele><time>2026-05-03T14:34:07Z</time></trkpt><trkpt lat="44.2114437" lon="10.4627114"><ele>1268.0</ele><time>2026-05-03T14:34:09Z</time></trkpt><trkpt lat="44.2113377" lon="10.4626279"><ele>1262.0</ele><time>2026-05-03T14:34:11Z</time></trkpt><trkpt lat="44.2112245" lon="10.4625667"><ele>1256.0</ele><time>2026-05-03T14:34:13Z</time></trkpt><trkpt lat="44.2111623" lon="10.4625186"><ele>1250.0</ele><time>2026-05-03T14:34:14Z</time></trkpt><trkpt lat="44.2110677" lon="10.4624537"><ele>1244.0</ele><time>2026-05-03T14:34:16Z</time></trkpt><trkpt lat="44.2109753" lon="10.4623654"><ele>1238.0</ele><time>2026-05-03T14:34:18Z</time></trkpt><trkpt lat="44.2108813" lon="10.4622728"><ele>1238.0</ele><time>2026-05-03T14:34:20Z</time></trkpt><trkpt lat="44.2108106" lon="10.4622038"><ele>1238.0</ele><time>2026-05-03T14:34:22Z</time></trkpt><trkpt lat="44.210752" lon="10.4621202"><ele>1238.0</ele><time>2026-05-03T14:34:24Z</time></trkpt><trkpt lat="44.2107129" lon="10.4620426"><ele>1238.0</ele><time>2026-05-03T14:34:26Z</time></trkpt><trkpt lat="44.2106811" lon="10.4619484"><ele>1238.0</ele><time>2026-05-03T14:34:28Z</time></trkpt><trkpt lat="44.2106435" lon="10.4618429"><ele>1238.0</ele><time>2026-05-03T14:34:30Z</time></trkpt><trkpt lat="44.2105946" lon="10.4617237"><ele>1232.6666666666667</ele><time>2026-05-03T14:34:32Z</time></trkpt><trkpt lat="44.210564" lon="10.4615901"><ele>1227.3333333333335</ele><time>2026-05-03T14:34:33.996Z</time></trkpt><trkpt lat="44.210546" lon="10.4614683"><ele>1222.0</ele><time>2026-05-03T14:34:35.999Z</time></trkpt><trkpt lat="44.2105378" lon="10.4613618"><ele>1216.6666666666667</ele><time>2026-05-03T14:34:37.999Z</time></trkpt><trkpt lat="44.2105466" lon="10.4612615"><ele>1211.3333333333333</ele><time>2026-05-03T14:34:40Z</time></trkpt><trkpt lat="44.2105465" lon="10.4611549"><ele>1206.0</ele><time>2026-05-03T14:34:41.996Z</time></trkpt><trkpt lat="44.2105436" lon="10.4610204"><ele>1206.0</ele><time>2026-05-03T14:34:44Z</time></trkpt><trkpt lat="44.2105537" lon="10.4609015"><ele>1206.0</ele><time>2026-05-03T14:34:46Z</time></trkpt><trkpt lat="44.2105782" lon="10.4607798"><ele>1206.0</ele><time>2026-05-03T14:34:47.998Z</time></trkpt><trkpt lat="44.2106188" lon="10.4606433"><ele>1206.0</ele><time>2026-05-03T14:34:50Z</time></trkpt><trkpt lat="44.2106561" lon="10.4604934"><ele>1206.0</ele><time>2026-05-03T14:34:51.996Z</time></trkpt><trkpt lat="44.2106886" lon="10.4603894"><ele>1206.0</ele><time>2026-05-03T14:34:54Z</time></trkpt><trkpt lat="44.2106528" lon="10.4602862"><ele>1206.0</ele><time>2026-05-03T14:34:57.997Z</time></trkpt><trkpt lat="44.2106023" lon="10.4603535"><ele>1206.0</ele><time>2026-05-03T14:36:33Z</time></trkpt><trkpt lat="44.2105702" lon="10.4604452"><ele>1206.0</ele><time>2026-05-03T14:36:35Z</time></trkpt><trkpt lat="44.2105314" lon="10.4605292"><ele>1206.0</ele><time>2026-05-03T14:36:37Z</time></trkpt><trkpt lat="44.2104655" lon="10.4605892"><ele>1206.0</ele><time>2026-05-03T14:36:40Z</time></trkpt><trkpt lat="44.2103966" lon="10.4606492"><ele>1206.0</ele><time>2026-05-03T14:36:42Z</time></trkpt><trkpt lat="44.2103196" lon="10.4607074"><ele>1206.0</ele><time>2026-05-03T14:36:43.995Z</time></trkpt><trkpt lat="44.2102527" lon="10.4607453"><ele>1206.0</ele><time>2026-05-03T14:36:46.003Z</time></trkpt><trkpt lat="44.2101882" lon="10.4608094"><ele>1206.0</ele><time>2026-05-03T14:36:48Z</time></trkpt><trkpt lat="44.2101346" lon="10.4608878"><ele>1206.0</ele><time>2026-05-03T14:36:51Z</time></trkpt><trkpt lat="44.2101336" lon="10.461016"><ele>1206.0</ele><time>2026-05-03T14:36:54Z</time></trkpt><trkpt lat="44.2101751" lon="10.4611259"><ele>1206.0</ele><time>2026-05-03T14:36:56Z</time></trkpt><trkpt lat="44.2102025" lon="10.4612228"><ele>1206.0</ele><time>2026-05-03T14:36:57.999Z</time></trkpt><trkpt lat="44.2101946" lon="10.4613368"><ele>1206.0</ele><time>2026-05-03T14:37:00.996Z</time></trkpt><trkpt lat="44.2101187" lon="10.4613554"><ele>1206.0</ele><time>2026-05-03T14:37:04Z</time></trkpt><trkpt lat="44.2100807" lon="10.461273"><ele>1206.0</ele><time>2026-05-03T14:37:06Z</time></trkpt><trkpt lat="44.2100271" lon="10.4612007"><ele>1206.0</ele><time>2026-05-03T14:37:07.999Z</time></trkpt><trkpt lat="44.209958" lon="10.4611541"><ele>1206.0</ele><time>2026-05-03T14:37:09.999Z</time></trkpt><trkpt lat="44.2099052" lon="10.4610819"><ele>1206.0</ele><time>2026-05-03T14:37:12Z</time></trkpt><trkpt lat="44.2099173" lon="10.4609661"><ele>1206.0</ele><time>2026-05-03T14:37:14Z</time></trkpt><trkpt lat="44.20994" lon="10.4608712"><ele>1206.0</ele><time>2026-05-03T14:37:16Z</time></trkpt><trkpt lat="44.2099697" lon="10.4607585"><ele>1206.0</ele><time>2026-05-03T14:37:18Z</time></trkpt><trkpt lat="44.2099955" lon="10.4606716"><ele>1206.0</ele><time>2026-05-03T14:37:20Z</time></trkpt><trkpt lat="44.2100298" lon="10.4605578"><ele>1206.0</ele><time>2026-05-03T14:37:22Z</time></trkpt><trkpt lat="44.2100871" lon="10.4604521"><ele>1206.0</ele><time>2026-05-03T14:37:23.999Z</time></trkpt><trkpt lat="44.2101482" lon="10.460327"><ele>1206.0</ele><time>2026-05-03T14:37:26Z</time></trkpt><trkpt lat="44.2101937" lon="10.460193"><ele>1206.0</ele><time>2026-05-03T14:37:28Z</time></trkpt><trkpt lat="44.2102135" lon="10.4601045"><ele>1206.0</ele><time>2026-05-03T14:37:29Z</time></trkpt><trkpt lat="44.2102468" lon="10.4599804"><ele>1202.5</ele><time>2026-05-03T14:37:30.999Z</time></trkpt><trkpt lat="44.2102464" lon="10.4598773"><ele>1199.0</ele><time>2026-05-03T14:37:31.999Z</time></trkpt><trkpt lat="44.2102713" lon="10.4597514"><ele>1195.5</ele><time>2026-05-03T14:37:34Z</time></trkpt><trkpt lat="44.2102886" lon="10.459609"><ele>1192.0</ele><time>2026-05-03T14:37:36Z</time></trkpt><trkpt lat="44.2103402" lon="10.4595157"><ele>1188.5</ele><time>2026-05-03T14:37:38Z</time></trkpt><trkpt lat="44.210415" lon="10.4594591"><ele>1185.0</ele><time>2026-05-03T14:37:40Z</time></trkpt><trkpt lat="44.2105125" lon="10.459445"><ele>1183.3333333333333</ele><time>2026-05-03T14:37:42.999Z</time></trkpt><trkpt lat="44.2106054" lon="10.45946"><ele>1181.6666666666667</ele><time>2026-05-03T14:37:45Z</time></trkpt><trkpt lat="44.210677" lon="10.4594602"><ele>1180.0</ele><time>2026-05-03T14:37:47Z</time></trkpt><trkpt lat="44.2107769" lon="10.4594564"><ele>1178.3333333333335</ele><time>2026-05-03T14:37:48.999Z</time></trkpt><trkpt lat="44.210845" lon="10.4594472"><ele>1176.6666666666667</ele><time>2026-05-03T14:37:51Z</time></trkpt><trkpt lat="44.2109232" lon="10.4594261"><ele>1175.0</ele><time>2026-05-03T14:37:52.999Z</time></trkpt><trkpt lat="44.2109945" lon="10.4593921"><ele>1175.0</ele><time>2026-05-03T14:37:54.998Z</time></trkpt><trkpt lat="44.2110639" lon="10.4593614"><ele>1175.0</ele><time>2026-05-03T14:37:56.995Z</time></trkpt><trkpt lat="44.2111501" lon="10.4593475"><ele>1175.0</ele><time>2026-05-03T14:37:57.995Z</time></trkpt><trkpt lat="44.2112421" lon="10.4593202"><ele>1175.0</ele><time>2026-05-03T14:38:00Z</time></trkpt><trkpt lat="44.2113483" lon="10.4593071"><ele>1175.0</ele><time>2026-05-03T14:38:02Z</time></trkpt><trkpt lat="44.2114513" lon="10.4593148"><ele>1175.0</ele><time>2026-05-03T14:38:04Z</time></trkpt><trkpt lat="44.2115354" lon="10.4593509"><ele>1175.0</ele><time>2026-05-03T14:38:06Z</time></trkpt><trkpt lat="44.2116219" lon="10.4593598"><ele>1175.0</ele><time>2026-05-03T14:38:09Z</time></trkpt><trkpt lat="44.2116703" lon="10.4592871"><ele>1175.0</ele><time>2026-05-03T14:38:12Z</time></trkpt><trkpt lat="44.2116026" lon="10.4592375"><ele>1175.0</ele><time>2026-05-03T14:38:15Z</time></trkpt><trkpt lat="44.2115392" lon="10.4591991"><ele>1175.0</ele><time>2026-05-03T14:38:17Z</time></trkpt><trkpt lat="44.2114781" lon="10.4591272"><ele>1175.0</ele><time>2026-05-03T14:38:19Z</time></trkpt><trkpt lat="44.2114007" lon="10.4590765"><ele>1175.0</ele><time>2026-05-03T14:38:20.999Z</time></trkpt><trkpt lat="44.2113112" lon="10.4590533"><ele>1175.0</ele><time>2026-05-03T14:38:22.999Z</time></trkpt><trkpt lat="44.21123" lon="10.4590227"><ele>1175.0</ele><time>2026-05-03T14:38:25Z</time></trkpt><trkpt lat="44.2111482" lon="10.4590114"><ele>1175.0</ele><time>2026-05-03T14:38:26.999Z</time></trkpt><trkpt lat="44.2110483" lon="10.459025"><ele>1175.0</ele><time>2026-05-03T14:38:29Z</time></trkpt><trkpt lat="44.2107971" lon="10.4590339"><ele>1175.0</ele><time>2026-05-03T14:38:30Z</time></trkpt><trkpt lat="44.2107101" lon="10.4589981"><ele>1175.0</ele><time>2026-05-03T14:38:32Z</time></trkpt><trkpt lat="44.2106494" lon="10.4589367"><ele>1175.0</ele><time>2026-05-03T14:38:34Z</time></trkpt><trkpt lat="44.2105992" lon="10.4588778"><ele>1175.0</ele><time>2026-05-03T14:38:36Z</time></trkpt><trkpt lat="44.2105374" lon="10.4588185"><ele>1175.0</ele><time>2026-05-03T14:38:38Z</time></trkpt><trkpt lat="44.210481" lon="10.4587774"><ele>1175.0</ele><time>2026-05-03T14:38:39.999Z</time></trkpt><trkpt lat="44.2103964" lon="10.4587385"><ele>1168.8333333333335</ele><time>2026-05-03T14:38:42.998Z</time></trkpt><trkpt lat="44.210315" lon="10.4587041"><ele>1162.6666666666667</ele><time>2026-05-03T14:38:46Z</time></trkpt><trkpt lat="44.2102364" lon="10.4586875"><ele>1156.5</ele><time>2026-05-03T14:38:50Z</time></trkpt><trkpt lat="44.2101608" lon="10.4586628"><ele>1150.3333333333333</ele><time>2026-05-03T14:38:53Z</time></trkpt><trkpt lat="44.2100923" lon="10.4585845"><ele>1144.1666666666665</ele><time>2026-05-03T14:38:55.999Z</time></trkpt><trkpt lat="44.2100367" lon="10.4584842"><ele>1138.0</ele><time>2026-05-03T14:38:58.999Z</time></trkpt><trkpt lat="44.2099657" lon="10.4584018"><ele>1138.0</ele><time>2026-05-03T14:39:01Z</time></trkpt><trkpt lat="44.2098902" lon="10.4583543"><ele>1138.0</ele><time>2026-05-03T14:39:03Z</time></trkpt><trkpt lat="44.2098138" lon="10.458319"><ele>1138.0</ele><time>2026-05-03T14:39:05Z</time></trkpt><trkpt lat="44.209733" lon="10.4582945"><ele>1138.0</ele><time>2026-05-03T14:39:07Z</time></trkpt><trkpt lat="44.2096689" lon="10.4582722"><ele>1138.0</ele><time>2026-05-03T14:39:08Z</time></trkpt><trkpt lat="44.2095885" lon="10.4582626"><ele>1138.0</ele><time>2026-05-03T14:39:11Z</time></trkpt><trkpt lat="44.2095143" lon="10.4582652"><ele>1135.3333333333333</ele><time>2026-05-03T14:39:13.996Z</time></trkpt><trkpt lat="44.2094619" lon="10.4583198"><ele>1132.6666666666665</ele><time>2026-05-03T14:39:17Z</time></trkpt><trkpt lat="44.2094336" lon="10.4584274"><ele>1130.0</ele><time>2026-05-03T14:39:21Z</time></trkpt><trkpt lat="44.2094223" lon="10.4585441"><ele>1127.3333333333333</ele><time>2026-05-03T14:39:24Z</time></trkpt><trkpt lat="44.2094243" lon="10.458635"><ele>1124.6666666666667</ele><time>2026-05-03T14:39:26Z</time></trkpt><trkpt lat="44.2093828" lon="10.4587438"><ele>1122.0</ele><time>2026-05-03T14:39:29Z</time></trkpt><trkpt lat="44.2093378" lon="10.4588235"><ele>1122.0</ele><time>2026-05-03T14:39:31Z</time></trkpt><trkpt lat="44.2092726" lon="10.4589364"><ele>1122.0</ele><time>2026-05-03T14:39:33Z</time></trkpt><trkpt lat="44.2092394" lon="10.4590387"><ele>1122.0</ele><time>2026-05-03T14:39:35Z</time></trkpt><trkpt lat="44.2092039" lon="10.4591214"><ele>1122.0</ele><time>2026-05-03T14:39:36.996Z</time></trkpt><trkpt lat="44.2091696" lon="10.4592031"><ele>1122.0</ele><time>2026-05-03T14:39:39Z</time></trkpt><trkpt lat="44.2091356" lon="10.4593081"><ele>1122.0</ele><time>2026-05-03T14:39:40.999Z</time></trkpt><trkpt lat="44.2091017" lon="10.4594181"><ele>1122.0</ele><time>2026-05-03T14:39:43Z</time></trkpt><trkpt lat="44.2090465" lon="10.459523"><ele>1122.0</ele><time>2026-05-03T14:39:44.999Z</time></trkpt><trkpt lat="44.2089683" lon="10.4596597"><ele>1122.0</ele><time>2026-05-03T14:39:46.999Z</time></trkpt><trkpt lat="44.2088841" lon="10.4597875"><ele>1122.0</ele><time>2026-05-03T14:39:49Z</time></trkpt><trkpt lat="44.2088005" lon="10.4599013"><ele>1119.3333333333333</ele><time>2026-05-03T14:39:51Z</time></trkpt><trkpt lat="44.2087253" lon="10.4600007"><ele>1116.6666666666667</ele><time>2026-05-03T14:39:53Z</time></trkpt><trkpt lat="44.2086549" lon="10.4600787"><ele>1114.0</ele><time>2026-05-03T14:39:55Z</time></trkpt><trkpt lat="44.2086011" lon="10.4601313"><ele>1111.3333333333335</ele><time>2026-05-03T14:39:57Z</time></trkpt><trkpt lat="44.2085518" lon="10.4601976"><ele>1108.6666666666667</ele><time>2026-05-03T14:40:02Z</time></trkpt><trkpt lat="44.208499" lon="10.4602457"><ele>1106.0</ele><time>2026-05-03T14:40:07Z</time></trkpt><trkpt lat="44.2084515" lon="10.460322"><ele>1106.0</ele><time>2026-05-03T14:40:12.998Z</time></trkpt><trkpt lat="44.2084076" lon="10.4603902"><ele>1106.0</ele><time>2026-05-03T14:40:18Z</time></trkpt><trkpt lat="44.2083474" lon="10.4604509"><ele>1106.0</ele><time>2026-05-03T14:40:22Z</time></trkpt><trkpt lat="44.2082946" lon="10.4605164"><ele>1106.0</ele><time>2026-05-03T14:40:26.999Z</time></trkpt><trkpt lat="44.2082355" lon="10.4605761"><ele>1106.0</ele><time>2026-05-03T14:40:32Z</time></trkpt><trkpt lat="44.2081811" lon="10.4606409"><ele>1106.0</ele><time>2026-05-03T14:40:37.999Z</time></trkpt><trkpt lat="44.2081338" lon="10.4607211"><ele>1106.0</ele><time>2026-05-03T14:40:42Z</time></trkpt><trkpt lat="44.2081558" lon="10.460826"><ele>1106.0</ele><time>2026-05-03T14:40:46Z</time></trkpt><trkpt lat="44.2082149" lon="10.4609373"><ele>1106.0</ele><time>2026-05-03T14:40:49Z</time></trkpt><trkpt lat="44.2082607" lon="10.4610067"><ele>1106.0</ele><time>2026-05-03T14:40:50.999Z</time></trkpt><trkpt lat="44.2083113" lon="10.4610769"><ele>1106.0</ele><time>2026-05-03T14:40:53.999Z</time></trkpt><trkpt lat="44.2083507" lon="10.461163"><ele>1106.0</ele><time>2026-05-03T14:40:56.999Z</time></trkpt><trkpt lat="44.2084142" lon="10.4612288"><ele>1106.0</ele><time>2026-05-03T14:41:00Z</time></trkpt><trkpt lat="44.2084837" lon="10.4612947"><ele>1106.0</ele><time>2026-05-03T14:41:02.999Z</time></trkpt><trkpt lat="44.2085486" lon="10.4613908"><ele>1106.0</ele><time>2026-05-03T14:41:05.999Z</time></trkpt><trkpt lat="44.2085808" lon="10.4614767"><ele>1106.0</ele><time>2026-05-03T14:41:07Z</time></trkpt><trkpt lat="44.2086273" lon="10.4616201"><ele>1106.0</ele><time>2026-05-03T14:41:09Z</time></trkpt><trkpt lat="44.2086604" lon="10.4617726"><ele>1106.0</ele><time>2026-05-03T14:41:11Z</time></trkpt><trkpt lat="44.2086818" lon="10.4618832"><ele>1106.0</ele><time>2026-05-03T14:41:13Z</time></trkpt><trkpt lat="44.2086657" lon="10.461986"><ele>1106.0</ele><time>2026-05-03T14:41:16Z</time></trkpt><trkpt lat="44.2086053" lon="10.4618731"><ele>1106.0</ele><time>2026-05-03T14:41:23.996Z</time></trkpt><trkpt lat="44.2085871" lon="10.4617767"><ele>1106.0</ele><time>2026-05-03T14:41:26Z</time></trkpt><trkpt lat="44.2085371" lon="10.4617215"><ele>1106.0</ele><time>2026-05-03T14:41:28.999Z</time></trkpt><trkpt lat="44.2085385" lon="10.4618233"><ele>1106.0</ele><time>2026-05-03T14:41:33Z</time></trkpt><trkpt lat="44.2085473" lon="10.46192"><ele>1106.0</ele><time>2026-05-03T14:41:35Z</time></trkpt><trkpt lat="44.2085412" lon="10.4620145"><ele>1106.0</ele><time>2026-05-03T14:41:36.999Z</time></trkpt><trkpt lat="44.2085399" lon="10.4621029"><ele>1106.0</ele><time>2026-05-03T14:41:39Z</time></trkpt><trkpt lat="44.2085346" lon="10.4622132"><ele>1106.0</ele><time>2026-05-03T14:41:42Z</time></trkpt><trkpt lat="44.2085617" lon="10.4623227"><ele>1106.0</ele><time>2026-05-03T14:41:45Z</time></trkpt><trkpt lat="44.2085851" lon="10.4624106"><ele>1106.0</ele><time>2026-05-03T14:41:47Z</time></trkpt><trkpt lat="44.2085642" lon="10.4625082"><ele>1106.0</ele><time>2026-05-03T14:41:51Z</time></trkpt><trkpt lat="44.2085511" lon="10.4626008"><ele>1105.857142857143</ele><time>2026-05-03T14:41:54Z</time></trkpt><trkpt lat="44.2085263" lon="10.4627114"><ele>1105.7142857142858</ele><time>2026-05-03T14:41:57.997Z</time></trkpt><trkpt lat="44.2085046" lon="10.4628082"><ele>1105.5714285714284</ele><time>2026-05-03T14:42:00.994Z</time></trkpt><trkpt lat="44.2084785" lon="10.4629049"><ele>1105.4285714285716</ele><time>2026-05-03T14:42:04.999Z</time></trkpt><trkpt lat="44.2084417" lon="10.4629951"><ele>1105.2857142857142</ele><time>2026-05-03T14:42:10Z</time></trkpt><trkpt lat="44.2084125" lon="10.4630845"><ele>1105.142857142857</ele><time>2026-05-03T14:42:14Z</time></trkpt><trkpt lat="44.2083776" lon="10.4631588"><ele>1105.0</ele><time>2026-05-03T14:42:18.997Z</time></trkpt><trkpt lat="44.2083073" lon="10.4631289"><ele>1105.0</ele><time>2026-05-03T14:42:25Z</time></trkpt><trkpt lat="44.2082871" lon="10.4630336"><ele>1105.0</ele><time>2026-05-03T14:42:28.999Z</time></trkpt><trkpt lat="44.2082651" lon="10.462939"><ele>1105.0</ele><time>2026-05-03T14:42:34Z</time></trkpt><trkpt lat="44.20824" lon="10.4628476"><ele>1105.0</ele><time>2026-05-03T14:42:40Z</time></trkpt><trkpt lat="44.2082014" lon="10.4627681"><ele>1105.0</ele><time>2026-05-03T14:42:45Z</time></trkpt><trkpt lat="44.2081474" lon="10.4626913"><ele>1105.0</ele><time>2026-05-03T14:42:49.996Z</time></trkpt><trkpt lat="44.2080932" lon="10.4626308"><ele>1105.0</ele><time>2026-05-03T14:42:54.999Z</time></trkpt><trkpt lat="44.2080397" lon="10.4625768"><ele>1102.5714285714284</ele><time>2026-05-03T14:42:59Z</time></trkpt><trkpt lat="44.2079928" lon="10.4625174"><ele>1100.142857142857</ele><time>2026-05-03T14:43:03Z</time></trkpt><trkpt lat="44.2079272" lon="10.4624769"><ele>1097.7142857142858</ele><time>2026-05-03T14:43:06.999Z</time></trkpt><trkpt lat="44.2078542" lon="10.4625054"><ele>1095.2857142857142</ele><time>2026-05-03T14:43:11Z</time></trkpt><trkpt lat="44.2077925" lon="10.4625666"><ele>1092.857142857143</ele><time>2026-05-03T14:43:15.998Z</time></trkpt><trkpt lat="44.2077368" lon="10.462626"><ele>1090.4285714285713</ele><time>2026-05-03T14:43:20Z</time></trkpt><trkpt lat="44.2076813" lon="10.4627001"><ele>1088.0</ele><time>2026-05-03T14:43:25Z</time></trkpt><trkpt lat="44.2076356" lon="10.4627746"><ele>1087.9999999999998</ele><time>2026-05-03T14:43:29.999Z</time></trkpt><trkpt lat="44.2075659" lon="10.4628228"><ele>1088.0</ele><time>2026-05-03T14:43:34.996Z</time></trkpt><trkpt lat="44.2075052" lon="10.4628728"><ele>1088.0</ele><time>2026-05-03T14:43:38.999Z</time></trkpt><trkpt lat="44.2074537" lon="10.46293"><ele>1088.0</ele><time>2026-05-03T14:43:43Z</time></trkpt><trkpt lat="44.2074008" lon="10.4629785"><ele>1088.0</ele><time>2026-05-03T14:43:46.999Z</time></trkpt><trkpt lat="44.2073354" lon="10.4629989"><ele>1087.9999999999998</ele><time>2026-05-03T14:43:51Z</time></trkpt><trkpt lat="44.2072578" lon="10.4630081"><ele>1088.0</ele><time>2026-05-03T14:43:55.999Z</time></trkpt><trkpt lat="44.2071837" lon="10.4630054"><ele>1093.5714285714284</ele><time>2026-05-03T14:44:00Z</time></trkpt><trkpt lat="44.2071128" lon="10.4630096"><ele>1099.142857142857</ele><time>2026-05-03T14:44:04Z</time></trkpt><trkpt lat="44.2070428" lon="10.4630147"><ele>1104.7142857142858</ele><time>2026-05-03T14:44:07.999Z</time></trkpt><trkpt lat="44.2069686" lon="10.4630277"><ele>1110.2857142857142</ele><time>2026-05-03T14:44:11.999Z</time></trkpt><trkpt lat="44.2068992" lon="10.4630373"><ele>1115.857142857143</ele><time>2026-05-03T14:44:16Z</time></trkpt><trkpt lat="44.2068323" lon="10.4630498"><ele>1121.4285714285713</ele><time>2026-05-03T14:44:19.999Z</time></trkpt><trkpt lat="44.2067673" lon="10.4630571"><ele>1127.0</ele><time>2026-05-03T14:44:23.999Z</time></trkpt><trkpt lat="44.2067011" lon="10.4630675"><ele>1127.0</ele><time>2026-05-03T14:44:28Z</time></trkpt><trkpt lat="44.206638" lon="10.4630504"><ele>1127.0</ele><time>2026-05-03T14:44:31.999Z</time></trkpt><trkpt lat="44.2065643" lon="10.4630231"><ele>1127.0</ele><time>2026-05-03T14:44:37Z</time></trkpt><trkpt lat="44.2065004" lon="10.4629911"><ele>1127.0</ele><time>2026-05-03T14:44:41Z</time></trkpt><trkpt lat="44.2064345" lon="10.4629543"><ele>1127.0</ele><time>2026-05-03T14:44:45.999Z</time></trkpt><trkpt lat="44.2063704" lon="10.4629243"><ele>1127.0</ele><time>2026-05-03T14:44:50Z</time></trkpt><trkpt lat="44.2062915" lon="10.4629191"><ele>1127.0</ele><time>2026-05-03T14:44:55Z</time></trkpt><trkpt lat="44.2062276" lon="10.4629274"><ele>1124.5714285714287</ele><time>2026-05-03T14:44:59Z</time></trkpt><trkpt lat="44.2061591" lon="10.4629526"><ele>1122.142857142857</ele><time>2026-05-03T14:45:04Z</time></trkpt><trkpt lat="44.206105" lon="10.4630057"><ele>1119.7142857142858</ele><time>2026-05-03T14:45:08.999Z</time></trkpt><trkpt lat="44.2060644" lon="10.4630758"><ele>1117.2857142857142</ele><time>2026-05-03T14:45:14Z</time></trkpt><trkpt lat="44.2060235" lon="10.4631651"><ele>1114.857142857143</ele><time>2026-05-03T14:45:19Z</time></trkpt><trkpt lat="44.20599" lon="10.4632595"><ele>1112.4285714285716</ele><time>2026-05-03T14:45:21.999Z</time></trkpt><trkpt lat="44.2059404" lon="10.4633412"><ele>1110.0</ele><time>2026-05-03T14:45:24.999Z</time></trkpt><trkpt lat="44.205885" lon="10.4634334"><ele>1110.0</ele><time>2026-05-03T14:45:27.996Z</time></trkpt><trkpt lat="44.2058399" lon="10.4635008"><ele>1110.0</ele><time>2026-05-03T14:45:30Z</time></trkpt><trkpt lat="44.2057889" lon="10.4635721"><ele>1110.0</ele><time>2026-05-03T14:45:34Z</time></trkpt><trkpt lat="44.2057189" lon="10.4636424"><ele>1110.0</ele><time>2026-05-03T14:45:38Z</time></trkpt><trkpt lat="44.2056281" lon="10.4637097"><ele>1110.0</ele><time>2026-05-03T14:45:40Z</time></trkpt><trkpt lat="44.205551" lon="10.4637716"><ele>1110.0</ele><time>2026-05-03T14:45:42Z</time></trkpt><trkpt lat="44.2054652" lon="10.4637579"><ele>1107.2</ele><time>2026-05-03T14:45:45Z</time></trkpt><trkpt lat="44.2053968" lon="10.4636939"><ele>1104.4</ele><time>2026-05-03T14:45:47.999Z</time></trkpt><trkpt lat="44.2053389" lon="10.4636155"><ele>1101.6</ele><time>2026-05-03T14:45:49.996Z</time></trkpt><trkpt lat="44.2052677" lon="10.4635145"><ele>1098.8</ele><time>2026-05-03T14:45:51.994Z</time></trkpt><trkpt lat="44.2051892" lon="10.4633831"><ele>1096.0</ele><time>2026-05-03T14:45:53.996Z</time></trkpt><trkpt lat="44.2051095" lon="10.4632357"><ele>1096.0</ele><time>2026-05-03T14:45:55.997Z</time></trkpt><trkpt lat="44.2050423" lon="10.463113"><ele>1096.0</ele><time>2026-05-03T14:45:57.995Z</time></trkpt><trkpt lat="44.2049516" lon="10.463089"><ele>1096.0</ele><time>2026-05-03T14:46:00Z</time></trkpt><trkpt lat="44.2048328" lon="10.4630937"><ele>1096.0</ele><time>2026-05-03T14:46:01.998Z</time></trkpt><trkpt lat="44.2047704" lon="10.4631208"><ele>1096.0</ele><time>2026-05-03T14:46:02.995Z</time></trkpt><trkpt lat="44.2047081" lon="10.4631669"><ele>1094.1666666666665</ele><time>2026-05-03T14:46:03.999Z</time></trkpt><trkpt lat="44.2046398" lon="10.4632238"><ele>1092.3333333333333</ele><time>2026-05-03T14:46:04.998Z</time></trkpt><trkpt lat="44.2045395" lon="10.4633069"><ele>1090.5</ele><time>2026-05-03T14:46:07Z</time></trkpt><trkpt lat="44.204452" lon="10.46333"><ele>1088.6666666666667</ele><time>2026-05-03T14:46:08.995Z</time></trkpt><trkpt lat="44.2043854" lon="10.4632841"><ele>1086.8333333333335</ele><time>2026-05-03T14:46:10.996Z</time></trkpt><trkpt lat="44.2043166" lon="10.4632085"><ele>1085.0</ele><time>2026-05-03T14:46:13Z</time></trkpt><trkpt lat="44.2042559" lon="10.463147"><ele>1085.0</ele><time>2026-05-03T14:46:15Z</time></trkpt><trkpt lat="44.2041927" lon="10.4631044"><ele>1085.0</ele><time>2026-05-03T14:46:18Z</time></trkpt><trkpt lat="44.204106" lon="10.4631314"><ele>1085.0</ele><time>2026-05-03T14:46:20.996Z</time></trkpt><trkpt lat="44.2040226" lon="10.4631517"><ele>1085.0</ele><time>2026-05-03T14:46:22.997Z</time></trkpt><trkpt lat="44.2039599" lon="10.463188"><ele>1085.0</ele><time>2026-05-03T14:46:25Z</time></trkpt><trkpt lat="44.2039002" lon="10.4632574"><ele>1085.0</ele><time>2026-05-03T14:46:28Z</time></trkpt><trkpt lat="44.2038483" lon="10.4633369"><ele>1080.6</ele><time>2026-05-03T14:46:32Z</time></trkpt><trkpt lat="44.2037754" lon="10.4633852"><ele>1076.2</ele><time>2026-05-03T14:49:49Z</time></trkpt><trkpt lat="44.2037065" lon="10.4634378"><ele>1071.8</ele><time>2026-05-03T14:49:51Z</time></trkpt><trkpt lat="44.2036299" lon="10.4635403"><ele>1067.4</ele><time>2026-05-03T14:49:53Z</time></trkpt><trkpt lat="44.2035357" lon="10.4636297"><ele>1063.0</ele><time>2026-05-03T14:49:55Z</time></trkpt><trkpt lat="44.2034401" lon="10.4637187"><ele>1061.2</ele><time>2026-05-03T14:49:57Z</time></trkpt><trkpt lat="44.2033399" lon="10.4638114"><ele>1059.4</ele><time>2026-05-03T14:49:59Z</time></trkpt><trkpt lat="44.2032542" lon="10.4638786"><ele>1057.6000000000001</ele><time>2026-05-03T14:50:01Z</time></trkpt><trkpt lat="44.2031743" lon="10.463971"><ele>1055.8</ele><time>2026-05-03T14:50:03Z</time></trkpt><trkpt lat="44.2030977" lon="10.4640542"><ele>1054.0</ele><time>2026-05-03T14:50:05Z</time></trkpt><trkpt lat="44.2030445" lon="10.4641211"><ele>1054.0</ele><time>2026-05-03T14:50:07Z</time></trkpt><trkpt lat="44.2029688" lon="10.4641019"><ele>1054.0</ele><time>2026-05-03T14:50:11Z</time></trkpt><trkpt lat="44.2029807" lon="10.4640021"><ele>1054.0</ele><time>2026-05-03T14:50:14Z</time></trkpt><trkpt lat="44.2030375" lon="10.4639236"><ele>1054.0</ele><time>2026-05-03T14:50:16Z</time></trkpt><trkpt lat="44.2031154" lon="10.4638249"><ele>1054.0</ele><time>2026-05-03T14:50:17.999Z</time></trkpt><trkpt lat="44.2031729" lon="10.4637254"><ele>1054.0</ele><time>2026-05-03T14:50:19.998Z</time></trkpt><trkpt lat="44.2032286" lon="10.463573"><ele>1055.5</ele><time>2026-05-03T14:50:22Z</time></trkpt><trkpt lat="44.2032602" lon="10.4634965"><ele>1057.0</ele><time>2026-05-03T14:50:23Z</time></trkpt><trkpt lat="44.2033101" lon="10.4633705"><ele>1058.5</ele><time>2026-05-03T14:50:24.999Z</time></trkpt><trkpt lat="44.2033548" lon="10.4632676"><ele>1060.0</ele><time>2026-05-03T14:50:26.999Z</time></trkpt><trkpt lat="44.2033057" lon="10.4631506"><ele>1061.5</ele><time>2026-05-03T14:50:30Z</time></trkpt><trkpt lat="44.2032168" lon="10.4631819"><ele>1063.0</ele><time>2026-05-03T14:50:33Z</time></trkpt><trkpt lat="44.203166" lon="10.4632934"><ele>1054.25</ele><time>2026-05-03T14:50:35Z</time></trkpt><trkpt lat="44.2030887" lon="10.4634047"><ele>1045.5</ele><time>2026-05-03T14:50:37Z</time></trkpt><trkpt lat="44.2029936" lon="10.4635185"><ele>1036.75</ele><time>2026-05-03T14:50:38.999Z</time></trkpt><trkpt lat="44.2028998" lon="10.4636351"><ele>1028.0</ele><time>2026-05-03T14:50:41Z</time></trkpt><trkpt lat="44.2028101" lon="10.4637362"><ele>1033.2</ele><time>2026-05-03T14:50:43Z</time></trkpt><trkpt lat="44.2027139" lon="10.4638298"><ele>1038.4</ele><time>2026-05-03T14:50:45Z</time></trkpt><trkpt lat="44.2026248" lon="10.4638989"><ele>1043.6000000000001</ele><time>2026-05-03T14:50:46.999Z</time></trkpt><trkpt lat="44.2025085" lon="10.4639576"><ele>1048.8</ele><time>2026-05-03T14:50:48.999Z</time></trkpt><trkpt lat="44.2024459" lon="10.4639953"><ele>1054.0</ele><time>2026-05-03T14:50:49.999Z</time></trkpt><trkpt lat="44.2023817" lon="10.4640185"><ele>1050.8333333333333</ele><time>2026-05-03T14:50:50.999Z</time></trkpt><trkpt lat="44.2023151" lon="10.4640418"><ele>1047.6666666666665</ele><time>2026-05-03T14:50:52Z</time></trkpt><trkpt lat="44.2022362" lon="10.4640645"><ele>1044.5</ele><time>2026-05-03T14:50:52.999Z</time></trkpt><trkpt lat="44.2021356" lon="10.4640723"><ele>1041.3333333333333</ele><time>2026-05-03T14:50:53.999Z</time></trkpt><trkpt lat="44.2020586" lon="10.4640966"><ele>1038.1666666666667</ele><time>2026-05-03T14:50:54.999Z</time></trkpt><trkpt lat="44.2019845" lon="10.4641059"><ele>1035.0</ele><time>2026-05-03T14:50:56Z</time></trkpt><trkpt lat="44.201913" lon="10.4641123"><ele>1035.0</ele><time>2026-05-03T14:50:57Z</time></trkpt><trkpt lat="44.2018423" lon="10.4641202"><ele>1035.0</ele><time>2026-05-03T14:50:58Z</time></trkpt><trkpt lat="44.2017193" lon="10.4641444"><ele>1035.0</ele><time>2026-05-03T14:51:00Z</time></trkpt><trkpt lat="44.2016144" lon="10.4641478"><ele>1035.0</ele><time>2026-05-03T14:51:01.998Z</time></trkpt><trkpt lat="44.2015412" lon="10.4641421"><ele>1035.0</ele><time>2026-05-03T14:51:03Z</time></trkpt><trkpt lat="44.2014663" lon="10.4641419"><ele>1035.0</ele><time>2026-05-03T14:51:04Z</time></trkpt><trkpt lat="44.2013865" lon="10.4641499"><ele>1032.6</ele><time>2026-05-03T14:51:05Z</time></trkpt><trkpt lat="44.2012986" lon="10.4641555"><ele>1030.2</ele><time>2026-05-03T14:51:06Z</time></trkpt><trkpt lat="44.2012063" lon="10.4641639"><ele>1027.8</ele><time>2026-05-03T14:51:07Z</time></trkpt><trkpt lat="44.2011235" lon="10.4641835"><ele>1025.4</ele><time>2026-05-03T14:51:08Z</time></trkpt><trkpt lat="44.2010283" lon="10.4641998"><ele>1023.0</ele><time>2026-05-03T14:51:08.995Z</time></trkpt><trkpt lat="44.2009231" lon="10.4642375"><ele>1023.0</ele><time>2026-05-03T14:51:10Z</time></trkpt><trkpt lat="44.2008185" lon="10.4642507"><ele>1023.0</ele><time>2026-05-03T14:51:11Z</time></trkpt><trkpt lat="44.2007319" lon="10.4642661"><ele>1023.0</ele><time>2026-05-03T14:51:11.995Z</time></trkpt><trkpt lat="44.200654" lon="10.4642696"><ele>1023.0</ele><time>2026-05-03T14:51:12.999Z</time></trkpt><trkpt lat="44.2005756" lon="10.4642652"><ele>1023.0</ele><time>2026-05-03T14:51:14Z</time></trkpt><trkpt lat="44.20049" lon="10.464241"><ele>1023.0</ele><time>2026-05-03T14:51:14.999Z</time></trkpt><trkpt lat="44.2004159" lon="10.4642161"><ele>1023.8</ele><time>2026-05-03T14:51:16Z</time></trkpt><trkpt lat="44.20034" lon="10.4641945"><ele>1024.6</ele><time>2026-05-03T14:51:17Z</time></trkpt><trkpt lat="44.2002261" lon="10.4641565"><ele>1025.4</ele><time>2026-05-03T14:51:19Z</time></trkpt><trkpt lat="44.2001425" lon="10.4640804"><ele>1026.2</ele><time>2026-05-03T14:51:20.998Z</time></trkpt><trkpt lat="44.2000949" lon="10.4639552"><ele>1027.0</ele><time>2026-05-03T14:51:23Z</time></trkpt><trkpt lat="44.2000563" lon="10.4637929"><ele>1021.4000000000001</ele><time>2026-05-03T14:51:25Z</time></trkpt><trkpt lat="44.2000163" lon="10.4637116"><ele>1015.8000000000001</ele><time>2026-05-03T14:51:26Z</time></trkpt><trkpt lat="44.1999514" lon="10.4636177"><ele>1010.2</ele><time>2026-05-03T14:51:28Z</time></trkpt><trkpt lat="44.1998672" lon="10.4636094"><ele>1004.6</ele><time>2026-05-03T14:51:30Z</time></trkpt><trkpt lat="44.1997649" lon="10.463651"><ele>999.0</ele><time>2026-05-03T14:51:32Z</time></trkpt><trkpt lat="44.1996537" lon="10.4637063"><ele>996.6</ele><time>2026-05-03T14:51:34Z</time></trkpt><trkpt lat="44.1995405" lon="10.4637472"><ele>994.2</ele><time>2026-05-03T14:51:36Z</time></trkpt><trkpt lat="44.1994302" lon="10.4638071"><ele>991.8000000000001</ele><time>2026-05-03T14:51:38Z</time></trkpt><trkpt lat="44.1993714" lon="10.4638422"><ele>989.4000000000001</ele><time>2026-05-03T14:51:38.999Z</time></trkpt><trkpt lat="44.199261" lon="10.4639203"><ele>987.0</ele><time>2026-05-03T14:51:41Z</time></trkpt><trkpt lat="44.1992025" lon="10.4639605"><ele>989.0</ele><time>2026-05-03T14:51:42Z</time></trkpt><trkpt lat="44.1990856" lon="10.4640371"><ele>991.0</ele><time>2026-05-03T14:51:43.999Z</time></trkpt><trkpt lat="44.1990205" lon="10.4640711"><ele>993.0</ele><time>2026-05-03T14:51:44.999Z</time></trkpt><trkpt lat="44.198956" lon="10.4641047"><ele>995.0</ele><time>2026-05-03T14:51:45.999Z</time></trkpt><trkpt lat="44.1988901" lon="10.4641485"><ele>997.0</ele><time>2026-05-03T14:51:47Z</time></trkpt><trkpt lat="44.1988297" lon="10.4641863"><ele>999.0</ele><time>2026-05-03T14:51:47.998Z</time></trkpt><trkpt lat="44.1987209" lon="10.4642517"><ele>999.0</ele><time>2026-05-03T14:51:50Z</time></trkpt><trkpt lat="44.1986195" lon="10.4643169"><ele>999.0000000000001</ele><time>2026-05-03T14:51:51.998Z</time></trkpt><trkpt lat="44.1985389" lon="10.4643409"><ele>999.0000000000001</ele><time>2026-05-03T14:51:54Z</time></trkpt><trkpt lat="44.1984366" lon="10.4642993"><ele>999.0</ele><time>2026-05-03T14:51:56Z</time></trkpt><trkpt lat="44.1983296" lon="10.4642596"><ele>999.0</ele><time>2026-05-03T14:51:57.999Z</time></trkpt><trkpt lat="44.19825" lon="10.4642221"><ele>999.0</ele><time>2026-05-03T14:52:00Z</time></trkpt><trkpt lat="44.1982153" lon="10.4641408"><ele>999.0</ele><time>2026-05-03T14:52:02Z</time></trkpt><trkpt lat="44.1982709" lon="10.4640777"><ele>999.0</ele><time>2026-05-03T14:52:04Z</time></trkpt><trkpt lat="44.1983577" lon="10.464025"><ele>999.0</ele><time>2026-05-03T14:52:05.999Z</time></trkpt><trkpt lat="44.1983158" lon="10.4639261"><ele>999.0</ele><time>2026-05-03T14:52:09Z</time></trkpt><trkpt lat="44.198222" lon="10.4639317"><ele>999.0</ele><time>2026-05-03T14:52:10.999Z</time></trkpt><trkpt lat="44.1980912" lon="10.463948"><ele>995.3333333333334</ele><time>2026-05-03T14:52:13Z</time></trkpt><trkpt lat="44.1980131" lon="10.4639623"><ele>991.6666666666667</ele><time>2026-05-03T14:52:14Z</time></trkpt><trkpt lat="44.197937" lon="10.4639744"><ele>988.0</ele><time>2026-05-03T14:52:14.999Z</time></trkpt><trkpt lat="44.1978245" lon="10.4640017"><ele>984.3333333333334</ele><time>2026-05-03T14:52:17Z</time></trkpt><trkpt lat="44.1977598" lon="10.4639403"><ele>980.6666666666667</ele><time>2026-05-03T14:52:20Z</time></trkpt><trkpt lat="44.1978285" lon="10.4638549"><ele>977.0</ele><time>2026-05-03T14:52:23Z</time></trkpt><trkpt lat="44.1979265" lon="10.4637982"><ele>977.0000000000001</ele><time>2026-05-03T14:52:25Z</time></trkpt><trkpt lat="44.1980371" lon="10.4637235"><ele>977.0</ele><time>2026-05-03T14:52:27Z</time></trkpt><trkpt lat="44.1981085" lon="10.4636883"><ele>977.0</ele><time>2026-05-03T14:52:28Z</time></trkpt><trkpt lat="44.1981761" lon="10.4636604"><ele>977.0</ele><time>2026-05-03T14:52:29Z</time></trkpt><trkpt lat="44.1982661" lon="10.4636277"><ele>977.0000000000001</ele><time>2026-05-03T14:52:29.999Z</time></trkpt><trkpt lat="44.1983451" lon="10.4635905"><ele>977.0</ele><time>2026-05-03T14:52:31Z</time></trkpt><trkpt lat="44.1984309" lon="10.4635509"><ele>977.0</ele><time>2026-05-03T14:52:32Z</time></trkpt><trkpt lat="44.1985202" lon="10.4634949"><ele>977.0</ele><time>2026-05-03T14:52:33Z</time></trkpt><trkpt lat="44.1986066" lon="10.4634234"><ele>977.0</ele><time>2026-05-03T14:52:34Z</time></trkpt><trkpt lat="44.1986742" lon="10.4633535"><ele>977.0</ele><time>2026-05-03T14:52:35Z</time></trkpt><trkpt lat="44.1987264" lon="10.4632957"><ele>977.0</ele><time>2026-05-03T14:52:35.999Z</time></trkpt><trkpt lat="44.1988118" lon="10.4632129"><ele>977.0</ele><time>2026-05-03T14:52:37.999Z</time></trkpt><trkpt lat="44.1988364" lon="10.4631302"><ele>977.0</ele><time>2026-05-03T14:52:39.997Z</time></trkpt><trkpt lat="44.1987528" lon="10.4631028"><ele>977.0</ele><time>2026-05-03T14:52:43Z</time></trkpt><trkpt lat="44.1986512" lon="10.463155"><ele>977.0</ele><time>2026-05-03T14:52:44.999Z</time></trkpt><trkpt lat="44.1985305" lon="10.4632036"><ele>977.0</ele><time>2026-05-03T14:52:46.999Z</time></trkpt><trkpt lat="44.1984594" lon="10.4632347"><ele>977.0000000000001</ele><time>2026-05-03T14:52:47.999Z</time></trkpt><trkpt lat="44.1983825" lon="10.4632664"><ele>977.0</ele><time>2026-05-03T14:52:49Z</time></trkpt><trkpt lat="44.1983148" lon="10.463289"><ele>977.0</ele><time>2026-05-03T14:52:49.999Z</time></trkpt><trkpt lat="44.1982314" lon="10.4632949"><ele>977.0</ele><time>2026-05-03T14:52:51Z</time></trkpt><trkpt lat="44.1981447" lon="10.463277"><ele>977.0000000000001</ele><time>2026-05-03T14:52:52Z</time></trkpt><trkpt lat="44.1980596" lon="10.4632591"><ele>977.0</ele><time>2026-05-03T14:52:53Z</time></trkpt><trkpt lat="44.1979655" lon="10.4632362"><ele>974.8333333333334</ele><time>2026-05-03T14:52:54Z</time></trkpt><trkpt lat="44.1978701" lon="10.4632023"><ele>972.6666666666667</ele><time>2026-05-03T14:52:55Z</time></trkpt><trkpt lat="44.197783" lon="10.4631641"><ele>970.5</ele><time>2026-05-03T14:52:56Z</time></trkpt><trkpt lat="44.1977052" lon="10.4631306"><ele>968.3333333333333</ele><time>2026-05-03T14:52:56.999Z</time></trkpt><trkpt lat="44.1976247" lon="10.4631155"><ele>966.1666666666666</ele><time>2026-05-03T14:52:58Z</time></trkpt><trkpt lat="44.1975392" lon="10.4631335"><ele>964.0</ele><time>2026-05-03T14:52:59Z</time></trkpt><trkpt lat="44.1974598" lon="10.4631681"><ele>963.9999999999999</ele><time>2026-05-03T14:52:59.998Z</time></trkpt><trkpt lat="44.1973854" lon="10.4631999"><ele>964.0</ele><time>2026-05-03T14:53:00.999Z</time></trkpt><trkpt lat="44.1973227" lon="10.4632289"><ele>964.0</ele><time>2026-05-03T14:53:02Z</time></trkpt><trkpt lat="44.1972296" lon="10.4632886"><ele>964.0</ele><time>2026-05-03T14:53:03.998Z</time></trkpt><trkpt lat="44.1972098" lon="10.4631778"><ele>963.9999999999999</ele><time>2026-05-03T14:53:07Z</time></trkpt><trkpt lat="44.1972718" lon="10.4630912"><ele>964.0</ele><time>2026-05-03T14:53:09Z</time></trkpt><trkpt lat="44.1973749" lon="10.4629953"><ele>958.9999999999999</ele><time>2026-05-03T14:53:11Z</time></trkpt><trkpt lat="44.1974338" lon="10.4629439"><ele>954.0</ele><time>2026-05-03T14:53:12Z</time></trkpt><trkpt lat="44.1975067" lon="10.4628998"><ele>949.0</ele><time>2026-05-03T14:53:13Z</time></trkpt><trkpt lat="44.1975856" lon="10.4628534"><ele>944.0</ele><time>2026-05-03T14:53:14Z</time></trkpt><trkpt lat="44.1976692" lon="10.4628283"><ele>938.9999999999999</ele><time>2026-05-03T14:53:15Z</time></trkpt><trkpt lat="44.1977516" lon="10.4628212"><ele>934.0</ele><time>2026-05-03T14:53:16Z</time></trkpt><trkpt lat="44.1978366" lon="10.462828"><ele>934.0</ele><time>2026-05-03T14:53:17Z</time></trkpt><trkpt lat="44.197913" lon="10.4628294"><ele>934.0000000000001</ele><time>2026-05-03T14:53:18Z</time></trkpt><trkpt lat="44.1980335" lon="10.4627789"><ele>934.0000000000001</ele><time>2026-05-03T14:53:20Z</time></trkpt><trkpt lat="44.1980924" lon="10.4627296"><ele>934.0</ele><time>2026-05-03T14:53:21Z</time></trkpt><trkpt lat="44.1981621" lon="10.4625691"><ele>934.0</ele><time>2026-05-03T14:53:23Z</time></trkpt><trkpt lat="44.1982093" lon="10.4625015"><ele>935.4999999999999</ele><time>2026-05-03T14:53:24Z</time></trkpt><trkpt lat="44.1982634" lon="10.4624534"><ele>937.0</ele><time>2026-05-03T14:53:25Z</time></trkpt><trkpt lat="44.198329" lon="10.4624241"><ele>938.5</ele><time>2026-05-03T14:53:26Z</time></trkpt><trkpt lat="44.1983922" lon="10.4624149"><ele>940.0</ele><time>2026-05-03T14:53:27Z</time></trkpt><trkpt lat="44.1985016" lon="10.4623726"><ele>941.4999999999999</ele><time>2026-05-03T14:53:29Z</time></trkpt><trkpt lat="44.1985128" lon="10.4622675"><ele>943.0</ele><time>2026-05-03T14:53:30.999Z</time></trkpt><trkpt lat="44.1984056" lon="10.4622654"><ele>942.9999999999999</ele><time>2026-05-03T14:53:33.999Z</time></trkpt><trkpt lat="44.198342" lon="10.4622782"><ele>943.0</ele><time>2026-05-03T14:53:35Z</time></trkpt><trkpt lat="44.1982788" lon="10.4622666"><ele>943.0</ele><time>2026-05-03T14:53:36Z</time></trkpt><trkpt lat="44.198201" lon="10.4622575"><ele>943.0</ele><time>2026-05-03T14:53:37Z</time></trkpt><trkpt lat="44.1981188" lon="10.4622773"><ele>942.9999999999999</ele><time>2026-05-03T14:53:38Z</time></trkpt><trkpt lat="44.198031" lon="10.4622533"><ele>943.0</ele><time>2026-05-03T14:53:39Z</time></trkpt><trkpt lat="44.1979371" lon="10.4622388"><ele>941.2</ele><time>2026-05-03T14:53:39.999Z</time></trkpt><trkpt lat="44.197851" lon="10.462233"><ele>939.4</ele><time>2026-05-03T14:53:41Z</time></trkpt><trkpt lat="44.1977472" lon="10.462227"><ele>937.6000000000001</ele><time>2026-05-03T14:53:42Z</time></trkpt><trkpt lat="44.1976464" lon="10.462214"><ele>935.8000000000001</ele><time>2026-05-03T14:53:43Z</time></trkpt><trkpt lat="44.1975672" lon="10.4622227"><ele>934.0</ele><time>2026-05-03T14:53:44Z</time></trkpt><trkpt lat="44.1974874" lon="10.4622311"><ele>933.9999999999999</ele><time>2026-05-03T14:53:45Z</time></trkpt><trkpt lat="44.1974098" lon="10.4622546"><ele>934.0</ele><time>2026-05-03T14:53:46Z</time></trkpt><trkpt lat="44.1973397" lon="10.4622805"><ele>934.0</ele><time>2026-05-03T14:53:46.999Z</time></trkpt><trkpt lat="44.1972459" lon="10.4623481"><ele>934.0</ele><time>2026-05-03T14:53:49Z</time></trkpt><trkpt lat="44.1971471" lon="10.462403"><ele>933.9999999999999</ele><time>2026-05-03T14:53:51Z</time></trkpt><trkpt lat="44.1970879" lon="10.4623486"><ele>934.0</ele><time>2026-05-03T14:53:53.999Z</time></trkpt><trkpt lat="44.1971559" lon="10.4622985"><ele>933.9999999999999</ele><time>2026-05-03T14:53:56.999Z</time></trkpt><trkpt lat="44.1972124" lon="10.4622572"><ele>934.0</ele><time>2026-05-03T14:53:59Z</time></trkpt><trkpt lat="44.1972783" lon="10.4622185"><ele>934.0</ele><time>2026-05-03T14:54:01Z</time></trkpt><trkpt lat="44.1973484" lon="10.4621711"><ele>934.0</ele><time>2026-05-03T14:54:03Z</time></trkpt><trkpt lat="44.1974164" lon="10.4621206"><ele>933.9999999999999</ele><time>2026-05-03T14:54:05Z</time></trkpt><trkpt lat="44.1975132" lon="10.4620568"><ele>934.0</ele><time>2026-05-03T14:54:07Z</time></trkpt><trkpt lat="44.1976058" lon="10.4620052"><ele>928.6666666666666</ele><time>2026-05-03T14:54:09Z</time></trkpt><trkpt lat="44.1977127" lon="10.4619701"><ele>923.3333333333333</ele><time>2026-05-03T14:54:11Z</time></trkpt><trkpt lat="44.1978295" lon="10.461963"><ele>918.0</ele><time>2026-05-03T14:54:13Z</time></trkpt><trkpt lat="44.1978988" lon="10.4619511"><ele>912.6666666666667</ele><time>2026-05-03T14:54:14Z</time></trkpt><trkpt lat="44.197966" lon="10.4619394"><ele>907.3333333333334</ele><time>2026-05-03T14:54:15Z</time></trkpt><trkpt lat="44.1980478" lon="10.4619281"><ele>902.0</ele><time>2026-05-03T14:54:16Z</time></trkpt><trkpt lat="44.1981244" lon="10.4619167"><ele>902.5000000000001</ele><time>2026-05-03T14:54:16.999Z</time></trkpt><trkpt lat="44.1982098" lon="10.4618895"><ele>903.0</ele><time>2026-05-03T14:54:18Z</time></trkpt><trkpt lat="44.1982863" lon="10.4618546"><ele>903.5</ele><time>2026-05-03T14:54:19Z</time></trkpt><trkpt lat="44.1983681" lon="10.4618029"><ele>904.0</ele><time>2026-05-03T14:54:19.999Z</time></trkpt><trkpt lat="44.1984383" lon="10.4617554"><ele>904.5000000000001</ele><time>2026-05-03T14:54:21Z</time></trkpt><trkpt lat="44.198516" lon="10.461692"><ele>905.0</ele><time>2026-05-03T14:54:22Z</time></trkpt><trkpt lat="44.1985983" lon="10.4616116"><ele>905.0000000000001</ele><time>2026-05-03T14:54:23Z</time></trkpt><trkpt lat="44.1986524" lon="10.4615335"><ele>905.0</ele><time>2026-05-03T14:54:24Z</time></trkpt><trkpt lat="44.1987117" lon="10.4614569"><ele>905.0</ele><time>2026-05-03T14:54:25Z</time></trkpt><trkpt lat="44.1987976" lon="10.4613614"><ele>905.0</ele><time>2026-05-03T14:54:27Z</time></trkpt><trkpt lat="44.1988784" lon="10.4613231"><ele>905.0000000000001</ele><time>2026-05-03T14:54:29Z</time></trkpt><trkpt lat="44.1989503" lon="10.4612622"><ele>905.0</ele><time>2026-05-03T14:54:30.999Z</time></trkpt><trkpt lat="44.198925" lon="10.461156"><ele>905.0</ele><time>2026-05-03T14:54:33.999Z</time></trkpt><trkpt lat="44.1988581" lon="10.4611852"><ele>904.9999999999999</ele><time>2026-05-03T14:54:36Z</time></trkpt><trkpt lat="44.1987887" lon="10.4612266"><ele>905.0</ele><time>2026-05-03T14:54:37.996Z</time></trkpt><trkpt lat="44.1987183" lon="10.4612878"><ele>905.0</ele><time>2026-05-03T14:54:39Z</time></trkpt><trkpt lat="44.1986664" lon="10.4613378"><ele>904.9999999999999</ele><time>2026-05-03T14:54:39.999Z</time></trkpt><trkpt lat="44.1986148" lon="10.461393"><ele>905.0</ele><time>2026-05-03T14:54:40.997Z</time></trkpt><trkpt lat="44.1985595" lon="10.4614536"><ele>905.0</ele><time>2026-05-03T14:54:42Z</time></trkpt><trkpt lat="44.1984821" lon="10.4614931"><ele>905.0000000000001</ele><time>2026-05-03T14:54:43Z</time></trkpt><trkpt lat="44.1984028" lon="10.4615088"><ele>905.0</ele><time>2026-05-03T14:54:44Z</time></trkpt><trkpt lat="44.1983197" lon="10.4615348"><ele>905.0</ele><time>2026-05-03T14:54:44.999Z</time></trkpt><trkpt lat="44.1982371" lon="10.4615405"><ele>905.0</ele><time>2026-05-03T14:54:45.997Z</time></trkpt><trkpt lat="44.1981543" lon="10.4615502"><ele>905.0000000000001</ele><time>2026-05-03T14:54:47Z</time></trkpt><trkpt lat="44.1980588" lon="10.4615393"><ele>905.0</ele><time>2026-05-03T14:54:47.999Z</time></trkpt><trkpt lat="44.1979627" lon="10.4615319"><ele>904.4</ele><time>2026-05-03T14:54:49Z</time></trkpt><trkpt lat="44.1978586" lon="10.4615125"><ele>903.8</ele><time>2026-05-03T14:54:49.999Z</time></trkpt><trkpt lat="44.1977576" lon="10.4614845"><ele>903.2</ele><time>2026-05-03T14:54:51Z</time></trkpt><trkpt lat="44.1976667" lon="10.4614423"><ele>902.6</ele><time>2026-05-03T14:54:52Z</time></trkpt><trkpt lat="44.1975831" lon="10.4613931"><ele>902.0</ele><time>2026-05-03T14:54:53Z</time></trkpt><trkpt lat="44.1974959" lon="10.4613568"><ele>902.0</ele><time>2026-05-03T14:54:54Z</time></trkpt><trkpt lat="44.1974005" lon="10.4613234"><ele>902.0</ele><time>2026-05-03T14:54:55Z</time></trkpt><trkpt lat="44.1973086" lon="10.4613137"><ele>902.0</ele><time>2026-05-03T14:54:56Z</time></trkpt><trkpt lat="44.197214" lon="10.4612964"><ele>902.0</ele><time>2026-05-03T14:54:57Z</time></trkpt><trkpt lat="44.1971284" lon="10.4612713"><ele>902.0</ele><time>2026-05-03T14:54:58Z</time></trkpt><trkpt lat="44.1970493" lon="10.4612466"><ele>897.3333333333334</ele><time>2026-05-03T14:54:58.999Z</time></trkpt><trkpt lat="44.1969646" lon="10.4612212"><ele>892.6666666666667</ele><time>2026-05-03T14:54:59.999Z</time></trkpt><trkpt lat="44.1968836" lon="10.4612052"><ele>888.0</ele><time>2026-05-03T14:55:01Z</time></trkpt><trkpt lat="44.1968158" lon="10.4611916"><ele>883.3333333333333</ele><time>2026-05-03T14:55:01.996Z</time></trkpt><trkpt lat="44.1967383" lon="10.4611511"><ele>878.6666666666666</ele><time>2026-05-03T14:55:02.999Z</time></trkpt><trkpt lat="44.1966738" lon="10.4610959"><ele>874.0</ele><time>2026-05-03T14:55:03.999Z</time></trkpt><trkpt lat="44.1966147" lon="10.4610369"><ele>873.9999999999999</ele><time>2026-05-03T14:55:04.999Z</time></trkpt><trkpt lat="44.1965339" lon="10.4609714"><ele>874.0</ele><time>2026-05-03T14:55:07Z</time></trkpt><trkpt lat="44.1964607" lon="10.4609953"><ele>874.0</ele><time>2026-05-03T14:55:09Z</time></trkpt><trkpt lat="44.1963888" lon="10.4610995"><ele>874.0</ele><time>2026-05-03T14:55:10.999Z</time></trkpt><trkpt lat="44.1963468" lon="10.4611717"><ele>873.9999999999999</ele><time>2026-05-03T14:55:12Z</time></trkpt><trkpt lat="44.1962862" lon="10.4612775"><ele>874.0</ele><time>2026-05-03T14:55:13Z</time></trkpt><trkpt lat="44.1962454" lon="10.4613802"><ele>877.6</ele><time>2026-05-03T14:55:14Z</time></trkpt><trkpt lat="44.1962021" lon="10.4614622"><ele>881.2</ele><time>2026-05-03T14:55:15Z</time></trkpt><trkpt lat="44.1961615" lon="10.4615388"><ele>884.8000000000001</ele><time>2026-05-03T14:55:15.999Z</time></trkpt><trkpt lat="44.1960601" lon="10.4616115"><ele>888.4000000000001</ele><time>2026-05-03T14:55:18Z</time></trkpt><trkpt lat="44.1959612" lon="10.4615807"><ele>892.0</ele><time>2026-05-03T14:55:20Z</time></trkpt><trkpt lat="44.1959099" lon="10.4614616"><ele>892.0</ele><time>2026-05-03T14:55:21.999Z</time></trkpt><trkpt lat="44.1958987" lon="10.461342"><ele>892.0</ele><time>2026-05-03T14:55:23.999Z</time></trkpt><trkpt lat="44.1958719" lon="10.4611972"><ele>892.0</ele><time>2026-05-03T14:55:26Z</time></trkpt><trkpt lat="44.1958266" lon="10.4610402"><ele>892.0</ele><time>2026-05-03T14:55:28Z</time></trkpt><trkpt lat="44.1957812" lon="10.4609299"><ele>892.0</ele><time>2026-05-03T14:55:28.998Z</time></trkpt><trkpt lat="44.195737" lon="10.4608334"><ele>892.2</ele><time>2026-05-03T14:55:30Z</time></trkpt><trkpt lat="44.1956889" lon="10.4607145"><ele>892.4000000000001</ele><time>2026-05-03T14:55:31Z</time></trkpt><trkpt lat="44.1956408" lon="10.4605846"><ele>892.5999999999999</ele><time>2026-05-03T14:55:32Z</time></trkpt><trkpt lat="44.1956075" lon="10.4604757"><ele>892.8</ele><time>2026-05-03T14:55:33Z</time></trkpt><trkpt lat="44.1955725" lon="10.4603597"><ele>893.0</ele><time>2026-05-03T14:55:33.999Z</time></trkpt><trkpt lat="44.1955332" lon="10.4602518"><ele>893.0</ele><time>2026-05-03T14:55:35Z</time></trkpt><trkpt lat="44.1955049" lon="10.4601465"><ele>893.0</ele><time>2026-05-03T14:55:36Z</time></trkpt><trkpt lat="44.1954855" lon="10.4600163"><ele>893.0</ele><time>2026-05-03T14:55:38Z</time></trkpt><trkpt lat="44.1954591" lon="10.4599275"><ele>893.0</ele><time>2026-05-03T14:55:40Z</time></trkpt><trkpt lat="44.1954159" lon="10.4598631"><ele>893.0</ele><time>2026-05-03T14:55:43Z</time></trkpt><trkpt lat="44.1953749" lon="10.4597841"><ele>893.0</ele><time>2026-05-03T14:55:46.999Z</time></trkpt><trkpt lat="44.1953381" lon="10.4597111"><ele>893.0</ele><time>2026-05-03T14:55:50.001Z</time></trkpt><trkpt lat="44.1952927" lon="10.4596419"><ele>888.2857142857143</ele><time>2026-05-03T14:55:53Z</time></trkpt><trkpt lat="44.195243" lon="10.4595552"><ele>883.5714285714287</ele><time>2026-05-03T14:55:57Z</time></trkpt><trkpt lat="44.1952043" lon="10.4594798"><ele>878.8571428571429</ele><time>2026-05-03T14:55:59.999Z</time></trkpt><trkpt lat="44.195152" lon="10.459407"><ele>874.1428571428571</ele><time>2026-05-03T14:56:03.999Z</time></trkpt><trkpt lat="44.1951006" lon="10.4593387"><ele>869.4285714285714</ele><time>2026-05-03T14:56:07.999Z</time></trkpt><trkpt lat="44.1950395" lon="10.4592694"><ele>864.7142857142857</ele><time>2026-05-03T14:56:12Z</time></trkpt><trkpt lat="44.1949782" lon="10.4592137"><ele>860.0</ele><time>2026-05-03T14:56:16Z</time></trkpt><trkpt lat="44.1949206" lon="10.4591672"><ele>860.0</ele><time>2026-05-03T14:56:20Z</time></trkpt><trkpt lat="44.194859" lon="10.4591229"><ele>860.0</ele><time>2026-05-03T14:56:24Z</time></trkpt><trkpt lat="44.1947834" lon="10.4590805"><ele>860.0</ele><time>2026-05-03T14:56:28Z</time></trkpt><trkpt lat="44.194713" lon="10.4590571"><ele>860.0</ele><time>2026-05-03T14:56:32Z</time></trkpt><trkpt lat="44.1946415" lon="10.459036"><ele>860.0</ele><time>2026-05-03T14:56:36Z</time></trkpt><trkpt lat="44.1945773" lon="10.459018"><ele>860.0</ele><time>2026-05-03T14:56:39.999Z</time></trkpt><trkpt lat="44.1945108" lon="10.4590079"><ele>860.0</ele><time>2026-05-03T14:56:44Z</time></trkpt><trkpt lat="44.1944375" lon="10.4590015"><ele>862.8571428571428</ele><time>2026-05-03T14:56:48Z</time></trkpt><trkpt lat="44.1943572" lon="10.4589901"><ele>865.7142857142858</ele><time>2026-05-03T14:56:52Z</time></trkpt><trkpt lat="44.1942815" lon="10.4589892"><ele>868.5714285714286</ele><time>2026-05-03T14:56:56Z</time></trkpt><trkpt lat="44.1942018" lon="10.4589993"><ele>871.4285714285713</ele><time>2026-05-03T14:56:59.999Z</time></trkpt><trkpt lat="44.1941382" lon="10.4590036"><ele>874.2857142857142</ele><time>2026-05-03T14:57:02.999Z</time></trkpt><trkpt lat="44.1940661" lon="10.4590211"><ele>877.1428571428571</ele><time>2026-05-03T14:57:07Z</time></trkpt><trkpt lat="44.1939958" lon="10.4590144"><ele>880.0</ele><time>2026-05-03T14:57:10Z</time></trkpt><trkpt lat="44.1939318" lon="10.4590261"><ele>881.3333333333333</ele><time>2026-05-03T14:57:13Z</time></trkpt><trkpt lat="44.1938604" lon="10.4590553"><ele>882.6666666666666</ele><time>2026-05-03T14:57:17.999Z</time></trkpt><trkpt lat="44.1937904" lon="10.4590838"><ele>884.0</ele><time>2026-05-03T14:57:22Z</time></trkpt><trkpt lat="44.1937242" lon="10.4591015"><ele>885.3333333333333</ele><time>2026-05-03T14:57:25Z</time></trkpt><trkpt lat="44.1936338" lon="10.4591017"><ele>886.6666666666666</ele><time>2026-05-03T14:57:28Z</time></trkpt><trkpt lat="44.1935702" lon="10.4590859"><ele>888.0</ele><time>2026-05-03T14:57:30Z</time></trkpt><trkpt lat="44.193488" lon="10.4590493"><ele>888.0</ele><time>2026-05-03T14:57:32.998Z</time></trkpt><trkpt lat="44.1934059" lon="10.4589911"><ele>888.0</ele><time>2026-05-03T14:57:36Z</time></trkpt><trkpt lat="44.1932989" lon="10.4589627"><ele>888.0</ele><time>2026-05-03T14:57:37.999Z</time></trkpt><trkpt lat="44.1931858" lon="10.4589407"><ele>888.0</ele><time>2026-05-03T14:57:40Z</time></trkpt><trkpt lat="44.1930597" lon="10.4589155"><ele>888.0</ele><time>2026-05-03T14:57:42Z</time></trkpt><trkpt lat="44.1929936" lon="10.4589041"><ele>889.0</ele><time>2026-05-03T14:57:43Z</time></trkpt><trkpt lat="44.1929301" lon="10.4589007"><ele>890.0</ele><time>2026-05-03T14:57:44Z</time></trkpt><trkpt lat="44.1928123" lon="10.458833"><ele>891.0</ele><time>2026-05-03T14:57:46Z</time></trkpt><trkpt lat="44.1927636" lon="10.4587641"><ele>892.0</ele><time>2026-05-03T14:57:46.999Z</time></trkpt><trkpt lat="44.1927234" lon="10.4586338"><ele>893.0</ele><time>2026-05-03T14:57:49Z</time></trkpt><trkpt lat="44.1926588" lon="10.458556"><ele>894.0</ele><time>2026-05-03T14:57:51Z</time></trkpt><trkpt lat="44.1925459" lon="10.4585347"><ele>889.8333333333334</ele><time>2026-05-03T14:57:53Z</time></trkpt><trkpt lat="44.1924358" lon="10.4584513"><ele>885.6666666666667</ele><time>2026-05-03T14:57:55Z</time></trkpt><trkpt lat="44.1923765" lon="10.4583904"><ele>881.5</ele><time>2026-05-03T14:57:55.999Z</time></trkpt><trkpt lat="44.1923032" lon="10.4583499"><ele>877.3333333333334</ele><time>2026-05-03T14:57:57Z</time></trkpt><trkpt lat="44.1922308" lon="10.4583171"><ele>873.1666666666667</ele><time>2026-05-03T14:57:58Z</time></trkpt><trkpt lat="44.1921571" lon="10.4582957"><ele>869.0</ele><time>2026-05-03T14:57:59Z</time></trkpt><trkpt lat="44.1920562" lon="10.4582982"><ele>869.0</ele><time>2026-05-03T14:58:00Z</time></trkpt><trkpt lat="44.1919516" lon="10.4582905"><ele>869.0000000000001</ele><time>2026-05-03T14:58:01Z</time></trkpt><trkpt lat="44.1918577" lon="10.4582993"><ele>869.0000000000001</ele><time>2026-05-03T14:58:02Z</time></trkpt><trkpt lat="44.1917633" lon="10.4582802"><ele>869.0</ele><time>2026-05-03T14:58:03Z</time></trkpt><trkpt lat="44.1916726" lon="10.4582512"><ele>869.0</ele><time>2026-05-03T14:58:03.999Z</time></trkpt><trkpt lat="44.1916084" lon="10.4582181"><ele>869.0</ele><time>2026-05-03T14:58:04.999Z</time></trkpt><trkpt lat="44.1915414" lon="10.4581716"><ele>869.0000000000001</ele><time>2026-05-03T14:58:06Z</time></trkpt><trkpt lat="44.191499" lon="10.4580731"><ele>869.0000000000001</ele><time>2026-05-03T14:58:06.999Z</time></trkpt><trkpt lat="44.1914462" lon="10.4579805"><ele>869.0</ele><time>2026-05-03T14:58:07.999Z</time></trkpt><trkpt lat="44.1913362" lon="10.4578956"><ele>869.0</ele><time>2026-05-03T14:58:10Z</time></trkpt><trkpt lat="44.191235" lon="10.4578164"><ele>866.1666666666667</ele><time>2026-05-03T14:58:12Z</time></trkpt><trkpt lat="44.1911694" lon="10.45777"><ele>863.3333333333334</ele><time>2026-05-03T14:58:13Z</time></trkpt><trkpt lat="44.1911038" lon="10.4577264"><ele>860.5</ele><time>2026-05-03T14:58:14Z</time></trkpt><trkpt lat="44.1910152" lon="10.4576656"><ele>857.6666666666667</ele><time>2026-05-03T14:58:15Z</time></trkpt><trkpt lat="44.1909319" lon="10.4576232"><ele>854.8333333333334</ele><time>2026-05-03T14:58:15.999Z</time></trkpt><trkpt lat="44.1908668" lon="10.4575766"><ele>852.0</ele><time>2026-05-03T14:58:16.999Z</time></trkpt><trkpt lat="44.1907936" lon="10.457464"><ele>852.0</ele><time>2026-05-03T14:58:19Z</time></trkpt><trkpt lat="44.1907554" lon="10.4573822"><ele>852.0</ele><time>2026-05-03T14:58:20Z</time></trkpt><trkpt lat="44.1907124" lon="10.4572762"><ele>852.0</ele><time>2026-05-03T14:58:21Z</time></trkpt><trkpt lat="44.1906765" lon="10.457192"><ele>852.0</ele><time>2026-05-03T14:58:22Z</time></trkpt><trkpt lat="44.1905972" lon="10.4570727"><ele>852.0</ele><time>2026-05-03T14:58:24Z</time></trkpt><trkpt lat="44.190484" lon="10.4570542"><ele>850.6666666666666</ele><time>2026-05-03T14:58:26Z</time></trkpt><trkpt lat="44.1904114" lon="10.4570554"><ele>849.3333333333333</ele><time>2026-05-03T14:58:27Z</time></trkpt><trkpt lat="44.1903516" lon="10.457098"><ele>848.0</ele><time>2026-05-03T14:58:28Z</time></trkpt><trkpt lat="44.190297" lon="10.4571633"><ele>846.6666666666666</ele><time>2026-05-03T14:58:29Z</time></trkpt><trkpt lat="44.1902228" lon="10.4572348"><ele>845.3333333333333</ele><time>2026-05-03T14:58:31Z</time></trkpt><trkpt lat="44.1901699" lon="10.4571549"><ele>844.0</ele><time>2026-05-03T14:58:33.999Z</time></trkpt><trkpt lat="44.1902316" lon="10.4570689"><ele>838.9999999999999</ele><time>2026-05-03T14:58:36Z</time></trkpt><trkpt lat="44.1903173" lon="10.4569551"><ele>834.0</ele><time>2026-05-03T14:58:38Z</time></trkpt><trkpt lat="44.1903627" lon="10.4568904"><ele>829.0</ele><time>2026-05-03T14:58:38.999Z</time></trkpt><trkpt lat="44.1904117" lon="10.456833"><ele>824.0</ele><time>2026-05-03T14:58:39.999Z</time></trkpt><trkpt lat="44.1904817" lon="10.4568014"><ele>818.9999999999999</ele><time>2026-05-03T14:58:41Z</time></trkpt><trkpt lat="44.1905578" lon="10.4567821"><ele>814.0</ele><time>2026-05-03T14:58:41.999Z</time></trkpt><trkpt lat="44.1906291" lon="10.4567699"><ele>812.9999999999999</ele><time>2026-05-03T14:58:43Z</time></trkpt><trkpt lat="44.1907331" lon="10.4568481"><ele>812.0</ele><time>2026-05-03T14:58:45Z</time></trkpt><trkpt lat="44.1907923" lon="10.456916"><ele>811.0</ele><time>2026-05-03T14:58:45.999Z</time></trkpt><trkpt lat="44.1908382" lon="10.4569837"><ele>810.0</ele><time>2026-05-03T14:58:47Z</time></trkpt><trkpt lat="44.1908906" lon="10.4570418"><ele>808.9999999999999</ele><time>2026-05-03T14:58:48Z</time></trkpt><trkpt lat="44.1909739" lon="10.457128"><ele>808.0</ele><time>2026-05-03T14:58:50Z</time></trkpt><trkpt lat="44.1910408" lon="10.4571322"><ele>808.0</ele><time>2026-05-03T14:58:52Z</time></trkpt><trkpt lat="44.191091" lon="10.4570749"><ele>808.0</ele><time>2026-05-03T14:58:54Z</time></trkpt><trkpt lat="44.1910344" lon="10.4569533"><ele>808.0</ele><time>2026-05-03T14:58:57Z</time></trkpt><trkpt lat="44.1909466" lon="10.4568385"><ele>808.0</ele><time>2026-05-03T14:58:59Z</time></trkpt><trkpt lat="44.1908832" lon="10.4567373"><ele>808.0</ele><time>2026-05-03T14:59:00Z</time></trkpt><trkpt lat="44.1908278" lon="10.4566549"><ele>807.9999999999999</ele><time>2026-05-03T14:59:01Z</time></trkpt><trkpt lat="44.1907794" lon="10.4565629"><ele>808.0</ele><time>2026-05-03T14:59:02Z</time></trkpt><trkpt lat="44.1907221" lon="10.4564794"><ele>808.0</ele><time>2026-05-03T14:59:03Z</time></trkpt><trkpt lat="44.1906512" lon="10.456401"><ele>808.0</ele><time>2026-05-03T14:59:03.998Z</time></trkpt><trkpt lat="44.1905544" lon="10.4563827"><ele>807.9999999999999</ele><time>2026-05-03T14:59:05Z</time></trkpt><trkpt lat="44.190475" lon="10.4563488"><ele>808.0</ele><time>2026-05-03T14:59:05.999Z</time></trkpt><trkpt lat="44.1903957" lon="10.4563205"><ele>809.2</ele><time>2026-05-03T14:59:07Z</time></trkpt><trkpt lat="44.190321" lon="10.4563187"><ele>810.4</ele><time>2026-05-03T14:59:08Z</time></trkpt><trkpt lat="44.1902153" lon="10.4563767"><ele>811.6</ele><time>2026-05-03T14:59:09.999Z</time></trkpt><trkpt lat="44.1901612" lon="10.4564491"><ele>812.8000000000001</ele><time>2026-05-03T14:59:10.999Z</time></trkpt><trkpt lat="44.1900998" lon="10.4565216"><ele>814.0</ele><time>2026-05-03T14:59:12Z</time></trkpt><trkpt lat="44.1900178" lon="10.456627"><ele>814.0</ele><time>2026-05-03T14:59:14Z</time></trkpt><trkpt lat="44.1899565" lon="10.4566749"><ele>814.0</ele><time>2026-05-03T14:59:16Z</time></trkpt><trkpt lat="44.1899125" lon="10.4565967"><ele>814.0</ele><time>2026-05-03T14:59:19Z</time></trkpt><trkpt lat="44.189959" lon="10.4565287"><ele>814.0</ele><time>2026-05-03T14:59:21Z</time></trkpt><trkpt lat="44.1900417" lon="10.4564214"><ele>814.0</ele><time>2026-05-03T14:59:23Z</time></trkpt><trkpt lat="44.1901142" lon="10.4562735"><ele>806.5</ele><time>2026-05-03T14:59:25Z</time></trkpt><trkpt lat="44.1901684" lon="10.4561141"><ele>799.0</ele><time>2026-05-03T14:59:27Z</time></trkpt><trkpt lat="44.1902366" lon="10.4559801"><ele>791.5</ele><time>2026-05-03T14:59:29Z</time></trkpt><trkpt lat="44.1903166" lon="10.4559094"><ele>784.0</ele><time>2026-05-03T14:59:31Z</time></trkpt><trkpt lat="44.1904243" lon="10.4558652"><ele>784.0</ele><time>2026-05-03T14:59:33Z</time></trkpt><trkpt lat="44.190525" lon="10.4558879"><ele>784.0</ele><time>2026-05-03T14:59:34.999Z</time></trkpt><trkpt lat="44.1905924" lon="10.45585"><ele>784.0</ele><time>2026-05-03T14:59:36.999Z</time></trkpt><trkpt lat="44.1905643" lon="10.4557234"><ele>784.0</ele><time>2026-05-03T14:59:40Z</time></trkpt><trkpt lat="44.1904516" lon="10.4556341"><ele>784.0</ele><time>2026-05-03T14:59:42Z</time></trkpt><trkpt lat="44.1903327" lon="10.4555851"><ele>783.9999999999999</ele><time>2026-05-03T14:59:44Z</time></trkpt><trkpt lat="44.1902673" lon="10.4555722"><ele>784.0</ele><time>2026-05-03T14:59:45Z</time></trkpt><trkpt lat="44.1901761" lon="10.4555817"><ele>784.0</ele><time>2026-05-03T14:59:47Z</time></trkpt><trkpt lat="44.1901169" lon="10.4555017"><ele>784.0</ele><time>2026-05-03T14:59:50Z</time></trkpt><trkpt lat="44.1901706" lon="10.4554317"><ele>783.9999999999999</ele><time>2026-05-03T14:59:53Z</time></trkpt><trkpt lat="44.1902521" lon="10.4554102"><ele>784.0</ele><time>2026-05-03T14:59:55Z</time></trkpt><trkpt lat="44.1902793" lon="10.4553098"><ele>779.6666666666666</ele><time>2026-05-03T14:59:58Z</time></trkpt><trkpt lat="44.1901771" lon="10.4552631"><ele>775.3333333333333</ele><time>2026-05-03T15:00:00Z</time></trkpt><trkpt lat="44.190092" lon="10.4553419"><ele>771.0</ele><time>2026-05-03T15:00:01.999Z</time></trkpt><trkpt lat="44.190037" lon="10.455408"><ele>766.6666666666666</ele><time>2026-05-03T15:00:04Z</time></trkpt><trkpt lat="44.1899588" lon="10.4553399"><ele>762.3333333333333</ele><time>2026-05-03T15:00:06.999Z</time></trkpt><trkpt lat="44.1899537" lon="10.4552467"><ele>758.0</ele><time>2026-05-03T15:00:09Z</time></trkpt><trkpt lat="44.189992" lon="10.4551769"><ele>758.0</ele><time>2026-05-03T15:00:10Z</time></trkpt><trkpt lat="44.190029" lon="10.4550504"><ele>758.0</ele><time>2026-05-03T15:00:12Z</time></trkpt><trkpt lat="44.1900404" lon="10.4549293"><ele>758.0</ele><time>2026-05-03T15:00:14Z</time></trkpt><trkpt lat="44.1899978" lon="10.4548258"><ele>758.0</ele><time>2026-05-03T15:00:16Z</time></trkpt><trkpt lat="44.189944" lon="10.4547761"><ele>758.0</ele><time>2026-05-03T15:00:16.999Z</time></trkpt><trkpt lat="44.1898711" lon="10.4547467"><ele>758.0</ele><time>2026-05-03T15:00:18Z</time></trkpt><trkpt lat="44.1897951" lon="10.4547374"><ele>757.4</ele><time>2026-05-03T15:00:19Z</time></trkpt><trkpt lat="44.1897035" lon="10.4547141"><ele>756.8</ele><time>2026-05-03T15:00:20Z</time></trkpt><trkpt lat="44.1896154" lon="10.4546956"><ele>756.2</ele><time>2026-05-03T15:00:20.999Z</time></trkpt><trkpt lat="44.1894988" lon="10.4546213"><ele>755.6</ele><time>2026-05-03T15:00:21.999Z</time></trkpt><trkpt lat="44.189392" lon="10.454545"><ele>755.0</ele><time>2026-05-03T15:00:22.999Z</time></trkpt><trkpt lat="44.1892964" lon="10.4544676"><ele>755.0</ele><time>2026-05-03T15:00:24Z</time></trkpt><trkpt lat="44.189215" lon="10.4543864"><ele>755.0</ele><time>2026-05-03T15:00:25Z</time></trkpt><trkpt lat="44.1891481" lon="10.4543064"><ele>755.0</ele><time>2026-05-03T15:00:25.999Z</time></trkpt><trkpt lat="44.1890808" lon="10.454221"><ele>755.0</ele><time>2026-05-03T15:00:27Z</time></trkpt><trkpt lat="44.1890267" lon="10.4541121"><ele>755.0</ele><time>2026-05-03T15:00:28Z</time></trkpt><trkpt lat="44.188985" lon="10.4540098"><ele>757.6</ele><time>2026-05-03T15:00:29Z</time></trkpt><trkpt lat="44.1889471" lon="10.4539125"><ele>760.2</ele><time>2026-05-03T15:00:30Z</time></trkpt><trkpt lat="44.18889" lon="10.4537815"><ele>762.8</ele><time>2026-05-03T15:00:31Z</time></trkpt><trkpt lat="44.1888397" lon="10.4536707"><ele>765.4</ele><time>2026-05-03T15:00:31.999Z</time></trkpt><trkpt lat="44.1887722" lon="10.4535704"><ele>768.0</ele><time>2026-05-03T15:00:33Z</time></trkpt><trkpt lat="44.188698" lon="10.4534974"><ele>761.8</ele><time>2026-05-03T15:00:34Z</time></trkpt><trkpt lat="44.1886126" lon="10.4534376"><ele>755.5999999999999</ele><time>2026-05-03T15:00:35Z</time></trkpt><trkpt lat="44.1885152" lon="10.4533826"><ele>749.4000000000001</ele><time>2026-05-03T15:00:35.999Z</time></trkpt><trkpt lat="44.1884196" lon="10.4533274"><ele>743.2</ele><time>2026-05-03T15:00:37Z</time></trkpt><trkpt lat="44.1883265" lon="10.4532698"><ele>737.0</ele><time>2026-05-03T15:00:37.999Z</time></trkpt><trkpt lat="44.188232" lon="10.4532164"><ele>735.0</ele><time>2026-05-03T15:00:39Z</time></trkpt><trkpt lat="44.1881384" lon="10.4531557"><ele>733.0</ele><time>2026-05-03T15:00:40Z</time></trkpt><trkpt lat="44.188046" lon="10.4530816"><ele>731.0</ele><time>2026-05-03T15:00:41Z</time></trkpt><trkpt lat="44.187954" lon="10.4529981"><ele>729.0</ele><time>2026-05-03T15:00:41.999Z</time></trkpt><trkpt lat="44.1878619" lon="10.4529256"><ele>727.0</ele><time>2026-05-03T15:00:43Z</time></trkpt><trkpt lat="44.1877692" lon="10.4528432"><ele>727.0</ele><time>2026-05-03T15:00:44Z</time></trkpt><trkpt lat="44.1876688" lon="10.4527651"><ele>727.0</ele><time>2026-05-03T15:00:44.999Z</time></trkpt><trkpt lat="44.1875636" lon="10.4526844"><ele>727.0</ele><time>2026-05-03T15:00:46Z</time></trkpt><trkpt lat="44.1874546" lon="10.4526005"><ele>727.0</ele><time>2026-05-03T15:00:47Z</time></trkpt><trkpt lat="44.1873524" lon="10.4525112"><ele>730.5</ele><time>2026-05-03T15:00:48Z</time></trkpt><trkpt lat="44.1872506" lon="10.4524234"><ele>734.0</ele><time>2026-05-03T15:00:49Z</time></trkpt><trkpt lat="44.1871513" lon="10.4523372"><ele>737.5</ele><time>2026-05-03T15:00:50Z</time></trkpt><trkpt lat="44.1870545" lon="10.4522451"><ele>741.0</ele><time>2026-05-03T15:00:51Z</time></trkpt><trkpt lat="44.1869642" lon="10.4521481"><ele>734.75</ele><time>2026-05-03T15:00:52Z</time></trkpt><trkpt lat="44.1868661" lon="10.4520409"><ele>728.5</ele><time>2026-05-03T15:00:53Z</time></trkpt><trkpt lat="44.1867691" lon="10.451921"><ele>722.25</ele><time>2026-05-03T15:00:54Z</time></trkpt><trkpt lat="44.1866674" lon="10.4517895"><ele>716.0</ele><time>2026-05-03T15:00:55Z</time></trkpt><trkpt lat="44.186563" lon="10.4516494"><ele>715.0</ele><time>2026-05-03T15:00:56Z</time></trkpt><trkpt lat="44.1864724" lon="10.451523"><ele>714.0</ele><time>2026-05-03T15:00:56.999Z</time></trkpt><trkpt lat="44.1863895" lon="10.4514032"><ele>713.0</ele><time>2026-05-03T15:00:58Z</time></trkpt><trkpt lat="44.1863141" lon="10.4512857"><ele>712.0</ele><time>2026-05-03T15:00:58.999Z</time></trkpt><trkpt lat="44.186242" lon="10.451176"><ele>712.0</ele><time>2026-05-03T15:01:00Z</time></trkpt><trkpt lat="44.1861682" lon="10.4510887"><ele>712.0</ele><time>2026-05-03T15:01:01Z</time></trkpt><trkpt lat="44.1860873" lon="10.4510147"><ele>712.0</ele><time>2026-05-03T15:01:02Z</time></trkpt><trkpt lat="44.186003" lon="10.4509667"><ele>712.0</ele><time>2026-05-03T15:01:03Z</time></trkpt><trkpt lat="44.1859188" lon="10.4509258"><ele>712.0</ele><time>2026-05-03T15:01:04Z</time></trkpt><trkpt lat="44.1858315" lon="10.4508913"><ele>712.0</ele><time>2026-05-03T15:01:04.999Z</time></trkpt><trkpt lat="44.1857424" lon="10.4508687"><ele>712.0</ele><time>2026-05-03T15:01:05.996Z</time></trkpt><trkpt lat="44.185642" lon="10.4508527"><ele>712.0</ele><time>2026-05-03T15:01:07Z</time></trkpt><trkpt lat="44.1855405" lon="10.4508285"><ele>712.0</ele><time>2026-05-03T15:01:08Z</time></trkpt><trkpt lat="44.1854369" lon="10.4507986"><ele>712.0</ele><time>2026-05-03T15:01:09Z</time></trkpt><trkpt lat="44.1853279" lon="10.4507401"><ele>713.75</ele><time>2026-05-03T15:01:10Z</time></trkpt><trkpt lat="44.1852202" lon="10.4506787"><ele>715.5</ele><time>2026-05-03T15:01:11Z</time></trkpt><trkpt lat="44.1851075" lon="10.4506184"><ele>717.25</ele><time>2026-05-03T15:01:11.999Z</time></trkpt><trkpt lat="44.1850028" lon="10.4505658"><ele>719.0</ele><time>2026-05-03T15:01:12.999Z</time></trkpt><trkpt lat="44.1849044" lon="10.4505281"><ele>716.6666666666666</ele><time>2026-05-03T15:01:14Z</time></trkpt><trkpt lat="44.1848174" lon="10.4505046"><ele>714.3333333333333</ele><time>2026-05-03T15:01:15Z</time></trkpt><trkpt lat="44.184737" lon="10.4504774"><ele>712.0</ele><time>2026-05-03T15:01:16Z</time></trkpt><trkpt lat="44.1846658" lon="10.450441"><ele>709.6666666666666</ele><time>2026-05-03T15:01:17Z</time></trkpt><trkpt lat="44.1845774" lon="10.4503428"><ele>707.3333333333334</ele><time>2026-05-03T15:01:19Z</time></trkpt><trkpt lat="44.1845902" lon="10.4502331"><ele>705.0</ele><time>2026-05-03T15:01:21Z</time></trkpt><trkpt lat="44.1846274" lon="10.4501104"><ele>705.0</ele><time>2026-05-03T15:01:23Z</time></trkpt><trkpt lat="44.1846363" lon="10.449996"><ele>705.0</ele><time>2026-05-03T15:01:25Z</time></trkpt><trkpt lat="44.1845775" lon="10.4498482"><ele>705.0</ele><time>2026-05-03T15:01:27Z</time></trkpt><trkpt lat="44.1845633" lon="10.4497595"><ele>705.0</ele><time>2026-05-03T15:01:27.999Z</time></trkpt><trkpt lat="44.18456" lon="10.4496527"><ele>705.0</ele><time>2026-05-03T15:01:29Z</time></trkpt><trkpt lat="44.1845619" lon="10.4495346"><ele>705.0</ele><time>2026-05-03T15:01:30Z</time></trkpt><trkpt lat="44.1845529" lon="10.4494099"><ele>701.8333333333334</ele><time>2026-05-03T15:01:31Z</time></trkpt><trkpt lat="44.1845209" lon="10.4492867"><ele>698.6666666666666</ele><time>2026-05-03T15:01:31.999Z</time></trkpt><trkpt lat="44.184471" lon="10.4491854"><ele>695.5</ele><time>2026-05-03T15:01:33Z</time></trkpt><trkpt lat="44.1844065" lon="10.4490996"><ele>692.3333333333333</ele><time>2026-05-03T15:01:34Z</time></trkpt><trkpt lat="44.1843379" lon="10.4490256"><ele>689.1666666666666</ele><time>2026-05-03T15:01:35Z</time></trkpt><trkpt lat="44.1842774" lon="10.4489517"><ele>686.0</ele><time>2026-05-03T15:01:35.999Z</time></trkpt><trkpt lat="44.1842385" lon="10.4488575"><ele>686.6666666666666</ele><time>2026-05-03T15:01:37Z</time></trkpt><trkpt lat="44.1842044" lon="10.448753"><ele>687.3333333333333</ele><time>2026-05-03T15:01:38Z</time></trkpt><trkpt lat="44.1841761" lon="10.4486498"><ele>688.0</ele><time>2026-05-03T15:01:39Z</time></trkpt><trkpt lat="44.1841421" lon="10.4485336"><ele>688.6666666666666</ele><time>2026-05-03T15:01:39.999Z</time></trkpt><trkpt lat="44.184103" lon="10.4484193"><ele>689.3333333333334</ele><time>2026-05-03T15:01:41Z</time></trkpt><trkpt lat="44.1840634" lon="10.4483018"><ele>690.0</ele><time>2026-05-03T15:01:41.999Z</time></trkpt><trkpt lat="44.1840295" lon="10.4481709"><ele>690.6</ele><time>2026-05-03T15:01:43Z</time></trkpt><trkpt lat="44.1840024" lon="10.4480382"><ele>691.2</ele><time>2026-05-03T15:01:43.999Z</time></trkpt><trkpt lat="44.1839816" lon="10.4478984"><ele>691.8</ele><time>2026-05-03T15:01:45Z</time></trkpt><trkpt lat="44.1839673" lon="10.4477575"><ele>692.4</ele><time>2026-05-03T15:01:46Z</time></trkpt><trkpt lat="44.1839575" lon="10.4476117"><ele>693.0</ele><time>2026-05-03T15:01:47Z</time></trkpt><trkpt lat="44.1839463" lon="10.4474603"><ele>690.5</ele><time>2026-05-03T15:01:48Z</time></trkpt><trkpt lat="44.1839323" lon="10.4473043"><ele>688.0</ele><time>2026-05-03T15:01:49Z</time></trkpt><trkpt lat="44.1839073" lon="10.4471442"><ele>685.5</ele><time>2026-05-03T15:01:50Z</time></trkpt><trkpt lat="44.1838665" lon="10.446983"><ele>683.0</ele><time>2026-05-03T15:01:50.999Z</time></trkpt><trkpt lat="44.1838141" lon="10.4468248"><ele>682.25</ele><time>2026-05-03T15:01:52Z</time></trkpt><trkpt lat="44.1837491" lon="10.4466663"><ele>681.5</ele><time>2026-05-03T15:01:53Z</time></trkpt><trkpt lat="44.1836773" lon="10.4465095"><ele>680.75</ele><time>2026-05-03T15:01:53.999Z</time></trkpt><trkpt lat="44.1836067" lon="10.4463518"><ele>680.0</ele><time>2026-05-03T15:01:54.995Z</time></trkpt><trkpt lat="44.1835333" lon="10.4462102"><ele>680.0</ele><time>2026-05-03T15:01:55.999Z</time></trkpt><trkpt lat="44.183452" lon="10.4460952"><ele>680.0</ele><time>2026-05-03T15:01:56.996Z</time></trkpt><trkpt lat="44.1833568" lon="10.4459957"><ele>680.0</ele><time>2026-05-03T15:01:57.998Z</time></trkpt><trkpt lat="44.1832621" lon="10.4459291"><ele>680.0</ele><time>2026-05-03T15:01:59Z</time></trkpt><trkpt lat="44.1831721" lon="10.4458856"><ele>680.0</ele><time>2026-05-03T15:02:00Z</time></trkpt><trkpt lat="44.1831019" lon="10.4458321"><ele>679.6</ele><time>2026-05-03T15:02:00.999Z</time></trkpt><trkpt lat="44.1830329" lon="10.4457707"><ele>679.2</ele><time>2026-05-03T15:02:01.996Z</time></trkpt><trkpt lat="44.1829583" lon="10.4456649"><ele>678.8</ele><time>2026-05-03T15:02:02.999Z</time></trkpt><trkpt lat="44.1828943" lon="10.4455681"><ele>678.4</ele><time>2026-05-03T15:02:04Z</time></trkpt><trkpt lat="44.1828259" lon="10.4454709"><ele>678.0</ele><time>2026-05-03T15:02:05Z</time></trkpt><trkpt lat="44.1827605" lon="10.445368"><ele>676.8333333333334</ele><time>2026-05-03T15:02:06Z</time></trkpt><trkpt lat="44.1827185" lon="10.4452937"><ele>675.6666666666666</ele><time>2026-05-03T15:02:06.994Z</time></trkpt><trkpt lat="44.1826754" lon="10.4452035"><ele>674.5</ele><time>2026-05-03T15:02:08Z</time></trkpt><trkpt lat="44.1826432" lon="10.445088"><ele>673.3333333333333</ele><time>2026-05-03T15:02:09Z</time></trkpt><trkpt lat="44.1826351" lon="10.444994"><ele>672.1666666666666</ele><time>2026-05-03T15:02:10Z</time></trkpt><trkpt lat="44.1826342" lon="10.4448866"><ele>671.0</ele><time>2026-05-03T15:02:11Z</time></trkpt><trkpt lat="44.1826378" lon="10.444787"><ele>671.0</ele><time>2026-05-03T15:02:11.999Z</time></trkpt><trkpt lat="44.1826402" lon="10.4446886"><ele>671.0</ele><time>2026-05-03T15:02:13Z</time></trkpt><trkpt lat="44.1826276" lon="10.4445918"><ele>671.0</ele><time>2026-05-03T15:02:14Z</time></trkpt><trkpt lat="44.1826076" lon="10.4444993"><ele>671.0</ele><time>2026-05-03T15:02:15Z</time></trkpt><trkpt lat="44.1825812" lon="10.4444024"><ele>671.0</ele><time>2026-05-03T15:02:15.997Z</time></trkpt><trkpt lat="44.1825511" lon="10.4443002"><ele>671.0</ele><time>2026-05-03T15:02:17Z</time></trkpt><trkpt lat="44.1825224" lon="10.4441968"><ele>671.0</ele><time>2026-05-03T15:02:17.998Z</time></trkpt><trkpt lat="44.1824881" lon="10.4440905"><ele>671.0</ele><time>2026-05-03T15:02:19Z</time></trkpt><trkpt lat="44.1824159" lon="10.4440318"><ele>671.0</ele><time>2026-05-03T15:02:20Z</time></trkpt><trkpt lat="44.182336" lon="10.443987"><ele>671.0</ele><time>2026-05-03T15:02:21Z</time></trkpt><trkpt lat="44.1822649" lon="10.4439405"><ele>671.0</ele><time>2026-05-03T15:02:22Z</time></trkpt><trkpt lat="44.1821685" lon="10.4437924"><ele>671.0</ele><time>2026-05-03T15:02:24Z</time></trkpt><trkpt lat="44.1821277" lon="10.4437035"><ele>667.8</ele><time>2026-05-03T15:02:25Z</time></trkpt><trkpt lat="44.1821008" lon="10.4435833"><ele>664.5999999999999</ele><time>2026-05-03T15:02:26Z</time></trkpt><trkpt lat="44.1820658" lon="10.4434656"><ele>661.4</ele><time>2026-05-03T15:02:26.994Z</time></trkpt><trkpt lat="44.1819989" lon="10.4433619"><ele>658.2</ele><time>2026-05-03T15:02:27.998Z</time></trkpt><trkpt lat="44.181922" lon="10.4432773"><ele>655.0</ele><time>2026-05-03T15:02:28.999Z</time></trkpt><trkpt lat="44.1818392" lon="10.4432035"><ele>655.0</ele><time>2026-05-03T15:02:30Z</time></trkpt><trkpt lat="44.1817556" lon="10.443131"><ele>655.0</ele><time>2026-05-03T15:02:30.996Z</time></trkpt><trkpt lat="44.1816707" lon="10.443053"><ele>655.0</ele><time>2026-05-03T15:02:31.999Z</time></trkpt><trkpt lat="44.1815898" lon="10.4429761"><ele>655.0</ele><time>2026-05-03T15:02:33Z</time></trkpt><trkpt lat="44.1815081" lon="10.4428838"><ele>655.0</ele><time>2026-05-03T15:02:33.998Z</time></trkpt><trkpt lat="44.1814281" lon="10.4427895"><ele>658.2</ele><time>2026-05-03T15:02:35Z</time></trkpt><trkpt lat="44.181363" lon="10.4426811"><ele>661.4</ele><time>2026-05-03T15:02:36Z</time></trkpt><trkpt lat="44.1812895" lon="10.4425731"><ele>664.5999999999999</ele><time>2026-05-03T15:02:36.999Z</time></trkpt><trkpt lat="44.1812209" lon="10.4424645"><ele>667.8</ele><time>2026-05-03T15:02:38Z</time></trkpt><trkpt lat="44.1811502" lon="10.4423565"><ele>671.0</ele><time>2026-05-03T15:02:39Z</time></trkpt><trkpt lat="44.1810855" lon="10.442258"><ele>671.0</ele><time>2026-05-03T15:02:40Z</time></trkpt><trkpt lat="44.1810329" lon="10.442166"><ele>671.0</ele><time>2026-05-03T15:02:41Z</time></trkpt><trkpt lat="44.180996" lon="10.4420748"><ele>671.0</ele><time>2026-05-03T15:02:41.999Z</time></trkpt><trkpt lat="44.1809766" lon="10.4419838"><ele>671.0</ele><time>2026-05-03T15:02:42.999Z</time></trkpt><trkpt lat="44.1809894" lon="10.4418889"><ele>671.0</ele><time>2026-05-03T15:02:44Z</time></trkpt><trkpt lat="44.1810167" lon="10.4417959"><ele>671.0</ele><time>2026-05-03T15:02:45Z</time></trkpt><trkpt lat="44.181051" lon="10.4417174"><ele>671.0</ele><time>2026-05-03T15:02:45.997Z</time></trkpt><trkpt lat="44.1810871" lon="10.4416381"><ele>668.0</ele><time>2026-05-03T15:02:46.999Z</time></trkpt><trkpt lat="44.1811224" lon="10.4415608"><ele>665.0</ele><time>2026-05-03T15:02:48Z</time></trkpt><trkpt lat="44.1811595" lon="10.4414792"><ele>662.0</ele><time>2026-05-03T15:02:48.999Z</time></trkpt><trkpt lat="44.1811934" lon="10.4413978"><ele>659.0</ele><time>2026-05-03T15:02:50Z</time></trkpt><trkpt lat="44.1812241" lon="10.4413109"><ele>656.0</ele><time>2026-05-03T15:02:51Z</time></trkpt><trkpt lat="44.1812453" lon="10.4412183"><ele>653.0</ele><time>2026-05-03T15:02:51.998Z</time></trkpt><trkpt lat="44.1812507" lon="10.4411235"><ele>650.0</ele><time>2026-05-03T15:02:53Z</time></trkpt><trkpt lat="44.181239" lon="10.4410314"><ele>650.0</ele><time>2026-05-03T15:02:54Z</time></trkpt><trkpt lat="44.1812112" lon="10.4409432"><ele>650.0</ele><time>2026-05-03T15:02:54.999Z</time></trkpt><trkpt lat="44.181169" lon="10.4408574"><ele>650.0</ele><time>2026-05-03T15:02:56Z</time></trkpt><trkpt lat="44.1811282" lon="10.440785"><ele>650.0</ele><time>2026-05-03T15:02:57Z</time></trkpt><trkpt lat="44.1810742" lon="10.4407098"><ele>650.0</ele><time>2026-05-03T15:02:57.999Z</time></trkpt><trkpt lat="44.181013" lon="10.4406531"><ele>650.0</ele><time>2026-05-03T15:02:59Z</time></trkpt><trkpt lat="44.180938" lon="10.4406153"><ele>650.0</ele><time>2026-05-03T15:03:00Z</time></trkpt><trkpt lat="44.1808658" lon="10.440606"><ele>650.0</ele><time>2026-05-03T15:03:01Z</time></trkpt><trkpt lat="44.1807798" lon="10.4406167"><ele>650.0</ele><time>2026-05-03T15:03:02Z</time></trkpt><trkpt lat="44.180691" lon="10.440643"><ele>650.0</ele><time>2026-05-03T15:03:02.999Z</time></trkpt><trkpt lat="44.1806061" lon="10.4406807"><ele>650.0</ele><time>2026-05-03T15:03:03.997Z</time></trkpt><trkpt lat="44.1805183" lon="10.4406887"><ele>650.0</ele><time>2026-05-03T15:03:04.999Z</time></trkpt><trkpt lat="44.1804262" lon="10.4406904"><ele>650.0</ele><time>2026-05-03T15:03:05.996Z</time></trkpt><trkpt lat="44.1803393" lon="10.4406876"><ele>649.1666666666666</ele><time>2026-05-03T15:03:06.999Z</time></trkpt><trkpt lat="44.1802695" lon="10.4406553"><ele>648.3333333333333</ele><time>2026-05-03T15:03:08Z</time></trkpt><trkpt lat="44.180202" lon="10.440583"><ele>647.5</ele><time>2026-05-03T15:03:08.999Z</time></trkpt><trkpt lat="44.1801415" lon="10.4405068"><ele>646.6666666666666</ele><time>2026-05-03T15:03:10Z</time></trkpt><trkpt lat="44.1801039" lon="10.4404227"><ele>645.8333333333334</ele><time>2026-05-03T15:03:11Z</time></trkpt><trkpt lat="44.1800869" lon="10.4403163"><ele>645.0</ele><time>2026-05-03T15:03:11.999Z</time></trkpt><trkpt lat="44.1800719" lon="10.4402117"><ele>645.0</ele><time>2026-05-03T15:03:12.996Z</time></trkpt><trkpt lat="44.1800491" lon="10.4401213"><ele>645.0</ele><time>2026-05-03T15:03:14Z</time></trkpt><trkpt lat="44.1800114" lon="10.4400419"><ele>645.0</ele><time>2026-05-03T15:03:15Z</time></trkpt><trkpt lat="44.1799683" lon="10.4399707"><ele>645.0</ele><time>2026-05-03T15:03:15.999Z</time></trkpt><trkpt lat="44.179867" lon="10.4398814"><ele>645.0</ele><time>2026-05-03T15:03:18Z</time></trkpt><trkpt lat="44.1798075" lon="10.439845"><ele>645.0</ele><time>2026-05-03T15:03:19Z</time></trkpt><trkpt lat="44.1797482" lon="10.439815"><ele>644.8333333333334</ele><time>2026-05-03T15:03:20Z</time></trkpt><trkpt lat="44.1796392" lon="10.4397466"><ele>644.6666666666666</ele><time>2026-05-03T15:03:22Z</time></trkpt><trkpt lat="44.1795726" lon="10.439692"><ele>644.5</ele><time>2026-05-03T15:03:22.999Z</time></trkpt><trkpt lat="44.179511" lon="10.4396511"><ele>644.3333333333333</ele><time>2026-05-03T15:03:24Z</time></trkpt><trkpt lat="44.1794516" lon="10.4396162"><ele>644.1666666666666</ele><time>2026-05-03T15:03:25Z</time></trkpt><trkpt lat="44.1793864" lon="10.4395719"><ele>644.0</ele><time>2026-05-03T15:03:26Z</time></trkpt><trkpt lat="44.1793181" lon="10.4395203"><ele>643.0</ele><time>2026-05-03T15:03:27Z</time></trkpt><trkpt lat="44.1792511" lon="10.4394625"><ele>642.0</ele><time>2026-05-03T15:03:28Z</time></trkpt><trkpt lat="44.1791851" lon="10.4393974"><ele>641.0</ele><time>2026-05-03T15:03:29Z</time></trkpt><trkpt lat="44.1791182" lon="10.4393282"><ele>640.0</ele><time>2026-05-03T15:03:30Z</time></trkpt><trkpt lat="44.179058" lon="10.4392475"><ele>639.0</ele><time>2026-05-03T15:03:31Z</time></trkpt><trkpt lat="44.1790056" lon="10.439152"><ele>638.0</ele><time>2026-05-03T15:03:32Z</time></trkpt><trkpt lat="44.1789596" lon="10.4390347"><ele>636.8</ele><time>2026-05-03T15:03:33Z</time></trkpt><trkpt lat="44.1789091" lon="10.4389158"><ele>635.5999999999999</ele><time>2026-05-03T15:03:33.999Z</time></trkpt><trkpt lat="44.1788534" lon="10.4388029"><ele>634.4000000000001</ele><time>2026-05-03T15:03:35Z</time></trkpt><trkpt lat="44.1787909" lon="10.4386917"><ele>633.2</ele><time>2026-05-03T15:03:36Z</time></trkpt><trkpt lat="44.1787275" lon="10.4385858"><ele>632.0</ele><time>2026-05-03T15:03:37Z</time></trkpt><trkpt lat="44.1786542" lon="10.43848"><ele>632.0</ele><time>2026-05-03T15:03:38Z</time></trkpt><trkpt lat="44.1785688" lon="10.4383805"><ele>632.0</ele><time>2026-05-03T15:03:39Z</time></trkpt><trkpt lat="44.1784707" lon="10.4383078"><ele>632.0</ele><time>2026-05-03T15:03:40Z</time></trkpt><trkpt lat="44.1783748" lon="10.4382568"><ele>632.0</ele><time>2026-05-03T15:03:41Z</time></trkpt><trkpt lat="44.178264" lon="10.4382226"><ele>632.0</ele><time>2026-05-03T15:03:41.999Z</time></trkpt><trkpt lat="44.1781561" lon="10.4381965"><ele>629.6</ele><time>2026-05-03T15:03:43Z</time></trkpt><trkpt lat="44.1780553" lon="10.4381653"><ele>627.2</ele><time>2026-05-03T15:03:44Z</time></trkpt><trkpt lat="44.177965" lon="10.438137"><ele>624.8</ele><time>2026-05-03T15:03:45Z</time></trkpt><trkpt lat="44.1778799" lon="10.4380993"><ele>622.4</ele><time>2026-05-03T15:03:45.999Z</time></trkpt><trkpt lat="44.1778015" lon="10.4380495"><ele>620.0</ele><time>2026-05-03T15:03:46.999Z</time></trkpt><trkpt lat="44.1777282" lon="10.4379817"><ele>622.4</ele><time>2026-05-03T15:03:48Z</time></trkpt><trkpt lat="44.1776804" lon="10.437884"><ele>624.8</ele><time>2026-05-03T15:03:48.999Z</time></trkpt><trkpt lat="44.1776134" lon="10.4377839"><ele>627.2</ele><time>2026-05-03T15:03:50Z</time></trkpt><trkpt lat="44.1775404" lon="10.4376896"><ele>629.6</ele><time>2026-05-03T15:03:51Z</time></trkpt><trkpt lat="44.1774702" lon="10.4376044"><ele>632.0</ele><time>2026-05-03T15:03:51.999Z</time></trkpt><trkpt lat="44.1773966" lon="10.4375191"><ele>633.4</ele><time>2026-05-03T15:03:53Z</time></trkpt><trkpt lat="44.1773162" lon="10.4374343"><ele>634.8000000000001</ele><time>2026-05-03T15:03:54Z</time></trkpt><trkpt lat="44.1772376" lon="10.4373542"><ele>636.2</ele><time>2026-05-03T15:03:55Z</time></trkpt><trkpt lat="44.1771598" lon="10.4372745"><ele>637.6</ele><time>2026-05-03T15:03:56Z</time></trkpt><trkpt lat="44.1770851" lon="10.4371945"><ele>639.0</ele><time>2026-05-03T15:03:57Z</time></trkpt><trkpt lat="44.177032" lon="10.4371239"><ele>636.3333333333334</ele><time>2026-05-03T15:03:58Z</time></trkpt><trkpt lat="44.1769916" lon="10.4370327"><ele>633.6666666666666</ele><time>2026-05-03T15:03:59Z</time></trkpt><trkpt lat="44.176956" lon="10.4369255"><ele>631.0</ele><time>2026-05-03T15:04:00Z</time></trkpt><trkpt lat="44.1769261" lon="10.436818"><ele>628.3333333333333</ele><time>2026-05-03T15:04:01Z</time></trkpt><trkpt lat="44.1769015" lon="10.4367092"><ele>625.6666666666666</ele><time>2026-05-03T15:04:02Z</time></trkpt><trkpt lat="44.1768772" lon="10.4365979"><ele>623.0</ele><time>2026-05-03T15:04:03Z</time></trkpt><trkpt lat="44.1768543" lon="10.4364814"><ele>623.0</ele><time>2026-05-03T15:04:04Z</time></trkpt><trkpt lat="44.1768308" lon="10.43636"><ele>623.0</ele><time>2026-05-03T15:04:05Z</time></trkpt><trkpt lat="44.1768065" lon="10.4362351"><ele>623.0</ele><time>2026-05-03T15:04:06Z</time></trkpt><trkpt lat="44.1767817" lon="10.4361115"><ele>623.0</ele><time>2026-05-03T15:04:06.999Z</time></trkpt><trkpt lat="44.1767615" lon="10.4359905"><ele>623.0</ele><time>2026-05-03T15:04:08Z</time></trkpt><trkpt lat="44.1767407" lon="10.435872"><ele>622.1666666666666</ele><time>2026-05-03T15:04:09Z</time></trkpt><trkpt lat="44.1767228" lon="10.4357546"><ele>621.3333333333333</ele><time>2026-05-03T15:04:10Z</time></trkpt><trkpt lat="44.176706" lon="10.4356355"><ele>620.5</ele><time>2026-05-03T15:04:11Z</time></trkpt><trkpt lat="44.1766901" lon="10.4355203"><ele>619.6666666666666</ele><time>2026-05-03T15:04:12Z</time></trkpt><trkpt lat="44.1766748" lon="10.4354075"><ele>618.8333333333334</ele><time>2026-05-03T15:04:13Z</time></trkpt><trkpt lat="44.176656" lon="10.4353022"><ele>618.0</ele><time>2026-05-03T15:04:14Z</time></trkpt><trkpt lat="44.176642" lon="10.4352023"><ele>617.0</ele><time>2026-05-03T15:04:14.999Z</time></trkpt><trkpt lat="44.1766253" lon="10.4351062"><ele>616.0</ele><time>2026-05-03T15:04:16Z</time></trkpt><trkpt lat="44.1766103" lon="10.4350169"><ele>615.0</ele><time>2026-05-03T15:04:17Z</time></trkpt><trkpt lat="44.1765867" lon="10.4348541"><ele>614.0</ele><time>2026-05-03T15:04:19Z</time></trkpt><trkpt lat="44.1765762" lon="10.4347204"><ele>613.0</ele><time>2026-05-03T15:04:20.999Z</time></trkpt><trkpt lat="44.1765954" lon="10.4345965"><ele>612.0</ele><time>2026-05-03T15:04:23Z</time></trkpt><trkpt lat="44.1766229" lon="10.4344903"><ele>611.7142857142857</ele><time>2026-05-03T15:04:25Z</time></trkpt><trkpt lat="44.1766239" lon="10.4343968"><ele>611.4285714285714</ele><time>2026-05-03T15:04:27Z</time></trkpt><trkpt lat="44.176604" lon="10.4342957"><ele>611.1428571428571</ele><time>2026-05-03T15:04:30Z</time></trkpt><trkpt lat="44.1765528" lon="10.4342072"><ele>610.8571428571429</ele><time>2026-05-03T15:04:34Z</time></trkpt><trkpt lat="44.1765026" lon="10.4341421"><ele>610.5714285714286</ele><time>2026-05-03T15:04:38Z</time></trkpt><trkpt lat="44.1764501" lon="10.4340865"><ele>610.2857142857143</ele><time>2026-05-03T15:04:42Z</time></trkpt><trkpt lat="44.1763957" lon="10.434033"><ele>610.0</ele><time>2026-05-03T15:04:45Z</time></trkpt><trkpt lat="44.1763418" lon="10.4339857"><ele>608.8333333333334</ele><time>2026-05-03T15:04:47Z</time></trkpt><trkpt lat="44.176264" lon="10.4338963"><ele>607.6666666666667</ele><time>2026-05-03T15:04:49Z</time></trkpt><trkpt lat="44.1761801" lon="10.4337695"><ele>606.5</ele><time>2026-05-03T15:04:50.996Z</time></trkpt><trkpt lat="44.1761388" lon="10.4336928"><ele>605.3333333333334</ele><time>2026-05-03T15:04:52Z</time></trkpt><trkpt lat="44.1760966" lon="10.433623"><ele>604.1666666666666</ele><time>2026-05-03T15:04:53Z</time></trkpt><trkpt lat="44.1760416" lon="10.433526"><ele>603.0</ele><time>2026-05-03T15:04:54Z</time></trkpt><trkpt lat="44.1759803" lon="10.4334301"><ele>602.8333333333334</ele><time>2026-05-03T15:04:55Z</time></trkpt><trkpt lat="44.1759135" lon="10.4333272"><ele>602.6666666666666</ele><time>2026-05-03T15:04:55.999Z</time></trkpt><trkpt lat="44.1758469" lon="10.4332283"><ele>602.5</ele><time>2026-05-03T15:04:57Z</time></trkpt><trkpt lat="44.1757848" lon="10.4331407"><ele>602.3333333333333</ele><time>2026-05-03T15:04:58Z</time></trkpt><trkpt lat="44.1757226" lon="10.433061"><ele>602.1666666666666</ele><time>2026-05-03T15:04:59Z</time></trkpt><trkpt lat="44.1756742" lon="10.4329855"><ele>602.0</ele><time>2026-05-03T15:05:00Z</time></trkpt><trkpt lat="44.1756289" lon="10.4328882"><ele>598.6666666666666</ele><time>2026-05-03T15:05:01Z</time></trkpt><trkpt lat="44.1756037" lon="10.432789"><ele>595.3333333333333</ele><time>2026-05-03T15:05:02Z</time></trkpt><trkpt lat="44.1755957" lon="10.4326901"><ele>592.0</ele><time>2026-05-03T15:05:03Z</time></trkpt><trkpt lat="44.1756035" lon="10.4325834"><ele>588.6666666666666</ele><time>2026-05-03T15:05:03.999Z</time></trkpt><trkpt lat="44.1756372" lon="10.432484"><ele>585.3333333333334</ele><time>2026-05-03T15:05:05Z</time></trkpt><trkpt lat="44.1756664" lon="10.4323799"><ele>582.0</ele><time>2026-05-03T15:05:06Z</time></trkpt><trkpt lat="44.1756867" lon="10.4322694"><ele>582.3333333333334</ele><time>2026-05-03T15:05:07Z</time></trkpt><trkpt lat="44.1756911" lon="10.4321569"><ele>582.6666666666666</ele><time>2026-05-03T15:05:07.999Z</time></trkpt><trkpt lat="44.1756719" lon="10.4320461"><ele>583.0</ele><time>2026-05-03T15:05:08.998Z</time></trkpt><trkpt lat="44.1756306" lon="10.4319387"><ele>583.3333333333333</ele><time>2026-05-03T15:05:09.999Z</time></trkpt><trkpt lat="44.1755902" lon="10.4318406"><ele>583.6666666666666</ele><time>2026-05-03T15:05:11Z</time></trkpt><trkpt lat="44.1755392" lon="10.4317437"><ele>584.0</ele><time>2026-05-03T15:05:12Z</time></trkpt><trkpt lat="44.175491" lon="10.4316493"><ele>584.0</ele><time>2026-05-03T15:05:13Z</time></trkpt><trkpt lat="44.1754439" lon="10.4315663"><ele>584.0</ele><time>2026-05-03T15:05:14Z</time></trkpt><trkpt lat="44.1753971" lon="10.4315003"><ele>584.0</ele><time>2026-05-03T15:05:15Z</time></trkpt><trkpt lat="44.1753478" lon="10.4314337"><ele>584.0</ele><time>2026-05-03T15:05:16Z</time></trkpt><trkpt lat="44.1752882" lon="10.4313887"><ele>584.0</ele><time>2026-05-03T15:05:17Z</time></trkpt><trkpt lat="44.175232" lon="10.4313417"><ele>584.0</ele><time>2026-05-03T15:05:18Z</time></trkpt><trkpt lat="44.1751613" lon="10.4312994"><ele>584.0</ele><time>2026-05-03T15:05:20Z</time></trkpt><trkpt lat="44.1750967" lon="10.4312632"><ele>583.7142857142857</ele><time>2026-05-03T15:05:23Z</time></trkpt><trkpt lat="44.175027" lon="10.4312379"><ele>583.4285714285714</ele><time>2026-05-03T15:05:27Z</time></trkpt><trkpt lat="44.1749607" lon="10.4312257"><ele>583.1428571428571</ele><time>2026-05-03T15:05:31.997Z</time></trkpt><trkpt lat="44.1748977" lon="10.4312277"><ele>582.8571428571429</ele><time>2026-05-03T15:05:35.999Z</time></trkpt><trkpt lat="44.1748271" lon="10.4312306"><ele>582.5714285714286</ele><time>2026-05-03T15:05:40Z</time></trkpt><trkpt lat="44.1747529" lon="10.4311899"><ele>582.2857142857142</ele><time>2026-05-03T15:05:44Z</time></trkpt><trkpt lat="44.174687" lon="10.4311339"><ele>582.0</ele><time>2026-05-03T15:05:48Z</time></trkpt><trkpt lat="44.1746349" lon="10.4310819"><ele>582.0</ele><time>2026-05-03T15:05:50.999Z</time></trkpt><trkpt lat="44.1745724" lon="10.4310117"><ele>582.0</ele><time>2026-05-03T15:05:54.995Z</time></trkpt><trkpt lat="44.1745424" lon="10.4309151"><ele>582.0</ele><time>2026-05-03T15:05:58.999Z</time></trkpt><trkpt lat="44.1745467" lon="10.4308119"><ele>582.0</ele><time>2026-05-03T15:06:02.997Z</time></trkpt><trkpt lat="44.1745688" lon="10.430719"><ele>582.0</ele><time>2026-05-03T15:06:06.997Z</time></trkpt><trkpt lat="44.1745803" lon="10.430621"><ele>582.0</ele><time>2026-05-03T15:06:10.996Z</time></trkpt><trkpt lat="44.174546" lon="10.4305425"><ele>582.0</ele><time>2026-05-03T15:06:13.996Z</time></trkpt><trkpt lat="44.1744794" lon="10.4305324"><ele>582.0</ele><time>2026-05-03T15:06:17Z</time></trkpt><trkpt lat="44.1744063" lon="10.4305516"><ele>582.0</ele><time>2026-05-03T15:06:21Z</time></trkpt><trkpt lat="44.174343" lon="10.4305881"><ele>582.0</ele><time>2026-05-03T15:06:24.996Z</time></trkpt><trkpt lat="44.1742767" lon="10.4306262"><ele>582.0</ele><time>2026-05-03T15:06:29Z</time></trkpt><trkpt lat="44.1742015" lon="10.4306132"><ele>582.0</ele><time>2026-05-03T15:06:33Z</time></trkpt><trkpt lat="44.1741428" lon="10.4305375"><ele>582.0</ele><time>2026-05-03T15:06:37Z</time></trkpt><trkpt lat="44.174123" lon="10.4304298"><ele>583.4285714285714</ele><time>2026-05-03T15:06:40.999Z</time></trkpt><trkpt lat="44.1741207" lon="10.430335"><ele>584.8571428571428</ele><time>2026-05-03T15:06:43.997Z</time></trkpt><trkpt lat="44.1740885" lon="10.4302394"><ele>586.2857142857142</ele><time>2026-05-03T15:06:47Z</time></trkpt><trkpt lat="44.1740104" lon="10.4301936"><ele>587.7142857142857</ele><time>2026-05-03T15:06:49.998Z</time></trkpt><trkpt lat="44.1739436" lon="10.4301766"><ele>589.1428571428571</ele><time>2026-05-03T15:06:51.997Z</time></trkpt><trkpt lat="44.1738733" lon="10.4301556"><ele>590.5714285714286</ele><time>2026-05-03T15:06:54Z</time></trkpt><trkpt lat="44.1737968" lon="10.4301317"><ele>592.0</ele><time>2026-05-03T15:06:56Z</time></trkpt><trkpt lat="44.1737196" lon="10.430102"><ele>592.0</ele><time>2026-05-03T15:06:58Z</time></trkpt><trkpt lat="44.1736442" lon="10.4300771"><ele>592.0</ele><time>2026-05-03T15:07:00Z</time></trkpt><trkpt lat="44.1735677" lon="10.4300563"><ele>592.0</ele><time>2026-05-03T15:07:02Z</time></trkpt><trkpt lat="44.1734895" lon="10.4300336"><ele>592.0</ele><time>2026-05-03T15:07:04Z</time></trkpt><trkpt lat="44.1734173" lon="10.4300196"><ele>592.0</ele><time>2026-05-03T15:07:06Z</time></trkpt><trkpt lat="44.1733485" lon="10.4300122"><ele>592.0</ele><time>2026-05-03T15:07:08Z</time></trkpt><trkpt lat="44.1732758" lon="10.4300041"><ele>592.0</ele><time>2026-05-03T15:07:10Z</time></trkpt><trkpt lat="44.1732038" lon="10.4299944"><ele>592.0</ele><time>2026-05-03T15:07:12Z</time></trkpt><trkpt lat="44.173125" lon="10.4299624"><ele>592.0</ele><time>2026-05-03T15:07:15Z</time></trkpt><trkpt lat="44.1730724" lon="10.4298954"><ele>592.0</ele><time>2026-05-03T15:07:18.999Z</time></trkpt><trkpt lat="44.1730121" lon="10.4298203"><ele>592.0</ele><time>2026-05-03T15:07:24Z</time></trkpt><trkpt lat="44.1729577" lon="10.4297409"><ele>592.0</ele><time>2026-05-03T15:07:27.995Z</time></trkpt><trkpt lat="44.1729162" lon="10.4296428"><ele>591.4285714285714</ele><time>2026-05-03T15:07:32Z</time></trkpt><trkpt lat="44.1728856" lon="10.4295444"><ele>590.8571428571429</ele><time>2026-05-03T15:07:35.999Z</time></trkpt><trkpt lat="44.1728597" lon="10.4294471"><ele>590.2857142857142</ele><time>2026-05-03T15:07:40Z</time></trkpt><trkpt lat="44.1728321" lon="10.4293583"><ele>589.7142857142858</ele><time>2026-05-03T15:07:44Z</time></trkpt><trkpt lat="44.1728066" lon="10.429269"><ele>589.1428571428571</ele><time>2026-05-03T15:07:48Z</time></trkpt><trkpt lat="44.172777" lon="10.4291844"><ele>588.5714285714286</ele><time>2026-05-03T15:07:52Z</time></trkpt><trkpt lat="44.1727457" lon="10.4290927"><ele>588.0</ele><time>2026-05-03T15:07:56Z</time></trkpt><trkpt lat="44.1727136" lon="10.4290075"><ele>588.0</ele><time>2026-05-03T15:08:00Z</time></trkpt><trkpt lat="44.1726827" lon="10.4289204"><ele>588.0</ele><time>2026-05-03T15:08:03.999Z</time></trkpt><trkpt lat="44.1726557" lon="10.4288313"><ele>588.0</ele><time>2026-05-03T15:08:08Z</time></trkpt><trkpt lat="44.1726311" lon="10.4287306"><ele>588.0</ele><time>2026-05-03T15:08:11.999Z</time></trkpt><trkpt lat="44.1726047" lon="10.42863"><ele>588.0</ele><time>2026-05-03T15:08:15.999Z</time></trkpt><trkpt lat="44.1725791" lon="10.4285431"><ele>588.0</ele><time>2026-05-03T15:08:20Z</time></trkpt><trkpt lat="44.1725492" lon="10.4284551"><ele>588.0</ele><time>2026-05-03T15:08:23.998Z</time></trkpt><trkpt lat="44.1725075" lon="10.4283783"><ele>587.2857142857143</ele><time>2026-05-03T15:08:27.999Z</time></trkpt><trkpt lat="44.172462" lon="10.4283107"><ele>586.5714285714286</ele><time>2026-05-03T15:08:32Z</time></trkpt><trkpt lat="44.172405" lon="10.4282481"><ele>585.8571428571429</ele><time>2026-05-03T15:08:36Z</time></trkpt><trkpt lat="44.1723354" lon="10.4282024"><ele>585.1428571428571</ele><time>2026-05-03T15:08:40Z</time></trkpt><trkpt lat="44.1722809" lon="10.4281407"><ele>584.4285714285714</ele><time>2026-05-03T15:08:43.999Z</time></trkpt><trkpt lat="44.1722225" lon="10.4280861"><ele>583.7142857142858</ele><time>2026-05-03T15:08:47.999Z</time></trkpt><trkpt lat="44.1721626" lon="10.42804"><ele>583.0</ele><time>2026-05-03T15:08:51.994Z</time></trkpt><trkpt lat="44.1720959" lon="10.4280049"><ele>583.0</ele><time>2026-05-03T15:08:56Z</time></trkpt><trkpt lat="44.172028" lon="10.4279873"><ele>583.0</ele><time>2026-05-03T15:09:00Z</time></trkpt><trkpt lat="44.1719632" lon="10.4279061"><ele>583.0</ele><time>2026-05-03T15:09:03Z</time></trkpt><trkpt lat="44.1719651" lon="10.4277963"><ele>583.0</ele><time>2026-05-03T15:09:04.999Z</time></trkpt><trkpt lat="44.1720121" lon="10.4276602"><ele>583.0</ele><time>2026-05-03T15:09:06.998Z</time></trkpt><trkpt lat="44.1720473" lon="10.4275828"><ele>583.0</ele><time>2026-05-03T15:09:08Z</time></trkpt><trkpt lat="44.1720848" lon="10.4275062"><ele>585.1666666666667</ele><time>2026-05-03T15:09:09Z</time></trkpt><trkpt lat="44.1721141" lon="10.4274285"><ele>587.3333333333334</ele><time>2026-05-03T15:09:10Z</time></trkpt><trkpt lat="44.1721646" lon="10.4272921"><ele>589.5</ele><time>2026-05-03T15:09:12Z</time></trkpt><trkpt lat="44.1721644" lon="10.4271644"><ele>591.6666666666666</ele><time>2026-05-03T15:09:13.999Z</time></trkpt><trkpt lat="44.1721122" lon="10.4271037"><ele>593.8333333333333</ele><time>2026-05-03T15:09:14.999Z</time></trkpt><trkpt lat="44.1720168" lon="10.4270976"><ele>596.0</ele><time>2026-05-03T15:09:17Z</time></trkpt><trkpt lat="44.1719274" lon="10.4271497"><ele>596.0</ele><time>2026-05-03T15:09:18.999Z</time></trkpt><trkpt lat="44.1718364" lon="10.42721"><ele>596.0</ele><time>2026-05-03T15:09:21Z</time></trkpt><trkpt lat="44.1717376" lon="10.427267"><ele>596.0</ele><time>2026-05-03T15:09:22.997Z</time></trkpt><trkpt lat="44.1716441" lon="10.4272962"><ele>596.0</ele><time>2026-05-03T15:09:25Z</time></trkpt><trkpt lat="44.1715381" lon="10.4273068"><ele>596.0</ele><time>2026-05-03T15:09:27Z</time></trkpt><trkpt lat="44.1714219" lon="10.4272813"><ele>592.5</ele><time>2026-05-03T15:09:29Z</time></trkpt><trkpt lat="44.1713172" lon="10.4272598"><ele>589.0</ele><time>2026-05-03T15:09:31Z</time></trkpt><trkpt lat="44.1712472" lon="10.4272444"><ele>585.5</ele><time>2026-05-03T15:09:32Z</time></trkpt><trkpt lat="44.1711737" lon="10.4272368"><ele>582.0</ele><time>2026-05-03T15:09:33Z</time></trkpt><trkpt lat="44.1710986" lon="10.4272204"><ele>578.5</ele><time>2026-05-03T15:09:34Z</time></trkpt><trkpt lat="44.1710233" lon="10.4271934"><ele>575.0</ele><time>2026-05-03T15:09:35Z</time></trkpt><trkpt lat="44.1709501" lon="10.4271715"><ele>574.8333333333333</ele><time>2026-05-03T15:09:36Z</time></trkpt><trkpt lat="44.1708889" lon="10.4271338"><ele>574.6666666666666</ele><time>2026-05-03T15:09:37Z</time></trkpt><trkpt lat="44.1708278" lon="10.4270869"><ele>574.5</ele><time>2026-05-03T15:09:38Z</time></trkpt><trkpt lat="44.1707771" lon="10.4270077"><ele>574.3333333333334</ele><time>2026-05-03T15:09:39Z</time></trkpt><trkpt lat="44.1707313" lon="10.4269145"><ele>574.1666666666667</ele><time>2026-05-03T15:09:39.999Z</time></trkpt><trkpt lat="44.1706866" lon="10.4268115"><ele>574.0</ele><time>2026-05-03T15:09:41Z</time></trkpt><trkpt lat="44.1706383" lon="10.4267002"><ele>574.0</ele><time>2026-05-03T15:09:41.999Z</time></trkpt><trkpt lat="44.1705934" lon="10.4265919"><ele>574.0</ele><time>2026-05-03T15:09:43Z</time></trkpt><trkpt lat="44.1705412" lon="10.4264709"><ele>574.0</ele><time>2026-05-03T15:09:43.998Z</time></trkpt><trkpt lat="44.1704798" lon="10.4263675"><ele>574.0</ele><time>2026-05-03T15:09:45Z</time></trkpt><trkpt lat="44.1704077" lon="10.4262832"><ele>574.0</ele><time>2026-05-03T15:09:45.996Z</time></trkpt><trkpt lat="44.1703233" lon="10.4262243"><ele>578.1666666666667</ele><time>2026-05-03T15:09:47Z</time></trkpt><trkpt lat="44.1702421" lon="10.4261927"><ele>582.3333333333334</ele><time>2026-05-03T15:09:48Z</time></trkpt><trkpt lat="44.1701622" lon="10.426172"><ele>586.5</ele><time>2026-05-03T15:09:48.999Z</time></trkpt><trkpt lat="44.1700897" lon="10.4261557"><ele>590.6666666666666</ele><time>2026-05-03T15:09:50Z</time></trkpt><trkpt lat="44.170015" lon="10.4261548"><ele>594.8333333333333</ele><time>2026-05-03T15:09:50.999Z</time></trkpt><trkpt lat="44.1699456" lon="10.4261653"><ele>599.0</ele><time>2026-05-03T15:09:51.999Z</time></trkpt><trkpt lat="44.1698763" lon="10.4261737"><ele>597.2</ele><time>2026-05-03T15:09:53Z</time></trkpt><trkpt lat="44.1697564" lon="10.4261871"><ele>595.4</ele><time>2026-05-03T15:09:54.999Z</time></trkpt><trkpt lat="44.1696452" lon="10.4261926"><ele>593.6</ele><time>2026-05-03T15:09:56.999Z</time></trkpt><trkpt lat="44.1695451" lon="10.4261505"><ele>591.8</ele><time>2026-05-03T15:09:59Z</time></trkpt><trkpt lat="44.1694693" lon="10.426063"><ele>590.0</ele><time>2026-05-03T15:10:00.999Z</time></trkpt><trkpt lat="44.1694153" lon="10.4259602"><ele>590.0000000000001</ele><time>2026-05-03T15:10:03Z</time></trkpt><trkpt lat="44.1693733" lon="10.4258674"><ele>590.0</ele><time>2026-05-03T15:10:05Z</time></trkpt><trkpt lat="44.1693231" lon="10.4257846"><ele>590.0</ele><time>2026-05-03T15:10:07Z</time></trkpt><trkpt lat="44.1692689" lon="10.4257323"><ele>590.0</ele><time>2026-05-03T15:10:08.999Z</time></trkpt><trkpt lat="44.1691959" lon="10.4256768"><ele>590.0</ele><time>2026-05-03T15:10:11.999Z</time></trkpt><trkpt lat="44.1691395" lon="10.4256315"><ele>590.0000000000001</ele><time>2026-05-03T15:10:16Z</time></trkpt><trkpt lat="44.1690822" lon="10.4255903"><ele>590.0</ele><time>2026-05-03T15:10:20Z</time></trkpt><trkpt lat="44.1690204" lon="10.4255593"><ele>588.8571428571429</ele><time>2026-05-03T15:10:24Z</time></trkpt><trkpt lat="44.168946" lon="10.4255378"><ele>587.7142857142858</ele><time>2026-05-03T15:10:28Z</time></trkpt><trkpt lat="44.1688812" lon="10.4255444"><ele>586.5714285714286</ele><time>2026-05-03T15:10:32Z</time></trkpt><trkpt lat="44.1688182" lon="10.4255875"><ele>585.4285714285714</ele><time>2026-05-03T15:10:36Z</time></trkpt><trkpt lat="44.1687542" lon="10.4256021"><ele>584.2857142857142</ele><time>2026-05-03T15:10:40Z</time></trkpt><trkpt lat="44.1686877" lon="10.4255649"><ele>583.1428571428571</ele><time>2026-05-03T15:10:43.999Z</time></trkpt><trkpt lat="44.1686345" lon="10.4255176"><ele>582.0</ele><time>2026-05-03T15:10:47.999Z</time></trkpt><trkpt lat="44.1685693" lon="10.4254746"><ele>587.4285714285714</ele><time>2026-05-03T15:10:52Z</time></trkpt><trkpt lat="44.1685099" lon="10.4254357"><ele>592.8571428571428</ele><time>2026-05-03T15:10:56Z</time></trkpt><trkpt lat="44.1684419" lon="10.4254096"><ele>598.2857142857142</ele><time>2026-05-03T15:11:00Z</time></trkpt><trkpt lat="44.1683757" lon="10.4253841"><ele>603.7142857142857</ele><time>2026-05-03T15:11:04Z</time></trkpt><trkpt lat="44.1683091" lon="10.4253541"><ele>609.1428571428571</ele><time>2026-05-03T15:11:07.999Z</time></trkpt><trkpt lat="44.1682474" lon="10.4253246"><ele>614.5714285714286</ele><time>2026-05-03T15:11:12Z</time></trkpt><trkpt lat="44.1681834" lon="10.4252714"><ele>620.0</ele><time>2026-05-03T15:11:16.999Z</time></trkpt><trkpt lat="44.1681199" lon="10.425236"><ele>620.0</ele><time>2026-05-03T15:11:21Z</time></trkpt><trkpt lat="44.1680443" lon="10.425221"><ele>620.0</ele><time>2026-05-03T15:11:24.998Z</time></trkpt><trkpt lat="44.1679704" lon="10.4252212"><ele>620.0</ele><time>2026-05-03T15:11:29Z</time></trkpt><trkpt lat="44.1678982" lon="10.4252226"><ele>620.0</ele><time>2026-05-03T15:11:32.999Z</time></trkpt><trkpt lat="44.1678278" lon="10.4252202"><ele>620.0</ele><time>2026-05-03T15:11:37Z</time></trkpt><trkpt lat="44.1677619" lon="10.4252228"><ele>620.0</ele><time>2026-05-03T15:11:41Z</time></trkpt><trkpt lat="44.1676965" lon="10.425214"><ele>620.0</ele><time>2026-05-03T15:11:44.999Z</time></trkpt><trkpt lat="44.1676323" lon="10.4251961"><ele>620.0</ele><time>2026-05-03T15:11:49Z</time></trkpt><trkpt lat="44.16756" lon="10.4251541"><ele>620.0</ele><time>2026-05-03T15:11:53.999Z</time></trkpt><trkpt lat="44.1674891" lon="10.4251043"><ele>620.0</ele><time>2026-05-03T15:11:59Z</time></trkpt><trkpt lat="44.1674203" lon="10.4250617"><ele>620.0</ele><time>2026-05-03T15:12:04Z</time></trkpt><trkpt lat="44.1673493" lon="10.4250247"><ele>620.0</ele><time>2026-05-03T15:12:07.995Z</time></trkpt><trkpt lat="44.1672879" lon="10.4249826"><ele>620.0</ele><time>2026-05-03T15:12:12Z</time></trkpt><trkpt lat="44.1672231" lon="10.4249441"><ele>620.0</ele><time>2026-05-03T15:12:16Z</time></trkpt><trkpt lat="44.1671554" lon="10.4249243"><ele>620.5714285714286</ele><time>2026-05-03T15:12:20Z</time></trkpt><trkpt lat="44.167087" lon="10.4248981"><ele>621.1428571428571</ele><time>2026-05-03T15:12:25Z</time></trkpt><trkpt lat="44.1670254" lon="10.4248577"><ele>621.7142857142858</ele><time>2026-05-03T15:12:29Z</time></trkpt><trkpt lat="44.1669698" lon="10.4248117"><ele>622.2857142857142</ele><time>2026-05-03T15:12:33Z</time></trkpt><trkpt lat="44.1669155" lon="10.4247376"><ele>622.8571428571428</ele><time>2026-05-03T15:12:39Z</time></trkpt><trkpt lat="44.1668797" lon="10.4246633"><ele>623.4285714285714</ele><time>2026-05-03T15:12:42.999Z</time></trkpt><trkpt lat="44.1668593" lon="10.4245742"><ele>624.0</ele><time>2026-05-03T15:12:47Z</time></trkpt><trkpt lat="44.1668475" lon="10.4244858"><ele>624.0</ele><time>2026-05-03T15:12:50.996Z</time></trkpt><trkpt lat="44.1668422" lon="10.4243951"><ele>624.0</ele><time>2026-05-03T15:12:54.998Z</time></trkpt><trkpt lat="44.166839" lon="10.4242981"><ele>624.0</ele><time>2026-05-03T15:12:58.999Z</time></trkpt><trkpt lat="44.166818" lon="10.4241927"><ele>624.0</ele><time>2026-05-03T15:13:03.996Z</time></trkpt><trkpt lat="44.1667942" lon="10.4241083"><ele>624.0</ele><time>2026-05-03T15:13:08Z</time></trkpt><trkpt lat="44.1667657" lon="10.4240291"><ele>624.0</ele><time>2026-05-03T15:13:11.999Z</time></trkpt><trkpt lat="44.1667137" lon="10.4239392"><ele>624.0</ele><time>2026-05-03T15:13:16Z</time></trkpt><trkpt lat="44.1666571" lon="10.4238898"><ele>624.0</ele><time>2026-05-03T15:13:20Z</time></trkpt><trkpt lat="44.1665924" lon="10.4238409"><ele>624.0</ele><time>2026-05-03T15:13:24.999Z</time></trkpt><trkpt lat="44.1665224" lon="10.4238048"><ele>624.0</ele><time>2026-05-03T15:13:29Z</time></trkpt><trkpt lat="44.1664585" lon="10.4237732"><ele>624.0</ele><time>2026-05-03T15:13:33Z</time></trkpt><trkpt lat="44.1664024" lon="10.423712"><ele>624.0</ele><time>2026-05-03T15:13:38Z</time></trkpt><trkpt lat="44.1663458" lon="10.4236449"><ele>624.0</ele><time>2026-05-03T15:13:42Z</time></trkpt><trkpt lat="44.1663028" lon="10.4235759"><ele>624.0</ele><time>2026-05-03T15:13:45.996Z</time></trkpt><trkpt lat="44.1662498" lon="10.4235029"><ele>624.4285714285714</ele><time>2026-05-03T15:13:51Z</time></trkpt><trkpt lat="44.1661986" lon="10.423449"><ele>624.8571428571428</ele><time>2026-05-03T15:13:55Z</time></trkpt><trkpt lat="44.1661418" lon="10.4234104"><ele>625.2857142857142</ele><time>2026-05-03T15:13:57.999Z</time></trkpt><trkpt lat="44.1660753" lon="10.4233832"><ele>625.7142857142858</ele><time>2026-05-03T15:14:00.999Z</time></trkpt><trkpt lat="44.1660095" lon="10.4233701"><ele>626.1428571428571</ele><time>2026-05-03T15:14:03.999Z</time></trkpt><trkpt lat="44.1659341" lon="10.423354"><ele>626.5714285714286</ele><time>2026-05-03T15:14:08Z</time></trkpt><trkpt lat="44.1658688" lon="10.4233127"><ele>627.0</ele><time>2026-05-03T15:14:13Z</time></trkpt><trkpt lat="44.1659049" lon="10.4232381"><ele>627.0</ele><time>2026-05-03T15:14:19Z</time></trkpt><trkpt lat="44.1659743" lon="10.4232487"><ele>627.0</ele><time>2026-05-03T15:14:24Z</time></trkpt><trkpt lat="44.1660427" lon="10.4232473"><ele>627.0</ele><time>2026-05-03T15:14:30Z</time></trkpt><trkpt lat="44.1661115" lon="10.4232508"><ele>627.0</ele><time>2026-05-03T15:14:34.999Z</time></trkpt><trkpt lat="44.1661882" lon="10.4232794"><ele>627.0</ele><time>2026-05-03T15:14:39Z</time></trkpt><trkpt lat="44.1662584" lon="10.4233383"><ele>627.0</ele><time>2026-05-03T15:14:43Z</time></trkpt><trkpt lat="44.1663091" lon="10.4233955"><ele>627.0</ele><time>2026-05-03T15:14:46Z</time></trkpt><trkpt lat="44.1663746" lon="10.4234538"><ele>627.0</ele><time>2026-05-03T15:14:50Z</time></trkpt><trkpt lat="44.1664434" lon="10.423441"><ele>627.0</ele><time>2026-05-03T15:14:54Z</time></trkpt><trkpt lat="44.1664612" lon="10.423355"><ele>627.0</ele><time>2026-05-03T15:14:58Z</time></trkpt><trkpt lat="44.1664194" lon="10.4232691"><ele>627.0</ele><time>2026-05-03T15:15:02Z</time></trkpt><trkpt lat="44.1663613" lon="10.4231951"><ele>627.0</ele><time>2026-05-03T15:15:07Z</time></trkpt><trkpt lat="44.166306" lon="10.4231266"><ele>627.0</ele><time>2026-05-03T15:15:11Z</time></trkpt><trkpt lat="44.1662546" lon="10.4230584"><ele>627.0</ele><time>2026-05-03T15:15:15Z</time></trkpt><trkpt lat="44.1661964" lon="10.4229885"><ele>629.8571428571429</ele><time>2026-05-03T15:15:19Z</time></trkpt><trkpt lat="44.1661395" lon="10.4229191"><ele>632.7142857142857</ele><time>2026-05-03T15:15:22.996Z</time></trkpt><trkpt lat="44.1660852" lon="10.4228745"><ele>635.5714285714286</ele><time>2026-05-03T15:15:27Z</time></trkpt><trkpt lat="44.1660202" lon="10.4228262"><ele>638.4285714285714</ele><time>2026-05-03T15:15:31Z</time></trkpt><trkpt lat="44.1659806" lon="10.4227432"><ele>641.2857142857143</ele><time>2026-05-03T15:15:35Z</time></trkpt><trkpt lat="44.1659607" lon="10.4226419"><ele>644.1428571428571</ele><time>2026-05-03T15:15:39Z</time></trkpt><trkpt lat="44.1659616" lon="10.4225471"><ele>647.0</ele><time>2026-05-03T15:15:43Z</time></trkpt><trkpt lat="44.1659611" lon="10.4224438"><ele>647.0</ele><time>2026-05-03T15:15:46.999Z</time></trkpt><trkpt lat="44.165969" lon="10.4223486"><ele>647.0</ele><time>2026-05-03T15:15:51Z</time></trkpt><trkpt lat="44.1659812" lon="10.4222525"><ele>647.0</ele><time>2026-05-03T15:15:54.999Z</time></trkpt><trkpt lat="44.1659943" lon="10.4221472"><ele>647.0</ele><time>2026-05-03T15:15:58.999Z</time></trkpt><trkpt lat="44.1660108" lon="10.422045"><ele>647.0</ele><time>2026-05-03T15:16:03Z</time></trkpt><trkpt lat="44.1660274" lon="10.4219431"><ele>647.0</ele><time>2026-05-03T15:16:08Z</time></trkpt><trkpt lat="44.1660371" lon="10.4218403"><ele>647.0</ele><time>2026-05-03T15:16:11.999Z</time></trkpt><trkpt lat="44.1660523" lon="10.4217378"><ele>649.0</ele><time>2026-05-03T15:16:16Z</time></trkpt><trkpt lat="44.1660654" lon="10.4216364"><ele>651.0</ele><time>2026-05-03T15:16:19.999Z</time></trkpt><trkpt lat="44.1660598" lon="10.4215372"><ele>653.0</ele><time>2026-05-03T15:16:24Z</time></trkpt><trkpt lat="44.1660621" lon="10.4214283"><ele>655.0</ele><time>2026-05-03T15:16:27.998Z</time></trkpt><trkpt lat="44.1660519" lon="10.4213205"><ele>657.0</ele><time>2026-05-03T15:16:32Z</time></trkpt><trkpt lat="44.1660413" lon="10.4212195"><ele>659.0</ele><time>2026-05-03T15:16:36Z</time></trkpt><trkpt lat="44.1660307" lon="10.4211239"><ele>661.0</ele><time>2026-05-03T15:16:39.999Z</time></trkpt><trkpt lat="44.1660312" lon="10.4210209"><ele>662.2857142857142</ele><time>2026-05-03T15:16:44Z</time></trkpt><trkpt lat="44.1660288" lon="10.4209222"><ele>663.5714285714286</ele><time>2026-05-03T15:16:48Z</time></trkpt><trkpt lat="44.1660149" lon="10.4208185"><ele>664.8571428571429</ele><time>2026-05-03T15:16:51.999Z</time></trkpt><trkpt lat="44.1660216" lon="10.4207191"><ele>666.1428571428571</ele><time>2026-05-03T15:16:56Z</time></trkpt><trkpt lat="44.1660284" lon="10.4206274"><ele>667.4285714285714</ele><time>2026-05-03T15:16:59.997Z</time></trkpt><trkpt lat="44.1660187" lon="10.4205331"><ele>668.7142857142857</ele><time>2026-05-03T15:17:03.999Z</time></trkpt><trkpt lat="44.1659913" lon="10.4204278"><ele>670.0</ele><time>2026-05-03T15:17:08Z</time></trkpt><trkpt lat="44.1659265" lon="10.4203633"><ele>669.1666666666667</ele><time>2026-05-03T15:17:12Z</time></trkpt><trkpt lat="44.1658512" lon="10.4203328"><ele>668.3333333333334</ele><time>2026-05-03T15:17:16Z</time></trkpt><trkpt lat="44.1657812" lon="10.420288"><ele>667.5</ele><time>2026-05-03T15:17:19.998Z</time></trkpt><trkpt lat="44.1657298" lon="10.4202104"><ele>666.6666666666666</ele><time>2026-05-03T15:17:24Z</time></trkpt><trkpt lat="44.1656843" lon="10.4201191"><ele>665.8333333333333</ele><time>2026-05-03T15:17:28Z</time></trkpt><trkpt lat="44.1656516" lon="10.4200225"><ele>665.0</ele><time>2026-05-03T15:17:31.997Z</time></trkpt><trkpt lat="44.1656196" lon="10.4199278"><ele>665.0</ele><time>2026-05-03T15:17:36Z</time></trkpt><trkpt lat="44.1655972" lon="10.4198307"><ele>665.0</ele><time>2026-05-03T15:17:40Z</time></trkpt><trkpt lat="44.1655736" lon="10.4197422"><ele>665.0</ele><time>2026-05-03T15:17:44Z</time></trkpt><trkpt lat="44.1655411" lon="10.4196409"><ele>665.0</ele><time>2026-05-03T15:17:48.999Z</time></trkpt><trkpt lat="44.1655144" lon="10.4195396"><ele>665.0</ele><time>2026-05-03T15:17:53Z</time></trkpt><trkpt lat="44.1654897" lon="10.4194342"><ele>665.0</ele><time>2026-05-03T15:17:57Z</time></trkpt><trkpt lat="44.1654604" lon="10.4193357"><ele>665.2857142857143</ele><time>2026-05-03T15:18:01Z</time></trkpt><trkpt lat="44.1654282" lon="10.4192473"><ele>665.5714285714286</ele><time>2026-05-03T15:18:05Z</time></trkpt><trkpt lat="44.1653956" lon="10.419171"><ele>665.8571428571429</ele><time>2026-05-03T15:18:07.999Z</time></trkpt><trkpt lat="44.1653645" lon="10.4190698"><ele>666.1428571428571</ele><time>2026-05-03T15:18:12Z</time></trkpt><trkpt lat="44.1653283" lon="10.4189742"><ele>666.4285714285714</ele><time>2026-05-03T15:18:16Z</time></trkpt><trkpt lat="44.1653017" lon="10.4188857"><ele>666.7142857142858</ele><time>2026-05-03T15:18:20Z</time></trkpt><trkpt lat="44.1653299" lon="10.4187911"><ele>667.0</ele><time>2026-05-03T15:18:24Z</time></trkpt><trkpt lat="44.1653991" lon="10.4187827"><ele>667.0000000000001</ele><time>2026-05-03T15:18:27.999Z</time></trkpt><trkpt lat="44.1654661" lon="10.4188286"><ele>667.0</ele><time>2026-05-03T15:18:31.999Z</time></trkpt><trkpt lat="44.1655342" lon="10.4188717"><ele>667.0</ele><time>2026-05-03T15:18:36Z</time></trkpt><trkpt lat="44.1655926" lon="10.4189188"><ele>667.0</ele><time>2026-05-03T15:18:39.999Z</time></trkpt><trkpt lat="44.1656515" lon="10.4189705"><ele>667.0</ele><time>2026-05-03T15:18:44Z</time></trkpt><trkpt lat="44.1657186" lon="10.419028"><ele>667.0000000000001</ele><time>2026-05-03T15:18:47.999Z</time></trkpt><trkpt lat="44.1657874" lon="10.4190716"><ele>667.0</ele><time>2026-05-03T15:18:52Z</time></trkpt><trkpt lat="44.1658451" lon="10.4191117"><ele>669.8571428571429</ele><time>2026-05-03T15:18:56Z</time></trkpt><trkpt lat="44.1659142" lon="10.4191545"><ele>672.7142857142858</ele><time>2026-05-03T15:19:00Z</time></trkpt><trkpt lat="44.1659871" lon="10.4191935"><ele>675.5714285714287</ele><time>2026-05-03T15:19:04Z</time></trkpt><trkpt lat="44.166058" lon="10.4192434"><ele>678.4285714285714</ele><time>2026-05-03T15:19:08Z</time></trkpt><trkpt lat="44.1661098" lon="10.4192974"><ele>681.2857142857142</ele><time>2026-05-03T15:19:12Z</time></trkpt><trkpt lat="44.1661741" lon="10.4193303"><ele>684.1428571428572</ele><time>2026-05-03T15:19:16Z</time></trkpt><trkpt lat="44.1662365" lon="10.4193103"><ele>687.0</ele><time>2026-05-03T15:19:19.999Z</time></trkpt><trkpt lat="44.1662585" lon="10.4192075"><ele>687.0</ele><time>2026-05-03T15:19:25Z</time></trkpt><trkpt lat="44.1662372" lon="10.419114"><ele>687.0</ele><time>2026-05-03T15:19:29Z</time></trkpt><trkpt lat="44.1662074" lon="10.419029"><ele>687.0</ele><time>2026-05-03T15:19:32.999Z</time></trkpt><trkpt lat="44.1661811" lon="10.418932"><ele>687.0</ele><time>2026-05-03T15:19:37Z</time></trkpt><trkpt lat="44.1661539" lon="10.4188354"><ele>687.0</ele><time>2026-05-03T15:19:40.999Z</time></trkpt><trkpt lat="44.1661128" lon="10.4187471"><ele>687.0</ele><time>2026-05-03T15:19:45Z</time></trkpt><trkpt lat="44.1660777" lon="10.4186553"><ele>687.0</ele><time>2026-05-03T15:19:49Z</time></trkpt><trkpt lat="44.1660536" lon="10.4185642"><ele>689.1666666666666</ele><time>2026-05-03T15:19:52.999Z</time></trkpt><trkpt lat="44.1660327" lon="10.4184752"><ele>691.3333333333334</ele><time>2026-05-03T15:19:57Z</time></trkpt><trkpt lat="44.1659983" lon="10.4183893"><ele>693.5</ele><time>2026-05-03T15:20:01Z</time></trkpt><trkpt lat="44.1659432" lon="10.4183013"><ele>695.6666666666667</ele><time>2026-05-03T15:20:05Z</time></trkpt><trkpt lat="44.1658845" lon="10.4182277"><ele>697.8333333333334</ele><time>2026-05-03T15:20:09Z</time></trkpt><trkpt lat="44.1658313" lon="10.4181543"><ele>700.0</ele><time>2026-05-03T15:20:13Z</time></trkpt><trkpt lat="44.165778" lon="10.4180813"><ele>700.0</ele><time>2026-05-03T15:20:17Z</time></trkpt><trkpt lat="44.1657351" lon="10.4180014"><ele>700.0</ele><time>2026-05-03T15:20:21Z</time></trkpt><trkpt lat="44.1656864" lon="10.4179165"><ele>700.0</ele><time>2026-05-03T15:20:25Z</time></trkpt><trkpt lat="44.1656514" lon="10.4178238"><ele>700.0</ele><time>2026-05-03T15:20:29Z</time></trkpt><trkpt lat="44.1656226" lon="10.4177364"><ele>700.0</ele><time>2026-05-03T15:20:33Z</time></trkpt><trkpt lat="44.1655692" lon="10.4176491"><ele>700.0</ele><time>2026-05-03T15:20:36.998Z</time></trkpt><trkpt lat="44.1654996" lon="10.4175912"><ele>704.8333333333334</ele><time>2026-05-03T15:20:41Z</time></trkpt><trkpt lat="44.165417" lon="10.4175874"><ele>709.6666666666667</ele><time>2026-05-03T15:20:45Z</time></trkpt><trkpt lat="44.1653383" lon="10.417587"><ele>714.5</ele><time>2026-05-03T15:20:49Z</time></trkpt><trkpt lat="44.1652684" lon="10.4175904"><ele>719.3333333333334</ele><time>2026-05-03T15:20:53Z</time></trkpt><trkpt lat="44.1651985" lon="10.4175975"><ele>724.1666666666666</ele><time>2026-05-03T15:20:57Z</time></trkpt><trkpt lat="44.165127" lon="10.4176233"><ele>729.0</ele><time>2026-05-03T15:21:01Z</time></trkpt><trkpt lat="44.1650564" lon="10.4176596"><ele>729.0</ele><time>2026-05-03T15:21:05Z</time></trkpt><trkpt lat="44.164982" lon="10.4176746"><ele>729.0</ele><time>2026-05-03T15:21:09Z</time></trkpt><trkpt lat="44.1649" lon="10.4176572"><ele>729.0</ele><time>2026-05-03T15:21:13Z</time></trkpt><trkpt lat="44.1648415" lon="10.4176168"><ele>729.0</ele><time>2026-05-03T15:21:15.999Z</time></trkpt><trkpt lat="44.1647873" lon="10.4175694"><ele>729.0</ele><time>2026-05-03T15:21:18.998Z</time></trkpt><trkpt lat="44.1647299" lon="10.417526"><ele>729.0</ele><time>2026-05-03T15:21:22Z</time></trkpt><trkpt lat="44.1646663" lon="10.4175024"><ele>729.0</ele><time>2026-05-03T15:21:25Z</time></trkpt><trkpt lat="44.1645832" lon="10.4175111"><ele>729.1428571428572</ele><time>2026-05-03T15:21:28.996Z</time></trkpt><trkpt lat="44.1645185" lon="10.4175518"><ele>729.2857142857142</ele><time>2026-05-03T15:21:32Z</time></trkpt><trkpt lat="44.164454" lon="10.4175786"><ele>729.4285714285714</ele><time>2026-05-03T15:21:34.998Z</time></trkpt><trkpt lat="44.1643908" lon="10.4176021"><ele>729.5714285714287</ele><time>2026-05-03T15:21:38Z</time></trkpt><trkpt lat="44.1643279" lon="10.4176168"><ele>729.7142857142858</ele><time>2026-05-03T15:21:41Z</time></trkpt><trkpt lat="44.1642644" lon="10.417627"><ele>729.8571428571429</ele><time>2026-05-03T15:21:43.996Z</time></trkpt><trkpt lat="44.1641964" lon="10.4176264"><ele>730.0</ele><time>2026-05-03T15:21:46.997Z</time></trkpt><trkpt lat="44.1641322" lon="10.4176172"><ele>730.0000000000001</ele><time>2026-05-03T15:21:49.996Z</time></trkpt><trkpt lat="44.1640649" lon="10.4176152"><ele>730.0</ele><time>2026-05-03T15:21:53Z</time></trkpt><trkpt lat="44.1640052" lon="10.4175808"><ele>730.0</ele><time>2026-05-03T15:21:55.994Z</time></trkpt><trkpt lat="44.1639496" lon="10.4175324"><ele>730.0</ele><time>2026-05-03T15:22:00Z</time></trkpt><trkpt lat="44.1638886" lon="10.4174649"><ele>730.0</ele><time>2026-05-03T15:22:04Z</time></trkpt><trkpt lat="44.1638196" lon="10.4174092"><ele>730.0000000000001</ele><time>2026-05-03T15:22:07.999Z</time></trkpt><trkpt lat="44.1637659" lon="10.4173611"><ele>730.0</ele><time>2026-05-03T15:22:10.995Z</time></trkpt><trkpt lat="44.1636975" lon="10.4172994"><ele>731.0000000000001</ele><time>2026-05-03T15:22:14.996Z</time></trkpt><trkpt lat="44.1636303" lon="10.4172562"><ele>732.0</ele><time>2026-05-03T15:22:17.999Z</time></trkpt><trkpt lat="44.1635634" lon="10.4172038"><ele>733.0</ele><time>2026-05-03T15:22:20.994Z</time></trkpt><trkpt lat="44.1635169" lon="10.4171126"><ele>734.0</ele><time>2026-05-03T15:22:24.999Z</time></trkpt><trkpt lat="44.1635083" lon="10.4170196"><ele>735.0</ele><time>2026-05-03T15:22:28Z</time></trkpt><trkpt lat="44.1635224" lon="10.416908"><ele>736.0000000000001</ele><time>2026-05-03T15:22:31.999Z</time></trkpt><trkpt lat="44.1635171" lon="10.4168173"><ele>737.0</ele><time>2026-05-03T15:22:34.994Z</time></trkpt><trkpt lat="44.1635015" lon="10.4167287"><ele>737.0000000000001</ele><time>2026-05-03T15:22:38Z</time></trkpt><trkpt lat="44.1634757" lon="10.4166315"><ele>737.0</ele><time>2026-05-03T15:22:41.998Z</time></trkpt><trkpt lat="44.1634565" lon="10.4165225"><ele>737.0</ele><time>2026-05-03T15:22:46Z</time></trkpt><trkpt lat="44.1634268" lon="10.4164319"><ele>737.0</ele><time>2026-05-03T15:22:49Z</time></trkpt><trkpt lat="44.1633841" lon="10.4163487"><ele>737.0</ele><time>2026-05-03T15:22:52Z</time></trkpt><trkpt lat="44.1633226" lon="10.4162945"><ele>737.0000000000001</ele><time>2026-05-03T15:22:55Z</time></trkpt><trkpt lat="44.1632535" lon="10.416264"><ele>737.0</ele><time>2026-05-03T15:22:58Z</time></trkpt><trkpt lat="44.1631859" lon="10.4162514"><ele>743.3333333333333</ele><time>2026-05-03T15:23:01Z</time></trkpt><trkpt lat="44.1631048" lon="10.4162255"><ele>749.6666666666666</ele><time>2026-05-03T15:23:05Z</time></trkpt><trkpt lat="44.1630283" lon="10.4161844"><ele>756.0</ele><time>2026-05-03T15:23:09Z</time></trkpt><trkpt lat="44.1629491" lon="10.416156"><ele>762.3333333333333</ele><time>2026-05-03T15:23:13Z</time></trkpt><trkpt lat="44.1628766" lon="10.4161577"><ele>768.6666666666666</ele><time>2026-05-03T15:23:16Z</time></trkpt><trkpt lat="44.1628123" lon="10.4161781"><ele>775.0</ele><time>2026-05-03T15:23:19Z</time></trkpt><trkpt lat="44.1627396" lon="10.4162222"><ele>774.9999999999999</ele><time>2026-05-03T15:23:22.998Z</time></trkpt><trkpt lat="44.1626736" lon="10.4162777"><ele>775.0</ele><time>2026-05-03T15:23:26.999Z</time></trkpt><trkpt lat="44.1626108" lon="10.4163133"><ele>775.0</ele><time>2026-05-03T15:23:30Z</time></trkpt><trkpt lat="44.1625458" lon="10.4163351"><ele>775.0</ele><time>2026-05-03T15:23:33Z</time></trkpt><trkpt lat="44.1624795" lon="10.416358"><ele>775.0</ele><time>2026-05-03T15:23:36Z</time></trkpt><trkpt lat="44.1624163" lon="10.4163798"><ele>774.9999999999999</ele><time>2026-05-03T15:23:39Z</time></trkpt><trkpt lat="44.16235" lon="10.41641"><ele>775.0</ele><time>2026-05-03T15:23:41.999Z</time></trkpt><trkpt lat="44.1622897" lon="10.4164402"><ele>772.5714285714286</ele><time>2026-05-03T15:23:45Z</time></trkpt><trkpt lat="44.1622288" lon="10.4164715"><ele>770.1428571428571</ele><time>2026-05-03T15:23:48Z</time></trkpt><trkpt lat="44.1621703" lon="10.416504"><ele>767.7142857142858</ele><time>2026-05-03T15:23:51Z</time></trkpt><trkpt lat="44.1621002" lon="10.4164956"><ele>765.2857142857142</ele><time>2026-05-03T15:23:55Z</time></trkpt><trkpt lat="44.1620668" lon="10.4164109"><ele>762.8571428571429</ele><time>2026-05-03T15:23:59Z</time></trkpt><trkpt lat="44.1620157" lon="10.4163453"><ele>760.4285714285714</ele><time>2026-05-03T15:24:02Z</time></trkpt><trkpt lat="44.1619574" lon="10.4162912"><ele>758.0</ele><time>2026-05-03T15:24:05Z</time></trkpt><trkpt lat="44.1618874" lon="10.4162367"><ele>758.0</ele><time>2026-05-03T15:24:08Z</time></trkpt><trkpt lat="44.1618188" lon="10.4161843"><ele>758.0</ele><time>2026-05-03T15:24:10.996Z</time></trkpt><trkpt lat="44.1617481" lon="10.4161385"><ele>758.0</ele><time>2026-05-03T15:24:13.999Z</time></trkpt><trkpt lat="44.1616656" lon="10.4160787"><ele>758.0</ele><time>2026-05-03T15:24:16.999Z</time></trkpt><trkpt lat="44.1616136" lon="10.4160291"><ele>758.0</ele><time>2026-05-03T15:24:18.995Z</time></trkpt><trkpt lat="44.1615366" lon="10.4159519"><ele>758.0</ele><time>2026-05-03T15:24:22Z</time></trkpt><trkpt lat="44.1614898" lon="10.4158903"><ele>756.5714285714287</ele><time>2026-05-03T15:24:24Z</time></trkpt><trkpt lat="44.1614434" lon="10.4158288"><ele>755.1428571428571</ele><time>2026-05-03T15:24:26Z</time></trkpt><trkpt lat="44.1613803" lon="10.4157328"><ele>753.7142857142858</ele><time>2026-05-03T15:24:28.999Z</time></trkpt><trkpt lat="44.1613341" lon="10.4156621"><ele>752.2857142857143</ele><time>2026-05-03T15:24:30.998Z</time></trkpt><trkpt lat="44.1612882" lon="10.415589"><ele>750.8571428571429</ele><time>2026-05-03T15:24:32.995Z</time></trkpt><trkpt lat="44.1612433" lon="10.4155156"><ele>749.4285714285714</ele><time>2026-05-03T15:24:35Z</time></trkpt><trkpt lat="44.1612066" lon="10.4154339"><ele>748.0</ele><time>2026-05-03T15:24:36.999Z</time></trkpt><trkpt lat="44.1611782" lon="10.4153501"><ele>748.0</ele><time>2026-05-03T15:24:38.999Z</time></trkpt><trkpt lat="44.1611495" lon="10.4152677"><ele>748.0</ele><time>2026-05-03T15:24:41Z</time></trkpt><trkpt lat="44.1611245" lon="10.4151857"><ele>748.0</ele><time>2026-05-03T15:24:42.998Z</time></trkpt><trkpt lat="44.1610975" lon="10.4151019"><ele>748.0</ele><time>2026-05-03T15:24:45Z</time></trkpt><trkpt lat="44.161066" lon="10.4150179"><ele>748.0</ele><time>2026-05-03T15:24:47Z</time></trkpt><trkpt lat="44.1610374" lon="10.4149308"><ele>748.0</ele><time>2026-05-03T15:24:48.999Z</time></trkpt><trkpt lat="44.1610178" lon="10.4148268"><ele>748.0</ele><time>2026-05-03T15:24:52Z</time></trkpt><trkpt lat="44.1609843" lon="10.414912"><ele>748.0</ele><time>2026-05-03T15:24:58Z</time></trkpt><trkpt lat="44.1610089" lon="10.4150191"><ele>748.0</ele><time>2026-05-03T15:25:00Z</time></trkpt><trkpt lat="44.1610553" lon="10.4151654"><ele>748.0</ele><time>2026-05-03T15:25:01.999Z</time></trkpt><trkpt lat="44.1611088" lon="10.41533"><ele>748.0</ele><time>2026-05-03T15:25:04Z</time></trkpt><trkpt lat="44.1611421" lon="10.4154228"><ele>748.0</ele><time>2026-05-03T15:25:05Z</time></trkpt><trkpt lat="44.1611824" lon="10.4155097"><ele>749.6666666666667</ele><time>2026-05-03T15:25:06Z</time></trkpt><trkpt lat="44.1612334" lon="10.4156026"><ele>751.3333333333334</ele><time>2026-05-03T15:25:07Z</time></trkpt><trkpt lat="44.1612933" lon="10.4156913"><ele>753.0</ele><time>2026-05-03T15:25:08Z</time></trkpt><trkpt lat="44.1613541" lon="10.4157838"><ele>754.6666666666666</ele><time>2026-05-03T15:25:09Z</time></trkpt><trkpt lat="44.1614133" lon="10.4158771"><ele>756.3333333333333</ele><time>2026-05-03T15:25:10Z</time></trkpt><trkpt lat="44.1614769" lon="10.4159687"><ele>758.0</ele><time>2026-05-03T15:25:11Z</time></trkpt><trkpt lat="44.1615502" lon="10.4160479"><ele>758.0</ele><time>2026-05-03T15:25:12Z</time></trkpt><trkpt lat="44.1616332" lon="10.416123"><ele>758.0</ele><time>2026-05-03T15:25:13Z</time></trkpt><trkpt lat="44.161723" lon="10.4161879"><ele>758.0</ele><time>2026-05-03T15:25:14Z</time></trkpt><trkpt lat="44.1618185" lon="10.4162485"><ele>758.0</ele><time>2026-05-03T15:25:14.999Z</time></trkpt><trkpt lat="44.161905" lon="10.4162957"><ele>758.0</ele><time>2026-05-03T15:25:16Z</time></trkpt><trkpt lat="44.161973" lon="10.4163378"><ele>753.2</ele><time>2026-05-03T15:25:17Z</time></trkpt><trkpt lat="44.1620358" lon="10.4164592"><ele>748.4</ele><time>2026-05-03T15:25:19Z</time></trkpt><trkpt lat="44.1619632" lon="10.4165539"><ele>743.6</ele><time>2026-05-03T15:25:21Z</time></trkpt><trkpt lat="44.161846" lon="10.41651"><ele>738.8000000000001</ele><time>2026-05-03T15:25:23Z</time></trkpt><trkpt lat="44.1617882" lon="10.4164579"><ele>734.0</ele><time>2026-05-03T15:25:24Z</time></trkpt><trkpt lat="44.1617275" lon="10.4164098"><ele>734.0</ele><time>2026-05-03T15:25:25Z</time></trkpt><trkpt lat="44.1616605" lon="10.4163693"><ele>734.0</ele><time>2026-05-03T15:25:26Z</time></trkpt><trkpt lat="44.1615916" lon="10.4163062"><ele>734.0</ele><time>2026-05-03T15:25:26.999Z</time></trkpt><trkpt lat="44.1615206" lon="10.4162479"><ele>734.0</ele><time>2026-05-03T15:25:28Z</time></trkpt><trkpt lat="44.1614519" lon="10.4161864"><ele>734.0</ele><time>2026-05-03T15:25:29Z</time></trkpt><trkpt lat="44.1613815" lon="10.416115"><ele>734.0</ele><time>2026-05-03T15:25:30Z</time></trkpt><trkpt lat="44.161314" lon="10.4160301"><ele>731.8000000000001</ele><time>2026-05-03T15:25:31Z</time></trkpt><trkpt lat="44.1612487" lon="10.4159332"><ele>729.6</ele><time>2026-05-03T15:25:31.999Z</time></trkpt><trkpt lat="44.1611835" lon="10.4158354"><ele>727.4</ele><time>2026-05-03T15:25:33Z</time></trkpt><trkpt lat="44.1611166" lon="10.4157365"><ele>725.2</ele><time>2026-05-03T15:25:34Z</time></trkpt><trkpt lat="44.1610482" lon="10.4156361"><ele>723.0</ele><time>2026-05-03T15:25:35Z</time></trkpt><trkpt lat="44.1609777" lon="10.4155323"><ele>723.2</ele><time>2026-05-03T15:25:36Z</time></trkpt><trkpt lat="44.1609033" lon="10.4154293"><ele>723.4</ele><time>2026-05-03T15:25:37Z</time></trkpt><trkpt lat="44.160821" lon="10.4153273"><ele>723.6</ele><time>2026-05-03T15:25:38Z</time></trkpt><trkpt lat="44.1607359" lon="10.4152289"><ele>723.8000000000001</ele><time>2026-05-03T15:25:39Z</time></trkpt><trkpt lat="44.1606509" lon="10.4151389"><ele>724.0</ele><time>2026-05-03T15:25:40Z</time></trkpt><trkpt lat="44.1605703" lon="10.4150617"><ele>724.0</ele><time>2026-05-03T15:25:41Z</time></trkpt><trkpt lat="44.1604817" lon="10.4150107"><ele>724.0</ele><time>2026-05-03T15:25:41.999Z</time></trkpt><trkpt lat="44.1603914" lon="10.414986"><ele>724.0</ele><time>2026-05-03T15:25:43Z</time></trkpt><trkpt lat="44.1602925" lon="10.4149844"><ele>724.0</ele><time>2026-05-03T15:25:44Z</time></trkpt><trkpt lat="44.1601873" lon="10.4150024"><ele>724.0</ele><time>2026-05-03T15:25:45Z</time></trkpt><trkpt lat="44.1600828" lon="10.4150262"><ele>724.0</ele><time>2026-05-03T15:25:46Z</time></trkpt><trkpt lat="44.1599861" lon="10.4150473"><ele>724.0</ele><time>2026-05-03T15:25:47Z</time></trkpt><trkpt lat="44.1598919" lon="10.415063"><ele>724.0</ele><time>2026-05-03T15:25:47.999Z</time></trkpt><trkpt lat="44.1598026" lon="10.4150605"><ele>724.0</ele><time>2026-05-03T15:25:49Z</time></trkpt><trkpt lat="44.1597145" lon="10.4150277"><ele>724.0</ele><time>2026-05-03T15:25:50Z</time></trkpt><trkpt lat="44.1596392" lon="10.4149725"><ele>721.1666666666667</ele><time>2026-05-03T15:25:51Z</time></trkpt><trkpt lat="44.1595814" lon="10.4148732"><ele>718.3333333333334</ele><time>2026-05-03T15:25:52Z</time></trkpt><trkpt lat="44.1595425" lon="10.414768"><ele>715.5</ele><time>2026-05-03T15:25:53Z</time></trkpt><trkpt lat="44.1595108" lon="10.4146628"><ele>712.6666666666666</ele><time>2026-05-03T15:25:54Z</time></trkpt><trkpt lat="44.1595096" lon="10.4145446"><ele>709.8333333333333</ele><time>2026-05-03T15:25:54.999Z</time></trkpt><trkpt lat="44.1595409" lon="10.4144285"><ele>707.0</ele><time>2026-05-03T15:25:55.999Z</time></trkpt><trkpt lat="44.1595843" lon="10.4143162"><ele>707.0</ele><time>2026-05-03T15:25:57Z</time></trkpt><trkpt lat="44.1596455" lon="10.4142205"><ele>707.0</ele><time>2026-05-03T15:25:58Z</time></trkpt><trkpt lat="44.1597087" lon="10.4141206"><ele>707.0</ele><time>2026-05-03T15:25:59Z</time></trkpt><trkpt lat="44.1597623" lon="10.4140059"><ele>707.0</ele><time>2026-05-03T15:26:00Z</time></trkpt><trkpt lat="44.1598105" lon="10.4138802"><ele>707.0</ele><time>2026-05-03T15:26:01Z</time></trkpt><trkpt lat="44.159837" lon="10.4137344"><ele>706.4000000000001</ele><time>2026-05-03T15:26:02Z</time></trkpt><trkpt lat="44.1598515" lon="10.4135854"><ele>705.8000000000001</ele><time>2026-05-03T15:26:03Z</time></trkpt><trkpt lat="44.1598601" lon="10.4134228"><ele>705.2</ele><time>2026-05-03T15:26:04Z</time></trkpt><trkpt lat="44.1598725" lon="10.413274"><ele>704.6</ele><time>2026-05-03T15:26:05Z</time></trkpt><trkpt lat="44.1598967" lon="10.4131403"><ele>704.0</ele><time>2026-05-03T15:26:06Z</time></trkpt><trkpt lat="44.1599447" lon="10.4130158"><ele>704.0</ele><time>2026-05-03T15:26:07Z</time></trkpt><trkpt lat="44.1600084" lon="10.412902"><ele>704.0</ele><time>2026-05-03T15:26:08Z</time></trkpt><trkpt lat="44.1600807" lon="10.4128003"><ele>704.0</ele><time>2026-05-03T15:26:09Z</time></trkpt><trkpt lat="44.1601586" lon="10.4127102"><ele>704.0</ele><time>2026-05-03T15:26:10Z</time></trkpt><trkpt lat="44.1602453" lon="10.4126527"><ele>704.0</ele><time>2026-05-03T15:26:11Z</time></trkpt><trkpt lat="44.1603318" lon="10.4126201"><ele>704.0</ele><time>2026-05-03T15:26:12Z</time></trkpt><trkpt lat="44.1604249" lon="10.4126137"><ele>704.0</ele><time>2026-05-03T15:26:13Z</time></trkpt><trkpt lat="44.16052" lon="10.4126501"><ele>704.0</ele><time>2026-05-03T15:26:14Z</time></trkpt><trkpt lat="44.1606168" lon="10.4126921"><ele>704.0</ele><time>2026-05-03T15:26:14.999Z</time></trkpt><trkpt lat="44.1607175" lon="10.412726"><ele>704.0</ele><time>2026-05-03T15:26:16Z</time></trkpt><trkpt lat="44.1608205" lon="10.4127467"><ele>704.8000000000001</ele><time>2026-05-03T15:26:16.999Z</time></trkpt><trkpt lat="44.1609281" lon="10.412757"><ele>705.6</ele><time>2026-05-03T15:26:17.999Z</time></trkpt><trkpt lat="44.1610341" lon="10.4127439"><ele>706.4</ele><time>2026-05-03T15:26:19Z</time></trkpt><trkpt lat="44.1611416" lon="10.4127255"><ele>707.2</ele><time>2026-05-03T15:26:19.999Z</time></trkpt><trkpt lat="44.1612429" lon="10.4126926"><ele>708.0</ele><time>2026-05-03T15:26:21Z</time></trkpt><trkpt lat="44.1613283" lon="10.4126439"><ele>708.0</ele><time>2026-05-03T15:26:22Z</time></trkpt><trkpt lat="44.1613929" lon="10.4125713"><ele>708.0</ele><time>2026-05-03T15:26:22.999Z</time></trkpt><trkpt lat="44.1614463" lon="10.4124678"><ele>708.0</ele><time>2026-05-03T15:26:24Z</time></trkpt><trkpt lat="44.1614944" lon="10.4123551"><ele>708.0</ele><time>2026-05-03T15:26:25Z</time></trkpt><trkpt lat="44.1615386" lon="10.4122374"><ele>708.0</ele><time>2026-05-03T15:26:26Z</time></trkpt><trkpt lat="44.1615836" lon="10.4121205"><ele>704.6666666666666</ele><time>2026-05-03T15:26:27Z</time></trkpt><trkpt lat="44.1616357" lon="10.412009"><ele>701.3333333333334</ele><time>2026-05-03T15:26:27.999Z</time></trkpt><trkpt lat="44.1616849" lon="10.4119089"><ele>698.0</ele><time>2026-05-03T15:26:28.999Z</time></trkpt><trkpt lat="44.1617253" lon="10.4118161"><ele>694.6666666666667</ele><time>2026-05-03T15:26:30Z</time></trkpt><trkpt lat="44.1617572" lon="10.4117358"><ele>691.3333333333334</ele><time>2026-05-03T15:26:30.999Z</time></trkpt><trkpt lat="44.1617752" lon="10.4115895"><ele>688.0</ele><time>2026-05-03T15:26:32.999Z</time></trkpt><trkpt lat="44.1617115" lon="10.4115502"><ele>688.0</ele><time>2026-05-03T15:26:34Z</time></trkpt><trkpt lat="44.1615975" lon="10.4115875"><ele>688.0</ele><time>2026-05-03T15:26:36Z</time></trkpt><trkpt lat="44.161525" lon="10.4117395"><ele>688.0</ele><time>2026-05-03T15:26:37.999Z</time></trkpt><trkpt lat="44.1614872" lon="10.4118188"><ele>688.0</ele><time>2026-05-03T15:26:39Z</time></trkpt><trkpt lat="44.1614479" lon="10.4119011"><ele>688.0</ele><time>2026-05-03T15:26:40Z</time></trkpt><trkpt lat="44.1614016" lon="10.4119837"><ele>686.5714285714287</ele><time>2026-05-03T15:26:41Z</time></trkpt><trkpt lat="44.1613613" lon="10.4120729"><ele>685.1428571428571</ele><time>2026-05-03T15:26:42Z</time></trkpt><trkpt lat="44.1613162" lon="10.4121672"><ele>683.7142857142858</ele><time>2026-05-03T15:26:43Z</time></trkpt><trkpt lat="44.1612641" lon="10.4122305"><ele>682.2857142857143</ele><time>2026-05-03T15:26:44Z</time></trkpt><trkpt lat="44.1611983" lon="10.4122663"><ele>680.8571428571429</ele><time>2026-05-03T15:26:45Z</time></trkpt><trkpt lat="44.1611285" lon="10.4122715"><ele>679.4285714285714</ele><time>2026-05-03T15:26:46Z</time></trkpt><trkpt lat="44.1610537" lon="10.4122528"><ele>678.0</ele><time>2026-05-03T15:26:47Z</time></trkpt><trkpt lat="44.1609846" lon="10.4121985"><ele>678.0</ele><time>2026-05-03T15:26:47.999Z</time></trkpt><trkpt lat="44.1609202" lon="10.4121388"><ele>678.0</ele><time>2026-05-03T15:26:49Z</time></trkpt><trkpt lat="44.1608496" lon="10.4120856"><ele>678.0</ele><time>2026-05-03T15:26:50Z</time></trkpt><trkpt lat="44.1607764" lon="10.4120238"><ele>678.0</ele><time>2026-05-03T15:26:51Z</time></trkpt><trkpt lat="44.1607051" lon="10.4119596"><ele>678.0</ele><time>2026-05-03T15:26:52Z</time></trkpt><trkpt lat="44.1606317" lon="10.4118909"><ele>678.0</ele><time>2026-05-03T15:26:52.998Z</time></trkpt><trkpt lat="44.1605538" lon="10.4118329"><ele>678.5999999999999</ele><time>2026-05-03T15:26:54Z</time></trkpt><trkpt lat="44.1604728" lon="10.4117909"><ele>679.1999999999999</ele><time>2026-05-03T15:26:55Z</time></trkpt><trkpt lat="44.1603907" lon="10.4117738"><ele>679.8</ele><time>2026-05-03T15:26:55.999Z</time></trkpt><trkpt lat="44.1602959" lon="10.411773"><ele>680.4</ele><time>2026-05-03T15:26:57Z</time></trkpt><trkpt lat="44.160204" lon="10.4117786"><ele>681.0</ele><time>2026-05-03T15:26:58Z</time></trkpt><trkpt lat="44.1601053" lon="10.4117895"><ele>681.0</ele><time>2026-05-03T15:26:59Z</time></trkpt><trkpt lat="44.1600037" lon="10.4117861"><ele>681.0</ele><time>2026-05-03T15:27:00Z</time></trkpt><trkpt lat="44.159899" lon="10.4117555"><ele>681.0</ele><time>2026-05-03T15:27:01Z</time></trkpt><trkpt lat="44.1597987" lon="10.411706"><ele>681.0</ele><time>2026-05-03T15:27:01.999Z</time></trkpt><trkpt lat="44.1596999" lon="10.4116506"><ele>681.0</ele><time>2026-05-03T15:27:03Z</time></trkpt><trkpt lat="44.1596002" lon="10.4115909"><ele>680.1999999999999</ele><time>2026-05-03T15:27:04Z</time></trkpt><trkpt lat="44.159501" lon="10.4115419"><ele>679.4</ele><time>2026-05-03T15:27:05Z</time></trkpt><trkpt lat="44.1593927" lon="10.4115206"><ele>678.6</ele><time>2026-05-03T15:27:06Z</time></trkpt><trkpt lat="44.1592854" lon="10.4115384"><ele>677.8</ele><time>2026-05-03T15:27:07Z</time></trkpt><trkpt lat="44.159199" lon="10.411588"><ele>677.0</ele><time>2026-05-03T15:27:08Z</time></trkpt><trkpt lat="44.1591155" lon="10.4116826"><ele>672.2</ele><time>2026-05-03T15:27:09Z</time></trkpt><trkpt lat="44.1590196" lon="10.4117737"><ele>667.4000000000001</ele><time>2026-05-03T15:27:09.999Z</time></trkpt><trkpt lat="44.1589279" lon="10.4118653"><ele>662.5999999999999</ele><time>2026-05-03T15:27:11Z</time></trkpt><trkpt lat="44.1588423" lon="10.4119386"><ele>657.8</ele><time>2026-05-03T15:27:12Z</time></trkpt><trkpt lat="44.1587618" lon="10.4120326"><ele>653.0</ele><time>2026-05-03T15:27:13Z</time></trkpt><trkpt lat="44.1586906" lon="10.412147"><ele>655.8</ele><time>2026-05-03T15:27:14Z</time></trkpt><trkpt lat="44.1586318" lon="10.4122716"><ele>658.5999999999999</ele><time>2026-05-03T15:27:15Z</time></trkpt><trkpt lat="44.158578" lon="10.4124003"><ele>661.4000000000001</ele><time>2026-05-03T15:27:16Z</time></trkpt><trkpt lat="44.1585197" lon="10.4125217"><ele>664.2</ele><time>2026-05-03T15:27:16.999Z</time></trkpt><trkpt lat="44.1584512" lon="10.4126332"><ele>667.0</ele><time>2026-05-03T15:27:18Z</time></trkpt><trkpt lat="44.1583716" lon="10.4127356"><ele>667.0</ele><time>2026-05-03T15:27:19Z</time></trkpt><trkpt lat="44.1582862" lon="10.4128234"><ele>667.0</ele><time>2026-05-03T15:27:20Z</time></trkpt><trkpt lat="44.158224" lon="10.4129325"><ele>667.0</ele><time>2026-05-03T15:27:20.999Z</time></trkpt><trkpt lat="44.1581665" lon="10.4130594"><ele>667.0</ele><time>2026-05-03T15:27:22Z</time></trkpt><trkpt lat="44.158121" lon="10.4131796"><ele>667.0</ele><time>2026-05-03T15:27:23Z</time></trkpt><trkpt lat="44.1580827" lon="10.4132811"><ele>667.2857142857143</ele><time>2026-05-03T15:27:23.999Z</time></trkpt><trkpt lat="44.1580359" lon="10.4133623"><ele>667.5714285714286</ele><time>2026-05-03T15:27:25Z</time></trkpt><trkpt lat="44.1579755" lon="10.4134064"><ele>667.8571428571429</ele><time>2026-05-03T15:27:26Z</time></trkpt><trkpt lat="44.1579042" lon="10.4134248"><ele>668.1428571428571</ele><time>2026-05-03T15:27:26.999Z</time></trkpt><trkpt lat="44.157828" lon="10.4134186"><ele>668.4285714285714</ele><time>2026-05-03T15:27:28Z</time></trkpt><trkpt lat="44.1577523" lon="10.4133942"><ele>668.7142857142858</ele><time>2026-05-03T15:27:28.999Z</time></trkpt><trkpt lat="44.1576747" lon="10.4133687"><ele>669.0</ele><time>2026-05-03T15:27:30Z</time></trkpt><trkpt lat="44.1575898" lon="10.4133424"><ele>669.0</ele><time>2026-05-03T15:27:30.999Z</time></trkpt><trkpt lat="44.1575024" lon="10.4133159"><ele>669.0</ele><time>2026-05-03T15:27:32Z</time></trkpt><trkpt lat="44.1574108" lon="10.4132868"><ele>669.0</ele><time>2026-05-03T15:27:32.999Z</time></trkpt><trkpt lat="44.1573161" lon="10.4132654"><ele>669.0</ele><time>2026-05-03T15:27:34Z</time></trkpt><trkpt lat="44.1572184" lon="10.4132417"><ele>669.0</ele><time>2026-05-03T15:27:35Z</time></trkpt><trkpt lat="44.1571237" lon="10.4132237"><ele>668.4000000000001</ele><time>2026-05-03T15:27:36Z</time></trkpt><trkpt lat="44.1570268" lon="10.4132104"><ele>667.8</ele><time>2026-05-03T15:27:37Z</time></trkpt><trkpt lat="44.1569278" lon="10.4131998"><ele>667.2</ele><time>2026-05-03T15:27:38Z</time></trkpt><trkpt lat="44.1568244" lon="10.4131872"><ele>666.5999999999999</ele><time>2026-05-03T15:27:39Z</time></trkpt><trkpt lat="44.1567156" lon="10.4131724"><ele>666.0</ele><time>2026-05-03T15:27:40Z</time></trkpt><trkpt lat="44.1566051" lon="10.4131527"><ele>665.1999999999999</ele><time>2026-05-03T15:27:41Z</time></trkpt><trkpt lat="44.1564971" lon="10.4131283"><ele>664.4</ele><time>2026-05-03T15:27:41.999Z</time></trkpt><trkpt lat="44.1563871" lon="10.4131016"><ele>663.6</ele><time>2026-05-03T15:27:43Z</time></trkpt><trkpt lat="44.1562748" lon="10.4130765"><ele>662.8</ele><time>2026-05-03T15:27:43.999Z</time></trkpt><trkpt lat="44.156161" lon="10.4130616"><ele>662.0</ele><time>2026-05-03T15:27:45Z</time></trkpt><trkpt lat="44.1560505" lon="10.4130539"><ele>662.0</ele><time>2026-05-03T15:27:46Z</time></trkpt><trkpt lat="44.1559421" lon="10.4130487"><ele>662.0</ele><time>2026-05-03T15:27:47Z</time></trkpt><trkpt lat="44.1558266" lon="10.4130444"><ele>662.0</ele><time>2026-05-03T15:27:47.999Z</time></trkpt><trkpt lat="44.155719" lon="10.413038"><ele>662.0</ele><time>2026-05-03T15:27:49Z</time></trkpt><trkpt lat="44.1556109" lon="10.4130175"><ele>662.0</ele><time>2026-05-03T15:27:50Z</time></trkpt><trkpt lat="44.1555087" lon="10.4129799"><ele>658.4000000000001</ele><time>2026-05-03T15:27:51Z</time></trkpt><trkpt lat="44.1554142" lon="10.4129357"><ele>654.8000000000001</ele><time>2026-05-03T15:27:51.999Z</time></trkpt><trkpt lat="44.1553251" lon="10.4129123"><ele>651.2</ele><time>2026-05-03T15:27:52.999Z</time></trkpt><trkpt lat="44.1552285" lon="10.4129112"><ele>647.6</ele><time>2026-05-03T15:27:54Z</time></trkpt><trkpt lat="44.1551397" lon="10.4129355"><ele>644.0</ele><time>2026-05-03T15:27:54.999Z</time></trkpt><trkpt lat="44.1550433" lon="10.4129903"><ele>644.0</ele><time>2026-05-03T15:27:56Z</time></trkpt><trkpt lat="44.1549487" lon="10.4130484"><ele>644.0</ele><time>2026-05-03T15:27:57Z</time></trkpt><trkpt lat="44.1548563" lon="10.4130979"><ele>644.0</ele><time>2026-05-03T15:27:57.995Z</time></trkpt><trkpt lat="44.1547702" lon="10.4131596"><ele>644.0</ele><time>2026-05-03T15:27:58.995Z</time></trkpt><trkpt lat="44.154705" lon="10.4132311"><ele>644.0</ele><time>2026-05-03T15:28:00Z</time></trkpt><trkpt lat="44.1546587" lon="10.4133313"><ele>640.4000000000001</ele><time>2026-05-03T15:28:01Z</time></trkpt><trkpt lat="44.1546214" lon="10.4134518"><ele>636.8000000000001</ele><time>2026-05-03T15:28:01.999Z</time></trkpt><trkpt lat="44.1546036" lon="10.4135695"><ele>633.2</ele><time>2026-05-03T15:28:03Z</time></trkpt><trkpt lat="44.1545891" lon="10.4137038"><ele>629.6</ele><time>2026-05-03T15:28:04Z</time></trkpt><trkpt lat="44.1545622" lon="10.4138296"><ele>626.0</ele><time>2026-05-03T15:28:04.996Z</time></trkpt><trkpt lat="44.1545241" lon="10.4139349"><ele>626.0</ele><time>2026-05-03T15:28:05.998Z</time></trkpt><trkpt lat="44.1544717" lon="10.4140199"><ele>626.0</ele><time>2026-05-03T15:28:06.999Z</time></trkpt><trkpt lat="44.1543929" lon="10.414094"><ele>626.0</ele><time>2026-05-03T15:28:07.997Z</time></trkpt><trkpt lat="44.1543089" lon="10.4141606"><ele>626.0</ele><time>2026-05-03T15:28:09Z</time></trkpt><trkpt lat="44.1542166" lon="10.4142279"><ele>626.0</ele><time>2026-05-03T15:28:09.995Z</time></trkpt><trkpt lat="44.1541273" lon="10.4142983"><ele>622.2</ele><time>2026-05-03T15:28:11Z</time></trkpt><trkpt lat="44.1540381" lon="10.4143698"><ele>618.4000000000001</ele><time>2026-05-03T15:28:12Z</time></trkpt><trkpt lat="44.1539474" lon="10.4144418"><ele>614.6</ele><time>2026-05-03T15:28:13Z</time></trkpt><trkpt lat="44.1538553" lon="10.4145202"><ele>610.8000000000001</ele><time>2026-05-03T15:28:13.999Z</time></trkpt><trkpt lat="44.1537617" lon="10.4145923"><ele>607.0</ele><time>2026-05-03T15:28:15Z</time></trkpt><trkpt lat="44.1536995" lon="10.4146413"><ele>607.0</ele><time>2026-05-03T15:28:16Z</time></trkpt><trkpt lat="44.1536433" lon="10.4146879"><ele>607.0</ele><time>2026-05-03T15:28:17Z</time></trkpt><trkpt lat="44.1535622" lon="10.4146984"><ele>607.0</ele><time>2026-05-03T15:28:18.998Z</time></trkpt><trkpt lat="44.1535613" lon="10.4145895"><ele>607.0</ele><time>2026-05-03T15:28:21Z</time></trkpt><trkpt lat="44.1536338" lon="10.4144992"><ele>607.0</ele><time>2026-05-03T15:28:23Z</time></trkpt><trkpt lat="44.1537293" lon="10.4143986"><ele>607.0</ele><time>2026-05-03T15:28:25Z</time></trkpt><trkpt lat="44.1537784" lon="10.4143425"><ele>607.0</ele><time>2026-05-03T15:28:25.999Z</time></trkpt><trkpt lat="44.1538306" lon="10.4142796"><ele>607.0</ele><time>2026-05-03T15:28:26.999Z</time></trkpt><trkpt lat="44.1538872" lon="10.4142209"><ele>607.0</ele><time>2026-05-03T15:28:28Z</time></trkpt><trkpt lat="44.1539449" lon="10.4141553"><ele>607.0</ele><time>2026-05-03T15:28:29Z</time></trkpt><trkpt lat="44.15401" lon="10.4140849"><ele>607.0</ele><time>2026-05-03T15:28:29.997Z</time></trkpt><trkpt lat="44.1540763" lon="10.4140119"><ele>607.0</ele><time>2026-05-03T15:28:31Z</time></trkpt><trkpt lat="44.1541405" lon="10.4139395"><ele>608.0</ele><time>2026-05-03T15:28:32Z</time></trkpt><trkpt lat="44.1542024" lon="10.4138532"><ele>609.0</ele><time>2026-05-03T15:28:33Z</time></trkpt><trkpt lat="44.1542489" lon="10.4137518"><ele>610.0</ele><time>2026-05-03T15:28:34Z</time></trkpt><trkpt lat="44.1542811" lon="10.4136288"><ele>611.0</ele><time>2026-05-03T15:28:35Z</time></trkpt><trkpt lat="44.1542919" lon="10.4134989"><ele>612.0</ele><time>2026-05-03T15:28:36Z</time></trkpt><trkpt lat="44.1543054" lon="10.4133661"><ele>612.0</ele><time>2026-05-03T15:28:36.999Z</time></trkpt><trkpt lat="44.1543209" lon="10.4132374"><ele>612.0</ele><time>2026-05-03T15:28:38Z</time></trkpt><trkpt lat="44.1543337" lon="10.4131214"><ele>612.0</ele><time>2026-05-03T15:28:38.999Z</time></trkpt><trkpt lat="44.1543709" lon="10.4130114"><ele>612.0</ele><time>2026-05-03T15:28:40Z</time></trkpt><trkpt lat="44.1544217" lon="10.4128982"><ele>612.0</ele><time>2026-05-03T15:28:41Z</time></trkpt><trkpt lat="44.154479" lon="10.412792"><ele>608.0</ele><time>2026-05-03T15:28:42Z</time></trkpt><trkpt lat="44.1545351" lon="10.412689"><ele>604.0</ele><time>2026-05-03T15:28:43Z</time></trkpt><trkpt lat="44.1545953" lon="10.4125806"><ele>600.0</ele><time>2026-05-03T15:28:44Z</time></trkpt><trkpt lat="44.154662" lon="10.4124559"><ele>596.0</ele><time>2026-05-03T15:28:45Z</time></trkpt><trkpt lat="44.1547381" lon="10.4123382"><ele>592.0</ele><time>2026-05-03T15:28:46Z</time></trkpt><trkpt lat="44.1548084" lon="10.4122224"><ele>591.4</ele><time>2026-05-03T15:28:47Z</time></trkpt><trkpt lat="44.1548762" lon="10.4121166"><ele>590.8000000000001</ele><time>2026-05-03T15:28:48Z</time></trkpt><trkpt lat="44.1549541" lon="10.4120304"><ele>590.2</ele><time>2026-05-03T15:28:49Z</time></trkpt><trkpt lat="44.155035" lon="10.4119705"><ele>589.6</ele><time>2026-05-03T15:28:49.999Z</time></trkpt><trkpt lat="44.1551163" lon="10.4119352"><ele>589.0</ele><time>2026-05-03T15:28:50.999Z</time></trkpt><trkpt lat="44.1552082" lon="10.4119257"><ele>589.0</ele><time>2026-05-03T15:28:52Z</time></trkpt><trkpt lat="44.1553063" lon="10.4119272"><ele>589.0</ele><time>2026-05-03T15:28:53Z</time></trkpt><trkpt lat="44.1554059" lon="10.4119338"><ele>589.0</ele><time>2026-05-03T15:28:54Z</time></trkpt><trkpt lat="44.1555069" lon="10.4119444"><ele>589.0</ele><time>2026-05-03T15:28:55Z</time></trkpt><trkpt lat="44.1556084" lon="10.411955"><ele>589.0</ele><time>2026-05-03T15:28:56Z</time></trkpt><trkpt lat="44.1557102" lon="10.4119578"><ele>591.2</ele><time>2026-05-03T15:28:57Z</time></trkpt><trkpt lat="44.1558164" lon="10.4119554"><ele>593.4</ele><time>2026-05-03T15:28:57.999Z</time></trkpt><trkpt lat="44.155921" lon="10.4119221"><ele>595.6</ele><time>2026-05-03T15:28:59Z</time></trkpt><trkpt lat="44.1560246" lon="10.4118712"><ele>597.8</ele><time>2026-05-03T15:29:00Z</time></trkpt><trkpt lat="44.1561221" lon="10.4117936"><ele>600.0</ele><time>2026-05-03T15:29:01Z</time></trkpt><trkpt lat="44.1562136" lon="10.4116983"><ele>600.0</ele><time>2026-05-03T15:29:02Z</time></trkpt><trkpt lat="44.1562976" lon="10.4115855"><ele>600.0</ele><time>2026-05-03T15:29:03Z</time></trkpt><trkpt lat="44.1563821" lon="10.4114744"><ele>600.0</ele><time>2026-05-03T15:29:03.998Z</time></trkpt><trkpt lat="44.1564701" lon="10.4113639"><ele>600.0</ele><time>2026-05-03T15:29:05Z</time></trkpt><trkpt lat="44.1565578" lon="10.4112512"><ele>597.5</ele><time>2026-05-03T15:29:06Z</time></trkpt><trkpt lat="44.1566402" lon="10.4111466"><ele>595.0</ele><time>2026-05-03T15:29:06.999Z</time></trkpt><trkpt lat="44.1567123" lon="10.4110554"><ele>592.5</ele><time>2026-05-03T15:29:08Z</time></trkpt><trkpt lat="44.1567776" lon="10.4109741"><ele>590.0</ele><time>2026-05-03T15:29:09Z</time></trkpt><trkpt lat="44.1568306" lon="10.4108978"><ele>587.5</ele><time>2026-05-03T15:29:10Z</time></trkpt><trkpt lat="44.1568709" lon="10.41083"><ele>585.0</ele><time>2026-05-03T15:29:11Z</time></trkpt><trkpt lat="44.1568975" lon="10.4106894"><ele>585.0</ele><time>2026-05-03T15:29:13Z</time></trkpt><trkpt lat="44.1568444" lon="10.4106321"><ele>585.0</ele><time>2026-05-03T15:29:14Z</time></trkpt><trkpt lat="44.1567201" lon="10.4105941"><ele>585.0</ele><time>2026-05-03T15:29:16Z</time></trkpt><trkpt lat="44.156646" lon="10.4106082"><ele>585.0</ele><time>2026-05-03T15:29:17Z</time></trkpt><trkpt lat="44.156569" lon="10.4106303"><ele>585.0</ele><time>2026-05-03T15:29:17.999Z</time></trkpt><trkpt lat="44.1564901" lon="10.4106599"><ele>585.0</ele><time>2026-05-03T15:29:19Z</time></trkpt><trkpt lat="44.1564149" lon="10.4106965"><ele>583.1666666666666</ele><time>2026-05-03T15:29:20Z</time></trkpt><trkpt lat="44.156334" lon="10.4107311"><ele>581.3333333333334</ele><time>2026-05-03T15:29:21Z</time></trkpt><trkpt lat="44.1562514" lon="10.4107698"><ele>579.5</ele><time>2026-05-03T15:29:21.999Z</time></trkpt><trkpt lat="44.1561688" lon="10.4108079"><ele>577.6666666666667</ele><time>2026-05-03T15:29:23Z</time></trkpt><trkpt lat="44.1560815" lon="10.4108453"><ele>575.8333333333334</ele><time>2026-05-03T15:29:23.999Z</time></trkpt><trkpt lat="44.1559858" lon="10.4108717"><ele>574.0</ele><time>2026-05-03T15:29:25Z</time></trkpt><trkpt lat="44.1558883" lon="10.4108958"><ele>574.0</ele><time>2026-05-03T15:29:26Z</time></trkpt><trkpt lat="44.1557898" lon="10.4109171"><ele>574.0</ele><time>2026-05-03T15:29:27Z</time></trkpt><trkpt lat="44.1556912" lon="10.4109408"><ele>574.0</ele><time>2026-05-03T15:29:28Z</time></trkpt><trkpt lat="44.1555854" lon="10.4109688"><ele>574.0</ele><time>2026-05-03T15:29:29Z</time></trkpt><trkpt lat="44.1554801" lon="10.4109966"><ele>574.0</ele><time>2026-05-03T15:29:29.998Z</time></trkpt><trkpt lat="44.1553775" lon="10.4110293"><ele>572.6</ele><time>2026-05-03T15:29:31Z</time></trkpt><trkpt lat="44.15527" lon="10.4110456"><ele>571.2</ele><time>2026-05-03T15:29:32Z</time></trkpt><trkpt lat="44.1551615" lon="10.4110544"><ele>569.8000000000001</ele><time>2026-05-03T15:29:33Z</time></trkpt><trkpt lat="44.1550522" lon="10.4110601"><ele>568.4</ele><time>2026-05-03T15:29:34Z</time></trkpt><trkpt lat="44.1549397" lon="10.4110685"><ele>567.0</ele><time>2026-05-03T15:29:35Z</time></trkpt><trkpt lat="44.1548282" lon="10.411078"><ele>565.75</ele><time>2026-05-03T15:29:36Z</time></trkpt><trkpt lat="44.1547138" lon="10.4110852"><ele>564.5</ele><time>2026-05-03T15:29:37Z</time></trkpt><trkpt lat="44.1545953" lon="10.4110934"><ele>563.25</ele><time>2026-05-03T15:29:37.998Z</time></trkpt><trkpt lat="44.1544773" lon="10.4111028"><ele>562.0</ele><time>2026-05-03T15:29:38.997Z</time></trkpt><trkpt lat="44.1543606" lon="10.4111191"><ele>562.0</ele><time>2026-05-03T15:29:40Z</time></trkpt><trkpt lat="44.1542393" lon="10.4111463"><ele>562.0</ele><time>2026-05-03T15:29:40.999Z</time></trkpt><trkpt lat="44.1541201" lon="10.4111719"><ele>562.0</ele><time>2026-05-03T15:29:41.999Z</time></trkpt><trkpt lat="44.154001" lon="10.4111987"><ele>562.0</ele><time>2026-05-03T15:29:43Z</time></trkpt><trkpt lat="44.1538848" lon="10.4112266"><ele>559.4</ele><time>2026-05-03T15:29:44Z</time></trkpt><trkpt lat="44.1537715" lon="10.4112533"><ele>556.8000000000001</ele><time>2026-05-03T15:29:45Z</time></trkpt><trkpt lat="44.1536651" lon="10.4112688"><ele>554.2</ele><time>2026-05-03T15:29:46Z</time></trkpt><trkpt lat="44.1535523" lon="10.4112612"><ele>551.6</ele><time>2026-05-03T15:29:47Z</time></trkpt><trkpt lat="44.1534411" lon="10.4112385"><ele>549.0</ele><time>2026-05-03T15:29:47.999Z</time></trkpt><trkpt lat="44.1533274" lon="10.4112026"><ele>549.0</ele><time>2026-05-03T15:29:49Z</time></trkpt><trkpt lat="44.1532146" lon="10.411162"><ele>549.0</ele><time>2026-05-03T15:29:50Z</time></trkpt><trkpt lat="44.1531119" lon="10.4111214"><ele>549.0</ele><time>2026-05-03T15:29:50.999Z</time></trkpt><trkpt lat="44.1530225" lon="10.4110778"><ele>549.0</ele><time>2026-05-03T15:29:51.999Z</time></trkpt><trkpt lat="44.1529433" lon="10.4110361"><ele>549.0</ele><time>2026-05-03T15:29:52.999Z</time></trkpt><trkpt lat="44.1528662" lon="10.4110035"><ele>547.6666666666666</ele><time>2026-05-03T15:29:54Z</time></trkpt><trkpt lat="44.1527922" lon="10.4109838"><ele>546.3333333333334</ele><time>2026-05-03T15:29:55Z</time></trkpt><trkpt lat="44.1527184" lon="10.4109835"><ele>545.0</ele><time>2026-05-03T15:29:55.999Z</time></trkpt><trkpt lat="44.1526465" lon="10.4109931"><ele>543.6666666666667</ele><time>2026-05-03T15:29:57Z</time></trkpt><trkpt lat="44.1525704" lon="10.4110217"><ele>542.3333333333334</ele><time>2026-05-03T15:29:58Z</time></trkpt><trkpt lat="44.1524914" lon="10.411063"><ele>541.0</ele><time>2026-05-03T15:29:59Z</time></trkpt><trkpt lat="44.1524129" lon="10.4111121"><ele>540.8</ele><time>2026-05-03T15:30:00Z</time></trkpt><trkpt lat="44.1523307" lon="10.4111633"><ele>540.6</ele><time>2026-05-03T15:30:01Z</time></trkpt><trkpt lat="44.1522473" lon="10.4112248"><ele>540.4</ele><time>2026-05-03T15:30:02Z</time></trkpt><trkpt lat="44.1521616" lon="10.4112849"><ele>540.2</ele><time>2026-05-03T15:30:03Z</time></trkpt><trkpt lat="44.1520736" lon="10.411349"><ele>540.0</ele><time>2026-05-03T15:30:04Z</time></trkpt><trkpt lat="44.1519877" lon="10.4114108"><ele>540.0</ele><time>2026-05-03T15:30:05Z</time></trkpt><trkpt lat="44.1518957" lon="10.4114745"><ele>540.0</ele><time>2026-05-03T15:30:06Z</time></trkpt><trkpt lat="44.151799" lon="10.4115328"><ele>540.0</ele><time>2026-05-03T15:30:07Z</time></trkpt><trkpt lat="44.1516962" lon="10.4115768"><ele>540.0</ele><time>2026-05-03T15:30:07.998Z</time></trkpt><trkpt lat="44.151594" lon="10.4116039"><ele>540.0</ele><time>2026-05-03T15:30:09Z</time></trkpt><trkpt lat="44.1514985" lon="10.41162"><ele>538.5</ele><time>2026-05-03T15:30:10Z</time></trkpt><trkpt lat="44.1514137" lon="10.4116341"><ele>537.0</ele><time>2026-05-03T15:30:10.995Z</time></trkpt><trkpt lat="44.1513402" lon="10.4116438"><ele>535.5</ele><time>2026-05-03T15:30:11.997Z</time></trkpt><trkpt lat="44.151274" lon="10.4116545"><ele>534.0</ele><time>2026-05-03T15:30:12.996Z</time></trkpt><trkpt lat="44.1511693" lon="10.4116751"><ele>532.5</ele><time>2026-05-03T15:30:14.999Z</time></trkpt><trkpt lat="44.1510816" lon="10.4117002"><ele>531.0</ele><time>2026-05-03T15:30:17Z</time></trkpt><trkpt lat="44.151006" lon="10.4117062"><ele>531.0</ele><time>2026-05-03T15:30:18.995Z</time></trkpt><trkpt lat="44.1509389" lon="10.4117017"><ele>531.0</ele><time>2026-05-03T15:30:22Z</time></trkpt><trkpt lat="44.1508991" lon="10.4117852"><ele>531.0</ele><time>2026-05-03T15:30:26Z</time></trkpt><trkpt lat="44.1509525" lon="10.4118595"><ele>531.0</ele><time>2026-05-03T15:30:31Z</time></trkpt><trkpt lat="44.1510238" lon="10.4118985"><ele>531.0</ele><time>2026-05-03T15:30:34.999Z</time></trkpt><trkpt lat="44.1510847" lon="10.4119387"><ele>531.0</ele><time>2026-05-03T15:30:39Z</time></trkpt><trkpt lat="44.1510992" lon="10.4120248"><ele>531.0</ele><time>2026-05-03T15:30:43Z</time></trkpt><trkpt lat="44.151041" lon="10.4120781"><ele>531.0</ele><time>2026-05-03T15:30:48Z</time></trkpt><trkpt lat="44.1509686" lon="10.4120784"><ele>531.0</ele><time>2026-05-03T15:30:51.999Z</time></trkpt><trkpt lat="44.1508983" lon="10.4120858"><ele>531.0</ele><time>2026-05-03T15:30:56Z</time></trkpt><trkpt lat="44.1508354" lon="10.4121272"><ele>531.0</ele><time>2026-05-03T15:31:00Z</time></trkpt><trkpt lat="44.1508098" lon="10.4122224"><ele>531.0</ele><time>2026-05-03T15:31:04.999Z</time></trkpt><trkpt lat="44.1507843" lon="10.4123197"><ele>531.0</ele><time>2026-05-03T15:31:10Z</time></trkpt><trkpt lat="44.1507686" lon="10.4124229"><ele>531.0</ele><time>2026-05-03T15:31:14.998Z</time></trkpt><trkpt lat="44.1507566" lon="10.4125134"><ele>546.0</ele><time>2026-05-03T15:31:21Z</time></trkpt><trkpt lat="44.1507978" lon="10.412588"><ele>546.0</ele><time>2026-05-03T15:32:40.999Z</time></trkpt></trkseg></trk></gpx>